XML Sitemap

This is a XML Sitemap which is supposed to be processed by search engines which follow the XML Sitemap standard like Ask.com, Bing, Google and Yahoo.
It was generated using the WordPress content management system and the Google Sitemap Generator Plugin by Arne Brachhold.
You can find more information about XML sitemaps on sitemaps.org and Google's list of sitemap programs.

URLPriorityChange frequencyLast modified (GMT)
http://eztv.show/116717/heartbreak-island-s02e05-720p-hdtv-x264-fihtv-eztv/60%Monthly2019-02-28 16:08
http://eztv.show/116716/heartbreak-island-s02e05-hdtv-x264-fihtv-eztv/60%Monthly2019-02-28 16:08
http://eztv.show/116715/chicago-fire-s07e16-hdtv-x264-phoenix-eztv/60%Monthly2019-02-28 16:08
http://eztv.show/116714/heartbreak-island-s02e05-480p-x264-msd-eztv/60%Monthly2019-02-28 16:08
http://eztv.show/116713/my-600-lb-life-s07e09-webrip-x264-tbs-eztv/60%Monthly2019-02-28 16:08
http://eztv.show/116712/all-american-s01e13-720p-hdtv-x264-lucidtv-eztv/60%Monthly2019-02-28 16:08
http://eztv.show/116711/skint-britain-friends-without-benefits-s01e03-hdtv-x264-plutonium-eztv/60%Monthly2019-02-28 16:08
http://eztv.show/116710/family-by-the-ton-s02e09-the-andersons-truth-and-temptation-720p-web-eztv/60%Monthly2019-02-28 16:08
http://eztv.show/116709/all-american-s01e13-hdtv-x264-lucidtv-eztv/60%Monthly2019-02-28 16:08
http://eztv.show/116708/skint-britain-friends-without-benefits-s01e03-720p-hdtv-x264-plutonium-eztv/60%Monthly2019-02-28 16:08
http://eztv.show/116707/jeopardy-2019-02-28-720p-hdtv-x264-eztv/60%Monthly2019-02-28 16:08
http://eztv.show/116706/family-by-the-ton-s02e09-the-andersons-truth-and-temptation-web-x264-caffeine-eztv/60%Monthly2019-02-28 16:08
http://eztv.show/116705/my-600-lb-life-s07e09-720p-webrip-x264-tbs-eztv/60%Monthly2019-02-28 16:08
http://eztv.show/116703/family-by-the-ton-s02e09-the-andersons-truth-and-temptation-480p-x264-msd-eztv/60%Monthly2019-02-28 16:08
http://eztv.show/116704/all-american-s01e13-480p-x264-msd-eztv/60%Monthly2019-02-28 16:08
http://eztv.show/116702/match-of-the-day-2019-02-27-hdtv-x264-plutonium-eztv/60%Monthly2019-02-28 16:08
http://eztv.show/116701/match-of-the-day-2019-02-27-720p-hdtv-x264-plutonium-eztv/60%Monthly2019-02-28 16:08
http://eztv.show/116700/my-600-lb-life-s07e09-480p-x264-msd-eztv/60%Monthly2019-02-28 16:08
http://eztv.show/116699/skint-britain-friends-without-benefits-s01e03-480p-x264-msd-eztv/60%Monthly2019-02-28 16:08
http://eztv.show/116698/survivor-s38e02-internal-480p-x264-msd-eztv/60%Monthly2019-02-28 16:08
http://eztv.show/116697/riverdale-us-s03e13-internal-720p-web-h264-bamboozle-eztv/60%Monthly2019-02-28 16:08
http://eztv.show/116696/all-american-2018-s01e13-internal-720p-web-h264-bamboozle-eztv/60%Monthly2019-02-28 16:08
http://eztv.show/116695/match-of-the-day-2019-02-27-480p-x264-msd-eztv/60%Monthly2019-02-28 16:08
http://eztv.show/116694/riverdale-us-s03e13-internal-480p-x264-msd-eztv/60%Monthly2019-02-28 16:08
http://eztv.show/116693/all-american-2018-s01e13-internal-480p-x264-msd-eztv/60%Monthly2019-02-28 16:08
http://eztv.show/116692/fight-of-the-living-dead-s01e02-2160p-webrip-x264-inspirit-eztv/60%Monthly2019-02-28 16:08
http://eztv.show/116691/fight-of-the-living-dead-s01e03-2160p-webrip-x264-inspirit-eztv/60%Monthly2019-02-28 16:08
http://eztv.show/116689/fight-of-the-living-dead-s01e05-2160p-webrip-x264-inspirit-eztv/60%Monthly2019-02-28 16:08
http://eztv.show/116690/fight-of-the-living-dead-s01e04-2160p-webrip-x264-inspirit-eztv/60%Monthly2019-02-28 16:08
http://eztv.show/116688/youre-the-worst-s05e08-webrip-x264-lucidtv-eztv/60%Monthly2019-02-28 16:08
http://eztv.show/116687/chicago-fire-s07e16-720p-hdtv-x265-minx-eztv/60%Monthly2019-02-28 16:08
http://eztv.show/116686/youre-the-worst-s05e08-the-pillars-of-creation-webrip-x264-esc-eztv/60%Monthly2019-02-28 16:08
http://eztv.show/116685/youre-the-worst-s05e08-720p-webrip-x264-lucidtv-eztv/60%Monthly2019-02-28 16:08
http://eztv.show/116684/fight-of-the-living-dead-s01e07-2160p-webrip-x264-inspirit-eztv/60%Monthly2019-02-28 16:08
http://eztv.show/116683/gardening-australia-s30e04-hdtv-x264-cbfm-eztv/60%Monthly2019-02-28 16:08
http://eztv.show/116682/fight-of-the-living-dead-s02e01-2160p-webrip-x264-inspirit-eztv/60%Monthly2019-02-28 16:08
http://eztv.show/116681/modern-family-s10e16-720p-hdtv-x265-minx-eztv/60%Monthly2019-02-28 16:08
http://eztv.show/116679/the-worlds-best-s01e05-web-x264-tbs-eztv/60%Monthly2019-02-28 16:08
http://eztv.show/116680/fight-of-the-living-dead-s02e02-2160p-webrip-x264-inspirit-eztv/60%Monthly2019-02-28 16:08
http://eztv.show/116678/fight-of-the-living-dead-s02e03-2160p-webrip-x264-inspirit-eztv/60%Monthly2019-02-28 16:08
http://eztv.show/116677/better-things-s03e01-webrip-x264-lucidtv-eztv/60%Monthly2019-02-28 16:08
http://eztv.show/116676/fight-of-the-living-dead-s02e04-2160p-webrip-x264-inspirit-eztv/60%Monthly2019-02-28 16:08
http://eztv.show/116675/better-things-s03e01-720p-webrip-x264-lucidtv-eztv/60%Monthly2019-02-28 16:08
http://eztv.show/116674/graveyard-carz-s10e11-duster-in-the-wind-720p-webrip-x264-caffeine-eztv/60%Monthly2019-02-28 16:08
http://eztv.show/116673/graveyard-carz-s10e11-duster-in-the-wind-webrip-x264-caffeine-eztv/60%Monthly2019-02-28 16:08
http://eztv.show/116672/chicago-med-s04e16-720p-web-h264-amcon-eztv/60%Monthly2019-02-28 16:08
http://eztv.show/116671/fight-of-the-living-dead-s02e06-2160p-webrip-x264-inspirit-eztv/60%Monthly2019-02-28 16:08
http://eztv.show/116670/fight-of-the-living-dead-s02e07-2160p-webrip-x264-inspirit-eztv/60%Monthly2019-02-28 16:08
http://eztv.show/116669/american-beauty-star-s02e09-web-h264-tbs-eztv/60%Monthly2019-02-28 16:08
http://eztv.show/116668/fight-of-the-living-dead-s02e08-2160p-webrip-x264-inspirit-eztv/60%Monthly2019-02-28 16:08
http://eztv.show/116667/graveyard-carz-s10e11-duster-in-the-wind-480p-x264-msd-eztv/60%Monthly2019-02-28 16:08
http://eztv.show/116666/youre-the-worst-s05e08-480p-x264-msd-eztv/60%Monthly2019-02-28 16:08
http://eztv.show/116665/house-hunters-s164e13-engaged-couple-crafts-austin-oasis-web-x264-caffeine-eztv/60%Monthly2019-02-28 16:07
http://eztv.show/116664/chicago-fire-s07e16-720p-web-h264-amcon-eztv/60%Monthly2019-02-28 16:07
http://eztv.show/116663/the-worlds-best-s01e05-720p-web-x264-tbs-eztv/60%Monthly2019-02-28 16:07
http://eztv.show/116662/forged-in-fire-s06e04-720p-web-h264-tbs-eztv/60%Monthly2019-02-28 16:07
http://eztv.show/116661/house-hunters-international-s135e01-falling-in-love-with-wroclaw-poland-eztv/60%Monthly2019-02-28 16:07
http://eztv.show/116660/forged-in-fire-s06e04-web-h264-tbs-eztv/60%Monthly2019-02-28 16:07
http://eztv.show/116659/the-worlds-best-s01e05-480p-x264-msd-eztv/60%Monthly2019-02-28 16:07
http://eztv.show/116658/better-things-s03e01-480p-x264-msd-eztv/60%Monthly2019-02-28 16:07
http://eztv.show/116657/tmz-on-tv-2019-02-26-web-x264-tbs-eztv/60%Monthly2019-02-28 16:07
http://eztv.show/116656/tmz-on-tv-2019-02-26-720p-web-x264-tbs-eztv/60%Monthly2019-02-28 16:07
http://eztv.show/116655/i-am-frankie-s02e05-i-am-buggin-hdtv-x264-plutonium-eztv/60%Monthly2019-02-28 16:07
http://eztv.show/116654/im-sorry-s02e08-uncensored-webrip-x264-tbs-eztv/60%Monthly2019-02-28 16:07
http://eztv.show/116653/the-goldbergs-2013-s06e17-internal-720p-web-h264-amrap-eztv/60%Monthly2019-02-28 16:07
http://eztv.show/116652/modern-family-s10e16-internal-720p-web-h264-amrap-eztv/60%Monthly2019-02-28 16:07
http://eztv.show/116651/mini-disco-divas-s01e01-hdtv-x264-plutonium-eztv/60%Monthly2019-02-28 16:07
http://eztv.show/116650/knight-fight-s01e06-web-h264-tbs-eztv/60%Monthly2019-02-28 16:07
http://eztv.show/116649/single-parents-s01e17-internal-720p-web-h264-amrap-eztv/60%Monthly2019-02-28 16:07
http://eztv.show/116648/modern-family-s10e16-internal-480p-x264-msd-eztv/60%Monthly2019-02-28 16:07
http://eztv.show/116647/suits-s08e16-internal-720p-web-x264-amrap-eztv/60%Monthly2019-02-28 16:07
http://eztv.show/116646/project-runway-all-stars-s07e09-720p-web-h264-tbs-eztv/60%Monthly2019-02-28 16:07
http://eztv.show/116645/chicago-fire-s07e16-480p-x264-msd-eztv/60%Monthly2019-02-28 16:07
http://eztv.show/116644/project-runway-all-stars-s07e09-web-h264-tbs-eztv/60%Monthly2019-02-28 16:07
http://eztv.show/116643/american-beauty-star-s02e09-720p-web-h264-tbs-eztv/60%Monthly2019-02-28 16:07
http://eztv.show/116642/chicago-med-s04e16-480p-x264-msd-eztv/60%Monthly2019-02-28 16:07
http://eztv.show/116641/i-am-frankie-s02e04-i-am-taking-a-break-hdtv-x264-plutonium-eztv/60%Monthly2019-02-28 16:07
http://eztv.show/116639/the-goldbergs-2013-s06e17-internal-480p-x264-msd-eztv/60%Monthly2019-02-28 16:07
http://eztv.show/116640/knight-fight-s01e06-720p-web-h264-tbs-eztv/60%Monthly2019-02-28 16:07
http://eztv.show/116638/single-parents-s01e17-internal-480p-x264-msd-eztv/60%Monthly2019-02-28 16:07
http://eztv.show/116636/deadly-class-s01e07-rise-above-720p-amzn-web-dl-ddp5-1-h-264-ntg-eztv/60%Monthly2019-02-28 16:07
http://eztv.show/116637/suits-s08e16-internal-480p-x264-msd-eztv/60%Monthly2019-02-28 16:07
http://eztv.show/116635/i-am-frankie-s02e04-i-am-taking-a-break-720p-hdtv-x264-plutonium-eztv/60%Monthly2019-02-28 16:07
http://eztv.show/116634/i-am-frankie-s02e05-i-am-buggin-720p-hdtv-x264-plutonium-eztv/60%Monthly2019-02-28 16:07
http://eztv.show/116633/im-sorry-s02e08-uncensored-720p-webrip-x264-tbs-eztv/60%Monthly2019-02-28 16:07
http://eztv.show/116632/american-beauty-star-s02e09-480p-x264-msd-eztv/60%Monthly2019-02-28 16:07
http://eztv.show/116631/project-runway-all-stars-s07e09-480p-x264-msd-eztv/60%Monthly2019-02-28 16:07
http://eztv.show/116630/forged-in-fire-s06e04-480p-x264-msd-eztv/60%Monthly2019-02-28 16:07
http://eztv.show/116629/mysteries-at-the-museum-s23e08-scared-to-death-texas-school-blast-hdtv-x264-w4f-eztv/60%Monthly2019-02-28 16:07
http://eztv.show/116628/deadly-class-s01e07-web-x264-phoenix-eztv/60%Monthly2019-02-28 16:07
http://eztv.show/116627/the-real-marigold-on-tour-s03e03-vietnam-hdtv-x264-plutonium-eztv/60%Monthly2019-02-28 16:07
http://eztv.show/116626/the-real-marigold-on-tour-s03e03-vietnam-720p-hdtv-x264-plutonium-eztv/60%Monthly2019-02-28 16:07
http://eztv.show/116625/knight-fight-s01e06-480p-x264-msd-eztv/60%Monthly2019-02-28 16:07
http://eztv.show/116624/tmz-on-tv-2019-02-26-480p-x264-msd-eztv/60%Monthly2019-02-28 16:07
http://eztv.show/116623/gardening-australia-s30e04-720p-hdtv-x264-cbfm-eztv/60%Monthly2019-02-28 16:07
http://eztv.show/116622/im-sorry-s02e08-uncensored-480p-x264-msd-eztv/60%Monthly2019-02-28 16:07
http://eztv.show/116621/the-real-marigold-on-tour-s03e03-vietnam-480p-x264-msd-eztv/60%Monthly2019-02-28 16:07
http://eztv.show/116620/i-am-frankie-s02e04-i-am-taking-a-break-480p-x264-msd-eztv/60%Monthly2019-02-28 16:07
http://eztv.show/116619/mysteries-at-the-museum-s23e08-scared-to-death-texas-school-blast-720p-hdtv-eztv/60%Monthly2019-02-28 16:07
http://eztv.show/116618/gardening-australia-s30e04-480p-x264-msd-eztv/60%Monthly2019-02-28 16:07
http://eztv.show/116617/i-am-frankie-s02e05-i-am-buggin-480p-x264-msd-eztv/60%Monthly2019-02-28 16:07
http://eztv.show/116616/deadly-class-s01e07-720p-web-x265-minx-eztv/60%Monthly2019-02-28 16:07
http://eztv.show/116615/mysteries-at-the-museum-s23e08-scared-to-death-texas-school-blast-480p-x264-msd-eztv/60%Monthly2019-02-28 16:07
http://eztv.show/116614/a-place-to-call-home-s06e08-hdtv-x264-tvd-eztv/60%Monthly2019-02-28 16:07
http://eztv.show/116612/schooled-s01e07-internal-720p-web-h264-bamboozle-eztv/60%Monthly2019-02-28 16:07
http://eztv.show/116613/a-place-to-call-home-s06e08-720p-hdtv-x264-tvd-eztv/60%Monthly2019-02-28 16:07
http://eztv.show/116611/schooled-s01e07-internal-480p-x264-msd-eztv/60%Monthly2019-02-28 16:06
http://eztv.show/116610/whiskey-cavalier-s01e01-pilot-720p-amzn-web-dl-ddp5-1-h-264-ntb-eztv/60%Monthly2019-02-28 16:06
http://eztv.show/116609/the-rachel-maddow-show-2019-02-07-720p-mnbc-web-dl-aac2-0-x264-btw-eztv/60%Monthly2019-02-28 16:06
http://eztv.show/116608/the-rachel-maddow-show-2019-02-14-720p-mnbc-web-dl-aac2-0-x264-btw-eztv/60%Monthly2019-02-28 16:06
http://eztv.show/116607/the-rachel-maddow-show-2019-02-13-720p-mnbc-web-dl-aac2-0-x264-btw-eztv/60%Monthly2019-02-28 16:06
http://eztv.show/116606/chicago-pd-s06e16-internal-720p-web-h264-bamboozle-eztv/60%Monthly2019-02-28 16:06
http://eztv.show/116605/chicago-med-s04e16-web-h264-tbs-eztv/60%Monthly2019-02-28 16:06
http://eztv.show/116604/chicago-fire-s07e16-web-h264-tbs-eztv/60%Monthly2019-02-28 16:06
http://eztv.show/116603/jimmy-kimmel-2019-02-27-adam-carolla-web-h264-tbs-eztv/60%Monthly2019-02-28 16:06
http://eztv.show/116602/jimmy-kimmel-2019-02-27-adam-carolla-720p-web-h264-tbs-eztv/60%Monthly2019-02-28 16:06
http://eztv.show/116601/chicago-pd-s06e16-internal-480p-x264-msd-eztv/60%Monthly2019-02-28 16:06
http://eztv.show/116600/botched-s05e13-720p-web-x264-tbs-eztv/60%Monthly2019-02-28 16:06
http://eztv.show/116599/botched-s05e13-web-x264-tbs-eztv/60%Monthly2019-02-28 16:06
http://eztv.show/116598/jimmy-kimmel-2019-02-27-adam-carolla-480p-x264-msd-eztv/60%Monthly2019-02-28 16:06
http://eztv.show/116597/busy-tonight-2019-02-27-isla-fisher-web-x264-tbs-eztv/60%Monthly2019-02-28 16:06
http://eztv.show/116596/busy-tonight-2019-02-27-isla-fisher-720p-web-x264-tbs-eztv/60%Monthly2019-02-28 16:06
http://eztv.show/116595/botched-s05e13-480p-x264-msd-eztv/60%Monthly2019-02-28 16:06
http://eztv.show/116594/busy-tonight-2019-02-27-isla-fisher-480p-x264-msd-eztv/60%Monthly2019-02-28 16:06
http://eztv.show/116593/the-challenge-s33e04-web-x264-tbs-eztv/60%Monthly2019-02-28 16:06
http://eztv.show/116592/the-challenge-s33e04-720p-web-x264-tbs-eztv/60%Monthly2019-02-28 16:06
http://eztv.show/116591/the-challenge-s33e04-480p-x264-msd-eztv/60%Monthly2019-02-28 16:06
http://eztv.show/116590/deadly-class-s01e07-rise-above-repack-720p-amzn-web-dl-ddp5-1-h-264-ntg-eztv/60%Monthly2019-02-28 16:06
http://eztv.show/116589/the-magicians-2015-s04e06-a-timeline-and-place-720p-amzn-web-dl-ddp5-1-h-264-ntg-eztv/60%Monthly2019-02-28 16:06
http://eztv.show/116588/jimmy-fallon-2019-02-27-jessica-chastain-web-x264-tbs-eztv/60%Monthly2019-02-28 16:06
http://eztv.show/116587/man-with-a-plan-s03e04-adams-wall-hole-bowl-720p-amzn-web-dl-ddp5-1-h-264-ntb-eztv/60%Monthly2019-02-28 16:06
http://eztv.show/116586/jimmy-fallon-2019-02-27-jessica-chastain-720p-web-x264-tbs-eztv/60%Monthly2019-02-28 16:06
http://eztv.show/116585/jimmy-fallon-2019-02-27-jessica-chastain-480p-x264-msd-eztv/60%Monthly2019-02-28 16:06
http://eztv.show/116584/modern-family-s10e16-red-alert-720p-amzn-web-dl-ddp5-1-h-264-ntb-eztv/60%Monthly2019-02-28 16:06
http://eztv.show/116583/seth-meyers-2019-02-27-tyler-perry-web-x264-tbs-eztv/60%Monthly2019-02-28 16:06
http://eztv.show/116582/seth-meyers-2019-02-27-tyler-perry-720p-web-x264-tbs-eztv/60%Monthly2019-02-28 16:06
http://eztv.show/116581/seth-meyers-2019-02-27-tyler-perry-480p-x264-msd-eztv/60%Monthly2019-02-28 16:06
http://eztv.show/116580/carson-daly-2019-02-27-eliza-coupe-720p-web-x264-tbs-eztv/60%Monthly2019-02-28 16:06
http://eztv.show/116579/carson-daly-2019-02-27-eliza-coupe-web-x264-tbs-eztv/60%Monthly2019-02-28 16:06
http://eztv.show/116578/botched-s05e13-butchered-breasts-and-nasal-nightmares-720p-amzn-web-dl-ddp5-1-eztv/60%Monthly2019-02-28 16:06
http://eztv.show/116577/carson-daly-2019-02-27-eliza-coupe-480p-x264-msd-eztv/60%Monthly2019-02-28 16:06
http://eztv.show/116576/the-goldbergs-2013-s06e17-our-perfect-strangers-720p-amzn-web-dl-ddp5-1-h-eztv/60%Monthly2019-02-28 16:06
http://eztv.show/116575/chicago-med-s04e16-old-flames-new-sparks-720p-amzn-web-dl-ddp5-1-h-264-kings-eztv/60%Monthly2019-02-28 16:06
http://eztv.show/116574/food-truth-or-scare-s04e04-hdtv-x264-plutonium-eztv/60%Monthly2019-02-28 16:06
http://eztv.show/116573/food-truth-or-scare-s04e04-720p-hdtv-x264-plutonium-eztv/60%Monthly2019-02-28 16:06
http://eztv.show/116572/shakespeare-and-hathaway-private-investigators-s02e04-hdtv-x264-mtb-eztv/60%Monthly2019-02-28 16:06
http://eztv.show/116571/shakespeare-and-hathaway-private-investigators-s02e04-720p-hdtv-x264-mtb-eztv/60%Monthly2019-02-28 16:06
http://eztv.show/116570/beyond-the-pole-s01e07-reunion-720p-web-h264-crimson-eztv/60%Monthly2019-02-28 16:06
http://eztv.show/116569/beyond-the-pole-s01e07-reunion-web-h264-crimson-eztv/60%Monthly2019-02-28 16:06
http://eztv.show/116568/shakespeare-and-hathaway-private-investigators-s02e04-480p-x264-msd-eztv/60%Monthly2019-02-28 16:06
http://eztv.show/116567/beyond-the-pole-s01e07-reunion-480p-x264-msd-eztv/60%Monthly2019-02-28 16:06
http://eztv.show/116566/food-truth-or-scare-s04e04-480p-x264-msd-eztv/60%Monthly2019-02-28 16:06
http://eztv.show/116565/good-trouble-s01e08-byte-club-720p-amzn-web-dl-ddp5-1-h-264-kings-eztv/60%Monthly2019-02-28 16:06
http://eztv.show/116564/chicago-fire-s07e16-fault-in-him-720p-amzn-web-dl-ddp5-1-h-264-kings-eztv/60%Monthly2019-02-28 16:06
http://eztv.show/116563/wwe-nxt-uk-2019-02-27-720p-web-h264-ligate-eztv/60%Monthly2019-02-28 16:06
http://eztv.show/116562/wwe-nxt-2019-02-27-720p-web-h264-ligate-eztv/60%Monthly2019-02-28 16:06
http://eztv.show/116561/when-kids-kill-s01e03-schoolboy-slayer-hdtv-x264-underbelly-eztv/60%Monthly2019-02-28 16:05
http://eztv.show/116560/wwe-nxt-uk-2019-02-27-480p-x264-msd-eztv/60%Monthly2019-02-28 16:05
http://eztv.show/116558/when-kids-kill-s01e04-catfish-killer-pdtv-x264-underbelly-eztv/60%Monthly2019-02-28 16:05
http://eztv.show/116559/wwe-nxt-2019-02-27-480p-x264-msd-eztv/60%Monthly2019-02-28 16:05
http://eztv.show/116557/when-kids-kill-s01e05-date-with-death-pdtv-x264-underbelly-eztv/60%Monthly2019-02-28 16:05
http://eztv.show/116556/when-kids-kill-s02e01-beaten-for-being-different-hdtv-x264-underbelly-eztv/60%Monthly2019-02-28 16:05
http://eztv.show/116555/when-kids-kill-s02e01-beaten-for-being-different-720p-hdtv-x264-underbelly-eztv/60%Monthly2019-02-28 16:05
http://eztv.show/116554/when-kids-kill-s01e03-schoolboy-slayer-720p-hdtv-x264-underbelly-eztv/60%Monthly2019-02-28 16:05
http://eztv.show/116553/when-kids-kill-s02e02-school-mob-murder-hdtv-x264-underbelly-eztv/60%Monthly2019-02-28 16:05
http://eztv.show/116552/when-kids-kill-s01e03-schoolboy-slayer-480p-x264-msd-eztv/60%Monthly2019-02-28 16:05
http://eztv.show/116551/unhhhh-s04e07-uncensored-720p-web-x264-secretos-eztv/60%Monthly2019-02-28 16:05
http://eztv.show/116550/when-kids-kill-s02e01-beaten-for-being-different-480p-x264-msd-eztv/60%Monthly2019-02-28 16:05
http://eztv.show/116549/unhhhh-s04e07-uncensored-web-x264-secretos-eztv/60%Monthly2019-02-28 16:05
http://eztv.show/116548/when-kids-kill-s02e02-school-mob-murder-720p-hdtv-x264-underbelly-eztv/60%Monthly2019-02-28 16:05
http://eztv.show/116547/when-kids-kill-s02e02-school-mob-murder-480p-x264-msd-eztv/60%Monthly2019-02-28 16:05
http://eztv.show/116546/when-kids-kill-s02e03-copycat-killers-hdtv-x264-underbelly-eztv/60%Monthly2019-02-28 16:05
http://eztv.show/116545/when-kids-kill-s02e03-copycat-killers-720p-hdtv-x264-underbelly-eztv/60%Monthly2019-02-28 16:05
http://eztv.show/116544/when-kids-kill-s02e04-gang-wars-hdtv-x264-underbelly-eztv/60%Monthly2019-02-28 16:05
http://eztv.show/116543/when-kids-kill-s02e03-copycat-killers-480p-x264-msd-eztv/60%Monthly2019-02-28 16:05
http://eztv.show/116542/when-kids-kill-s02e04-gang-wars-720p-hdtv-x264-underbelly-eztv/60%Monthly2019-02-28 16:05
http://eztv.show/116541/when-kids-kill-s02e05-killed-in-care-hdtv-x264-underbelly-eztv/60%Monthly2019-02-28 16:05
http://eztv.show/116540/when-kids-kill-s02e04-gang-wars-480p-x264-msd-eztv/60%Monthly2019-02-28 16:05
http://eztv.show/116539/when-kids-kill-s02e06-no-name-killers-hdtv-x264-underbelly-eztv/60%Monthly2019-02-28 16:05
http://eztv.show/116538/when-kids-kill-s02e06-no-name-killers-720p-hdtv-x264-underbelly-eztv/60%Monthly2019-02-28 16:05
http://eztv.show/116536/when-kids-kill-s02e05-killed-in-care-720p-hdtv-x264-underbelly-eztv/60%Monthly2019-02-28 16:05
http://eztv.show/116537/when-kids-kill-s03e01-killed-for-fun-hdtv-x264-underbelly-eztv/60%Monthly2019-02-28 16:05
http://eztv.show/116535/when-kids-kill-s03e02-classified-killers-pdtv-x264-underbelly-eztv/60%Monthly2019-02-28 16:05
http://eztv.show/116534/when-kids-kill-s03e03-cocaine-killers-pdtv-x264-underbelly-eztv/60%Monthly2019-02-28 16:05
http://eztv.show/116533/when-kids-kill-s03e04-cyber-banging-pdtv-x264-underbelly-eztv/60%Monthly2019-02-28 16:05
http://eztv.show/116532/when-kids-kill-s02e06-no-name-killers-480p-x264-msd-eztv/60%Monthly2019-02-28 16:05
http://eztv.show/116531/when-kids-kill-s03e01-killed-for-fun-720p-hdtv-x264-underbelly-eztv/60%Monthly2019-02-28 16:05
http://eztv.show/116529/when-kids-kill-s03e01-killed-for-fun-480p-x264-msd-eztv/60%Monthly2019-02-28 16:05
http://eztv.show/116530/when-kids-kill-s02e05-killed-in-care-480p-x264-msd-eztv/60%Monthly2019-02-28 16:05
http://eztv.show/116527/beat-bobby-flay-s19e08-off-to-the-races-720p-webrip-x264-caffeine-eztv/60%Monthly2019-02-28 16:05
http://eztv.show/116528/paranormal-caught-on-camera-s01e04-gettysburg-ghosts-720p-web-x264-caffeine-eztv/60%Monthly2019-02-28 16:05
http://eztv.show/116526/beat-bobby-flay-s19e08-off-to-the-races-webrip-x264-caffeine-eztv/60%Monthly2019-02-28 16:05
http://eztv.show/116525/chicago-fire-s07e16-hdtv-x264-aaf-eztv/60%Monthly2019-02-28 16:05
http://eztv.show/116524/beat-bobby-flay-s19e08-off-to-the-races-480p-x264-msd-eztv/60%Monthly2019-02-28 16:05
http://eztv.show/116523/tonight-s21e09-back-pain-britains-unseen-crisis-720p-hdtv-x264-plutonium-eztv/60%Monthly2019-02-28 16:05
http://eztv.show/116522/tonight-s21e09-back-pain-britains-unseen-crisis-hdtv-x264-plutonium-eztv/60%Monthly2019-02-28 16:05
http://eztv.show/116521/tonight-s21e09-back-pain-britains-unseen-crisis-480p-x264-msd-eztv/60%Monthly2019-02-28 16:05
http://eztv.show/116520/live-pd-police-patrol-s03e16-720p-web-h264-tbs-eztv/60%Monthly2019-02-26 16:08
http://eztv.show/116519/live-pd-police-patrol-s03e15-720p-web-h264-tbs-eztv/60%Monthly2019-02-26 16:08
http://eztv.show/116517/bull-2016-s03e16-forfeiture-720p-amzn-web-dl-ddp5-1-h-264-ntb-eztv/60%Monthly2019-02-26 16:08
http://eztv.show/116518/live-pd-police-patrol-s03e15-web-h264-tbs-eztv/60%Monthly2019-02-26 16:08
http://eztv.show/116516/the-good-doctor-s02e16-internal-720p-web-h264-amrap-eztv/60%Monthly2019-02-26 16:08
http://eztv.show/116515/the-enemy-within-s01e01-internal-720p-web-h264-amrap-eztv/60%Monthly2019-02-26 16:08
http://eztv.show/116514/magnum-p-i-s01e16-murder-is-never-quiet-720p-amzn-web-dl-ddp5-1-h-264-ntb-eztv/60%Monthly2019-02-26 16:08
http://eztv.show/116513/australian-story-s24e02-call-the-doctor-720p-hdtv-x264-cbfm-eztv/60%Monthly2019-02-26 16:08
http://eztv.show/116512/four-corners-s59e04-criminalising-women-720p-hdtv-x264-cbfm-eztv/60%Monthly2019-02-26 16:08
http://eztv.show/116511/media-watch-2019-02-25-720p-hdtv-x264-cbfm-eztv/60%Monthly2019-02-26 16:08
http://eztv.show/116510/the-passage-s01e07-you-are-like-the-sun-720p-amzn-web-dl-ddp5-1-h-264-ntg-eztv/60%Monthly2019-02-26 16:08
http://eztv.show/116509/pawn-stars-s16e05-web-h264-tbs-eztv/60%Monthly2019-02-26 16:08
http://eztv.show/116508/conan-2019-02-25-ben-sinclair-720p-web-x264-tbs-eztv/60%Monthly2019-02-26 16:08
http://eztv.show/116506/conan-2019-02-25-ben-sinclair-web-x264-tbs-eztv/60%Monthly2019-02-26 16:08
http://eztv.show/116507/american-pickers-s20e05-web-h264-tbs-eztv/60%Monthly2019-02-26 16:08
http://eztv.show/116505/pawn-stars-s16e05-720p-web-h264-tbs-eztv/60%Monthly2019-02-26 16:08
http://eztv.show/116504/busy-tonight-2019-02-25-phoebe-robinson-720p-web-x264-tbs-eztv/60%Monthly2019-02-26 16:08
http://eztv.show/116503/busy-tonight-2019-02-25-phoebe-robinson-web-x264-tbs-eztv/60%Monthly2019-02-26 16:08
http://eztv.show/116502/american-pickers-s20e05-720p-web-h264-tbs-eztv/60%Monthly2019-02-26 16:08
http://eztv.show/116501/the-good-doctor-s02e16-believe-720p-amzn-web-dl-ddp5-1-h-264-sigma-eztv/60%Monthly2019-02-26 16:08
http://eztv.show/116500/black-lightning-s02e13-the-book-of-secrets-chapter-three-pillar-of-fire-720p-eztv/60%Monthly2019-02-26 16:08
http://eztv.show/116499/instant-hotel-s02e03-720p-hdtv-x264-cbfm-eztv/60%Monthly2019-02-26 16:08
http://eztv.show/116498/those-who-cant-s03e06-uncensored-webrip-x264-tbs-eztv/60%Monthly2019-02-26 16:08
http://eztv.show/116497/those-who-cant-s03e06-uncensored-720p-webrip-x264-tbs-eztv/60%Monthly2019-02-26 16:08
http://eztv.show/116496/those-who-cant-s03e07-uncensored-720p-webrip-x264-tbs-eztv/60%Monthly2019-02-26 16:08
http://eztv.show/116495/those-who-cant-s03e07-uncensored-webrip-x264-tbs-eztv/60%Monthly2019-02-26 16:08
http://eztv.show/116494/the-trump-dynasty-s01e01-720p-web-h264-tbs-eztv/60%Monthly2019-02-26 16:08
http://eztv.show/116493/the-trump-dynasty-s01e01-web-h264-tbs-eztv/60%Monthly2019-02-26 16:08
http://eztv.show/116492/wwe-monday-night-raw-2019-02-25-720p-hdtv-x264-kyr-eztv/60%Monthly2019-02-26 16:08
http://eztv.show/116491/the-voice-s16e01-web-h264-tbs-eztv/60%Monthly2019-02-26 16:08
http://eztv.show/116490/serie-a-2019-02-24-parma-vs-napoli-720p-hevc-x265-megusta-eztv/60%Monthly2019-02-26 16:08
http://eztv.show/116489/the-voice-s16e01-720p-web-h264-tbs-eztv/60%Monthly2019-02-26 16:08
http://eztv.show/116488/shakespeare-and-hathaway-private-investigators-s02e02-web-h264-kompost-eztv/60%Monthly2019-02-26 16:08
http://eztv.show/116487/wwe-365-aj-styles-aac-mp4-mobile-eztv/60%Monthly2019-02-26 16:08
http://eztv.show/116486/wwe-365-kevin-owens-aac-mp4-mobile-eztv/60%Monthly2019-02-26 16:08
http://eztv.show/116485/the-enemy-within-s01e01-pilot-720p-amzn-web-dl-ddp5-1-h-264-ntb-eztv/60%Monthly2019-02-26 16:08
http://eztv.show/116484/serie-a-2019-02-24-parma-vs-napoli-aac-mp4-mobile-eztv/60%Monthly2019-02-26 16:07
http://eztv.show/116483/wwe-monday-night-raw-2019-02-25-aac-mp4-mobile-eztv/60%Monthly2019-02-26 16:07
http://eztv.show/116482/shakespeare-and-hathaway-private-investigators-s02e02-720p-webrip-x264-kompost-eztv/60%Monthly2019-02-26 16:07
http://eztv.show/116481/shakespeare-and-hathaway-private-investigators-s02e03-720p-webrip-x264-kompost-eztv/60%Monthly2019-02-26 16:07
http://eztv.show/116480/shakespeare-and-hathaway-private-investigators-s02e03-web-h264-kompost-eztv/60%Monthly2019-02-26 16:07
http://eztv.show/116479/shakespeare-and-hathaway-private-investigators-s02e04-720p-webrip-x264-kompost-eztv/60%Monthly2019-02-26 16:07
http://eztv.show/116478/shadowhunters-s03e11-lost-souls-720p-amzn-web-dl-ddp5-1-h-264-ntb-eztv/60%Monthly2019-02-26 16:07
http://eztv.show/116477/shakespeare-and-hathaway-private-investigators-s02e04-web-h264-kompost-eztv/60%Monthly2019-02-26 16:07
http://eztv.show/116476/shakespeare-and-hathaway-private-investigators-s02e05-720p-webrip-x264-kompost-eztv/60%Monthly2019-02-26 16:07
http://eztv.show/116475/wwe-365-kevin-owens-480p-x264-msd-eztv/60%Monthly2019-02-26 16:07
http://eztv.show/116474/wwe-365-aj-styles-480p-x264-msd-eztv/60%Monthly2019-02-26 16:07
http://eztv.show/116473/shakespeare-and-hathaway-private-investigators-s02e05-web-h264-kompost-eztv/60%Monthly2019-02-26 16:07
http://eztv.show/116472/shakespeare-and-hathaway-private-investigators-s02e06-720p-webrip-x264-kompost-eztv/60%Monthly2019-02-26 16:07
http://eztv.show/116471/shakespeare-and-hathaway-private-investigators-s02e06-web-h264-kompost-eztv/60%Monthly2019-02-26 16:07
http://eztv.show/116470/shakespeare-and-hathaway-private-investigators-s02e07-720p-webrip-x264-kompost-eztv/60%Monthly2019-02-26 16:07
http://eztv.show/116469/shakespeare-and-hathaway-private-investigators-s02e07-web-h264-kompost-eztv/60%Monthly2019-02-26 16:07
http://eztv.show/116468/shakespeare-and-hathaway-private-investigators-s02e08-720p-webrip-x264-kompost-eztv/60%Monthly2019-02-26 16:07
http://eztv.show/116467/teen-mom-2-s09e07-web-x264-tbs-eztv/60%Monthly2019-02-26 16:07
http://eztv.show/116465/lindsay-lohans-beach-club-s01e08-web-x264-tbs-eztv/60%Monthly2019-02-26 16:07
http://eztv.show/116466/shakespeare-and-hathaway-private-investigators-s02e08-web-h264-kompost-eztv/60%Monthly2019-02-26 16:07
http://eztv.show/116464/shakespeare-and-hathaway-private-investigators-s02e09-720p-webrip-x264-kompost-eztv/60%Monthly2019-02-26 16:07
http://eztv.show/116463/lindsay-lohans-beach-club-s01e08-720p-web-x264-tbs-eztv/60%Monthly2019-02-26 16:07
http://eztv.show/116462/shakespeare-and-hathaway-private-investigators-s02e09-web-h264-kompost-eztv/60%Monthly2019-02-26 16:07
http://eztv.show/116461/2-dope-queens-s02e03-music-janet-mock-lizzo-720p-amzn-web-dl-ddp5-1-h-264-ntb-eztv/60%Monthly2019-02-26 16:07
http://eztv.show/116460/shakespeare-and-hathaway-private-investigators-s02e10-720p-webrip-x264-kompost-eztv/60%Monthly2019-02-26 16:07
http://eztv.show/116458/my-kitchen-rules-s10e18-hdtv-x264-fqm-eztv/60%Monthly2019-02-26 16:07
http://eztv.show/116459/shakespeare-and-hathaway-private-investigators-s02e10-web-h264-kompost-eztv/60%Monthly2019-02-26 16:07
http://eztv.show/116457/married-at-first-sight-au-s06e18-hdtv-x264-plutonium-eztv/60%Monthly2019-02-26 16:07
http://eztv.show/116456/teen-mom-2-s09e07-720p-web-x264-tbs-eztv/60%Monthly2019-02-26 16:07
http://eztv.show/116455/love-and-hip-hop-s09e13-web-x264-tbs-eztv/60%Monthly2019-02-26 16:07
http://eztv.show/116454/love-and-hip-hop-s09e13-720p-web-x264-tbs-eztv/60%Monthly2019-02-26 16:07
http://eztv.show/116453/married-at-first-sight-au-s06e18-720p-hdtv-x264-plutonium-eztv/60%Monthly2019-02-26 16:07
http://eztv.show/116452/food-truth-or-scare-s04e02-hdtv-x264-plutonium-eztv/60%Monthly2019-02-26 16:07
http://eztv.show/116451/food-truth-or-scare-s04e02-720p-hdtv-x264-plutonium-eztv/60%Monthly2019-02-26 16:07
http://eztv.show/116450/black-monday-s01e05-243-720p-amzn-web-dl-ddp5-1-h-264-monkee-eztv/60%Monthly2019-02-26 16:07
http://eztv.show/116449/food-truth-or-scare-s04e02-480p-x264-msd-eztv/60%Monthly2019-02-26 16:07
http://eztv.show/116448/fam-s01e07-drunk-in-love-720p-amzn-web-dl-ddp5-1-h-264-ntb-eztv/60%Monthly2019-02-26 16:07
http://eztv.show/116447/married-at-first-sight-au-s06e18-480p-x264-msd-eztv/60%Monthly2019-02-26 16:07
http://eztv.show/116446/the-bachelor-s23e08-720p-hulu-web-dl-aac2-0-h-264-ntb-eztv/60%Monthly2019-02-26 16:07
http://eztv.show/116445/love-and-hip-hop-s09e13-480p-x264-msd-eztv/60%Monthly2019-02-26 16:07
http://eztv.show/116444/lindsay-lohans-beach-club-s01e08-480p-x264-msd-eztv/60%Monthly2019-02-26 16:07
http://eztv.show/116443/teen-mom-2-s09e07-480p-x264-msd-eztv/60%Monthly2019-02-26 16:07
http://eztv.show/116442/20-20-2019-02-22-the-deadly-ride-web-x264-cookiemonster-eztv/60%Monthly2019-02-26 16:07
http://eztv.show/116441/endeavour-s06e03-confection-itv-web-dl-aac2-0-x264-eztv/60%Monthly2019-02-26 16:07
http://eztv.show/116440/shakespeare-and-hathaway-private-investigators-s02e10-480p-x264-msd-eztv/60%Monthly2019-02-26 16:07
http://eztv.show/116439/call-the-midwife-s08e07-720p-ip-web-dl-aac2-0-h-264-btw-eztv/60%Monthly2019-02-26 16:07
http://eztv.show/116438/shakespeare-and-hathaway-private-investigators-s02e09-480p-x264-msd-eztv/60%Monthly2019-02-26 16:07
http://eztv.show/116437/the-stats-of-life-s02e06-retirement-webrip-x264-kompost-eztv/60%Monthly2019-02-26 16:07
http://eztv.show/116436/shakespeare-and-hathaway-private-investigators-s02e07-480p-x264-msd-eztv/60%Monthly2019-02-26 16:07
http://eztv.show/116435/the-stats-of-life-s02e06-retirement-720p-webrip-x264-kompost-eztv/60%Monthly2019-02-26 16:07
http://eztv.show/116434/shakespeare-and-hathaway-private-investigators-s02e08-480p-x264-msd-eztv/60%Monthly2019-02-26 16:07
http://eztv.show/116433/shakespeare-and-hathaway-private-investigators-s02e06-480p-x264-msd-eztv/60%Monthly2019-02-26 16:07
http://eztv.show/116432/shakespeare-and-hathaway-private-investigators-s02e05-480p-x264-msd-eztv/60%Monthly2019-02-26 16:07
http://eztv.show/116431/shakespeare-and-hathaway-private-investigators-s02e02-480p-x264-msd-eztv/60%Monthly2019-02-26 16:07
http://eztv.show/116430/shakespeare-and-hathaway-private-investigators-s02e02-720p-hdtv-x264-mtb-eztv/60%Monthly2019-02-26 16:07
http://eztv.show/116429/jimmy-fallon-2019-02-25-tina-fey-web-x264-cookiemonster-eztv/60%Monthly2019-02-26 16:07
http://eztv.show/116427/shakespeare-and-hathaway-private-investigators-s02e03-480p-x264-msd-eztv/60%Monthly2019-02-26 16:06
http://eztv.show/116428/shakespeare-and-hathaway-private-investigators-s02e02-hdtv-x264-mtb-eztv/60%Monthly2019-02-26 16:06
http://eztv.show/116426/the-voice-s16e01-480p-x264-msd-eztv/60%Monthly2019-02-26 16:06
http://eztv.show/116425/megalo-box-s01e09-a-dead-flower-shall-never-bloom-dubbed-hdtv-x264-crimson-eztv/60%Monthly2019-02-26 16:06
http://eztv.show/116423/love-and-hip-hop-miami-s02e09-petty-hurts-hdtv-x264-crimson-eztv/60%Monthly2019-02-26 16:06
http://eztv.show/116424/love-and-hip-hop-miami-s02e09-petty-hurts-720p-hdtv-x264-crimson-eztv/60%Monthly2019-02-26 16:06
http://eztv.show/116422/the-enemy-within-s01e01-internal-480p-x264-msd-eztv/60%Monthly2019-02-26 16:06
http://eztv.show/116421/the-good-doctor-s02e16-internal-480p-x264-msd-eztv/60%Monthly2019-02-26 16:06
http://eztv.show/116419/jimmy-kimmel-2019-02-25-katy-perry-web-x264-cookiemonster-eztv/60%Monthly2019-02-26 16:06
http://eztv.show/116420/those-who-cant-s03e07-uncensored-480p-x264-msd-eztv/60%Monthly2019-02-26 16:06
http://eztv.show/116418/those-who-cant-s03e06-uncensored-480p-x264-msd-eztv/60%Monthly2019-02-26 16:06
http://eztv.show/116417/jimmy-kimmel-2019-02-25-katy-perry-720p-web-x264-cookiemonster-eztv/60%Monthly2019-02-26 16:06
http://eztv.show/116416/instant-hotel-s02e03-480p-x264-msd-eztv/60%Monthly2019-02-26 16:06
http://eztv.show/116415/wwe-monday-night-raw-2019-02-25-480p-x264-msd-eztv/60%Monthly2019-02-26 16:06
http://eztv.show/116414/busy-tonight-2019-02-25-phoebe-robinson-480p-x264-msd-eztv/60%Monthly2019-02-26 16:06
http://eztv.show/116413/american-pickers-s20e05-480p-x264-msd-eztv/60%Monthly2019-02-26 16:06
http://eztv.show/116412/conan-2019-02-25-ben-sinclair-480p-x264-msd-eztv/60%Monthly2019-02-26 16:06
http://eztv.show/116411/cartel-crew-s01e08-forbidden-paradise-part-2-hdtv-x264-crimson-eztv/60%Monthly2019-02-26 16:06
http://eztv.show/116410/cartel-crew-s01e08-forbidden-paradise-part-2-720p-hdtv-x264-crimson-eztv/60%Monthly2019-02-26 16:06
http://eztv.show/116409/pawn-stars-s16e05-480p-x264-msd-eztv/60%Monthly2019-02-26 16:06
http://eztv.show/116408/four-corners-s59e04-criminalising-women-480p-x264-msd-eztv/60%Monthly2019-02-26 16:06
http://eztv.show/116407/media-watch-2019-02-25-480p-x264-msd-eztv/60%Monthly2019-02-26 16:06
http://eztv.show/116406/australian-story-s24e02-call-the-doctor-480p-x264-msd-eztv/60%Monthly2019-02-26 16:06
http://eztv.show/116405/live-pd-police-patrol-s03e16-480p-x264-msd-eztv/60%Monthly2019-02-26 16:06
http://eztv.show/116404/live-pd-police-patrol-s03e15-480p-x264-msd-eztv/60%Monthly2019-02-26 16:06
http://eztv.show/116403/megalo-box-s01e09-a-dead-flower-shall-never-bloom-dubbed-720p-hdtv-x264-crimson-eztv/60%Monthly2019-02-26 16:06
http://eztv.show/116402/the-bachelor-s23e08-web-x264-phoenix-eztv/60%Monthly2019-02-26 16:06
http://eztv.show/116401/jimmy-fallon-2019-02-25-tina-fey-480p-x264-msd-eztv/60%Monthly2019-02-26 16:06
http://eztv.show/116400/bull-2016-s03e16-internal-480p-x264-msd-eztv/60%Monthly2019-02-26 16:06
http://eztv.show/116399/magnum-p-i-2018-s01e16-internal-480p-x264-msd-eztv/60%Monthly2019-02-26 16:06
http://eztv.show/116398/chris-and-julias-sunday-night-takeaway-s01e01-480p-x264-msd-eztv/60%Monthly2019-02-26 16:06
http://eztv.show/116397/tmz-on-tv-2019-02-22-480p-x264-msd-eztv/60%Monthly2019-02-26 16:06
http://eztv.show/116396/the-casketeers-s02e07-480p-x264-msd-eztv/60%Monthly2019-02-26 16:06
http://eztv.show/116395/talking-dead-s09e11-480p-x264-msd-eztv/60%Monthly2019-02-26 16:06
http://eztv.show/116394/cops-s31e20-480p-x264-msd-eztv/60%Monthly2019-02-26 16:06
http://eztv.show/116393/man-with-a-plan-s03e04-internal-480p-x264-msd-eztv/60%Monthly2019-02-26 16:06
http://eztv.show/116392/grave-mysteries-s02e03-murder-behind-closed-doors-480p-x264-msd-eztv/60%Monthly2019-02-26 16:06
http://eztv.show/116391/the-passage-s01e07-hdtv-x264-cravers-eztv/60%Monthly2019-02-26 16:06
http://eztv.show/116389/the-passage-s01e07-720p-hdtv-x264-cravers-eztv/60%Monthly2019-02-26 16:06
http://eztv.show/116390/people-magazine-investigates-s03e15-who-killed-jane-doe-59-480p-x264-msd-eztv/60%Monthly2019-02-26 16:06
http://eztv.show/116388/the-neighborhood-s01e16-internal-480p-x264-msd-eztv/60%Monthly2019-02-26 16:06
http://eztv.show/116387/rachael-ray-2019-02-25-all-about-the-best-new-restaurants-480p-x264-msd-eztv/60%Monthly2019-02-26 16:06
http://eztv.show/116386/kids-baking-championship-s06e08-lets-taco-about-baking-480p-x264-msd-eztv/60%Monthly2019-02-26 16:06
http://eztv.show/116385/all-new-traffic-cops-s05e05-480p-x264-msd-eztv/60%Monthly2019-02-26 16:06
http://eztv.show/116384/judge-judy-s23e153-your-deceased-mother-would-be-ashamed-hdtv-x264-w4f-eztv/60%Monthly2019-02-26 16:06
http://eztv.show/116383/judge-judy-s23e153-your-deceased-mother-would-be-ashamed-720p-hdtv-x264-w4f-eztv/60%Monthly2019-02-26 16:06
http://eztv.show/116382/the-making-of-me-s01e03-480p-x264-msd-eztv/60%Monthly2019-02-26 16:06
http://eztv.show/116381/the-enemy-within-s01e01-480p-x264-msd-eztv/60%Monthly2019-02-26 16:06
http://eztv.show/116380/elvis-goes-there-s01e04-480p-x264-msd-eztv/60%Monthly2019-02-26 16:06
http://eztv.show/116379/the-good-doctor-s02e16-480p-x264-msd-eztv/60%Monthly2019-02-26 16:06
http://eztv.show/116378/i-am-frankie-s02e03-i-am-planning-an-escape-480p-x264-msd-eztv/60%Monthly2019-02-26 16:06
http://eztv.show/116377/autopsy-the-last-hours-of-s08e03-donna-summer-hdtv-x264-esc-eztv/60%Monthly2019-02-26 16:06
http://eztv.show/116376/autopsy-the-last-hours-of-s08e03-donna-summer-720p-hdtv-x264-esc-eztv/60%Monthly2019-02-26 16:06
http://eztv.show/116375/copycat-killers-s06e03-forensic-files-720p-hdtv-x264-esc-eztv/60%Monthly2019-02-26 16:06
http://eztv.show/116374/copycat-killers-s06e03-forensic-files-hdtv-x264-esc-eztv/60%Monthly2019-02-26 16:06
http://eztv.show/116373/growing-up-gifted-s02e02-480p-x264-msd-eztv/60%Monthly2019-02-26 16:06
http://eztv.show/116372/bull-2016-s03e16-480p-x264-msd-eztv/60%Monthly2019-02-26 16:05
http://eztv.show/116371/american-dad-s14e16-480p-x264-msd-eztv/60%Monthly2019-02-26 16:05
http://eztv.show/116370/street-outlaws-s12e14-480p-x264-msd-eztv/60%Monthly2019-02-26 16:05
http://eztv.show/116369/married-at-first-sight-au-s06e19-hdtv-x264-plutonium-eztv/60%Monthly2019-02-26 16:05
http://eztv.show/116368/married-at-first-sight-au-s06e19-720p-hdtv-x264-plutonium-eztv/60%Monthly2019-02-26 16:05
http://eztv.show/116367/street-outlaws-s12e15-480p-x264-msd-eztv/60%Monthly2019-02-26 16:05
http://eztv.show/116365/teen-titans-go-s05e22-480p-x264-msd-eztv/60%Monthly2019-02-26 16:05
http://eztv.show/116366/magnum-p-i-2018-s01e16-480p-x264-msd-eztv/60%Monthly2019-02-26 16:05
http://eztv.show/116364/kids-baking-championship-s06e08-lets-taco-about-baking-720p-hdtv-x264-w4f-eztv/60%Monthly2019-02-26 16:05
http://eztv.show/116363/kids-baking-championship-s06e08-lets-taco-about-baking-hdtv-x264-w4f-eztv/60%Monthly2019-02-26 16:05
http://eztv.show/116362/i-am-the-night-s01e05-480p-x264-msd-eztv/60%Monthly2019-02-26 16:05
http://eztv.show/116361/my-kitchen-rules-s10e18-720p-hdtv-x264-orenji-eztv/60%Monthly2019-02-26 16:05
http://eztv.show/116360/the-passage-s01e07-480p-x264-msd-eztv/60%Monthly2019-02-26 16:05
http://eztv.show/116359/man-with-a-plan-s03e04-480p-x264-msd-eztv/60%Monthly2019-02-26 16:05
http://eztv.show/116358/coroner-s01e08-480p-x264-msd-eztv/60%Monthly2019-02-26 16:05
http://eztv.show/116357/days-of-our-lives-s54e108-480p-x264-msd-eztv/60%Monthly2019-02-26 16:05
http://eztv.show/116356/antiques-roadshow-us-s23e08-480p-x264-msd-eztv/60%Monthly2019-02-26 16:05
http://eztv.show/116355/the-neighborhood-s01e16-480p-x264-msd-eztv/60%Monthly2019-02-26 16:05
http://eztv.show/116354/shadowhunters-the-mortal-instruments-s03e11-480p-x264-msd-eztv/60%Monthly2019-02-26 16:05
http://eztv.show/116353/murdoch-mysteries-s12e17-480p-x264-msd-eztv/60%Monthly2019-02-26 16:05
http://eztv.show/116352/youre-the-worst-s05e07-zero-eggplants-480p-x264-msd-eztv/60%Monthly2019-02-26 16:05
http://eztv.show/116351/fast-layne-s01e03-mile-3-vin-goes-wild-480p-x264-msd-eztv/60%Monthly2019-02-26 16:05
http://eztv.show/116350/youre-the-worst-s05e06-this-brief-fermata-repack-480p-x264-msd-eztv/60%Monthly2019-02-26 16:05
http://eztv.show/116349/good-trouble-s01e07-swipe-right-720p-hdtv-x264-crimson-eztv/60%Monthly2019-02-26 16:05
http://eztv.show/116348/good-trouble-s01e07-swipe-right-hdtv-x264-crimson-eztv/60%Monthly2019-02-26 16:05
http://eztv.show/116347/lets-make-a-deal-2009-s10e108-480p-x264-msd-eztv/60%Monthly2019-02-26 16:05
http://eztv.show/116346/grown-ish-s02e09-body-count-hdtv-x264-crimson-eztv/60%Monthly2019-02-26 16:05
http://eztv.show/116345/total-bellas-s04e06-the-first-date-hdtv-x264-crimson-eztv/60%Monthly2019-02-26 16:05
http://eztv.show/116344/total-bellas-s04e06-the-first-date-720p-hdtv-x264-crimson-eztv/60%Monthly2019-02-26 16:05
http://eztv.show/116343/star-wars-resistance-s01e17-480p-x264-msd-eztv/60%Monthly2019-02-26 16:05
http://eztv.show/116342/the-bold-and-the-beautiful-s32e110-480p-x264-msd-eztv/60%Monthly2019-02-26 16:05
http://eztv.show/116341/ambulance-australia-s02e01-hdtv-x264-plutonium-eztv/60%Monthly2019-02-26 16:05
http://eztv.show/116340/the-price-is-right-s47e107-480p-x264-msd-eztv/60%Monthly2019-02-26 16:05
http://eztv.show/116339/ambulance-australia-s02e01-720p-hdtv-x264-plutonium-eztv/60%Monthly2019-02-26 16:05
http://eztv.show/116337/famous-and-fighting-crime-s01e03-480p-x264-msd-eztv/60%Monthly2019-02-26 16:05
http://eztv.show/116338/grown-ish-s02e09-body-count-720p-hdtv-x264-crimson-eztv/60%Monthly2019-02-26 16:05
http://eztv.show/116336/shadowhunters-the-mortal-instruments-s03e11-hdtv-x264-cravers-eztv/60%Monthly2019-02-26 16:05
http://eztv.show/116335/child-genius-s06e01-480p-x264-msd-eztv/60%Monthly2019-02-26 16:05
http://eztv.show/116334/the-best-thing-i-ever-ate-s09e09-decadent-donuts-480p-x264-msd-eztv/60%Monthly2019-02-26 16:05
http://eztv.show/116333/tails-of-valor-s01e08-the-lab-rynth-480p-x264-msd-eztv/60%Monthly2019-02-26 16:05
http://eztv.show/116332/the-best-thing-i-ever-ate-s09e10-the-upper-crust-480p-x264-msd-eztv/60%Monthly2019-02-26 16:05
http://eztv.show/116331/home-town-2017-s03e07-home-is-where-the-art-is-480p-x264-msd-eztv/60%Monthly2019-02-26 16:05
http://eztv.show/116330/snapped-s24e25-kimberly-mangrum-480p-x264-msd-eztv/60%Monthly2019-02-26 16:05
http://eztv.show/116329/desus-and-mero-s01e01-hdtv-x264-aaf-eztv/60%Monthly2019-02-26 16:05
http://eztv.show/116328/mark-of-a-killer-s01e05-momentos-of-murder-480p-x264-msd-eztv/60%Monthly2019-02-26 16:05
http://eztv.show/116327/desus-and-mero-s01e01-720p-hdtv-x264-aaf-eztv/60%Monthly2019-02-26 16:05
http://eztv.show/116326/this-time-with-alan-partridge-s01e01-480p-x264-msd-eztv/60%Monthly2019-02-26 16:05
http://eztv.show/116325/holby-city-s21e09-guts-720p-hdtv-x264-organic-eztv/60%Monthly2019-02-26 16:05
http://eztv.show/116324/guys-big-bite-s18e13-something-for-everyone-hdtv-x264-w4f-eztv/60%Monthly2019-02-24 16:09
http://eztv.show/116323/guys-big-bite-s18e13-something-for-everyone-480p-x264-msd-eztv/60%Monthly2019-02-24 16:09
http://eztv.show/116321/casualty-s33e25-720p-hdtv-x264-mtb-eztv/60%Monthly2019-02-24 16:09
http://eztv.show/116322/christopher-kimballs-milk-street-television-s02e17-a-trip-to-senegal-480p-eztv/60%Monthly2019-02-24 16:09
http://eztv.show/116320/casualty-s33e25-480p-x264-msd-eztv/60%Monthly2019-02-24 16:09
http://eztv.show/116319/the-pioneer-woman-s21e08-drummond-home-cooking-hdtv-x264-w4f-eztv/60%Monthly2019-02-24 16:08
http://eztv.show/116318/the-pioneer-woman-s21e08-drummond-home-cooking-720p-hdtv-x264-w4f-eztv/60%Monthly2019-02-24 16:08
http://eztv.show/116317/house-hunters-renovation-s16e02-two-dads-one-tough-renovation-web-x264-caffeine-eztv/60%Monthly2019-02-24 16:08
http://eztv.show/116316/house-hunters-renovation-s16e03-my-dad-my-renovation-hero-720p-web-x264-caffeine-eztv/60%Monthly2019-02-24 16:08
http://eztv.show/116315/house-hunters-renovation-s16e03-my-dad-my-renovation-hero-web-x264-caffeine-eztv/60%Monthly2019-02-24 16:08
http://eztv.show/116314/boxing-2019-02-23-james-degale-vs-chris-eubank-jr-720p-hdtv-x264-verum-eztv/60%Monthly2019-02-24 16:08
http://eztv.show/116313/this-old-house-s40e15-brookline-mid-century-modern-house-next-generation-eztv/60%Monthly2019-02-24 16:08
http://eztv.show/116312/boxing-2019-02-23-james-degale-vs-chris-eubank-jr-hdtv-x264-punch-eztv/60%Monthly2019-02-24 16:08
http://eztv.show/116311/burden-of-truth-s02e03-the-milk-of-human-kindness-720p-amzn-web-dl-ddp5-1-h-eztv/60%Monthly2019-02-24 16:08
http://eztv.show/116310/man-like-mobeen-s02e03-480p-x264-msd-eztv/60%Monthly2019-02-24 16:08
http://eztv.show/116309/kirby-right-back-at-ya-s01e01-tvrip-x264-nogrp-eztv/60%Monthly2019-02-24 16:08
http://eztv.show/116308/danger-mouse-2015-s02e43-jam-session-hdtv-x264-kettle-eztv/60%Monthly2019-02-24 16:08
http://eztv.show/116307/danger-mouse-2015-s02e43-jam-session-720p-hdtv-x264-kettle-eztv/60%Monthly2019-02-24 16:08
http://eztv.show/116306/ghost-adventures-s18e01-gates-of-hell-house-720p-web-x264-caffeine-eztv/60%Monthly2019-02-24 16:08
http://eztv.show/116305/ghost-adventures-s18e01-gates-of-hell-house-web-x264-caffeine-eztv/60%Monthly2019-02-24 16:08
http://eztv.show/116304/danger-mouse-2015-s02e41-crouching-hamster-hidden-wagon-hdtv-x264-kettle-eztv/60%Monthly2019-02-24 16:08
http://eztv.show/116303/danger-mouse-2015-s02e42-danger-thon-hdtv-x264-kettle-eztv/60%Monthly2019-02-24 16:08
http://eztv.show/116302/danger-mouse-2015-s02e43-jam-session-480p-x264-msd-eztv/60%Monthly2019-02-24 16:08
http://eztv.show/116301/ghost-adventures-s18e01-gates-of-hell-house-480p-x264-msd-eztv/60%Monthly2019-02-24 16:08
http://eztv.show/116300/ask-this-old-house-s17e15-stucco-repair-gas-dryer-real-480p-x264-msd-eztv/60%Monthly2019-02-24 16:08
http://eztv.show/116299/evan-goes-wild-s01e01-sharks-and-recreation-720p-webrip-x264-caffeine-eztv/60%Monthly2019-02-24 16:08
http://eztv.show/116298/the-incredible-dr-pol-s14e07-720p-web-x264-tbs-eztv/60%Monthly2019-02-24 16:08
http://eztv.show/116297/the-incredible-dr-pol-s14e07-web-x264-tbs-eztv/60%Monthly2019-02-24 16:08
http://eztv.show/116296/evan-goes-wild-s01e01-sharks-and-recreation-webrip-x264-caffeine-eztv/60%Monthly2019-02-24 16:08
http://eztv.show/116295/evan-goes-wild-s01e01-sharks-and-recreation-480p-x264-msd-eztv/60%Monthly2019-02-24 16:08
http://eztv.show/116294/the-incredible-dr-pol-s14e07-480p-x264-msd-eztv/60%Monthly2019-02-24 16:08
http://eztv.show/116293/say-yes-to-the-dress-s17e09-not-with-those-chubby-arms-720p-webrip-x264-caffeine-eztv/60%Monthly2019-02-24 16:08
http://eztv.show/116292/say-yes-to-the-dress-s17e09-not-with-those-chubby-arms-webrip-x264-caffeine-eztv/60%Monthly2019-02-24 16:08
http://eztv.show/116291/say-yes-to-the-dress-s17e09-not-with-those-chubby-arms-480p-x264-msd-eztv/60%Monthly2019-02-24 16:08
http://eztv.show/116290/heart-of-darkness-s01e03-gambling-with-the-devil-720p-webrip-x264-caffeine-eztv/60%Monthly2019-02-24 16:08
http://eztv.show/116289/heart-of-darkness-s01e03-gambling-with-the-devil-480p-x264-msd-eztv/60%Monthly2019-02-24 16:08
http://eztv.show/116288/heart-of-darkness-s01e03-gambling-with-the-devil-webrip-x264-caffeine-eztv/60%Monthly2019-02-24 16:08
http://eztv.show/116287/the-kitchen-s20e03-award-winning-comfort-food-720p-hdtv-x264-w4f-eztv/60%Monthly2019-02-24 16:08
http://eztv.show/116286/shameless-us-s09e12-web-h264-memento-eztv/60%Monthly2019-02-24 16:08
http://eztv.show/116285/ransom-s03e02-720p-web-x264-tbs-eztv/60%Monthly2019-02-24 16:08
http://eztv.show/116284/ransom-s03e02-web-x264-tbs-eztv/60%Monthly2019-02-24 16:08
http://eztv.show/116283/shameless-us-s09e12-720p-web-h264-memento-eztv/60%Monthly2019-02-24 16:08
http://eztv.show/116282/ransom-s03e02-480p-x264-msd-eztv/60%Monthly2019-02-24 16:08
http://eztv.show/116281/smilf-s02e05-repack-720p-web-h264-memento-eztv/60%Monthly2019-02-24 16:08
http://eztv.show/116280/shameless-us-s09e12-480p-x264-msd-eztv/60%Monthly2019-02-24 16:08
http://eztv.show/116279/smilf-s02e05-repack-480p-x264-msd-eztv/60%Monthly2019-02-24 16:08
http://eztv.show/116278/smilf-s02e05-web-h264-memento-eztv/60%Monthly2019-02-24 16:08
http://eztv.show/116277/your-worst-nightmare-s05e08-behind-the-barn-webrip-x264-caffeine-eztv/60%Monthly2019-02-24 16:08
http://eztv.show/116276/your-worst-nightmare-s05e08-behind-the-barn-720p-webrip-x264-caffeine-eztv/60%Monthly2019-02-24 16:08
http://eztv.show/116275/ransom-s03e02-720p-web-x265-minx-eztv/60%Monthly2019-02-24 16:08
http://eztv.show/116274/black-monday-s01e05-720p-webrip-x264-tbs-eztv/60%Monthly2019-02-24 16:08
http://eztv.show/116273/black-monday-s01e05-webrip-x264-tbs-eztv/60%Monthly2019-02-24 16:08
http://eztv.show/116272/your-worst-nightmare-s05e08-behind-the-barn-480p-x264-msd-eztv/60%Monthly2019-02-24 16:08
http://eztv.show/116271/black-monday-s01e05-480p-x264-msd-eztv/60%Monthly2019-02-24 16:08
http://eztv.show/116270/2-dope-queens-s02e03-hdtv-x264-aaf-eztv/60%Monthly2019-02-24 16:08
http://eztv.show/116269/2-dope-queens-s02e03-720p-hdtv-x264-aaf-eztv/60%Monthly2019-02-24 16:08
http://eztv.show/116268/shameless-us-s09e12-720p-web-x265-minx-eztv/60%Monthly2019-02-24 16:08
http://eztv.show/116267/aussie-lobster-men-s01e02-pdtv-x264-cbfm-eztv/60%Monthly2019-02-24 16:08
http://eztv.show/116266/im-a-celebrity-get-me-out-of-here-au-s05e06-pdtv-x264-cbfm-eztv/60%Monthly2019-02-24 16:08
http://eztv.show/116265/im-a-celebrity-get-me-out-of-here-au-s05e07-pdtv-x264-cbfm-eztv/60%Monthly2019-02-24 16:08
http://eztv.show/116264/im-a-celebrity-get-me-out-of-here-au-s05e08-pdtv-x264-cbfm-eztv/60%Monthly2019-02-24 16:08
http://eztv.show/116263/im-a-celebrity-get-me-out-of-here-au-s05e09-pdtv-x264-cbfm-eztv/60%Monthly2019-02-24 16:08
http://eztv.show/116262/im-a-celebrity-get-me-out-of-here-au-s05e10-pdtv-x264-cbfm-eztv/60%Monthly2019-02-24 16:07
http://eztv.show/116260/im-a-celebrity-get-me-out-of-here-au-s05e12-pdtv-x264-cbfm-eztv/60%Monthly2019-02-24 16:07
http://eztv.show/116261/im-a-celebrity-get-me-out-of-here-au-s05e11-pdtv-x264-cbfm-eztv/60%Monthly2019-02-24 16:07
http://eztv.show/116259/im-a-celebrity-get-me-out-of-here-au-s05e13-pdtv-x264-cbfm-eztv/60%Monthly2019-02-24 16:07
http://eztv.show/116258/black-monday-s01e05-720p-webrip-x265-minx-eztv/60%Monthly2019-02-24 16:07
http://eztv.show/116257/im-a-celebrity-get-me-out-of-here-au-s05e14-pdtv-x264-cbfm-eztv/60%Monthly2019-02-24 16:07
http://eztv.show/116256/im-a-celebrity-get-me-out-of-here-au-s05e15-pdtv-x264-cbfm-eztv/60%Monthly2019-02-24 16:07
http://eztv.show/116255/im-a-celebrity-get-me-out-of-here-au-s05e16-pdtv-x264-cbfm-eztv/60%Monthly2019-02-24 16:07
http://eztv.show/116254/im-a-celebrity-get-me-out-of-here-au-s05e17-pdtv-x264-cbfm-eztv/60%Monthly2019-02-24 16:07
http://eztv.show/116253/im-a-celebrity-get-me-out-of-here-au-s05e18-pdtv-x264-cbfm-eztv/60%Monthly2019-02-24 16:07
http://eztv.show/116252/im-a-celebrity-get-me-out-of-here-au-s05e19-pdtv-x264-cbfm-eztv/60%Monthly2019-02-24 16:07
http://eztv.show/116251/im-a-celebrity-get-me-out-of-here-au-s05e20-pdtv-x264-cbfm-eztv/60%Monthly2019-02-24 16:07
http://eztv.show/116250/im-a-celebrity-get-me-out-of-here-au-s05e21-pdtv-x264-cbfm-eztv/60%Monthly2019-02-24 16:07
http://eztv.show/116249/im-a-celebrity-get-me-out-of-here-au-s05e22-pdtv-x264-cbfm-eztv/60%Monthly2019-02-24 16:07
http://eztv.show/116248/im-a-celebrity-get-me-out-of-here-au-s05e23-pdtv-x264-cbfm-eztv/60%Monthly2019-02-24 16:07
http://eztv.show/116247/im-a-celebrity-get-me-out-of-here-au-s05e24-grand-finale-pdtv-x264-cbfm-eztv/60%Monthly2019-02-24 16:07
http://eztv.show/116246/the-kitchen-s20e03-award-winning-comfort-food-hdtv-x264-w4f-eztv/60%Monthly2019-02-24 16:07
http://eztv.show/116245/ransom-s03e02-black-dolphin-720p-amzn-web-dl-ddp5-1-h-264-ntb-eztv/60%Monthly2019-02-24 16:07
http://eztv.show/116244/through-the-keyhole-2013-s06e07-hdtv-x264-plutonium-eztv/60%Monthly2019-02-24 16:07
http://eztv.show/116243/through-the-keyhole-2013-s06e07-720p-hdtv-x264-plutonium-eztv/60%Monthly2019-02-24 16:07
http://eztv.show/116242/ransom-s03e02-internal-480p-x264-msd-eztv/60%Monthly2019-02-24 16:07
http://eztv.show/116241/youve-been-framed-s30e04-pdtv-x264-plutonium-eztv/60%Monthly2019-02-24 16:07
http://eztv.show/116240/match-of-the-day-2019-02-23-hdtv-x264-verum-eztv/60%Monthly2019-02-24 16:07
http://eztv.show/116239/match-of-the-day-2019-02-23-720p-hdtv-x264-verum-eztv/60%Monthly2019-02-24 16:07
http://eztv.show/116238/through-the-keyhole-2013-s06e07-480p-x264-msd-eztv/60%Monthly2019-02-24 16:07
http://eztv.show/116237/match-of-the-day-2019-02-23-480p-x264-msd-eztv/60%Monthly2019-02-24 16:07
http://eztv.show/116236/my-kitchen-rules-s10e16-hdtv-x264-fqm-eztv/60%Monthly2019-02-24 16:07
http://eztv.show/116235/live-pd-s03e48-hdtv-x264-crimson-eztv/60%Monthly2019-02-24 16:07
http://eztv.show/116233/ransom-s03e02-720p-hdtv-x264-w4f-eztv/60%Monthly2019-02-24 16:07
http://eztv.show/116234/my-kitchen-rules-s10e16-480p-x264-msd-eztv/60%Monthly2019-02-24 16:07
http://eztv.show/116232/ransom-s03e02-hdtv-x264-w4f-eztv/60%Monthly2019-02-24 16:07
http://eztv.show/116231/married-at-first-sight-au-s06e17-hdtv-x264-plutonium-eztv/60%Monthly2019-02-24 16:07
http://eztv.show/116229/marvels-avengers-black-panthers-quest-s05e21-web-x264-tbs-eztv/60%Monthly2019-02-24 16:07
http://eztv.show/116230/marvels-avengers-black-panthers-quest-s05e22-web-x264-tbs-eztv/60%Monthly2019-02-24 16:07
http://eztv.show/116228/the-giant-beast-that-is-the-global-economy-s01e01-720p-web-h264-insidious-eztv/60%Monthly2019-02-24 16:07
http://eztv.show/116227/marvels-avengers-black-panthers-quest-s05e21-720p-web-x264-tbs-eztv/60%Monthly2019-02-24 16:07
http://eztv.show/116226/the-giant-beast-that-is-the-global-economy-s01e01-web-h264-insidious-eztv/60%Monthly2019-02-24 16:07
http://eztv.show/116225/fast-layne-s01e03-web-x264-tbs-eztv/60%Monthly2019-02-24 16:07
http://eztv.show/116224/marvels-avengers-black-panthers-quest-s05e22-720p-web-x264-tbs-eztv/60%Monthly2019-02-24 16:07
http://eztv.show/116223/fast-layne-s01e03-720p-web-x264-tbs-eztv/60%Monthly2019-02-24 16:07
http://eztv.show/116222/the-giant-beast-that-is-the-global-economy-s01e02-web-h264-insidious-eztv/60%Monthly2019-02-24 16:07
http://eztv.show/116220/the-giant-beast-that-is-the-global-economy-s01e03-720p-web-h264-insidious-eztv/60%Monthly2019-02-24 16:07
http://eztv.show/116221/the-giant-beast-that-is-the-global-economy-s01e02-720p-web-h264-insidious-eztv/60%Monthly2019-02-24 16:07
http://eztv.show/116219/the-giant-beast-that-is-the-global-economy-s01e03-web-h264-insidious-eztv/60%Monthly2019-02-24 16:07
http://eztv.show/116218/the-giant-beast-that-is-the-global-economy-s01e04-720p-web-h264-insidious-eztv/60%Monthly2019-02-24 16:07
http://eztv.show/116217/marvels-avengers-black-panthers-quest-s05e22-480p-x264-msd-eztv/60%Monthly2019-02-24 16:07
http://eztv.show/116216/the-giant-beast-that-is-the-global-economy-s01e04-web-h264-insidious-eztv/60%Monthly2019-02-24 16:07
http://eztv.show/116215/the-giant-beast-that-is-the-global-economy-s01e05-web-h264-insidious-eztv/60%Monthly2019-02-24 16:07
http://eztv.show/116214/marvels-avengers-black-panthers-quest-s05e21-480p-x264-msd-eztv/60%Monthly2019-02-24 16:07
http://eztv.show/116213/the-giant-beast-that-is-the-global-economy-s01e05-720p-web-h264-insidious-eztv/60%Monthly2019-02-24 16:07
http://eztv.show/116212/the-giant-beast-that-is-the-global-economy-s01e06-720p-web-h264-insidious-eztv/60%Monthly2019-02-24 16:07
http://eztv.show/116211/the-giant-beast-that-is-the-global-economy-s01e06-web-h264-insidious-eztv/60%Monthly2019-02-24 16:07
http://eztv.show/116210/the-giant-beast-that-is-the-global-economy-s01e07-720p-web-h264-insidious-eztv/60%Monthly2019-02-24 16:07
http://eztv.show/116209/the-giant-beast-that-is-the-global-economy-s01e07-web-h264-insidious-eztv/60%Monthly2019-02-24 16:07
http://eztv.show/116208/the-giant-beast-that-is-the-global-economy-s01e01-480p-x264-msd-eztv/60%Monthly2019-02-24 16:07
http://eztv.show/116207/the-giant-beast-that-is-the-global-economy-s01e08-720p-web-h264-insidious-eztv/60%Monthly2019-02-24 16:07
http://eztv.show/116206/the-giant-beast-that-is-the-global-economy-s01e08-web-h264-insidious-eztv/60%Monthly2019-02-24 16:07
http://eztv.show/116205/the-giant-beast-that-is-the-global-economy-s01e02-480p-x264-msd-eztv/60%Monthly2019-02-24 16:07
http://eztv.show/116204/fast-layne-s01e03-480p-x264-msd-eztv/60%Monthly2019-02-24 16:07
http://eztv.show/116203/the-giant-beast-that-is-the-global-economy-s01e03-480p-x264-msd-eztv/60%Monthly2019-02-24 16:06
http://eztv.show/116202/the-giant-beast-that-is-the-global-economy-s01e06-480p-x264-msd-eztv/60%Monthly2019-02-24 16:06
http://eztv.show/116201/the-giant-beast-that-is-the-global-economy-s01e04-480p-x264-msd-eztv/60%Monthly2019-02-24 16:06
http://eztv.show/116200/man-like-mobeen-s02e03-hdtv-x264-plutonium-eztv/60%Monthly2019-02-24 16:06
http://eztv.show/116199/married-at-first-sight-au-s06e17-720p-hdtv-x264-plutonium-eztv/60%Monthly2019-02-24 16:06
http://eztv.show/116198/the-giant-beast-that-is-the-global-economy-s01e05-480p-x264-msd-eztv/60%Monthly2019-02-24 16:06
http://eztv.show/116197/the-giant-beast-that-is-the-global-economy-s01e08-480p-x264-msd-eztv/60%Monthly2019-02-24 16:06
http://eztv.show/116196/the-giant-beast-that-is-the-global-economy-s01e07-480p-x264-msd-eztv/60%Monthly2019-02-24 16:06
http://eztv.show/116195/married-at-first-sight-au-s06e17-480p-x264-msd-eztv/60%Monthly2019-02-24 16:06
http://eztv.show/116194/edwardian-britain-in-colour-s01e01-hdtv-x264-plutonium-eztv/60%Monthly2019-02-24 16:06
http://eztv.show/116193/edwardian-britain-in-colour-s01e01-720p-hdtv-x264-plutonium-eztv/60%Monthly2019-02-24 16:06
http://eztv.show/116192/edwardian-britain-in-colour-s01e01-480p-x264-msd-eztv/60%Monthly2019-02-24 16:06
http://eztv.show/116191/pointless-s18e55-720p-web-h264-kompost-eztv/60%Monthly2019-02-24 16:06
http://eztv.show/116190/small-fortune-s01e04-web-x264-kompost-eztv/60%Monthly2019-02-24 16:06
http://eztv.show/116189/pointless-s18e55-480p-x264-msd-eztv/60%Monthly2019-02-24 16:06
http://eztv.show/116188/live-pd-s03e48-480p-x264-msd-eztv/60%Monthly2019-02-24 16:06
http://eztv.show/116187/gypsy-kids-our-secret-world-s02e04-720p-hdtv-x264-cbfm-eztv/60%Monthly2019-02-24 16:06
http://eztv.show/116186/jimmy-fallon-2019-02-22-john-legend-720p-hdtv-x264-sorny-eztv/60%Monthly2019-02-24 16:06
http://eztv.show/116185/gypsy-kids-our-secret-world-s02e04-480p-x264-msd-eztv/60%Monthly2019-02-24 16:06
http://eztv.show/116184/pohs-kitchen-on-the-road-s02e02-720p-hdtv-x264-cbfm-eztv/60%Monthly2019-02-24 16:06
http://eztv.show/116182/pohs-kitchen-on-the-road-s02e04-720p-hdtv-x264-cbfm-eztv/60%Monthly2019-02-24 16:06
http://eztv.show/116183/pohs-kitchen-on-the-road-s02e03-720p-hdtv-x264-cbfm-eztv/60%Monthly2019-02-24 16:06
http://eztv.show/116181/pohs-kitchen-on-the-road-s02e05-720p-hdtv-x264-cbfm-eztv/60%Monthly2019-02-24 16:06
http://eztv.show/116180/pohs-kitchen-on-the-road-s02e06-720p-hdtv-x264-cbfm-eztv/60%Monthly2019-02-24 16:06
http://eztv.show/116179/pohs-kitchen-on-the-road-s02e07-720p-hdtv-x264-cbfm-eztv/60%Monthly2019-02-24 16:06
http://eztv.show/116177/pohs-kitchen-on-the-road-s02e10-720p-hdtv-x264-cbfm-eztv/60%Monthly2019-02-24 16:06
http://eztv.show/116178/pohs-kitchen-on-the-road-s02e08-720p-hdtv-x264-cbfm-eztv/60%Monthly2019-02-24 16:06
http://eztv.show/116176/pohs-kitchen-on-the-road-s02e11-720p-hdtv-x264-cbfm-eztv/60%Monthly2019-02-24 16:06
http://eztv.show/116175/pohs-kitchen-on-the-road-s02e13-720p-hdtv-x264-cbfm-eztv/60%Monthly2019-02-24 16:06
http://eztv.show/116174/pohs-kitchen-on-the-road-s02e12-720p-hdtv-x264-cbfm-eztv/60%Monthly2019-02-24 16:06
http://eztv.show/116173/pohs-kitchen-on-the-road-s02e03-480p-x264-msd-eztv/60%Monthly2019-02-24 16:06
http://eztv.show/116172/pohs-kitchen-on-the-road-s02e01-480p-x264-msd-eztv/60%Monthly2019-02-24 16:05
http://eztv.show/116170/pohs-kitchen-on-the-road-s02e04-480p-x264-msd-eztv/60%Monthly2019-02-24 16:05
http://eztv.show/116171/pohs-kitchen-on-the-road-s02e02-480p-x264-msd-eztv/60%Monthly2019-02-24 16:05
http://eztv.show/116169/pohs-kitchen-on-the-road-s02e05-480p-x264-msd-eztv/60%Monthly2019-02-24 16:05
http://eztv.show/116168/pohs-kitchen-on-the-road-s02e06-480p-x264-msd-eztv/60%Monthly2019-02-24 16:05
http://eztv.show/116167/pohs-kitchen-on-the-road-s02e10-480p-x264-msd-eztv/60%Monthly2019-02-24 16:05
http://eztv.show/116166/pohs-kitchen-on-the-road-s02e07-480p-x264-msd-eztv/60%Monthly2019-02-24 16:05
http://eztv.show/116165/wos-wrestling-s01e05-720p-hdtv-x264-plutonium-eztv/60%Monthly2019-02-24 16:05
http://eztv.show/116164/pohs-kitchen-on-the-road-s02e09-480p-x264-msd-eztv/60%Monthly2019-02-24 16:05
http://eztv.show/116163/wos-wrestling-s01e05-hdtv-x264-plutonium-eztv/60%Monthly2019-02-24 16:05
http://eztv.show/116162/pohs-kitchen-on-the-road-s02e08-480p-x264-msd-eztv/60%Monthly2019-02-24 16:05
http://eztv.show/116161/pohs-kitchen-on-the-road-s02e12-480p-x264-msd-eztv/60%Monthly2019-02-24 16:05
http://eztv.show/116160/pohs-kitchen-on-the-road-s02e11-480p-x264-msd-eztv/60%Monthly2019-02-24 16:05
http://eztv.show/116159/pohs-kitchen-on-the-road-s02e13-480p-x264-msd-eztv/60%Monthly2019-02-24 16:05
http://eztv.show/116158/wos-wrestling-s01e05-480p-x264-msd-eztv/60%Monthly2019-02-24 16:05
http://eztv.show/116157/wos-wrestling-s01e06-web-x264-ligate-eztv/60%Monthly2019-02-24 16:05
http://eztv.show/116156/through-the-keyhole-2013-s06e08-web-x264-ligate-eztv/60%Monthly2019-02-24 16:05
http://eztv.show/116155/ufc-fight-night-145-prelims-720p-hevc-x265-megusta-eztv/60%Monthly2019-02-24 16:05
http://eztv.show/116154/ufc-fight-night-145-720p-hevc-x265-megusta-eztv/60%Monthly2019-02-24 16:05
http://eztv.show/116153/wos-wrestling-s01e05-aac-mp4-mobile-eztv/60%Monthly2019-02-24 16:05
http://eztv.show/116152/match-of-the-day-2019-02-23-720p-hevc-x265-megusta-eztv/60%Monthly2019-02-24 16:05
http://eztv.show/116151/bellator-217-prelims-aac-mp4-mobile-eztv/60%Monthly2019-02-24 16:05
http://eztv.show/116150/bellator-217-prelims-480p-x264-msd-eztv/60%Monthly2019-02-24 16:05
http://eztv.show/116149/ufc-fight-night-145-prelims-480p-x264-msd-eztv/60%Monthly2019-02-24 16:05
http://eztv.show/116148/the-powerpuff-girls-2016-s02e19-720p-hdtv-x264-plutonium-eztv/60%Monthly2019-02-24 16:05
http://eztv.show/116147/the-powerpuff-girls-2016-s02e19-hdtv-x264-plutonium-eztv/60%Monthly2019-02-24 16:05
http://eztv.show/116146/the-tom-and-jerry-show-s03e37-720p-hdtv-x264-plutonium-eztv/60%Monthly2019-02-24 16:05
http://eztv.show/116145/the-tom-and-jerry-show-s03e38-720p-hdtv-x264-plutonium-eztv/60%Monthly2019-02-24 16:05
http://eztv.show/116144/toonmarty-s01e01-720p-hdtv-x264-plutonium-eztv/60%Monthly2019-02-24 16:05
http://eztv.show/116143/toonmarty-s01e01-hdtv-x264-plutonium-eztv/60%Monthly2019-02-24 16:05
http://eztv.show/116142/toonmarty-s01e02-720p-hdtv-x264-plutonium-eztv/60%Monthly2019-02-24 16:05
http://eztv.show/116141/toonmarty-s01e02-hdtv-x264-plutonium-eztv/60%Monthly2019-02-24 16:05
http://eztv.show/116140/toonmarty-s01e03-720p-hdtv-x264-plutonium-eztv/60%Monthly2019-02-24 16:05
http://eztv.show/116139/toonmarty-s01e03-hdtv-x264-plutonium-eztv/60%Monthly2019-02-24 16:05
http://eztv.show/116138/toonmarty-s01e04-720p-hdtv-x264-plutonium-eztv/60%Monthly2019-02-24 16:05
http://eztv.show/116137/toonmarty-s01e04-hdtv-x264-plutonium-eztv/60%Monthly2019-02-24 16:05
http://eztv.show/116136/giada-entertains-s04e06-jade-and-giada-day-720p-webrip-x264-caffeine-eztv/60%Monthly2019-02-24 16:05
http://eztv.show/116135/giada-entertains-s04e06-jade-and-giada-day-webrip-x264-caffeine-eztv/60%Monthly2019-02-24 16:05
http://eztv.show/116134/giada-entertains-s04e06-jade-and-giada-day-480p-x264-msd-eztv/60%Monthly2019-02-24 16:05
http://eztv.show/116133/wos-wrestling-s01e05-real-web-x264-plutonium-eztv/60%Monthly2019-02-24 16:05
http://eztv.show/116132/on-the-case-with-paula-zahn-s18e01-a-hero-betrayed-720p-web-x264-caffeine-eztv/60%Monthly2019-02-24 16:05
http://eztv.show/116131/on-the-case-with-paula-zahn-s18e01-a-hero-betrayed-web-x264-caffeine-eztv/60%Monthly2019-02-24 16:05
http://eztv.show/116130/the-voice-uk-s08e08-720p-hdtv-x264-qpel-eztv/60%Monthly2019-02-24 16:05
http://eztv.show/116129/on-the-case-with-paula-zahn-s18e01-a-hero-betrayed-480p-x264-msd-eztv/60%Monthly2019-02-24 16:05
http://eztv.show/116128/the-voice-uk-s08e08-480p-x264-msd-eztv/60%Monthly2019-02-24 16:05
http://eztv.show/116127/desus-and-mero-2019-02-21-480p-x264-msd-eztv/60%Monthly2019-02-22 16:09
http://eztv.show/116126/the-first-48-s18e07-the-visitor-repack-480p-x264-msd-eztv/60%Monthly2019-02-22 16:09
http://eztv.show/116125/true-first-s01e04-black-swimmers-480p-x264-msd-eztv/60%Monthly2019-02-22 16:09
http://eztv.show/116124/americas-test-kitchen-s19e07-elegant-dinner-party-720p-hdtv-x264-w4f-eztv/60%Monthly2019-02-22 16:09
http://eztv.show/116123/mom-s06e16-internal-480p-x264-msd-eztv/60%Monthly2019-02-22 16:09
http://eztv.show/116122/americas-test-kitchen-s19e07-elegant-dinner-party-hdtv-x264-w4f-eztv/60%Monthly2019-02-22 16:08
http://eztv.show/116121/house-hunters-s158e11-a-bigger-house-on-the-hudson-web-x264-caffeine-eztv/60%Monthly2019-02-22 16:08
http://eztv.show/116119/fam-s01e07-720p-web-h264-amcon-eztv/60%Monthly2019-02-22 16:08
http://eztv.show/116120/americas-test-kitchen-s19e07-elegant-dinner-party-480p-x264-msd-eztv/60%Monthly2019-02-22 16:08
http://eztv.show/116118/house-hunters-international-s135e05-a-family-adventure-in-budapest-webrip-eztv/60%Monthly2019-02-22 16:08
http://eztv.show/116117/fam-s01e07-480p-x264-msd-eztv/60%Monthly2019-02-22 16:08
http://eztv.show/116116/game-of-clones-s01e01-clones-are-here-720p-hdtv-x264-crimson-eztv/60%Monthly2019-02-22 16:08
http://eztv.show/116115/fam-s01e07-internal-480p-x264-msd-eztv/60%Monthly2019-02-22 16:08
http://eztv.show/116114/fam-s01e07-web-x264-tbs-eztv/60%Monthly2019-02-22 16:08
http://eztv.show/116113/legacies-s01e11-internal-720p-web-h264-bamboozle-eztv/60%Monthly2019-02-22 16:08
http://eztv.show/116112/game-of-clones-s01e01-clones-are-here-480p-x264-msd-eztv/60%Monthly2019-02-22 16:08
http://eztv.show/116111/legacies-s01e11-internal-480p-x264-msd-eztv/60%Monthly2019-02-22 16:08
http://eztv.show/116109/will-and-grace-s10e12-720p-hdtv-x264-dhd-eztv/60%Monthly2019-02-22 16:08
http://eztv.show/116110/60-days-in-s05e08-pick-a-side-hdtv-x264-crimson-eztv/60%Monthly2019-02-22 16:08
http://eztv.show/116108/judge-judy-s23e150-condemned-dating-inventors-butt-heads-720p-hdtv-x264-w4f-eztv/60%Monthly2019-02-22 16:08
http://eztv.show/116107/judge-judy-s23e150-condemned-dating-inventors-butt-heads-hdtv-x264-w4f-eztv/60%Monthly2019-02-22 16:08
http://eztv.show/116105/fam-s01e07-720p-web-x265-minx-eztv/60%Monthly2019-02-22 16:08
http://eztv.show/116106/will-and-grace-s10e12-480p-x264-msd-eztv/60%Monthly2019-02-22 16:08
http://eztv.show/116104/judge-judy-s23e150-condemned-dating-inventors-butt-heads-480p-x264-msd-eztv/60%Monthly2019-02-22 16:08
http://eztv.show/116103/bring-it-s05e19-a-star-is-born-720p-hdtv-x264-crimson-eztv/60%Monthly2019-02-22 16:08
http://eztv.show/116102/young-sheldon-s02e16-720p-web-x265-minx-eztv/60%Monthly2019-02-22 16:08
http://eztv.show/116101/s-w-a-t-2017-s02e16-internal-720p-web-h264-amrap-eztv/60%Monthly2019-02-22 16:08
http://eztv.show/116100/the-rap-game-s05e08-fight-for-your-life-hdtv-x264-crimson-eztv/60%Monthly2019-02-22 16:08
http://eztv.show/116099/bring-it-s05e19-a-star-is-born-480p-x264-msd-eztv/60%Monthly2019-02-22 16:08
http://eztv.show/116098/s-w-a-t-2017-s02e16-internal-480p-x264-msd-eztv/60%Monthly2019-02-22 16:08
http://eztv.show/116097/will-and-grace-s10e12-720p-hdtv-x265-minx-eztv/60%Monthly2019-02-22 16:08
http://eztv.show/116096/60-days-in-s05e08-pick-a-side-720p-hdtv-x264-crimson-eztv/60%Monthly2019-02-22 16:08
http://eztv.show/116095/60-days-in-s05e08-pick-a-side-480p-x264-msd-eztv/60%Monthly2019-02-22 16:08
http://eztv.show/116094/the-rap-game-s05e08-fight-for-your-life-720p-hdtv-x264-crimson-eztv/60%Monthly2019-02-22 16:08
http://eztv.show/116093/the-rap-game-s05e08-fight-for-your-life-480p-x264-msd-eztv/60%Monthly2019-02-22 16:08
http://eztv.show/116092/rich-kids-go-skint-s02e03-720p-hdtv-x264-plutonium-eztv/60%Monthly2019-02-22 16:08
http://eztv.show/116091/rich-kids-go-skint-s02e03-hdtv-x264-plutonium-eztv/60%Monthly2019-02-22 16:08
http://eztv.show/116090/the-first-48-s18e08-720p-web-h264-tbs-eztv/60%Monthly2019-02-22 16:08
http://eztv.show/116089/they-lend-it-you-spend-it-the-loan-shop-s01e02-720p-hdtv-x264-plutonium-eztv/60%Monthly2019-02-22 16:08
http://eztv.show/116087/big-fight-preview-s01e03-degale-vs-eubank-jr-face-to-face-720p-hdtv-eztv/60%Monthly2019-02-22 16:08
http://eztv.show/116088/they-lend-it-you-spend-it-the-loan-shop-s01e02-hdtv-x264-plutonium-eztv/60%Monthly2019-02-22 16:08
http://eztv.show/116086/the-first-48-s18e08-480p-x264-msd-eztv/60%Monthly2019-02-22 16:08
http://eztv.show/116085/big-fight-preview-s01e03-degale-vs-eubank-jr-face-to-face-hdtv-x264-plutonium-eztv/60%Monthly2019-02-22 16:08
http://eztv.show/116084/beat-bobby-flay-s13e07-international-showdown-hdtv-x264-w4f-eztv/60%Monthly2019-02-22 16:08
http://eztv.show/116083/beat-bobby-flay-s13e07-international-showdown-720p-hdtv-x264-w4f-eztv/60%Monthly2019-02-22 16:08
http://eztv.show/116082/rich-kids-go-skint-s02e03-480p-x264-msd-eztv/60%Monthly2019-02-22 16:08
http://eztv.show/116081/rachael-ray-2019-02-21-craig-ferguson-hdtv-x264-w4f-eztv/60%Monthly2019-02-22 16:08
http://eztv.show/116080/rachael-ray-2019-02-21-craig-ferguson-720p-hdtv-x264-w4f-eztv/60%Monthly2019-02-22 16:08
http://eztv.show/116079/big-fight-preview-s01e03-degale-vs-eubank-jr-face-to-face-480p-x264-msd-eztv/60%Monthly2019-02-22 16:08
http://eztv.show/116078/will-and-grace-s10e12-internal-720p-web-h264-amrap-eztv/60%Monthly2019-02-22 16:08
http://eztv.show/116077/law-and-order-svu-s20e16-internal-720p-web-h264-amrap-eztv/60%Monthly2019-02-22 16:08
http://eztv.show/116076/they-lend-it-you-spend-it-the-loan-shop-s01e02-480p-x264-msd-eztv/60%Monthly2019-02-22 16:08
http://eztv.show/116075/brooklyn-nine-nine-s06e07-internal-720p-web-h264-amrap-eztv/60%Monthly2019-02-22 16:08
http://eztv.show/116074/law-and-order-svu-s20e16-internal-480p-x264-msd-eztv/60%Monthly2019-02-22 16:08
http://eztv.show/116073/the-other-two-s01e05-web-x264-tbs-eztv/60%Monthly2019-02-22 16:08
http://eztv.show/116072/the-other-two-s01e05-720p-web-x264-tbs-eztv/60%Monthly2019-02-22 16:08
http://eztv.show/116071/busy-tonight-2019-02-21-sonequa-martin-green-720p-web-x264-tbs-eztv/60%Monthly2019-02-22 16:07
http://eztv.show/116070/rachael-ray-2019-02-21-craig-ferguson-480p-x264-msd-eztv/60%Monthly2019-02-22 16:07
http://eztv.show/116069/will-and-grace-s10e12-internal-480p-x264-msd-eztv/60%Monthly2019-02-22 16:07
http://eztv.show/116068/busy-tonight-2019-02-21-sonequa-martin-green-web-x264-tbs-eztv/60%Monthly2019-02-22 16:07
http://eztv.show/116067/brooklyn-nine-nine-s06e07-internal-480p-x264-msd-eztv/60%Monthly2019-02-22 16:07
http://eztv.show/116066/busy-tonight-2019-02-21-sonequa-martin-green-480p-x264-msd-eztv/60%Monthly2019-02-22 16:07
http://eztv.show/116065/the-other-two-s01e05-480p-x264-msd-eztv/60%Monthly2019-02-22 16:07
http://eztv.show/116064/sydney-to-the-max-s01e04-web-x264-tbs-eztv/60%Monthly2019-02-22 16:07
http://eztv.show/116063/andi-mack-s03e12-web-x264-tbs-eztv/60%Monthly2019-02-22 16:07
http://eztv.show/116062/sydney-to-the-max-s01e04-720p-web-x264-tbs-eztv/60%Monthly2019-02-22 16:07
http://eztv.show/116061/andi-mack-s03e12-720p-web-x264-tbs-eztv/60%Monthly2019-02-22 16:07
http://eztv.show/116060/sydney-to-the-max-s01e04-480p-x264-msd-eztv/60%Monthly2019-02-22 16:07
http://eztv.show/116059/andi-mack-s03e12-480p-x264-msd-eztv/60%Monthly2019-02-22 16:07
http://eztv.show/116058/rosehaven-s03e05-hdtv-x264-cct-eztv/60%Monthly2019-02-22 16:07
http://eztv.show/116057/rosehaven-s03e05-720p-hdtv-x264-cct-eztv/60%Monthly2019-02-22 16:07
http://eztv.show/116056/rosehaven-s03e05-480p-x264-msd-eztv/60%Monthly2019-02-22 16:07
http://eztv.show/116055/show-me-the-movie-s02e03-hdtv-x264-cct-eztv/60%Monthly2019-02-22 16:07
http://eztv.show/116054/show-me-the-movie-s02e03-720p-hdtv-x264-cct-eztv/60%Monthly2019-02-22 16:07
http://eztv.show/116053/hard-quiz-s04e03-hdtv-x264-cct-eztv/60%Monthly2019-02-22 16:07
http://eztv.show/116052/a-million-little-things-s01e16-web-h264-tbs-eztv/60%Monthly2019-02-22 16:07
http://eztv.show/116051/hard-quiz-s04e03-720p-hdtv-x264-cct-eztv/60%Monthly2019-02-22 16:07
http://eztv.show/116050/how-to-get-away-with-murder-s05e14-internal-720p-web-h264-bamboozle-eztv/60%Monthly2019-02-22 16:07
http://eztv.show/116049/a-million-little-things-s01e16-internal-720p-web-h264-bamboozle-eztv/60%Monthly2019-02-22 16:07
http://eztv.show/116048/greys-anatomy-s15e14-internal-720p-web-h264-amrap-eztv/60%Monthly2019-02-22 16:07
http://eztv.show/116047/show-me-the-movie-s02e03-480p-x264-msd-eztv/60%Monthly2019-02-22 16:07
http://eztv.show/116046/greys-anatomy-s15e14-internal-720p-web-h264-bamboozle-eztv/60%Monthly2019-02-22 16:07
http://eztv.show/116045/hard-quiz-s04e03-480p-x264-msd-eztv/60%Monthly2019-02-22 16:07
http://eztv.show/116044/greys-anatomy-s15e14-internal-480p-x264-msd-eztv/60%Monthly2019-02-22 16:07
http://eztv.show/116043/how-to-get-away-with-murder-s05e14-internal-480p-x264-msd-eztv/60%Monthly2019-02-22 16:07
http://eztv.show/116041/a-million-little-things-s01e16-internal-480p-x264-msd-eztv/60%Monthly2019-02-22 16:07
http://eztv.show/116042/star-trek-discovery-s02e06-the-sounds-of-thunder-720p-amzn-web-dl-dd5-1-h-eztv/60%Monthly2019-02-22 16:07
http://eztv.show/116040/ncis-new-orleans-s05e14-conspiracy-theories-720p-amzn-web-dl-ddp5-1-h-264-ntb-eztv/60%Monthly2019-02-22 16:07
http://eztv.show/116039/stephen-colbert-2019-02-21-annette-bening-720p-web-x264-tbs-eztv/60%Monthly2019-02-22 16:07
http://eztv.show/116038/stephen-colbert-2019-02-21-annette-bening-web-x264-tbs-eztv/60%Monthly2019-02-22 16:07
http://eztv.show/116037/james-corden-2019-02-21-kal-penn-web-x264-tbs-eztv/60%Monthly2019-02-22 16:07
http://eztv.show/116036/james-corden-2019-02-21-kal-penn-720p-web-x264-tbs-eztv/60%Monthly2019-02-22 16:07
http://eztv.show/116035/the-titan-games-s01e08-web-x264-tbs-eztv/60%Monthly2019-02-22 16:07
http://eztv.show/116034/the-titan-games-s01e08-720p-web-x264-tbs-eztv/60%Monthly2019-02-22 16:07
http://eztv.show/116033/will-and-grace-s10e12-web-x264-tbs-eztv/60%Monthly2019-02-22 16:07
http://eztv.show/116032/stephen-colbert-2019-02-21-annette-bening-480p-x264-msd-eztv/60%Monthly2019-02-22 16:07
http://eztv.show/116031/the-titan-games-s01e08-480p-x264-msd-eztv/60%Monthly2019-02-22 16:07
http://eztv.show/116030/james-corden-2019-02-21-kal-penn-480p-x264-msd-eztv/60%Monthly2019-02-22 16:07
http://eztv.show/116029/curfew-s01e01-hdtv-x264-phoenix-eztv/60%Monthly2019-02-22 16:07
http://eztv.show/116028/curfew-s01e01-internal-720p-hdtv-x264-failed-eztv/60%Monthly2019-02-22 16:07
http://eztv.show/116027/the-profit-s06e06-proper-web-h264-kummost-eztv/60%Monthly2019-02-22 16:07
http://eztv.show/116026/the-profit-s06e06-proper-480p-x264-msd-eztv/60%Monthly2019-02-22 16:07
http://eztv.show/116025/curfew-s01e01-internal-480p-x264-msd-eztv/60%Monthly2019-02-22 16:07
http://eztv.show/116024/the-profit-s06e07-proper-480p-x264-msd-eztv/60%Monthly2019-02-22 16:07
http://eztv.show/116023/curfew-s01e01-720p-hdtv-x265-minx-eztv/60%Monthly2019-02-22 16:07
http://eztv.show/116022/the-profit-s06e07-proper-web-h264-kummost-eztv/60%Monthly2019-02-22 16:07
http://eztv.show/116021/suburra-s02e07-720p-webrip-x264-strife-eztv/60%Monthly2019-02-22 16:07
http://eztv.show/116020/suburra-s02e08-720p-webrip-x264-strife-eztv/60%Monthly2019-02-22 16:07
http://eztv.show/116019/suburra-s02e04-720p-webrip-x264-strife-eztv/60%Monthly2019-02-22 16:07
http://eztv.show/116018/game-of-clones-2019-s01e01-hdtv-x264-crimson-eztv/60%Monthly2019-02-22 16:07
http://eztv.show/116017/suburra-s02e05-720p-webrip-x264-strife-eztv/60%Monthly2019-02-22 16:06
http://eztv.show/116016/suburra-s02e06-720p-webrip-x264-strife-eztv/60%Monthly2019-02-22 16:06
http://eztv.show/116015/suburra-s02e01-720p-webrip-x264-strife-eztv/60%Monthly2019-02-22 16:06
http://eztv.show/116013/suburra-s02e08-480p-x264-msd-eztv/60%Monthly2019-02-22 16:06
http://eztv.show/116014/suburra-s02e07-480p-x264-msd-eztv/60%Monthly2019-02-22 16:06
http://eztv.show/116012/suburra-s02e02-480p-x264-msd-eztv/60%Monthly2019-02-22 16:06
http://eztv.show/116011/murderers-and-their-mothers-s02e01-mark-howe-repack-web-x264-underbelly-eztv/60%Monthly2019-02-22 16:06
http://eztv.show/116010/suburra-s02e01-480p-x264-msd-eztv/60%Monthly2019-02-22 16:06
http://eztv.show/116009/backyard-envy-s01e06-720p-web-x264-tbs-eztv/60%Monthly2019-02-22 16:06
http://eztv.show/116007/suburra-s02e05-480p-x264-msd-eztv/60%Monthly2019-02-22 16:06
http://eztv.show/116008/backyard-envy-s01e06-web-x264-tbs-eztv/60%Monthly2019-02-22 16:06
http://eztv.show/116006/suburra-s02e03-720p-webrip-x264-strife-eztv/60%Monthly2019-02-22 16:06
http://eztv.show/116005/jimmy-fallon-2019-02-21-ken-jeong-web-x264-tbs-eztv/60%Monthly2019-02-22 16:06
http://eztv.show/116004/jimmy-fallon-2019-02-21-ken-jeong-720p-web-x264-tbs-eztv/60%Monthly2019-02-22 16:06
http://eztv.show/116003/seth-meyers-2019-02-21-james-spader-720p-web-x264-tbs-eztv/60%Monthly2019-02-22 16:06
http://eztv.show/116002/chefs-table-s06e01-720p-webrip-x264-strife-eztv/60%Monthly2019-02-22 16:06
http://eztv.show/116001/chefs-table-s06e02-720p-webrip-x264-strife-eztv/60%Monthly2019-02-22 16:06
http://eztv.show/116000/seth-meyers-2019-02-21-james-spader-web-x264-tbs-eztv/60%Monthly2019-02-22 16:06
http://eztv.show/115999/chefs-table-s06e03-720p-webrip-x264-strife-eztv/60%Monthly2019-02-22 16:06
http://eztv.show/115998/chefs-table-s06e04-720p-webrip-x264-strife-eztv/60%Monthly2019-02-22 16:06
http://eztv.show/115997/suburra-s02e04-480p-x264-msd-eztv/60%Monthly2019-02-22 16:06
http://eztv.show/115996/suburra-s02e06-480p-x264-msd-eztv/60%Monthly2019-02-22 16:06
http://eztv.show/115995/backyard-envy-s01e06-480p-x264-msd-eztv/60%Monthly2019-02-22 16:06
http://eztv.show/115994/seth-meyers-2019-02-21-james-spader-480p-x264-msd-eztv/60%Monthly2019-02-22 16:06
http://eztv.show/115993/broad-city-s05e05-real-web-x264-tbs-eztv/60%Monthly2019-02-22 16:06
http://eztv.show/115992/murderers-and-their-mothers-s02e03-michael-ryan-repack-web-x264-underbelly-eztv/60%Monthly2019-02-22 16:06
http://eztv.show/115991/broad-city-s05e05-real-720p-web-x264-tbs-eztv/60%Monthly2019-02-22 16:06
http://eztv.show/115990/jimmy-fallon-2019-02-21-ken-jeong-480p-x264-msd-eztv/60%Monthly2019-02-22 16:06
http://eztv.show/115989/greys-anatomy-s15e14-i-want-a-new-drug-720p-amzn-web-dl-ddp5-1-h-264-ntb-eztv/60%Monthly2019-02-22 16:06
http://eztv.show/115988/murderers-and-their-mothers-s02e05-thomas-watt-hamilton-repack-web-eztv/60%Monthly2019-02-22 16:06
http://eztv.show/115987/chefs-table-s06e01-480p-x264-msd-eztv/60%Monthly2019-02-22 16:06
http://eztv.show/115986/chefs-table-s06e02-480p-x264-msd-eztv/60%Monthly2019-02-22 16:06
http://eztv.show/115985/suburra-s02e03-480p-x264-msd-eztv/60%Monthly2019-02-22 16:06
http://eztv.show/115984/murderers-and-their-mothers-s02e04-peter-sutcliffe-repack-web-x264-underbelly-eztv/60%Monthly2019-02-22 16:06
http://eztv.show/115983/chefs-table-s06e04-480p-x264-msd-eztv/60%Monthly2019-02-22 16:06
http://eztv.show/115982/chefs-table-s06e03-480p-x264-msd-eztv/60%Monthly2019-02-22 16:06
http://eztv.show/115981/broad-city-s05e05-artsy-fartsy-720p-amzn-web-dl-ddp2-0-h-264-qoq-eztv/60%Monthly2019-02-22 16:06
http://eztv.show/115980/broad-city-s05e05-real-480p-x264-msd-eztv/60%Monthly2019-02-22 16:06
http://eztv.show/115979/murderers-and-their-mothers-s02e01-mark-howe-repack-480p-x264-msd-eztv/60%Monthly2019-02-22 16:06
http://eztv.show/115978/murderers-and-their-mothers-s02e04-peter-sutcliffe-repack-480p-x264-msd-eztv/60%Monthly2019-02-22 16:06
http://eztv.show/115977/murderers-and-their-mothers-s02e03-michael-ryan-repack-480p-x264-msd-eztv/60%Monthly2019-02-22 16:06
http://eztv.show/115976/a-million-little-things-s01e16-the-rosary-720p-amzn-web-dl-dd5-1-h-264-ajp69-eztv/60%Monthly2019-02-22 16:06
http://eztv.show/115975/s-w-a-t-2017-s02e16-pride-720p-amzn-web-dl-dd5-1-h-264-ajp69-eztv/60%Monthly2019-02-22 16:06
http://eztv.show/115974/the-walking-dead-s09e10-internal-480p-x264-msd-eztv/60%Monthly2019-02-22 16:06
http://eztv.show/115973/modern-family-s10e15-supershowerbabybowl-720p-amzn-web-dl-ddp5-1-h-264-ntb-eztv/60%Monthly2019-02-22 16:06
http://eztv.show/115972/good-trouble-s01e07-swipe-right-720p-amzn-web-dl-ddp5-1-h-264-kings-eztv/60%Monthly2019-02-22 16:05
http://eztv.show/115971/comedy-central-stand-up-featuring-s01e13-martin-urbano-web-x264-cookiemonster-eztv/60%Monthly2019-02-22 16:05
http://eztv.show/115970/comedy-central-stand-up-featuring-s01e14-chris-cotton-web-x264-cookiemonster-eztv/60%Monthly2019-02-22 16:05
http://eztv.show/115969/legacies-s01e11-were-gonna-need-a-spotlight-720p-amzn-web-dl-ddp5-1-h-264-kings-eztv/60%Monthly2019-02-22 16:05
http://eztv.show/115968/truck-night-in-america-s02e04-720p-web-h264-tbs-eztv/60%Monthly2019-02-22 16:05
http://eztv.show/115967/truck-night-in-america-s02e04-web-h264-tbs-eztv/60%Monthly2019-02-22 16:05
http://eztv.show/115966/truck-night-in-america-s02e04-480p-x264-msd-eztv/60%Monthly2019-02-22 16:05
http://eztv.show/115965/stephen-colbert-2019-02-21-annette-bening-720p-hdtv-x264-sorny-eztv/60%Monthly2019-02-22 16:05
http://eztv.show/115964/jimmy-fallon-2019-02-21-ken-jeong-720p-hdtv-x264-sorny-eztv/60%Monthly2019-02-22 16:05
http://eztv.show/115963/fresh-off-the-boat-s05e14-cupids-crossbow-720p-amzn-web-dl-ddp5-1-h-264-ntb-eztv/60%Monthly2019-02-22 16:05
http://eztv.show/115962/the-goldbergs-2013-s06e15-my-valentine-boy-720p-amzn-web-dl-ddp5-1-h-264-ntb-eztv/60%Monthly2019-02-22 16:05
http://eztv.show/115961/the-goldbergs-2013-s06e16-there-can-be-only-one-highlander-club-720p-amzn-eztv/60%Monthly2019-02-22 16:05
http://eztv.show/115960/doom-patrol-s01e02-720p-webrip-x264-metcon-eztv/60%Monthly2019-02-22 16:05
http://eztv.show/115959/doom-patrol-s01e02-480p-x264-msd-eztv/60%Monthly2019-02-22 16:05
http://eztv.show/115958/wwe-main-event-2019-02-22-720p-hdtv-x264-eztv/60%Monthly2019-02-22 16:05
http://eztv.show/115957/doom-patrol-s01e02-web-x264-phoenix-eztv/60%Monthly2019-02-22 16:05
http://eztv.show/115956/doom-patrol-s01e02-720p-web-x265-minx-eztv/60%Monthly2019-02-22 16:05
http://eztv.show/115955/great-british-railway-journeys-s10e15-east-malling-to-rye-720p-hdtv-eztv/60%Monthly2019-02-22 16:05
http://eztv.show/115954/beat-bobby-flay-s13e02-fancy-vs-rustic-720p-hdtv-x264-w4f-eztv/60%Monthly2019-02-22 16:05
http://eztv.show/115953/beat-bobby-flay-s13e02-fancy-vs-rustic-hdtv-x264-w4f-eztv/60%Monthly2019-02-22 16:05
http://eztv.show/115952/judge-judy-s23e149-my-pit-bull-is-like-scooby-doo-hdtv-x264-w4f-eztv/60%Monthly2019-02-22 16:05
http://eztv.show/115951/judge-judy-s23e149-my-pit-bull-is-like-scooby-doo-720p-hdtv-x264-w4f-eztv/60%Monthly2019-02-22 16:05
http://eztv.show/115950/judge-judy-s23e149-my-pit-bull-is-like-scooby-doo-480p-x264-msd-eztv/60%Monthly2019-02-22 16:05
http://eztv.show/115949/great-british-railway-journeys-s10e15-east-malling-to-rye-480p-x264-msd-eztv/60%Monthly2019-02-22 16:05
http://eztv.show/115948/beat-bobby-flay-s13e02-fancy-vs-rustic-480p-x264-msd-eztv/60%Monthly2019-02-22 16:05
http://eztv.show/115947/dr-pimple-popper-s02e08-a-lipoma-is-born-720p-web-x264-caffeine-eztv/60%Monthly2019-02-22 16:05
http://eztv.show/115946/australian-crime-stories-s03e01-hdtv-x264-cct-eztv/60%Monthly2019-02-22 16:05
http://eztv.show/115945/australian-crime-stories-s03e01-720p-hdtv-x264-cct-eztv/60%Monthly2019-02-22 16:05
http://eztv.show/115944/dr-pimple-popper-s02e08-a-lipoma-is-born-web-x264-caffeine-eztv/60%Monthly2019-02-22 16:05
http://eztv.show/115943/dr-pimple-popper-s02e08-a-lipoma-is-born-480p-x264-msd-eztv/60%Monthly2019-02-22 16:05
http://eztv.show/115942/doom-patrol-s01e02-donkey-patrol-720p-dcu-web-dl-aac2-0-h264-ntb-eztv/60%Monthly2019-02-22 16:05
http://eztv.show/115941/million-dollar-listing-los-angeles-s11e08-brother-dearest-hdtv-x264-w4f-eztv/60%Monthly2019-02-22 16:05
http://eztv.show/115940/million-dollar-listing-los-angeles-s11e08-brother-dearest-720p-hdtv-x264-w4f-eztv/60%Monthly2019-02-22 16:05
http://eztv.show/115939/australian-crime-stories-s03e01-480p-x264-msd-eztv/60%Monthly2019-02-22 16:05
http://eztv.show/115938/gogglebox-au-s09e03-hdtv-x264-cct-eztv/60%Monthly2019-02-22 16:05
http://eztv.show/115937/million-dollar-listing-los-angeles-s11e08-brother-dearest-480p-x264-msd-eztv/60%Monthly2019-02-22 16:05
http://eztv.show/115936/the-pioneer-woman-s21e08-drummond-home-cooking-720p-web-x264-caffeine-eztv/60%Monthly2019-02-22 16:05
http://eztv.show/115935/gogglebox-au-s09e03-720p-hdtv-x264-cct-eztv/60%Monthly2019-02-22 16:05
http://eztv.show/115934/the-pioneer-woman-s21e08-drummond-home-cooking-web-x264-caffeine-eztv/60%Monthly2019-02-22 16:05
http://eztv.show/115933/the-heights-s01e01-hdtv-x264-cct-eztv/60%Monthly2019-02-22 16:05
http://eztv.show/115932/gogglebox-au-s09e03-480p-x264-msd-eztv/60%Monthly2019-02-22 16:05
http://eztv.show/115931/the-pioneer-woman-s21e08-drummond-home-cooking-480p-x264-msd-eztv/60%Monthly2019-02-22 16:05
http://eztv.show/115930/the-heights-s01e01-720p-hdtv-x264-cct-eztv/60%Monthly2019-02-22 16:05
http://eztv.show/115929/the-heights-s01e01-480p-x264-msd-eztv/60%Monthly2019-02-22 16:05
http://eztv.show/115928/paranormal-caught-on-camera-s01e03-the-montauk-monster-720p-web-x264-caffeine-eztv/60%Monthly2019-02-21 16:05
http://eztv.show/115927/paranormal-caught-on-camera-s01e03-the-montauk-monster-web-x264-caffeine-eztv/60%Monthly2019-02-21 16:05
http://eztv.show/115926/paranormal-caught-on-camera-s01e03-the-montauk-monster-480p-x264-msd-eztv/60%Monthly2019-02-21 16:05
http://eztv.show/115925/beat-bobby-flay-s19e07-dont-drop-the-beat-bobby-720p-webrip-x264-caffeine-eztv/60%Monthly2019-02-21 16:05
http://eztv.show/115924/beat-bobby-flay-s19e07-dont-drop-the-beat-bobby-webrip-x264-caffeine-eztv/60%Monthly2019-02-21 16:05
http://eztv.show/115923/wwe-nxt-2019-02-20-480p-x264-msd-eztv/60%Monthly2019-02-21 16:05
http://eztv.show/115922/beat-bobby-flay-s19e07-dont-drop-the-beat-bobby-480p-x264-msd-eztv/60%Monthly2019-02-21 16:05
http://eztv.show/115921/food-fact-or-fiction-s04e15-bon-appetit-720p-webrip-x264-caffeine-eztv/60%Monthly2019-02-21 16:05
http://eztv.show/115920/food-fact-or-fiction-s04e15-bon-appetit-webrip-x264-caffeine-eztv/60%Monthly2019-02-21 16:05
http://eztv.show/115919/food-fact-or-fiction-s04e15-bon-appetit-480p-x264-msd-eztv/60%Monthly2019-02-21 16:05
http://eztv.show/115918/fair-go-2019-02-11-480p-x264-msd-eztv/60%Monthly2019-02-20 16:08
http://eztv.show/115917/the-gifted-s02e15-repack-720p-web-x264-tbs-eztv/60%Monthly2019-02-20 16:08
http://eztv.show/115916/the-gifted-s02e15-repack-480p-x264-msd-eztv/60%Monthly2019-02-20 16:08
http://eztv.show/115915/ncis-s16e14-internal-720p-web-h264-amrap-eztv/60%Monthly2019-02-20 16:08
http://eztv.show/115914/married-at-first-sight-au-s06e15-720p-hdtv-x264-plutonium-eztv/60%Monthly2019-02-20 16:08
http://eztv.show/115913/married-at-first-sight-au-s06e15-hdtv-x264-plutonium-eztv/60%Monthly2019-02-20 16:08
http://eztv.show/115912/my-big-fat-fabulous-life-s06e08-obsessive-habits-720p-web-x264-caffeine-eztv/60%Monthly2019-02-20 16:08
http://eztv.show/115911/my-big-fat-fabulous-life-s06e08-obsessive-habits-web-x264-caffeine-eztv/60%Monthly2019-02-20 16:08
http://eztv.show/115910/ncis-s16e14-internal-480p-x264-msd-eztv/60%Monthly2019-02-20 16:08
http://eztv.show/115909/married-at-first-sight-au-s06e15-480p-x264-msd-eztv/60%Monthly2019-02-20 16:08
http://eztv.show/115908/food-truck-nation-s01e07-shrimp-tacos-mofongo-pita-720p-webrip-x264-caffeine-eztv/60%Monthly2019-02-20 16:08
http://eztv.show/115907/food-truck-nation-s01e07-shrimp-tacos-mofongo-pita-webrip-x264-caffeine-eztv/60%Monthly2019-02-20 16:08
http://eztv.show/115906/my-big-fat-fabulous-life-s06e08-obsessive-habits-480p-x264-msd-eztv/60%Monthly2019-02-20 16:08
http://eztv.show/115904/i-am-jazz-s05e08-webrip-x264-tbs-eztv/60%Monthly2019-02-20 16:08
http://eztv.show/115905/food-truck-nation-s01e07-shrimp-tacos-mofongo-pita-480p-x264-msd-eztv/60%Monthly2019-02-20 16:08
http://eztv.show/115902/american-soul-s01e04-just-us-hdtv-x264-crimson-eztv/60%Monthly2019-02-20 16:08
http://eztv.show/115903/i-am-jazz-s05e08-720p-webrip-x264-tbs-eztv/60%Monthly2019-02-20 16:08
http://eztv.show/115901/heartbreak-island-s02e01-720p-hdtv-x264-fihtv-eztv/60%Monthly2019-02-20 16:08
http://eztv.show/115900/boomerang-2019-s01e03-power-hdtv-x264-crimson-eztv/60%Monthly2019-02-20 16:08
http://eztv.show/115899/heartbreak-island-s02e01-hdtv-x264-fihtv-eztv/60%Monthly2019-02-20 16:08
http://eztv.show/115898/how-the-other-kids-live-s01e03-720p-hdtv-x264-plutonium-eztv/60%Monthly2019-02-20 16:08
http://eztv.show/115897/how-the-other-kids-live-s01e03-hdtv-x264-plutonium-eztv/60%Monthly2019-02-20 16:08
http://eztv.show/115896/graveyard-carz-s10e10-carbituary-cuda-internal-720p-hdtv-x264-dhd-eztv/60%Monthly2019-02-20 16:08
http://eztv.show/115895/house-hunters-s163e10-charleston-charm-on-a-budget-web-x264-caffeine-eztv/60%Monthly2019-02-20 16:08
http://eztv.show/115894/i-am-jazz-s05e08-480p-x264-msd-eztv/60%Monthly2019-02-20 16:08
http://eztv.show/115893/heartbreak-island-s02e01-480p-x264-msd-eztv/60%Monthly2019-02-20 16:08
http://eztv.show/115892/fbi-s01e14-internal-720p-web-h264-amrap-eztv/60%Monthly2019-02-20 16:08
http://eztv.show/115891/how-the-other-kids-live-s01e03-480p-x264-msd-eztv/60%Monthly2019-02-20 16:08
http://eztv.show/115890/the-gifted-s02e15-repack-720p-web-x265-minx-eztv/60%Monthly2019-02-20 16:08
http://eztv.show/115889/graveyard-carz-s10e10-carbituary-cuda-internal-480p-x264-msd-eztv/60%Monthly2019-02-20 16:08
http://eztv.show/115888/fbi-s01e14-web-x264-tbs-eztv/60%Monthly2019-02-20 16:08
http://eztv.show/115887/fbi-s01e14-internal-480p-x264-msd-eztv/60%Monthly2019-02-20 16:08
http://eztv.show/115886/miracle-workers-2019-s01e02-13-days-hdtv-x264-crimson-eztv/60%Monthly2019-02-20 16:08
http://eztv.show/115885/american-soul-s01e04-just-us-720p-hdtv-x264-crimson-eztv/60%Monthly2019-02-20 16:08
http://eztv.show/115884/expedition-unknown-s06e00-global-game-show-wild-world-internal-480p-x264-msd-eztv/60%Monthly2019-02-20 16:08
http://eztv.show/115883/american-soul-s01e04-just-us-480p-x264-msd-eztv/60%Monthly2019-02-20 16:08
http://eztv.show/115882/house-hunters-international-s136e06-wine-not-move-to-queretaro-mexico-webrip-eztv/60%Monthly2019-02-20 16:08
http://eztv.show/115881/project-blue-book-s01e07-720p-hdtv-x265-minx-eztv/60%Monthly2019-02-20 16:08
http://eztv.show/115880/ncis-new-orleans-s05e14-internal-720p-web-h264-amrap-eztv/60%Monthly2019-02-20 16:08
http://eztv.show/115879/busy-tonight-2019-02-19-nikki-and-brie-bella-720p-web-x264-tbs-eztv/60%Monthly2019-02-20 16:08
http://eztv.show/115878/sinkholes-s02e06-floridas-mega-sinkholes-720p-hdtv-x264-plutonium-eztv/60%Monthly2019-02-20 16:08
http://eztv.show/115877/sinkholes-s02e06-floridas-mega-sinkholes-hdtv-x264-plutonium-eztv/60%Monthly2019-02-20 16:08
http://eztv.show/115876/busy-tonight-2019-02-19-nikki-and-brie-bella-web-x264-tbs-eztv/60%Monthly2019-02-20 16:08
http://eztv.show/115875/the-casketeers-s02e04-720p-hdtv-x264-fihtv-eztv/60%Monthly2019-02-20 16:08
http://eztv.show/115874/sinkholes-s02e06-floridas-mega-sinkholes-480p-x264-msd-eztv/60%Monthly2019-02-20 16:08
http://eztv.show/115873/fresh-eggs-s01e01-720p-hdtv-x264-fihtv-eztv/60%Monthly2019-02-20 16:07
http://eztv.show/115872/ncis-new-orleans-s05e14-internal-480p-x264-msd-eztv/60%Monthly2019-02-20 16:07
http://eztv.show/115871/fresh-eggs-s01e01-hdtv-x264-fihtv-eztv/60%Monthly2019-02-20 16:07
http://eztv.show/115870/the-casketeers-s02e05-720p-hdtv-x264-fihtv-eztv/60%Monthly2019-02-20 16:07
http://eztv.show/115869/the-casketeers-s02e05-hdtv-x264-fihtv-eztv/60%Monthly2019-02-20 16:07
http://eztv.show/115868/the-real-housewives-of-beverly-hills-s09e02-hdtv-x264-phoenix-eztv/60%Monthly2019-02-20 16:07
http://eztv.show/115867/busy-tonight-2019-02-19-nikki-and-brie-bella-480p-x264-msd-eztv/60%Monthly2019-02-20 16:07
http://eztv.show/115866/the-casketeers-s02e06-hdtv-x264-fihtv-eztv/60%Monthly2019-02-20 16:07
http://eztv.show/115865/the-casketeers-s02e06-720p-hdtv-x264-fihtv-eztv/60%Monthly2019-02-20 16:07
http://eztv.show/115864/the-casketeers-s02e04-480p-x264-msd-eztv/60%Monthly2019-02-20 16:07
http://eztv.show/115863/fresh-eggs-s01e01-480p-x264-msd-eztv/60%Monthly2019-02-20 16:07
http://eztv.show/115862/boomerang-2019-s01e03-power-720p-hdtv-x264-crimson-eztv/60%Monthly2019-02-20 16:07
http://eztv.show/115861/the-casketeers-s02e06-480p-x264-msd-eztv/60%Monthly2019-02-20 16:07
http://eztv.show/115860/siesta-key-s02e06-a-second-tier-friend-hdtv-x264-crimson-eztv/60%Monthly2019-02-20 16:07
http://eztv.show/115859/the-casketeers-s02e05-480p-x264-msd-eztv/60%Monthly2019-02-20 16:07
http://eztv.show/115858/boomerang-2019-s01e03-power-480p-x264-msd-eztv/60%Monthly2019-02-20 16:07
http://eztv.show/115857/stalked-murder-in-slow-motion-s01e03-michael-pech-720p-hdtv-x264-plutonium-eztv/60%Monthly2019-02-20 16:07
http://eztv.show/115856/stalked-murder-in-slow-motion-s01e03-michael-pech-hdtv-x264-plutonium-eztv/60%Monthly2019-02-20 16:07
http://eztv.show/115855/miracle-workers-2019-s01e02-13-days-720p-hdtv-x264-crimson-eztv/60%Monthly2019-02-20 16:07
http://eztv.show/115854/stalked-murder-in-slow-motion-s01e03-michael-pech-480p-x264-msd-eztv/60%Monthly2019-02-20 16:07
http://eztv.show/115853/siesta-key-s02e06-a-second-tier-friend-720p-hdtv-x264-crimson-eztv/60%Monthly2019-02-20 16:07
http://eztv.show/115852/teachers-2016-s03e16-720p-web-h264-metcon-eztv/60%Monthly2019-02-20 16:07
http://eztv.show/115851/corporate-s02e06-web-x264-tbs-eztv/60%Monthly2019-02-20 16:07
http://eztv.show/115850/many-sides-of-jane-s01e05-720p-web-h264-tbs-eztv/60%Monthly2019-02-20 16:07
http://eztv.show/115849/corporate-s02e06-720p-web-x264-tbs-eztv/60%Monthly2019-02-20 16:07
http://eztv.show/115848/this-is-us-s03e13-internal-720p-web-h264-amrap-eztv/60%Monthly2019-02-20 16:07
http://eztv.show/115847/miracle-workers-2019-s01e02-13-days-480p-x264-msd-eztv/60%Monthly2019-02-20 16:07
http://eztv.show/115846/many-sides-of-jane-s01e06-720p-web-h264-tbs-eztv/60%Monthly2019-02-20 16:07
http://eztv.show/115845/many-sides-of-jane-s01e05-web-h264-tbs-eztv/60%Monthly2019-02-20 16:07
http://eztv.show/115844/judge-judy-s23e145-mothers-mortgage-mishap-company-hdtv-x264-w4f-eztv/60%Monthly2019-02-20 16:07
http://eztv.show/115843/many-sides-of-jane-s01e06-web-h264-tbs-eztv/60%Monthly2019-02-20 16:07
http://eztv.show/115842/judge-judy-s23e145-mothers-mortgage-mishap-company-720p-hdtv-x264-w4f-eztv/60%Monthly2019-02-20 16:07
http://eztv.show/115841/siesta-key-s02e06-a-second-tier-friend-480p-x264-msd-eztv/60%Monthly2019-02-20 16:07
http://eztv.show/115840/teachers-2016-s03e16-480p-x264-msd-eztv/60%Monthly2019-02-20 16:07
http://eztv.show/115839/married-at-first-sight-s08e08-web-h264-tbs-eztv/60%Monthly2019-02-20 16:07
http://eztv.show/115838/project-blue-book-s01e07-internal-720p-web-h264-bamboozle-eztv/60%Monthly2019-02-20 16:07
http://eztv.show/115837/married-at-first-sight-s08e08-720p-web-h264-tbs-eztv/60%Monthly2019-02-20 16:07
http://eztv.show/115836/the-price-is-right-s47e103-web-x264-w4f-eztv/60%Monthly2019-02-20 16:07
http://eztv.show/115835/the-price-is-right-s47e103-720p-web-x264-w4f-eztv/60%Monthly2019-02-20 16:07
http://eztv.show/115834/lets-make-a-deal-2009-s10e104-web-x264-w4f-eztv/60%Monthly2019-02-20 16:07
http://eztv.show/115833/the-bold-and-the-beautiful-s32e106-web-x264-w4f-eztv/60%Monthly2019-02-20 16:07
http://eztv.show/115831/wwe-smackdown-live-2019-02-19-480p-x264-msd-eztv/60%Monthly2019-02-20 16:07
http://eztv.show/115832/the-bold-and-the-beautiful-s32e106-720p-web-x264-w4f-eztv/60%Monthly2019-02-20 16:07
http://eztv.show/115829/corporate-s02e06-480p-x264-msd-eztv/60%Monthly2019-02-20 16:07
http://eztv.show/115830/teachers-2016-s03e16-720p-web-x265-minx-eztv/60%Monthly2019-02-20 16:07
http://eztv.show/115828/lets-make-a-deal-2009-s10e104-720p-web-x264-w4f-eztv/60%Monthly2019-02-20 16:07
http://eztv.show/115827/many-sides-of-jane-s01e05-480p-x264-msd-eztv/60%Monthly2019-02-20 16:07
http://eztv.show/115826/judge-judy-s23e145-mothers-mortgage-mishap-company-480p-x264-msd-eztv/60%Monthly2019-02-20 16:07
http://eztv.show/115825/many-sides-of-jane-s01e06-480p-x264-msd-eztv/60%Monthly2019-02-20 16:06
http://eztv.show/115824/this-is-us-s03e13-internal-480p-x264-msd-eztv/60%Monthly2019-02-20 16:06
http://eztv.show/115823/stephen-colbert-2019-02-19-andrew-mccabe-web-x264-tbs-eztv/60%Monthly2019-02-20 16:06
http://eztv.show/115822/stephen-colbert-2019-02-19-andrew-mccabe-720p-web-x264-tbs-eztv/60%Monthly2019-02-20 16:06
http://eztv.show/115821/married-at-first-sight-s08e08-480p-x264-msd-eztv/60%Monthly2019-02-20 16:06
http://eztv.show/115820/project-blue-book-s01e07-internal-480p-x264-msd-eztv/60%Monthly2019-02-20 16:06
http://eztv.show/115819/the-bold-and-the-beautiful-s32e106-480p-x264-msd-eztv/60%Monthly2019-02-20 16:06
http://eztv.show/115818/days-of-our-lives-s54e104-web-x264-w4f-eztv/60%Monthly2019-02-20 16:06
http://eztv.show/115817/days-of-our-lives-s54e104-720p-web-x264-w4f-eztv/60%Monthly2019-02-20 16:06
http://eztv.show/115816/tmz-on-tv-2019-02-18-720p-web-x264-tbs-eztv/60%Monthly2019-02-20 16:06
http://eztv.show/115815/tmz-on-tv-2019-02-18-web-x264-tbs-eztv/60%Monthly2019-02-20 16:06
http://eztv.show/115814/the-price-is-right-s47e103-480p-x264-msd-eztv/60%Monthly2019-02-20 16:06
http://eztv.show/115813/lets-make-a-deal-2009-s10e104-480p-x264-msd-eztv/60%Monthly2019-02-20 16:06
http://eztv.show/115812/stephen-colbert-2019-02-19-andrew-mccabe-480p-x264-msd-eztv/60%Monthly2019-02-20 16:06
http://eztv.show/115811/tmz-on-tv-2019-02-18-480p-x264-msd-eztv/60%Monthly2019-02-20 16:06
http://eztv.show/115810/days-of-our-lives-s54e104-480p-x264-msd-eztv/60%Monthly2019-02-20 16:06
http://eztv.show/115808/martin-clunes-islands-of-america-s01e03-hdtv-x264-plutonium-eztv/60%Monthly2019-02-20 16:06
http://eztv.show/115809/martin-clunes-islands-of-america-s01e03-720p-hdtv-x264-plutonium-eztv/60%Monthly2019-02-20 16:06
http://eztv.show/115807/martin-clunes-islands-of-america-s01e03-480p-x264-msd-eztv/60%Monthly2019-02-20 16:06
http://eztv.show/115805/james-corden-2019-02-19-elizabeth-warren-web-x264-tbs-eztv/60%Monthly2019-02-20 16:06
http://eztv.show/115806/james-corden-2019-02-19-elizabeth-warren-720p-web-x264-tbs-eztv/60%Monthly2019-02-20 16:06
http://eztv.show/115804/big-fight-preview-s01e01-james-degale-hdtv-x264-plutonium-eztv/60%Monthly2019-02-20 16:06
http://eztv.show/115803/james-corden-2019-02-19-elizabeth-warren-480p-x264-msd-eztv/60%Monthly2019-02-20 16:06
http://eztv.show/115802/american-housewife-s03e13-internal-720p-web-h264-bamboozle-eztv/60%Monthly2019-02-20 16:06
http://eztv.show/115801/blackish-s05e13-internal-720p-web-h264-bamboozle-eztv/60%Monthly2019-02-20 16:06
http://eztv.show/115800/the-kids-are-alright-s01e14-internal-720p-web-h264-bamboozle-eztv/60%Monthly2019-02-20 16:06
http://eztv.show/115799/big-fight-preview-s01e01-james-degale-480p-x264-msd-eztv/60%Monthly2019-02-20 16:06
http://eztv.show/115798/the-rookie-s01e13-internal-720p-web-h264-bamboozle-eztv/60%Monthly2019-02-20 16:06
http://eztv.show/115797/wwe-205-live-2019-02-20-720p-web-h264-ligate-eztv/60%Monthly2019-02-20 16:06
http://eztv.show/115796/the-kids-are-alright-s01e14-internal-480p-x264-msd-eztv/60%Monthly2019-02-20 16:06
http://eztv.show/115795/splitting-up-together-us-s02e13-internal-720p-web-h264-bamboozle-eztv/60%Monthly2019-02-20 16:06
http://eztv.show/115794/american-housewife-s03e13-internal-480p-x264-msd-eztv/60%Monthly2019-02-20 16:06
http://eztv.show/115793/blackish-s05e13-internal-480p-x264-msd-eztv/60%Monthly2019-02-20 16:06
http://eztv.show/115792/the-rookie-s01e13-internal-480p-x264-msd-eztv/60%Monthly2019-02-20 16:06
http://eztv.show/115791/wwe-205-live-2019-02-20-480p-x264-msd-eztv/60%Monthly2019-02-20 16:06
http://eztv.show/115789/ellens-game-of-games-s02e09-web-x264-tbs-eztv/60%Monthly2019-02-20 16:06
http://eztv.show/115790/splitting-up-together-us-s02e13-internal-480p-x264-msd-eztv/60%Monthly2019-02-20 16:06
http://eztv.show/115788/ellens-game-of-games-s02e09-720p-web-x264-tbs-eztv/60%Monthly2019-02-20 16:06
http://eztv.show/115787/my-kitchen-rules-s10e15-hdtv-x264-fqm-eztv/60%Monthly2019-02-20 16:06
http://eztv.show/115786/new-amsterdam-2018-s01e14-internal-720p-web-x264-bamboozle-eztv/60%Monthly2019-02-20 16:06
http://eztv.show/115785/splitting-up-together-us-s02e13-720p-web-x265-minx-eztv/60%Monthly2019-02-20 16:06
http://eztv.show/115784/ellens-game-of-games-s02e09-480p-x264-msd-eztv/60%Monthly2019-02-20 16:06
http://eztv.show/115783/new-amsterdam-2018-s01e14-internal-480p-x264-msd-eztv/60%Monthly2019-02-20 16:06
http://eztv.show/115782/my-kitchen-rules-s10e15-720p-hdtv-x264-orenji-eztv/60%Monthly2019-02-20 16:06
http://eztv.show/115781/my-kitchen-rules-s10e15-480p-x264-msd-eztv/60%Monthly2019-02-20 16:06
http://eztv.show/115780/get-krackn-s02e03-hdtv-x264-fqm-eztv/60%Monthly2019-02-20 16:06
http://eztv.show/115779/get-krackn-s02e03-720p-hdtv-x264-orenji-eztv/60%Monthly2019-02-20 16:06
http://eztv.show/115778/get-krackn-s02e03-480p-x264-msd-eztv/60%Monthly2019-02-20 16:06
http://eztv.show/115777/jimmy-fallon-2019-02-19-jake-gyllenhaal-720p-web-x264-tbs-eztv/60%Monthly2019-02-20 16:06
http://eztv.show/115776/jimmy-fallon-2019-02-19-jake-gyllenhaal-web-x264-tbs-eztv/60%Monthly2019-02-20 16:06
http://eztv.show/115775/jimmy-fallon-2019-02-19-jake-gyllenhaal-480p-x264-msd-eztv/60%Monthly2019-02-20 16:06
http://eztv.show/115774/lethal-weapon-s03e14-game-of-chicken-720p-amzn-web-dl-ddp5-1-h-264-ntb-eztv/60%Monthly2019-02-20 16:06
http://eztv.show/115773/the-gifted-s02e15-hdtv-x264-cravers-eztv/60%Monthly2019-02-20 16:06
http://eztv.show/115772/seth-meyers-2019-02-19-america-ferrera-web-x264-tbs-eztv/60%Monthly2019-02-20 16:06
http://eztv.show/115771/the-gifted-s02e15-720p-hdtv-x264-cravers-eztv/60%Monthly2019-02-20 16:06
http://eztv.show/115770/seth-meyers-2019-02-19-america-ferrera-720p-web-x264-tbs-eztv/60%Monthly2019-02-20 16:05
http://eztv.show/115769/the-rookie-s01e13-caught-stealing-720p-amzn-web-dl-ddp5-1-h-264-ntb-eztv/60%Monthly2019-02-20 16:05
http://eztv.show/115768/seth-meyers-2019-02-19-america-ferrera-480p-x264-msd-eztv/60%Monthly2019-02-20 16:05
http://eztv.show/115767/24-hours-in-a-and-e-s17e07-720p-hdtv-x264-qpel-eztv/60%Monthly2019-02-20 16:05
http://eztv.show/115766/fbi-s01e14-exposed-720p-amzn-web-dl-ddp5-1-h-264-ntb-eztv/60%Monthly2019-02-20 16:05
http://eztv.show/115765/24-hours-in-a-and-e-s17e07-480p-x264-msd-eztv/60%Monthly2019-02-20 16:05
http://eztv.show/115764/rich-kids-go-skint-s01e01-hdtv-x264-plutonium-eztv/60%Monthly2019-02-20 16:05
http://eztv.show/115763/rich-kids-go-skint-s01e02-720p-hdtv-x264-plutonium-eztv/60%Monthly2019-02-20 16:05
http://eztv.show/115762/rich-kids-go-skint-s01e02-hdtv-x264-plutonium-eztv/60%Monthly2019-02-20 16:05
http://eztv.show/115761/rich-kids-go-skint-s01e03-pdtv-x264-plutonium-eztv/60%Monthly2019-02-20 16:05
http://eztv.show/115760/rich-kids-go-skint-s01e05-pdtv-x264-plutonium-eztv/60%Monthly2019-02-20 16:05
http://eztv.show/115759/rich-kids-go-skint-s01e04-pdtv-x264-plutonium-eztv/60%Monthly2019-02-20 16:05
http://eztv.show/115758/rich-kids-go-skint-s01e06-pdtv-x264-plutonium-eztv/60%Monthly2019-02-20 16:05
http://eztv.show/115757/teachers-2016-s03e16-web-x264-tbs-eztv/60%Monthly2019-02-20 16:05
http://eztv.show/115756/rich-kids-go-skint-s01e01-480p-x264-msd-eztv/60%Monthly2019-02-20 16:05
http://eztv.show/115755/this-is-us-s03e13-our-little-island-girl-720p-amzn-web-dl-ddp5-1-h-264-kings-eztv/60%Monthly2019-02-20 16:05
http://eztv.show/115754/teachers-2016-s03e16-internal-480p-x264-msd-eztv/60%Monthly2019-02-20 16:05
http://eztv.show/115753/jimmy-fallon-2019-02-19-jake-gyllenhaal-720p-hdtv-x264-sorny-eztv/60%Monthly2019-02-20 16:05
http://eztv.show/115751/married-at-first-sight-au-s06e16-720p-hdtv-x264-plutonium-eztv/60%Monthly2019-02-20 16:05
http://eztv.show/115752/married-at-first-sight-au-s06e16-hdtv-x264-plutonium-eztv/60%Monthly2019-02-20 16:05
http://eztv.show/115750/married-at-first-sight-au-s06e16-480p-x264-msd-eztv/60%Monthly2019-02-20 16:05
http://eztv.show/115749/dororo-s01e06-the-story-of-the-moriko-song-part-two-web-h264-uranime-eztv/60%Monthly2019-02-20 16:05
http://eztv.show/115748/dororo-s01e06-the-story-of-the-moriko-song-part-two-720p-web-h264-uranime-eztv/60%Monthly2019-02-20 16:05
http://eztv.show/115747/stephen-colbert-2019-02-19-andrew-mccabe-720p-hdtv-x264-sorny-eztv/60%Monthly2019-02-20 16:05
http://eztv.show/115746/dororo-s01e07-the-story-of-the-jorogumo-silk-spider-web-h264-uranime-eztv/60%Monthly2019-02-20 16:05
http://eztv.show/115745/dororo-s01e07-the-story-of-the-jorogumo-silk-spider-720p-web-h264-uranime-eztv/60%Monthly2019-02-20 16:05
http://eztv.show/115744/dororo-s01e06-the-story-of-the-moriko-song-part-two-480p-x264-msd-eztv/60%Monthly2019-02-20 16:05
http://eztv.show/115743/dororo-s01e07-the-story-of-the-jorogumo-silk-spider-480p-x264-msd-eztv/60%Monthly2019-02-20 16:05
http://eztv.show/115742/lethal-weapon-s03e14-hdtv-x264-cravers-eztv/60%Monthly2019-02-20 16:05
http://eztv.show/115741/lethal-weapon-s03e14-720p-hdtv-x264-cravers-eztv/60%Monthly2019-02-20 16:05
http://eztv.show/115740/danger-mouse-2015-s02e42-danger-thon-720p-hdtv-x264-kettle-eztv/60%Monthly2019-02-20 16:05
http://eztv.show/115739/danger-mouse-2015-s02e42-danger-thon-480p-x264-msd-eztv/60%Monthly2019-02-20 16:05
http://eztv.show/115738/ncis-new-orleans-s05e14-repack-hdtv-x264-killers-eztv/60%Monthly2019-02-20 16:05
http://eztv.show/115737/the-simpsons-s24e08-720p-hdtv-x265-minx-eztv/60%Monthly2019-02-20 16:05
http://eztv.show/115736/ncis-new-orleans-s05e14-repack-720p-hdtv-x264-killers-eztv/60%Monthly2019-02-20 16:05
http://eztv.show/115735/ncis-new-orleans-s05e14-repack-480p-x264-msd-eztv/60%Monthly2019-02-20 16:05
http://eztv.show/115733/hughesy-we-have-a-problem-s03e04-hdtv-x264-cct-eztv/60%Monthly2019-02-20 16:05
http://eztv.show/115734/great-british-railway-journeys-s10e13-ealing-broadway-to-south-kensington-eztv/60%Monthly2019-02-20 16:05
http://eztv.show/115732/hughesy-we-have-a-problem-s03e04-720p-hdtv-x264-cct-eztv/60%Monthly2019-02-20 16:05
http://eztv.show/115731/travel-guides-au-s03e03-hdtv-x264-cct-eztv/60%Monthly2019-02-20 16:05
http://eztv.show/115730/hughesy-we-have-a-problem-s03e04-480p-x264-msd-eztv/60%Monthly2019-02-20 16:05
http://eztv.show/115729/travel-guides-au-s03e03-720p-hdtv-x264-cct-eztv/60%Monthly2019-02-20 16:05
http://eztv.show/115728/travel-guides-au-s03e03-480p-x264-msd-eztv/60%Monthly2019-02-20 16:05
http://eztv.show/115727/russell-peters-vs-the-world-s01e02-720p-web-x264-tvillage-eztv/60%Monthly2019-02-20 16:05
http://eztv.show/115726/russell-peters-vs-the-world-s01e03-720p-web-x264-tvillage-eztv/60%Monthly2019-02-20 16:05
http://eztv.show/115725/russell-peters-vs-the-world-s01e04-720p-web-x264-tvillage-eztv/60%Monthly2019-02-20 16:05
http://eztv.show/115724/russell-peters-vs-the-world-s01e01-480p-x264-msd-eztv/60%Monthly2019-02-20 16:05
http://eztv.show/115723/russell-peters-vs-the-world-s01e02-480p-x264-msd-eztv/60%Monthly2019-02-20 16:05
http://eztv.show/115722/russell-peters-vs-the-world-s01e03-480p-x264-msd-eztv/60%Monthly2019-02-20 16:05
http://eztv.show/115721/judge-judy-s23e144-recess-for-a-new-generation-hdtv-x264-w4f-eztv/60%Monthly2019-02-19 16:08
http://eztv.show/115720/street-outlaws-s12e00-tucson-tuning-web-x264-tbs-eztv/60%Monthly2019-02-19 16:08
http://eztv.show/115719/man-with-a-plan-s03e03-480p-x264-msd-eztv/60%Monthly2019-02-19 16:08
http://eztv.show/115717/street-outlaws-s12e12-web-x264-tbs-eztv/60%Monthly2019-02-19 16:08
http://eztv.show/115718/street-outlaws-s12e00-tucson-tuning-720p-web-x264-tbs-eztv/60%Monthly2019-02-19 16:08
http://eztv.show/115716/street-outlaws-s12e12-720p-web-x264-tbs-eztv/60%Monthly2019-02-19 16:08
http://eztv.show/115715/street-outlaws-s12e13-web-x264-tbs-eztv/60%Monthly2019-02-19 16:08
http://eztv.show/115714/the-passage-s01e06-480p-x264-msd-eztv/60%Monthly2019-02-19 16:08
http://eztv.show/115713/coroner-s01e07-720p-webrip-x265-minx-eztv/60%Monthly2019-02-19 16:08
http://eztv.show/115712/i-am-the-night-s01e04-webrip-x264-tbs-eztv/60%Monthly2019-02-19 16:08
http://eztv.show/115711/street-outlaws-s12e13-720p-web-x264-tbs-eztv/60%Monthly2019-02-19 16:08
http://eztv.show/115710/i-am-the-night-s01e04-720p-webrip-x264-tbs-eztv/60%Monthly2019-02-19 16:08
http://eztv.show/115709/judge-judy-s23e144-recess-for-a-new-generation-480p-x264-msd-eztv/60%Monthly2019-02-19 16:08
http://eztv.show/115708/the-good-doctor-s02e15-480p-x264-msd-eztv/60%Monthly2019-02-19 16:08
http://eztv.show/115707/street-outlaws-s12e12-480p-x264-msd-eztv/60%Monthly2019-02-19 16:08
http://eztv.show/115706/street-outlaws-s12e00-tucson-tuning-480p-x264-msd-eztv/60%Monthly2019-02-19 16:08
http://eztv.show/115705/street-outlaws-s12e13-480p-x264-msd-eztv/60%Monthly2019-02-19 16:08
http://eztv.show/115704/i-am-the-night-s01e04-480p-x264-msd-eztv/60%Monthly2019-02-19 16:08
http://eztv.show/115703/the-passage-s01e06-720p-web-x265-minx-eztv/60%Monthly2019-02-19 16:08
http://eztv.show/115702/magnum-p-i-2018-s01e15-hdtv-x264-sva-eztv/60%Monthly2019-02-19 16:08
http://eztv.show/115701/magnum-p-i-2018-s01e15-720p-hdtv-x264-avs-eztv/60%Monthly2019-02-19 16:08
http://eztv.show/115700/magnum-p-i-2018-s01e15-480p-x264-msd-eztv/60%Monthly2019-02-19 16:08
http://eztv.show/115699/people-magazine-investigates-s03e14-burned-alive-720p-webrip-x264-caffeine-eztv/60%Monthly2019-02-19 16:08
http://eztv.show/115698/people-magazine-investigates-s03e14-burned-alive-webrip-x264-caffeine-eztv/60%Monthly2019-02-19 16:08
http://eztv.show/115697/autopsy-the-last-hours-of-s08e02-rue-mcclanahan-hdtv-x264-esc-eztv/60%Monthly2019-02-19 16:08
http://eztv.show/115696/copycat-killers-s05e04-casino-720p-hdtv-x264-esc-eztv/60%Monthly2019-02-19 16:08
http://eztv.show/115695/copycat-killers-s05e04-casino-hdtv-x264-esc-eztv/60%Monthly2019-02-19 16:08
http://eztv.show/115694/people-magazine-investigates-s03e14-burned-alive-480p-x264-msd-eztv/60%Monthly2019-02-19 16:08
http://eztv.show/115693/kids-baking-championship-s06e07-monkey-see-monkey-bake-720p-webrip-x264-caffeine-eztv/60%Monthly2019-02-19 16:08
http://eztv.show/115692/kids-baking-championship-s06e07-monkey-see-monkey-bake-webrip-x264-caffeine-eztv/60%Monthly2019-02-19 16:08
http://eztv.show/115691/american-dad-s14e15-webrip-x264-tbs-eztv/60%Monthly2019-02-19 16:08
http://eztv.show/115690/american-dad-s14e15-720p-webrip-x264-tbs-eztv/60%Monthly2019-02-19 16:08
http://eztv.show/115689/kids-baking-championship-s06e07-monkey-see-monkey-bake-480p-x264-msd-eztv/60%Monthly2019-02-19 16:08
http://eztv.show/115688/i-am-the-night-s01e04-720p-webrip-x265-minx-eztv/60%Monthly2019-02-19 16:08
http://eztv.show/115687/american-dad-s14e15-480p-x264-msd-eztv/60%Monthly2019-02-19 16:08
http://eztv.show/115686/the-good-doctor-s02e15-720p-hdtv-x265-minx-eztv/60%Monthly2019-02-19 16:08
http://eztv.show/115685/american-dad-s14e15-720p-webrip-x265-minx-eztv/60%Monthly2019-02-19 16:08
http://eztv.show/115684/manifest-s01e16-720p-hdtv-x264-killers-eztv/60%Monthly2019-02-19 16:08
http://eztv.show/115683/manifest-s01e16-hdtv-x264-killers-eztv/60%Monthly2019-02-19 16:08
http://eztv.show/115682/lost-gold-s01e07-the-lost-blue-bucket-gold-720p-webrip-x264-caffeine-eztv/60%Monthly2019-02-19 16:08
http://eztv.show/115681/lost-gold-s01e07-the-lost-blue-bucket-gold-webrip-x264-caffeine-eztv/60%Monthly2019-02-19 16:08
http://eztv.show/115680/manifest-s01e16-480p-x264-msd-eztv/60%Monthly2019-02-19 16:08
http://eztv.show/115679/wwe-monday-night-raw-2019-02-18-hdtv-x264-nwchd-eztv/60%Monthly2019-02-19 16:08
http://eztv.show/115678/lost-gold-s01e07-the-lost-blue-bucket-gold-480p-x264-msd-eztv/60%Monthly2019-02-19 16:08
http://eztv.show/115677/the-neighborhood-s01e15-internal-720p-web-h264-amrap-eztv/60%Monthly2019-02-19 16:08
http://eztv.show/115676/manifest-s01e16-720p-hdtv-x265-minx-eztv/60%Monthly2019-02-19 16:08
http://eztv.show/115675/the-neighborhood-s01e15-internal-480p-x264-msd-eztv/60%Monthly2019-02-19 16:08
http://eztv.show/115674/rachael-ray-2019-02-18-kate-walsh-hdtv-x264-w4f-eztv/60%Monthly2019-02-19 16:07
http://eztv.show/115673/rachael-ray-2019-02-18-kate-walsh-720p-hdtv-x264-w4f-eztv/60%Monthly2019-02-19 16:07
http://eztv.show/115672/rachael-ray-2019-02-18-kate-walsh-480p-x264-msd-eztv/60%Monthly2019-02-19 16:07
http://eztv.show/115671/man-with-a-plan-s03e03-internal-720p-web-h264-amrap-eztv/60%Monthly2019-02-19 16:07
http://eztv.show/115670/man-with-a-plan-s03e03-internal-480p-x264-msd-eztv/60%Monthly2019-02-19 16:07
http://eztv.show/115669/magnum-p-i-2018-s01e15-720p-hdtv-x265-minx-eztv/60%Monthly2019-02-19 16:07
http://eztv.show/115668/the-passage-s01e06-hdtv-x264-cravers-eztv/60%Monthly2019-02-19 16:07
http://eztv.show/115667/the-passage-s01e06-720p-hdtv-x264-cravers-eztv/60%Monthly2019-02-19 16:07
http://eztv.show/115666/the-daily-show-2019-02-18-bing-liu-web-x264-tbs-eztv/60%Monthly2019-02-19 16:07
http://eztv.show/115665/house-hunters-s164e01-retro-styles-in-rapid-city-web-x264-caffeine-eztv/60%Monthly2019-02-19 16:07
http://eztv.show/115664/house-hunters-international-s137e03-long-term-living-in-denmark-webrip-eztv/60%Monthly2019-02-19 16:07
http://eztv.show/115663/the-daily-show-2019-02-18-bing-liu-720p-web-x264-tbs-eztv/60%Monthly2019-02-19 16:07
http://eztv.show/115662/magnum-p-i-2018-s01e15-internal-720p-web-h264-amrap-eztv/60%Monthly2019-02-19 16:07
http://eztv.show/115661/jimmy-fallon-2019-02-18-paul-shaffer-720p-hdtv-x264-sorny-eztv/60%Monthly2019-02-19 16:07
http://eztv.show/115660/magnum-p-i-2018-s01e15-internal-480p-x264-msd-eztv/60%Monthly2019-02-19 16:07
http://eztv.show/115659/jimmy-fallon-2019-02-18-paul-shaffer-480p-x264-msd-eztv/60%Monthly2019-02-19 16:07
http://eztv.show/115658/stephen-colbert-2019-02-18-jake-tapper-720p-hdtv-x264-sorny-eztv/60%Monthly2019-02-19 16:07
http://eztv.show/115657/the-casketeers-s02e03-720p-hdtv-x264-fihtv-eztv/60%Monthly2019-02-19 16:07
http://eztv.show/115656/the-casketeers-s02e03-hdtv-x264-fihtv-eztv/60%Monthly2019-02-19 16:07
http://eztv.show/115655/bull-2016-s03e15-internal-720p-web-h264-amrap-eztv/60%Monthly2019-02-19 16:07
http://eztv.show/115654/stephen-colbert-2019-02-18-jake-tapper-480p-x264-msd-eztv/60%Monthly2019-02-19 16:07
http://eztv.show/115653/bull-2016-s03e15-internal-480p-x264-msd-eztv/60%Monthly2019-02-19 16:07
http://eztv.show/115652/the-casketeers-s02e03-480p-x264-msd-eztv/60%Monthly2019-02-19 16:07
http://eztv.show/115651/love-and-hip-hop-s09e12-pura-vida-720p-hdtv-x264-crimson-eztv/60%Monthly2019-02-19 16:07
http://eztv.show/115650/love-and-hip-hop-s09e12-pura-vida-hdtv-x264-crimson-eztv/60%Monthly2019-02-19 16:07
http://eztv.show/115649/love-and-hip-hop-s09e12-pura-vida-480p-x264-msd-eztv/60%Monthly2019-02-19 16:07
http://eztv.show/115648/growing-up-gifted-s02e01-720p-hdtv-x264-plutonium-eztv/60%Monthly2019-02-19 16:07
http://eztv.show/115647/victoria-s03e06-web-h264-memento-eztv/60%Monthly2019-02-19 16:07
http://eztv.show/115646/the-sex-clinic-s02e04-pdtv-x264-plutonium-eztv/60%Monthly2019-02-19 16:07
http://eztv.show/115645/i-am-the-night-s01e04-matador-hdtv-x264-crimson-eztv/60%Monthly2019-02-19 16:07
http://eztv.show/115644/i-am-the-night-s01e04-matador-720p-hdtv-x264-crimson-eztv/60%Monthly2019-02-19 16:07
http://eztv.show/115643/growing-up-gifted-s02e01-480p-x264-msd-eztv/60%Monthly2019-02-19 16:07
http://eztv.show/115642/victoria-s03e06-720p-web-h264-memento-eztv/60%Monthly2019-02-19 16:07
http://eztv.show/115641/i-am-the-night-s01e04-matador-480p-x264-msd-eztv/60%Monthly2019-02-19 16:07
http://eztv.show/115640/victoria-s03e06-480p-x264-msd-eztv/60%Monthly2019-02-19 16:07
http://eztv.show/115639/instant-hotel-s02e02-hdtv-x264-cct-eztv/60%Monthly2019-02-19 16:07
http://eztv.show/115638/gegege-no-kitaro-s01e44-web-x264-uranime-eztv/60%Monthly2019-02-19 16:07
http://eztv.show/115636/victoria-s03e06-web-x264-phoenix-eztv/60%Monthly2019-02-19 16:07
http://eztv.show/115637/the-good-doctor-s02e15-internal-720p-web-h264-amrap-eztv/60%Monthly2019-02-19 16:07
http://eztv.show/115634/growing-up-gifted-s02e01-hdtv-x264-plutonium-eztv/60%Monthly2019-02-19 16:07
http://eztv.show/115635/gegege-no-kitaro-s01e44-720p-web-x264-uranime-eztv/60%Monthly2019-02-19 16:07
http://eztv.show/115633/gegege-no-kitaro-s01e44-480p-x264-msd-eztv/60%Monthly2019-02-19 16:07
http://eztv.show/115632/the-good-doctor-s02e15-internal-480p-x264-msd-eztv/60%Monthly2019-02-19 16:07
http://eztv.show/115631/the-passage-s01e06-i-want-to-know-what-you-taste-like-720p-amzn-web-dl-ddp5-1-eztv/60%Monthly2019-02-19 16:07
http://eztv.show/115629/vanderpump-rules-s07e11-return-of-crazy-kristen-hdtv-x264-crimson-eztv/60%Monthly2019-02-19 16:07
http://eztv.show/115630/cartel-crew-s01e07-forbidden-paradise-part-1-hdtv-x264-crimson-eztv/60%Monthly2019-02-19 16:07
http://eztv.show/115628/cartel-crew-s01e07-forbidden-paradise-part-1-720p-hdtv-x264-crimson-eztv/60%Monthly2019-02-19 16:07
http://eztv.show/115627/presidents-at-war-s01e02-web-h264-tbs-eztv/60%Monthly2019-02-19 16:07
http://eztv.show/115626/cartel-crew-s01e07-forbidden-paradise-part-1-480p-x264-msd-eztv/60%Monthly2019-02-19 16:07
http://eztv.show/115624/presidents-at-war-s01e02-720p-web-h264-tbs-eztv/60%Monthly2019-02-19 16:07
http://eztv.show/115625/7-days-nz-s11e02-720p-hdtv-x264-fihtv-eztv/60%Monthly2019-02-19 16:07
http://eztv.show/115623/lindsay-lohans-beach-club-s01e07-lindsay-flips-the-script-hdtv-x264-crimson-eztv/60%Monthly2019-02-19 16:07
http://eztv.show/115622/vanderpump-rules-s07e11-return-of-crazy-kristen-720p-hdtv-x264-crimson-eztv/60%Monthly2019-02-19 16:07
http://eztv.show/115621/7-days-nz-s11e02-480p-x264-msd-eztv/60%Monthly2019-02-19 16:07
http://eztv.show/115620/stephen-colbert-2019-02-18-jake-tapper-web-x264-tbs-eztv/60%Monthly2019-02-19 16:06
http://eztv.show/115619/the-price-is-right-s47e102-web-x264-w4f-eztv/60%Monthly2019-02-19 16:06
http://eztv.show/115618/presidents-at-war-s01e02-480p-x264-msd-eztv/60%Monthly2019-02-19 16:06
http://eztv.show/115617/lets-make-a-deal-2009-s10e103-web-x264-w4f-eztv/60%Monthly2019-02-19 16:06
http://eztv.show/115616/the-price-is-right-s47e102-720p-web-x264-w4f-eztv/60%Monthly2019-02-19 16:06
http://eztv.show/115615/the-bold-and-the-beautiful-s32e105-web-x264-w4f-eztv/60%Monthly2019-02-19 16:06
http://eztv.show/115614/dark-net-s02e01-internal-720p-web-x264-tvillage-eztv/60%Monthly2019-02-19 16:06
http://eztv.show/115613/lets-make-a-deal-2009-s10e103-720p-web-x264-w4f-eztv/60%Monthly2019-02-19 16:06
http://eztv.show/115612/dark-net-s02e02-internal-720p-web-x264-tvillage-eztv/60%Monthly2019-02-19 16:06
http://eztv.show/115611/the-bold-and-the-beautiful-s32e105-720p-web-x264-w4f-eztv/60%Monthly2019-02-19 16:06
http://eztv.show/115610/dark-net-s02e03-internal-720p-web-x264-tvillage-eztv/60%Monthly2019-02-19 16:06
http://eztv.show/115609/dark-net-s02e04-internal-720p-web-x264-tvillage-eztv/60%Monthly2019-02-19 16:06
http://eztv.show/115608/dark-net-s02e05-internal-720p-web-x264-tvillage-eztv/60%Monthly2019-02-19 16:06
http://eztv.show/115607/dark-net-s02e07-internal-720p-web-x264-tvillage-eztv/60%Monthly2019-02-19 16:06
http://eztv.show/115606/dark-net-s02e08-internal-720p-web-x264-tvillage-eztv/60%Monthly2019-02-19 16:06
http://eztv.show/115605/dark-net-s02e06-internal-720p-web-x264-tvillage-eztv/60%Monthly2019-02-19 16:06
http://eztv.show/115604/wwe-monday-night-raw-2019-02-18-480p-x264-msd-eztv/60%Monthly2019-02-19 16:06
http://eztv.show/115603/vanderpump-rules-s07e11-return-of-crazy-kristen-480p-x264-msd-eztv/60%Monthly2019-02-19 16:06
http://eztv.show/115602/dark-net-s02e01-internal-480p-x264-msd-eztv/60%Monthly2019-02-19 16:06
http://eztv.show/115601/tmz-on-tv-2019-02-15-web-x264-tbs-eztv/60%Monthly2019-02-19 16:06
http://eztv.show/115600/days-of-our-lives-s54e103-web-x264-w4f-eztv/60%Monthly2019-02-19 16:06
http://eztv.show/115599/days-of-our-lives-s54e103-720p-web-x264-w4f-eztv/60%Monthly2019-02-19 16:06
http://eztv.show/115598/tmz-on-tv-2019-02-15-720p-web-x264-tbs-eztv/60%Monthly2019-02-19 16:06
http://eztv.show/115597/lindsay-lohans-beach-club-s01e07-lindsay-flips-the-script-720p-hdtv-x264-crimson-eztv/60%Monthly2019-02-19 16:06
http://eztv.show/115596/love-and-hip-hop-miami-s02e08-to-serve-and-protect-720p-hdtv-x264-crimson-eztv/60%Monthly2019-02-19 16:06
http://eztv.show/115595/the-bold-and-the-beautiful-s32e105-480p-x264-msd-eztv/60%Monthly2019-02-19 16:06
http://eztv.show/115594/love-and-hip-hop-miami-s02e08-to-serve-and-protect-hdtv-x264-crimson-eztv/60%Monthly2019-02-19 16:06
http://eztv.show/115593/lets-make-a-deal-2009-s10e103-480p-x264-msd-eztv/60%Monthly2019-02-19 16:06
http://eztv.show/115592/the-price-is-right-s47e102-480p-x264-msd-eztv/60%Monthly2019-02-19 16:06
http://eztv.show/115591/dark-net-s02e02-internal-480p-x264-msd-eztv/60%Monthly2019-02-19 16:06
http://eztv.show/115590/dark-net-s02e07-internal-480p-x264-msd-eztv/60%Monthly2019-02-19 16:06
http://eztv.show/115589/dark-net-s02e05-internal-480p-x264-msd-eztv/60%Monthly2019-02-19 16:06
http://eztv.show/115588/busy-tonight-2019-02-18-kandi-burruss-web-x264-tbs-eztv/60%Monthly2019-02-19 16:06
http://eztv.show/115587/busy-tonight-2019-02-18-kandi-burruss-720p-web-x264-tbs-eztv/60%Monthly2019-02-19 16:06
http://eztv.show/115586/dark-net-s02e06-internal-480p-x264-msd-eztv/60%Monthly2019-02-19 16:06
http://eztv.show/115585/dark-net-s02e08-internal-480p-x264-msd-eztv/60%Monthly2019-02-19 16:06
http://eztv.show/115584/tmz-on-tv-2019-02-15-480p-x264-msd-eztv/60%Monthly2019-02-19 16:06
http://eztv.show/115583/days-of-our-lives-s54e103-480p-x264-msd-eztv/60%Monthly2019-02-19 16:06
http://eztv.show/115582/lindsay-lohans-beach-club-s01e07-lindsay-flips-the-script-480p-x264-msd-eztv/60%Monthly2019-02-19 16:06
http://eztv.show/115581/love-and-hip-hop-miami-s02e08-to-serve-and-protect-480p-x264-msd-eztv/60%Monthly2019-02-19 16:06
http://eztv.show/115580/busy-tonight-2019-02-18-kandi-burruss-480p-x264-msd-eztv/60%Monthly2019-02-19 16:06
http://eztv.show/115579/the-bachelor-s23e07-web-x264-tbs-eztv/60%Monthly2019-02-19 16:06
http://eztv.show/115578/the-bachelor-s23e07cd-720p-web-x264-tbs-eztv/60%Monthly2019-02-19 16:06
http://eztv.show/115577/married-at-first-sight-au-s06e14-hdtv-x264-cct-eztv/60%Monthly2019-02-19 16:06
http://eztv.show/115576/manifest-s01e16-internal-720p-web-x264-bamboozle-eztv/60%Monthly2019-02-19 16:06
http://eztv.show/115575/the-bachelor-s23e07-720p-web-x264-tbs-eztv/60%Monthly2019-02-19 16:06
http://eztv.show/115574/instant-hotel-s02e02-720p-hdtv-x264-cct-eztv/60%Monthly2019-02-19 16:06
http://eztv.show/115573/the-bachelor-s23e07cd-480p-x264-msd-eztv/60%Monthly2019-02-19 16:06
http://eztv.show/115572/americas-got-talent-s13e31-web-x264-tbs-eztv/60%Monthly2019-02-19 16:06
http://eztv.show/115571/the-bachelor-s23e07-480p-x264-msd-eztv/60%Monthly2019-02-19 16:06
http://eztv.show/115570/manifest-s01e16-internal-480p-x264-msd-eztv/60%Monthly2019-02-19 16:06
http://eztv.show/115569/americas-got-talent-s13e31-720p-web-x264-tbs-eztv/60%Monthly2019-02-19 16:06
http://eztv.show/115568/instant-hotel-s02e02-480p-x264-msd-eztv/60%Monthly2019-02-19 16:06
http://eztv.show/115567/married-at-first-sight-au-s06e14-720p-hdtv-x264-cct-eztv/60%Monthly2019-02-19 16:06
http://eztv.show/115566/americas-got-talent-s13e31-480p-x264-msd-eztv/60%Monthly2019-02-19 16:05
http://eztv.show/115565/married-at-first-sight-au-s06e14-480p-x264-msd-eztv/60%Monthly2019-02-19 16:05
http://eztv.show/115564/my-kitchen-rules-s10e14-720p-hdtv-x264-orenji-eztv/60%Monthly2019-02-19 16:05
http://eztv.show/115563/my-kitchen-rules-s10e14-hdtv-x264-fqm-eztv/60%Monthly2019-02-19 16:05
http://eztv.show/115562/my-kitchen-rules-s10e14-480p-x264-msd-eztv/60%Monthly2019-02-19 16:05
http://eztv.show/115561/teen-mom-2-s09e06-web-x264-tbs-eztv/60%Monthly2019-02-19 16:05
http://eztv.show/115560/teen-mom-2-s09e06-480p-x264-msd-eztv/60%Monthly2019-02-19 16:05
http://eztv.show/115559/jimmy-fallon-2019-02-18-jeff-daniels-web-x264-tbs-eztv/60%Monthly2019-02-19 16:05
http://eztv.show/115558/seth-meyers-2019-02-18-john-oliver-web-x264-tbs-eztv/60%Monthly2019-02-19 16:05
http://eztv.show/115557/james-corden-2019-02-18-mahershala-ali-720p-web-x264-tbs-eztv/60%Monthly2019-02-19 16:05
http://eztv.show/115556/james-corden-2019-02-18-mahershala-ali-web-x264-tbs-eztv/60%Monthly2019-02-19 16:05
http://eztv.show/115555/seth-meyers-2019-02-18-john-oliver-720p-web-x264-tbs-eztv/60%Monthly2019-02-19 16:05
http://eztv.show/115554/james-corden-2019-02-18-mahershala-ali-480p-x264-msd-eztv/60%Monthly2019-02-19 16:05
http://eztv.show/115553/seth-meyers-2019-02-18-john-oliver-480p-x264-msd-eztv/60%Monthly2019-02-19 16:05
http://eztv.show/115552/carson-daly-2019-02-18-mark-paul-gosselaar-720p-web-x264-cookiemonster-eztv/60%Monthly2019-02-19 16:05
http://eztv.show/115551/manifest-s01e16-estimated-time-of-departure-720p-amzn-web-dl-dd5-1-h-264-ajp69-eztv/60%Monthly2019-02-19 16:05
http://eztv.show/115550/carson-daly-2019-02-18-mark-paul-gosselaar-web-x264-cookiemonster-eztv/60%Monthly2019-02-19 16:05
http://eztv.show/115549/dancing-with-the-stars-au-s16e01-480p-x264-msd-eztv/60%Monthly2019-02-19 16:05
http://eztv.show/115548/carson-daly-2019-02-18-mark-paul-gosselaar-480p-x264-msd-eztv/60%Monthly2019-02-19 16:05
http://eztv.show/115547/stephen-colbert-2019-01-31-ellen-page-720p-hdtv-x264-sorny-eztv/60%Monthly2019-02-19 16:05
http://eztv.show/115546/danger-mouse-2015-s02e40-we-arent-family-hdtv-x264-kettle-eztv/60%Monthly2019-02-19 16:05
http://eztv.show/115545/judge-judy-s23e143-arrested-for-mysterious-thigh-kick-720p-hdtv-x264-w4f-eztv/60%Monthly2019-02-19 16:05
http://eztv.show/115544/judge-judy-s23e143-arrested-for-mysterious-thigh-kick-hdtv-x264-w4f-eztv/60%Monthly2019-02-19 16:05
http://eztv.show/115543/judge-judy-s23e143-arrested-for-mysterious-thigh-kick-480p-x264-msd-eztv/60%Monthly2019-02-19 16:05
http://eztv.show/115542/supergirl-s04e12-menagerie-720p-nf-web-dl-dd5-1-x264-qoq-eztv/60%Monthly2019-02-19 16:05
http://eztv.show/115541/kids-baking-championship-s06e07-monkey-see-monkey-bake-720p-hdtv-x264-w4f-eztv/60%Monthly2019-02-19 16:05
http://eztv.show/115540/kids-baking-championship-s06e07-monkey-see-monkey-bake-hdtv-x264-w4f-eztv/60%Monthly2019-02-19 16:05
http://eztv.show/115539/danger-mouse-2015-s02e41-crouching-hamster-hidden-wagon-720p-hdtv-x264-kettle-eztv/60%Monthly2019-02-19 16:05
http://eztv.show/115538/great-british-railway-journeys-s10e12-720p-hdtv-x264-qpel-eztv/60%Monthly2019-02-19 16:05
http://eztv.show/115537/great-british-railway-journeys-s10e12-480p-x264-msd-eztv/60%Monthly2019-02-19 16:05
http://eztv.show/115536/gold-rush-white-water-s02e07-sacrifice-sabotage-720p-hdtv-x264-w4f-eztv/60%Monthly2019-02-19 16:05
http://eztv.show/115535/lorena-s01e02-720p-web-h264-insidious-eztv/60%Monthly2019-02-19 16:05
http://eztv.show/115534/lorena-s01e03-720p-web-h264-insidious-eztv/60%Monthly2019-02-19 16:05
http://eztv.show/115533/lorena-s01e04-720p-web-h264-insidious-eztv/60%Monthly2019-02-19 16:05
http://eztv.show/115532/lorena-s01e01-web-h264-insidious-eztv/60%Monthly2019-02-19 16:05
http://eztv.show/115531/lorena-s01e02-web-h264-insidious-eztv/60%Monthly2019-02-19 16:05
http://eztv.show/115530/lorena-s01e03-web-h264-insidious-eztv/60%Monthly2019-02-19 16:05
http://eztv.show/115529/lorena-s01e04-web-h264-insidious-eztv/60%Monthly2019-02-19 16:05
http://eztv.show/115527/lorena-s01e03-480p-x264-msd-eztv/60%Monthly2019-02-19 16:05
http://eztv.show/115528/gold-rush-white-water-s02e07-sacrifice-sabotage-480p-x264-msd-eztv/60%Monthly2019-02-19 16:05
http://eztv.show/115526/lorena-s01e02-480p-x264-msd-eztv/60%Monthly2019-02-19 16:05
http://eztv.show/115525/call-the-cleaners-s02e03-720p-hdtv-x264-creed-eztv/60%Monthly2019-02-19 16:05
http://eztv.show/115524/lorena-s01e01-480p-x264-msd-eztv/60%Monthly2019-02-19 16:05
http://eztv.show/115523/holby-city-s21e08-never-say-never-720p-hdtv-x264-organic-eztv/60%Monthly2019-02-19 16:05
http://eztv.show/115522/holby-city-s21e08-hdtv-x264-mtb-eztv/60%Monthly2019-02-19 16:05
http://eztv.show/115521/vets-saving-pets-s01e21-web-x264-cookiemonster-eztv/60%Monthly2019-02-18 16:08
http://eztv.show/115520/supergirl-s04e12-720p-hdtv-x264-avs-eztv/60%Monthly2019-02-18 16:08
http://eztv.show/115519/family-guy-s17e13-720p-web-x264-tbs-eztv/60%Monthly2019-02-18 16:08
http://eztv.show/115518/family-guy-s17e13-web-x264-tbs-eztv/60%Monthly2019-02-18 16:08
http://eztv.show/115517/supergirl-s04e12-hdtv-x264-sva-eztv/60%Monthly2019-02-18 16:08
http://eztv.show/115516/the-voyager-with-josh-garcia-s03e13-480p-x264-msd-eztv/60%Monthly2019-02-18 16:08
http://eztv.show/115515/consumer-101-s01e11-480p-x264-msd-eztv/60%Monthly2019-02-18 16:08
http://eztv.show/115514/berlin-station-s03e10-720p-web-h264-tbs-eztv/60%Monthly2019-02-18 16:08
http://eztv.show/115513/family-guy-s17e13-480p-x264-msd-eztv/60%Monthly2019-02-18 16:08
http://eztv.show/115512/berlin-station-s03e10-web-h264-tbs-eztv/60%Monthly2019-02-18 16:08
http://eztv.show/115511/worst-cooks-in-america-s15e07-aloha-recruits-720p-web-x264-caffeine-eztv/60%Monthly2019-02-18 16:08
http://eztv.show/115510/vets-saving-pets-s01e21-480p-x264-msd-eztv/60%Monthly2019-02-18 16:08
http://eztv.show/115509/worst-cooks-in-america-s15e07-aloha-recruits-web-x264-caffeine-eztv/60%Monthly2019-02-18 16:08
http://eztv.show/115508/madam-secretary-s05e14-720p-hdtv-x265-minx-eztv/60%Monthly2019-02-18 16:08
http://eztv.show/115507/supergirl-s04e12-480p-x264-msd-eztv/60%Monthly2019-02-18 16:08
http://eztv.show/115506/naturally-danny-seo-s03e13-480p-x264-msd-eztv/60%Monthly2019-02-18 16:08
http://eztv.show/115505/earth-odyssey-with-dylan-dreyer-s01e07-480p-x264-msd-eztv/60%Monthly2019-02-18 16:08
http://eztv.show/115504/berlin-station-s03e10-480p-x264-msd-eztv/60%Monthly2019-02-18 16:08
http://eztv.show/115503/worst-cooks-in-america-s15e07-aloha-recruits-480p-x264-msd-eztv/60%Monthly2019-02-18 16:08
http://eztv.show/115502/the-champion-within-s03e13-480p-x264-msd-eztv/60%Monthly2019-02-18 16:08
http://eztv.show/115501/supergirl-s04e12-720p-hdtv-x265-minx-eztv/60%Monthly2019-02-18 16:08
http://eztv.show/115500/true-detective-s03e07-the-final-country-720p-amzn-web-dl-ddp5-1-h-264-ntb-eztv/60%Monthly2019-02-18 16:08
http://eztv.show/115499/charmed-2018-s01e12-720p-hdtv-x264-sva-eztv/60%Monthly2019-02-18 16:08
http://eztv.show/115498/charmed-2018-s01e12-hdtv-x264-sva-eztv/60%Monthly2019-02-18 16:08
http://eztv.show/115497/ncis-los-angeles-s10e15-hdtv-x264-sva-eztv/60%Monthly2019-02-18 16:08
http://eztv.show/115496/ncis-los-angeles-s10e15-720p-hdtv-x264-avs-eztv/60%Monthly2019-02-18 16:08
http://eztv.show/115495/the-walking-dead-s09e10-web-h264-tbs-eztv/60%Monthly2019-02-18 16:08
http://eztv.show/115494/the-walking-dead-s09e10-720p-web-h264-tbs-eztv/60%Monthly2019-02-18 16:08
http://eztv.show/115493/the-walking-dead-s09e10-720p-hdtv-x264-avs-eztv/60%Monthly2019-02-18 16:08
http://eztv.show/115492/charmed-2018-s01e12-480p-x264-msd-eztv/60%Monthly2019-02-18 16:08
http://eztv.show/115491/true-detective-s03e07-web-x264-phoenix-eztv/60%Monthly2019-02-18 16:08
http://eztv.show/115490/the-walking-dead-s09e10-hdtv-x264-sva-eztv/60%Monthly2019-02-18 16:08
http://eztv.show/115489/ncis-los-angeles-s10e15-480p-x264-msd-eztv/60%Monthly2019-02-18 16:08
http://eztv.show/115488/true-detective-s03e07-720p-web-h264-metcon-eztv/60%Monthly2019-02-18 16:08
http://eztv.show/115487/crashing-us-s03e05-720p-web-h264-metcon-eztv/60%Monthly2019-02-18 16:08
http://eztv.show/115486/the-walking-dead-s09e10-480p-x264-msd-eztv/60%Monthly2019-02-18 16:08
http://eztv.show/115485/true-detective-s03e07-480p-x264-msd-eztv/60%Monthly2019-02-18 16:08
http://eztv.show/115484/crashing-us-s03e05-480p-x264-msd-eztv/60%Monthly2019-02-18 16:08
http://eztv.show/115483/berlin-station-s03e06-web-h264-tbs-eztv/60%Monthly2019-02-18 16:08
http://eztv.show/115482/high-maintenance-s03e05-720p-web-h264-metcon-eztv/60%Monthly2019-02-18 16:08
http://eztv.show/115481/berlin-station-s03e07-web-h264-tbs-eztv/60%Monthly2019-02-18 16:08
http://eztv.show/115480/the-walking-dead-s09e10-720p-web-x265-minx-eztv/60%Monthly2019-02-18 16:08
http://eztv.show/115479/high-maintenance-s03e05-480p-x264-msd-eztv/60%Monthly2019-02-18 16:08
http://eztv.show/115478/seeking-sister-wife-s02e04-web-x264-tbs-eztv/60%Monthly2019-02-18 16:07
http://eztv.show/115477/seeking-sister-wife-s02e04-720p-web-x264-tbs-eztv/60%Monthly2019-02-18 16:07
http://eztv.show/115476/god-friended-me-s01e14-720p-hdtv-x264-lucidtv-eztv/60%Monthly2019-02-18 16:07
http://eztv.show/115475/charmed-2018-s01e12-720p-hdtv-x265-minx-eztv/60%Monthly2019-02-18 16:07
http://eztv.show/115474/seeking-sister-wife-s02e04-480p-x264-msd-eztv/60%Monthly2019-02-18 16:07
http://eztv.show/115473/endeavour-s06e02-apollo-itv-web-dl-aac2-0-x264-eztv/60%Monthly2019-02-18 16:07
http://eztv.show/115472/god-friended-me-s01e14-480p-x264-msd-eztv/60%Monthly2019-02-18 16:07
http://eztv.show/115471/dont-be-tardy-s07e01-prom-and-circumstance-720p-hdtv-x264-crimson-eztv/60%Monthly2019-02-18 16:07
http://eztv.show/115470/nick-cannon-presents-wild-n-out-s13e07-o-t-genasis-and-nate-robinson-720p-eztv/60%Monthly2019-02-18 16:07
http://eztv.show/115469/nick-cannon-presents-wild-n-out-s13e07-o-t-genasis-and-nate-robinson-hdtv-eztv/60%Monthly2019-02-18 16:07
http://eztv.show/115468/last-week-tonight-with-john-oliver-s06e01-720p-web-dl-aac2-0-h-264-doosh-eztv/60%Monthly2019-02-18 16:07
http://eztv.show/115467/the-real-housewives-of-atlanta-s11e15-lets-make-it-official-720p-hdtv-eztv/60%Monthly2019-02-18 16:07
http://eztv.show/115466/nick-cannon-presents-wild-n-out-s13e09-shaun-t-tyron-woodley-michael-blackson-eztv/60%Monthly2019-02-18 16:07
http://eztv.show/115465/the-real-housewives-of-atlanta-s11e15-lets-make-it-official-hdtv-x264-crimson-eztv/60%Monthly2019-02-18 16:07
http://eztv.show/115464/dont-be-tardy-s07e01-prom-and-circumstance-480p-x264-msd-eztv/60%Monthly2019-02-18 16:07
http://eztv.show/115463/nick-cannon-presents-wild-n-out-s13e07-o-t-genasis-and-nate-robinson-480p-eztv/60%Monthly2019-02-18 16:07
http://eztv.show/115462/the-real-housewives-of-atlanta-s11e15-lets-make-it-official-480p-x264-msd-eztv/60%Monthly2019-02-18 16:07
http://eztv.show/115461/true-detective-s03e07-720p-web-x265-minx-eztv/60%Monthly2019-02-18 16:07
http://eztv.show/115460/last-week-tonight-with-john-oliver-s06e01-web-x264-phoenix-eztv/60%Monthly2019-02-18 16:07
http://eztv.show/115459/slutever-2018-s02e02-vagina-power-web-x264-caffeine-eztv/60%Monthly2019-02-18 16:07
http://eztv.show/115458/slutever-2018-s02e02-vagina-power-720p-web-x264-caffeine-eztv/60%Monthly2019-02-18 16:07
http://eztv.show/115457/nick-cannon-presents-wild-n-out-s13e08-andre-drummond-kandi-burruss-lil-baby-eztv/60%Monthly2019-02-18 16:07
http://eztv.show/115456/god-friended-me-s01e14-internal-720p-web-h264-amrap-eztv/60%Monthly2019-02-18 16:07
http://eztv.show/115455/jeopardy-2019-02-18-720p-hdtv-x264-eztv/60%Monthly2019-02-18 16:07
http://eztv.show/115454/god-friended-me-s01e14-web-x264-tbs-eztv/60%Monthly2019-02-18 16:07
http://eztv.show/115453/god-friended-me-s01e14-internal-720p-web-x264-bamboozle-eztv/60%Monthly2019-02-18 16:07
http://eztv.show/115452/total-bellas-s04e05-720p-web-x264-tbs-eztv/60%Monthly2019-02-18 16:07
http://eztv.show/115451/total-bellas-s04e05-web-x264-tbs-eztv/60%Monthly2019-02-18 16:07
http://eztv.show/115450/dont-be-tardy-s07e02-a-rose-among-thorns-720p-hdtv-x264-crimson-eztv/60%Monthly2019-02-18 16:07
http://eztv.show/115449/hustle-2019-s01e02-in-the-weeds-720p-web-x264-caffeine-eztv/60%Monthly2019-02-18 16:07
http://eztv.show/115448/god-friended-me-s01e14-internal-480p-x264-msd-eztv/60%Monthly2019-02-18 16:07
http://eztv.show/115447/dont-be-tardy-s07e02-a-rose-among-thorns-hdtv-x264-crimson-eztv/60%Monthly2019-02-18 16:07
http://eztv.show/115446/dont-be-tardy-s07e01-prom-and-circumstance-hdtv-x264-crimson-eztv/60%Monthly2019-02-18 16:07
http://eztv.show/115445/hustle-2019-s01e02-in-the-weeds-web-x264-caffeine-eztv/60%Monthly2019-02-18 16:07
http://eztv.show/115444/slutever-2018-s02e02-vagina-power-480p-x264-msd-eztv/60%Monthly2019-02-18 16:07
http://eztv.show/115443/total-bellas-s04e05-480p-x264-msd-eztv/60%Monthly2019-02-18 16:07
http://eztv.show/115442/dont-be-tardy-s07e02-a-rose-among-thorns-480p-x264-msd-eztv/60%Monthly2019-02-18 16:07
http://eztv.show/115441/talking-dead-s08e10-talking-dead-on-omega-hdtv-x264-crimson-eztv/60%Monthly2019-02-18 16:07
http://eztv.show/115440/hustle-2019-s01e02-in-the-weeds-480p-x264-msd-eztv/60%Monthly2019-02-18 16:07
http://eztv.show/115439/ncis-los-angeles-s10e15-internal-720p-web-h264-amrap-eztv/60%Monthly2019-02-18 16:07
http://eztv.show/115438/charmed-2018-s01e12-internal-720p-web-h264-bamboozle-eztv/60%Monthly2019-02-18 16:07
http://eztv.show/115437/aussie-lobster-men-s01e01-pdtv-x264-cbfm-eztv/60%Monthly2019-02-18 16:07
http://eztv.show/115436/supergirl-s04e12-internal-720p-web-h264-bamboozle-eztv/60%Monthly2019-02-18 16:07
http://eztv.show/115435/ncis-los-angeles-s10e15-720p-hdtv-x265-minx-eztv/60%Monthly2019-02-18 16:07
http://eztv.show/115434/talking-dead-s08e10-talking-dead-on-omega-720p-hdtv-x264-crimson-eztv/60%Monthly2019-02-18 16:07
http://eztv.show/115433/fast-layne-s01e02-mile-2-paid-to-drive-hdtv-x264-crimson-eztv/60%Monthly2019-02-18 16:07
http://eztv.show/115432/ncis-los-angeles-s10e15-internal-480p-x264-msd-eztv/60%Monthly2019-02-18 16:07
http://eztv.show/115431/seeking-sister-wife-s02e04-real-480p-x264-msd-eztv/60%Monthly2019-02-18 16:07
http://eztv.show/115430/the-circus-s04e04-720p-web-h264-amrap-eztv/60%Monthly2019-02-18 16:07
http://eztv.show/115429/charmed-2018-s01e12-internal-480p-x264-msd-eztv/60%Monthly2019-02-18 16:07
http://eztv.show/115428/fast-layne-s01e02-mile-2-paid-to-drive-720p-hdtv-x264-crimson-eztv/60%Monthly2019-02-18 16:07
http://eztv.show/115427/supergirl-s04e12-internal-480p-x264-msd-eztv/60%Monthly2019-02-18 16:07
http://eztv.show/115426/madam-secretary-s05e14-internal-720p-web-h264-amrap-eztv/60%Monthly2019-02-18 16:07
http://eztv.show/115425/talking-dead-s08e10-talking-dead-on-omega-480p-x264-msd-eztv/60%Monthly2019-02-18 16:07
http://eztv.show/115424/last-week-tonight-with-john-oliver-s06e01-webrip-x264-esc-eztv/60%Monthly2019-02-18 16:06
http://eztv.show/115423/americas-lost-vikings-s01e02-mystery-of-the-sea-raiders-web-x264-caffeine-eztv/60%Monthly2019-02-18 16:06
http://eztv.show/115422/berlin-station-s03e10-720p-web-x265-minx-eztv/60%Monthly2019-02-18 16:06
http://eztv.show/115421/last-week-tonight-with-john-oliver-s06e01-720-webrip-x264-esc-eztv/60%Monthly2019-02-18 16:06
http://eztv.show/115420/family-guy-s17e13-720p-web-x265-minx-eztv/60%Monthly2019-02-18 16:06
http://eztv.show/115419/true-detective-s03e07-the-final-country-720p-amzn-webrip-ddp5-1-x264-ntb-eztv/60%Monthly2019-02-18 16:06
http://eztv.show/115418/the-circus-s04e04-480p-x264-msd-eztv/60%Monthly2019-02-18 16:06
http://eztv.show/115417/fast-layne-s01e02-mile-2-paid-to-drive-480p-x264-msd-eztv/60%Monthly2019-02-18 16:06
http://eztv.show/115416/true-detective-s03e07-webrip-x264-ion10-eztv/60%Monthly2019-02-18 16:06
http://eztv.show/115415/madam-secretary-s05e14-internal-480p-x264-msd-eztv/60%Monthly2019-02-18 16:06
http://eztv.show/115414/charmed-2018-s01e12-youre-dead-to-me-720p-amzn-web-dl-ddp5-1-h-264-kings-eztv/60%Monthly2019-02-18 16:06
http://eztv.show/115413/god-friended-me-s01e14-720p-hdtv-x265-minx-eztv/60%Monthly2019-02-18 16:06
http://eztv.show/115412/presidents-at-war-s01e01-720p-web-h264-tbs-eztv/60%Monthly2019-02-18 16:06
http://eztv.show/115411/presidents-at-war-s01e01-web-h264-tbs-eztv/60%Monthly2019-02-18 16:06
http://eztv.show/115410/presidents-at-war-s01e01-480p-x264-msd-eztv/60%Monthly2019-02-18 16:06
http://eztv.show/115409/ride-with-norman-reedus-s03e02-bay-area-with-steven-yeun-720p-hdtv-x264-crimson-eztv/60%Monthly2019-02-18 16:06
http://eztv.show/115408/ride-with-norman-reedus-s03e02-bay-area-with-steven-yeun-hdtv-x264-crimson-eztv/60%Monthly2019-02-18 16:06
http://eztv.show/115407/ride-with-norman-reedus-s03e02-bay-area-with-steven-yeun-480p-x264-msd-eztv/60%Monthly2019-02-18 16:06
http://eztv.show/115406/my-kitchen-rules-s10e13-hdtv-x264-cct-eztv/60%Monthly2019-02-18 16:06
http://eztv.show/115404/george-clarkes-amazing-spaces-s08e07-720p-hdtv-x264-plutonium-eztv/60%Monthly2019-02-18 16:06
http://eztv.show/115405/my-kitchen-rules-s10e13-720p-hdtv-x264-orenji-eztv/60%Monthly2019-02-18 16:06
http://eztv.show/115403/george-clarkes-amazing-spaces-s08e07-hdtv-x264-plutonium-eztv/60%Monthly2019-02-18 16:06
http://eztv.show/115402/my-kitchen-rules-s10e13-480p-x264-msd-eztv/60%Monthly2019-02-18 16:06
http://eztv.show/115401/rich-kids-go-skint-s02e02-720p-hdtv-x264-plutonium-eztv/60%Monthly2019-02-18 16:06
http://eztv.show/115400/rich-kids-go-skint-s02e02-hdtv-x264-plutonium-eztv/60%Monthly2019-02-18 16:06
http://eztv.show/115399/martin-clunes-islands-of-america-s01e02-720p-hdtv-x264-plutonium-eztv/60%Monthly2019-02-18 16:06
http://eztv.show/115398/martin-clunes-islands-of-america-s01e02-hdtv-x264-plutonium-eztv/60%Monthly2019-02-18 16:06
http://eztv.show/115397/george-clarkes-amazing-spaces-s08e07-480p-x264-msd-eztv/60%Monthly2019-02-18 16:06
http://eztv.show/115396/rich-kids-go-skint-s02e02-480p-x264-msd-eztv/60%Monthly2019-02-18 16:06
http://eztv.show/115395/martin-clunes-islands-of-america-s01e02-480p-x264-msd-eztv/60%Monthly2019-02-18 16:06
http://eztv.show/115394/bad-mothers-s01e01-720p-hdtv-x264-orenji-eztv/60%Monthly2019-02-18 16:06
http://eztv.show/115393/bad-mothers-s01e01-hdtv-x264-fqm-eztv/60%Monthly2019-02-18 16:06
http://eztv.show/115392/bad-mothers-s01e01-480p-x264-msd-eztv/60%Monthly2019-02-18 16:06
http://eztv.show/115391/the-walking-dead-s09e10-omega-720p-amzn-web-dl-dd5-1-h-264-eztv/60%Monthly2019-02-18 16:06
http://eztv.show/115390/last-week-tonight-with-john-oliver-s06e01-720p-amzn-web-dl-ddp2-0-h-264-monkee-eztv/60%Monthly2019-02-18 16:06
http://eztv.show/115388/the-zoo-us-s03e02-a-sea-lion-pup-grows-up-720p-hdtv-x264-crimson-eztv/60%Monthly2019-02-18 16:06
http://eztv.show/115389/the-walking-dead-s09e10-omega-720p-amzn-webrip-dd5-1-x264-eztv/60%Monthly2019-02-18 16:06
http://eztv.show/115387/the-zoo-us-s03e02-a-sea-lion-pup-grows-up-hdtv-x264-crimson-eztv/60%Monthly2019-02-18 16:06
http://eztv.show/115386/the-kids-are-alright-s01e13-valentines-day-720p-amzn-web-dl-ddp5-1-h-264-ntb-eztv/60%Monthly2019-02-18 16:06
http://eztv.show/115385/60-minutes-s51e18-720p-web-x264-cookiemonster-eztv/60%Monthly2019-02-18 16:06
http://eztv.show/115384/60-minutes-s51e18-480p-x264-msd-eztv/60%Monthly2019-02-18 16:06
http://eztv.show/115383/fam-s01e06-pregnant-pause-720p-amzn-web-dl-ddp5-1-h-264-ntb-eztv/60%Monthly2019-02-18 16:06
http://eztv.show/115382/schooled-s01e05-money-for-rent-720p-amzn-web-dl-ddp5-1-h-264-ntb-eztv/60%Monthly2019-02-18 16:06
http://eztv.show/115381/americas-funniest-home-videos-s29e14-720p-web-h264-tbs-eztv/60%Monthly2019-02-18 16:06
http://eztv.show/115380/americas-funniest-home-videos-s29e14-web-h264-tbs-eztv/60%Monthly2019-02-18 16:06
http://eztv.show/115379/48-hours-s31e18-proper-480p-x264-msd-eztv/60%Monthly2019-02-18 16:06
http://eztv.show/115378/americas-funniest-home-videos-s29e14-480p-x264-msd-eztv/60%Monthly2019-02-18 16:06
http://eztv.show/115377/last-week-tonight-with-john-oliver-s06e01-hdtv-x264-aaf-eztv/60%Monthly2019-02-18 16:06
http://eztv.show/115376/last-week-tonight-with-john-oliver-s06e01-720p-hdtv-x264-aaf-eztv/60%Monthly2019-02-18 16:06
http://eztv.show/115375/20-20-2019-02-15-bundy-web-x264-cookiemonster-eztv/60%Monthly2019-02-18 16:06
http://eztv.show/115374/last-week-tonight-with-john-oliver-s06e01-480p-x264-msd-eztv/60%Monthly2019-02-18 16:05
http://eztv.show/115373/dateline-secrets-uncovered-s06e07-good-and-evil-720p-web-x264-kompost-eztv/60%Monthly2019-02-18 16:05
http://eztv.show/115372/dateline-secrets-uncovered-s06e07-good-and-evil-web-x264-kompost-eztv/60%Monthly2019-02-18 16:05
http://eztv.show/115371/hope-in-the-wild-s01e14-bandits-on-the-run-720p-web-x264-kompost-eztv/60%Monthly2019-02-18 16:05
http://eztv.show/115370/hope-in-the-wild-s01e14-bandits-on-the-run-web-x264-kompost-eztv/60%Monthly2019-02-18 16:05
http://eztv.show/115369/smiley-face-killers-the-hunt-for-justice-s01e05-tommy-booth-720p-web-eztv/60%Monthly2019-02-18 16:05
http://eztv.show/115368/wwe-elimination-chamber-kickoff-2019-480p-x264-msd-eztv/60%Monthly2019-02-18 16:05
http://eztv.show/115367/wwe-elimination-chamber-kickoff-2019-aac-mp4-mobile-eztv/60%Monthly2019-02-18 16:05
http://eztv.show/115366/wwe-elimination-chamber-ppv-2019-480p-x264-msd-eztv/60%Monthly2019-02-18 16:05
http://eztv.show/115365/wwe-elimination-chamber-ppv-2019-aac-mp4-mobile-eztv/60%Monthly2019-02-18 16:05
http://eztv.show/115363/ufc-on-espn-01-aac-mp4-mobile-eztv/60%Monthly2019-02-18 16:05
http://eztv.show/115364/ufc-on-espn-01-prelims-480p-x264-msd-eztv/60%Monthly2019-02-18 16:05
http://eztv.show/115361/ufc-on-espn-01-prelims-aac-mp4-mobile-eztv/60%Monthly2019-02-18 16:05
http://eztv.show/115362/ufc-on-espn-01-early-prelims-480p-x264-msd-eztv/60%Monthly2019-02-18 16:05
http://eztv.show/115360/ufc-on-espn-01-early-prelims-aac-mp4-mobile-eztv/60%Monthly2019-02-18 16:05
http://eztv.show/115359/ufc-on-espn-01-480p-x264-msd-eztv/60%Monthly2019-02-18 16:05
http://eztv.show/115358/smiley-face-killers-the-hunt-for-justice-s01e05-tommy-booth-web-x264-kompost-eztv/60%Monthly2019-02-18 16:05
http://eztv.show/115357/dateline-secrets-uncovered-s06e07-good-and-evil-480p-x264-msd-eztv/60%Monthly2019-02-18 16:05
http://eztv.show/115356/arrow-s07e13-star-city-slayer-720p-nf-web-dl-ddp5-1-x264-eztv/60%Monthly2019-02-18 16:05
http://eztv.show/115355/snapped-s24e24-ana-mancio-720p-web-x264-kompost-eztv/60%Monthly2019-02-18 16:05
http://eztv.show/115354/snapped-s24e24-ana-mancio-web-x264-kompost-eztv/60%Monthly2019-02-18 16:05
http://eztv.show/115353/tails-of-valor-s01e07-a-lot-of-hope-720p-web-x264-kompost-eztv/60%Monthly2019-02-18 16:05
http://eztv.show/115352/tails-of-valor-s01e07-a-lot-of-hope-web-x264-kompost-eztv/60%Monthly2019-02-18 16:05
http://eztv.show/115351/smiley-face-killers-the-hunt-for-justice-s01e05-tommy-booth-480p-x264-msd-eztv/60%Monthly2019-02-18 16:05
http://eztv.show/115350/snapped-s24e24-ana-mancio-480p-x264-msd-eztv/60%Monthly2019-02-18 16:05
http://eztv.show/115349/tails-of-valor-s01e07-a-lot-of-hope-480p-x264-msd-eztv/60%Monthly2019-02-18 16:05
http://eztv.show/115348/helloworld-s01e17-hdtv-x264-plutonium-eztv/60%Monthly2019-02-18 16:05
http://eztv.show/115347/helloworld-s01e17-720p-hdtv-x264-plutonium-eztv/60%Monthly2019-02-18 16:05
http://eztv.show/115346/helloworld-s01e17-480p-x264-msd-eztv/60%Monthly2019-02-18 16:05
http://eztv.show/115345/baptiste-s01e01-720p-ip-webrip-aac-h264-btn-eztv/60%Monthly2019-02-18 16:05
http://eztv.show/115344/worst-cooks-in-america-s15e07-aloha-recruits-720p-hdtv-x264-w4f-eztv/60%Monthly2019-02-18 16:05
http://eztv.show/115343/the-worst-witch-2017-s03e07-720p-hdtv-x264-creed-eztv/60%Monthly2019-02-18 16:05
http://eztv.show/115342/worst-cooks-in-america-s15e07-aloha-recruits-hdtv-x264-w4f-eztv/60%Monthly2019-02-18 16:05
http://eztv.show/115341/the-worst-witch-2017-s03e07-480p-x264-msd-eztv/60%Monthly2019-02-18 16:05
http://eztv.show/115340/winner-cake-all-s01e08-apolo-ohno-says-oh-yes-to-cake-720p-webrip-x264-caffeine-eztv/60%Monthly2019-02-18 16:05
http://eztv.show/115338/the-best-thing-i-ever-ate-s09e08-chocolate-bliss-webrip-x264-kompost-eztv/60%Monthly2019-02-18 16:05
http://eztv.show/115339/winner-cake-all-s01e08-apolo-ohno-says-oh-yes-to-cake-webrip-x264-caffeine-eztv/60%Monthly2019-02-18 16:05
http://eztv.show/115337/the-best-thing-i-ever-ate-s09e08-chocolate-bliss-720p-webrip-x264-kompost-eztv/60%Monthly2019-02-18 16:05
http://eztv.show/115336/home-town-2017-s03e06-a-modern-millennial-makeover-720p-webrip-x264-caffeine-eztv/60%Monthly2019-02-18 16:05
http://eztv.show/115335/great-british-railway-journeys-s10e11-720p-hdtv-x264-qpel-eztv/60%Monthly2019-02-18 16:05
http://eztv.show/115334/winner-cake-all-s01e08-apolo-ohno-says-oh-yes-to-cake-480p-x264-msd-eztv/60%Monthly2019-02-18 16:05
http://eztv.show/115333/home-town-2017-s03e06-a-modern-millennial-makeover-webrip-x264-caffeine-eztv/60%Monthly2019-02-18 16:05
http://eztv.show/115332/great-british-railway-journeys-s10e11-480p-x264-msd-eztv/60%Monthly2019-02-18 16:05
http://eztv.show/115331/the-best-thing-i-ever-ate-s09e08-chocolate-bliss-480p-x264-msd-eztv/60%Monthly2019-02-18 16:05
http://eztv.show/115330/maine-cabin-masters-s03e11-a-legacy-preserved-720p-web-x264-caffeine-eztv/60%Monthly2019-02-18 16:05
http://eztv.show/115329/home-town-2017-s03e06-a-modern-millennial-makeover-480p-x264-msd-eztv/60%Monthly2019-02-18 16:05
http://eztv.show/115328/dispatches-2019-02-18-grenfell-did-the-fire-brigade-fail-720p-hdtv-x264-deadpool-eztv/60%Monthly2019-02-18 16:05
http://eztv.show/115327/north-woods-law-s12e01-midsummer-mayhem-480p-x264-msd-eztv/60%Monthly2019-02-17 16:08
http://eztv.show/115326/the-zoo-us-s03e02-a-sea-lion-pup-grows-up-720p-webrip-x264-caffeine-eztv/60%Monthly2019-02-17 16:08
http://eztv.show/115325/doom-patrol-s01e01-480p-x264-msd-eztv/60%Monthly2019-02-17 16:08
http://eztv.show/115324/the-zoo-us-s03e02-a-sea-lion-pup-grows-up-webrip-x264-caffeine-eztv/60%Monthly2019-02-17 16:08
http://eztv.show/115323/the-zoo-us-s03e02-a-sea-lion-pup-grows-up-480p-x264-msd-eztv/60%Monthly2019-02-17 16:08
http://eztv.show/115322/the-rachel-maddow-show-2019-02-15-720p-mnbc-web-dl-aac2-0-x264-btw-eztv/60%Monthly2019-02-17 16:08
http://eztv.show/115321/ask-this-old-house-s17e15-stucco-repair-gas-dryer-720p-hdtv-x264-w4f-eztv/60%Monthly2019-02-17 16:08
http://eztv.show/115320/ask-this-old-house-s17e15-stucco-repair-gas-dryer-hdtv-x264-w4f-eztv/60%Monthly2019-02-17 16:08
http://eztv.show/115319/ask-this-old-house-s17e15-stucco-repair-gas-dryer-480p-x264-msd-eztv/60%Monthly2019-02-17 16:08
http://eztv.show/115318/barefoot-contessa-s26e04-cook-like-a-pro-parmesan-720p-hdtv-x264-w4f-eztv/60%Monthly2019-02-17 16:08
http://eztv.show/115317/this-is-not-happening-2015-s04e13-web-x264-tbs-eztv/60%Monthly2019-02-17 16:08
http://eztv.show/115316/this-is-not-happening-2015-s04e13-720p-web-x264-tbs-eztv/60%Monthly2019-02-17 16:08
http://eztv.show/115315/casualty-s33e24-hdtv-x264-mtb-eztv/60%Monthly2019-02-17 16:08
http://eztv.show/115313/this-is-not-happening-2015-s04e13-480p-x264-msd-eztv/60%Monthly2019-02-17 16:08
http://eztv.show/115314/casualty-s33e24-720p-hdtv-x264-mtb-eztv/60%Monthly2019-02-17 16:08
http://eztv.show/115312/barefoot-contessa-s26e04-cook-like-a-pro-parmesan-hdtv-x264-w4f-eztv/60%Monthly2019-02-17 16:08
http://eztv.show/115311/elena-of-avalor-s02e16-web-x264-tbs-eztv/60%Monthly2019-02-17 16:08
http://eztv.show/115310/elena-of-avalor-s02e16-720p-web-x264-tbs-eztv/60%Monthly2019-02-17 16:08
http://eztv.show/115309/elena-of-avalor-s02e18-720p-web-x264-tbs-eztv/60%Monthly2019-02-17 16:08
http://eztv.show/115308/elena-of-avalor-s02e17-web-x264-tbs-eztv/60%Monthly2019-02-17 16:08
http://eztv.show/115307/elena-of-avalor-s02e17-720p-web-x264-tbs-eztv/60%Monthly2019-02-17 16:08
http://eztv.show/115306/elena-of-avalor-s02e18-web-x264-tbs-eztv/60%Monthly2019-02-17 16:08
http://eztv.show/115305/elena-of-avalor-s02e20-720p-web-x264-tbs-eztv/60%Monthly2019-02-17 16:08
http://eztv.show/115304/elena-of-avalor-s02e20-web-x264-tbs-eztv/60%Monthly2019-02-17 16:08
http://eztv.show/115303/elena-of-avalor-s02e21-web-x264-tbs-eztv/60%Monthly2019-02-17 16:08
http://eztv.show/115302/elena-of-avalor-s02e16-480p-x264-msd-eztv/60%Monthly2019-02-17 16:08
http://eztv.show/115301/elena-of-avalor-s02e21-720p-web-x264-tbs-eztv/60%Monthly2019-02-17 16:08
http://eztv.show/115300/elena-of-avalor-s02e20-480p-x264-msd-eztv/60%Monthly2019-02-17 16:08
http://eztv.show/115299/elena-of-avalor-s02e18-480p-x264-msd-eztv/60%Monthly2019-02-17 16:08
http://eztv.show/115298/elena-of-avalor-s02e17-480p-x264-msd-eztv/60%Monthly2019-02-17 16:08
http://eztv.show/115297/the-carbonaro-effect-s04e17-real-720p-web-x264-tbs-eztv/60%Monthly2019-02-17 16:08
http://eztv.show/115296/the-carbonaro-effect-s04e17-real-web-x264-tbs-eztv/60%Monthly2019-02-17 16:08
http://eztv.show/115294/crazy-cakes-s02e04-realistic-animal-cakes-480p-x264-msd-eztv/60%Monthly2019-02-17 16:08
http://eztv.show/115295/elena-of-avalor-s02e21-480p-x264-msd-eztv/60%Monthly2019-02-17 16:08
http://eztv.show/115293/bargain-hunt-s52e08-720p-web-h264-kompost-eztv/60%Monthly2019-02-17 16:08
http://eztv.show/115292/great-british-railway-journeys-s10e10-web-h264-kompost-eztv/60%Monthly2019-02-17 16:08
http://eztv.show/115291/pointless-celebrities-s11e28-special-720p-web-h264-kompost-eztv/60%Monthly2019-02-17 16:08
http://eztv.show/115290/small-fortune-s01e03-web-x264-kompost-eztv/60%Monthly2019-02-17 16:08
http://eztv.show/115289/the-carbonaro-effect-s04e17-real-480p-x264-msd-eztv/60%Monthly2019-02-17 16:08
http://eztv.show/115288/say-yes-to-the-dress-s17e08-cheetah-bride-720p-webrip-x264-caffeine-eztv/60%Monthly2019-02-17 16:08
http://eztv.show/115287/say-yes-to-the-dress-s17e08-cheetah-bride-webrip-x264-caffeine-eztv/60%Monthly2019-02-17 16:08
http://eztv.show/115286/the-voice-uk-s08e07-720p-hdtv-x264-qpel-eztv/60%Monthly2019-02-17 16:08
http://eztv.show/115285/say-yes-to-the-dress-s17e08-cheetah-bride-480p-x264-msd-eztv/60%Monthly2019-02-17 16:08
http://eztv.show/115284/the-voice-uk-s08e07-480p-x264-msd-eztv/60%Monthly2019-02-17 16:08
http://eztv.show/115283/siren-2018-s02e04-oil-and-water-720p-amzn-web-dl-ddp5-1-h-264-ntb-eztv/60%Monthly2019-02-17 16:08
http://eztv.show/115282/blark-and-son-s01e12-720p-web-x264-cookiemonster-eztv/60%Monthly2019-02-17 16:08
http://eztv.show/115281/blark-and-son-s01e11-720p-web-x264-cookiemonster-eztv/60%Monthly2019-02-17 16:08
http://eztv.show/115280/blark-and-son-s01e12-web-x264-cookiemonster-eztv/60%Monthly2019-02-17 16:08
http://eztv.show/115278/man-like-mobeen-s02e02-480p-x264-msd-eztv/60%Monthly2019-02-17 16:08
http://eztv.show/115279/blark-and-son-s01e11-web-x264-cookiemonster-eztv/60%Monthly2019-02-17 16:08
http://eztv.show/115277/christopher-kimballs-milk-street-television-s02e16-new-breads-720p-hdtv-x264-w4f-eztv/60%Monthly2019-02-17 16:08
http://eztv.show/115276/christopher-kimballs-milk-street-television-s02e16-new-breads-hdtv-x264-w4f-eztv/60%Monthly2019-02-17 16:08
http://eztv.show/115275/guys-big-bite-s19e07-butter-makes-it-better-720p-hdtv-x264-w4f-eztv/60%Monthly2019-02-17 16:08
http://eztv.show/115274/guys-big-bite-s19e07-butter-makes-it-better-hdtv-x264-w4f-eztv/60%Monthly2019-02-17 16:08
http://eztv.show/115273/lucky-dog-s06e14-chester-720p-hdtv-x264-w4f-eztv/60%Monthly2019-02-17 16:07
http://eztv.show/115272/lucky-dog-s06e14-chester-hdtv-x264-w4f-eztv/60%Monthly2019-02-17 16:07
http://eztv.show/115271/the-pioneer-woman-s21e07-back-office-bash-720p-hdtv-x264-w4f-eztv/60%Monthly2019-02-17 16:07
http://eztv.show/115270/the-pioneer-woman-s21e07-back-office-bash-hdtv-x264-w4f-eztv/60%Monthly2019-02-17 16:07
http://eztv.show/115269/christopher-kimballs-milk-street-television-s02e16-new-breads-480p-x264-msd-eztv/60%Monthly2019-02-17 16:07
http://eztv.show/115268/guys-big-bite-s19e07-butter-makes-it-better-480p-x264-msd-eztv/60%Monthly2019-02-17 16:07
http://eztv.show/115267/lucky-dog-s06e14-chester-480p-x264-msd-eztv/60%Monthly2019-02-17 16:07
http://eztv.show/115266/the-incredible-dr-pol-s14e06-720p-web-x264-tbs-eztv/60%Monthly2019-02-17 16:07
http://eztv.show/115265/the-incredible-dr-pol-s14e06-web-x264-tbs-eztv/60%Monthly2019-02-17 16:07
http://eztv.show/115264/nick-cannon-presents-wild-n-out-s13e07-o-t-genasis-720p-web-x264-cookiemonster-eztv/60%Monthly2019-02-17 16:07
http://eztv.show/115263/nick-cannon-presents-wild-n-out-s13e08-andre-drummond-720p-web-eztv/60%Monthly2019-02-17 16:07
http://eztv.show/115262/nick-cannon-presents-wild-n-out-s13e08-andre-drummond-web-x264-cookiemonster-eztv/60%Monthly2019-02-17 16:07
http://eztv.show/115261/nick-cannon-presents-wild-n-out-s13e07-o-t-genasis-web-x264-cookiemonster-eztv/60%Monthly2019-02-17 16:07
http://eztv.show/115260/the-incredible-dr-pol-s14e06-480p-x264-msd-eztv/60%Monthly2019-02-17 16:07
http://eztv.show/115259/nick-cannon-presents-wild-n-out-s13e07-o-t-genasis-480p-x264-msd-eztv/60%Monthly2019-02-17 16:07
http://eztv.show/115258/nick-cannon-presents-wild-n-out-s13e08-andre-drummond-480p-x264-msd-eztv/60%Monthly2019-02-17 16:07
http://eztv.show/115257/the-incredible-dr-pol-s14e06-repack-480p-x264-msd-eztv/60%Monthly2019-02-17 16:07
http://eztv.show/115256/this-is-not-happening-2015-s04e13-hdtv-x264-yestv-eztv/60%Monthly2019-02-17 16:07
http://eztv.show/115255/this-is-not-happening-2015-s04e13-720p-hdtv-x264-yestv-eztv/60%Monthly2019-02-17 16:07
http://eztv.show/115254/tropical-cop-tales-s01e05-720p-hdtv-x264-mindthegap-eztv/60%Monthly2019-02-17 16:07
http://eztv.show/115253/dragons-den-ca-s13e17-hdtv-x264-aaf-eztv/60%Monthly2019-02-17 16:07
http://eztv.show/115252/tigtone-s01e00-pilot-internal-720p-hdtv-x264-mindthegap-eztv/60%Monthly2019-02-17 16:07
http://eztv.show/115251/tropical-cop-tales-s01e06-720p-hdtv-x264-mindthegap-eztv/60%Monthly2019-02-17 16:07
http://eztv.show/115250/tigtone-s01e00-pilot-internal-hdtv-x264-mindthegap-eztv/60%Monthly2019-02-17 16:07
http://eztv.show/115249/comedy-central-stand-up-featuring-s01e11-marie-faustin-web-x264-cookiemonster-eztv/60%Monthly2019-02-17 16:07
http://eztv.show/115248/comedy-central-stand-up-featuring-s01e12-stavros-halkias-web-x264-cookiemonster-eztv/60%Monthly2019-02-17 16:07
http://eztv.show/115247/tropical-cop-tales-s01e05-hdtv-x264-mindthegap-eztv/60%Monthly2019-02-17 16:07
http://eztv.show/115246/tropical-cop-tales-s01e06-hdtv-x264-mindthegap-eztv/60%Monthly2019-02-17 16:07
http://eztv.show/115245/dragons-den-ca-s13e17-720p-hdtv-x264-aaf-eztv/60%Monthly2019-02-17 16:07
http://eztv.show/115244/tigtone-s01e00-pilot-internal-480p-x264-msd-eztv/60%Monthly2019-02-17 16:07
http://eztv.show/115243/this-old-house-s40e14-720p-hdtv-x264-w4f-eztv/60%Monthly2019-02-17 16:07
http://eztv.show/115242/this-old-house-s40e14-hdtv-x264-w4f-eztv/60%Monthly2019-02-17 16:07
http://eztv.show/115241/this-old-house-s40e14-480p-x264-msd-eztv/60%Monthly2019-02-17 16:07
http://eztv.show/115240/mom-s06e15-sparkling-banter-and-a-failing-steel-town-720p-amzn-web-dl-ddp5-1-eztv/60%Monthly2019-02-17 16:07
http://eztv.show/115239/heart-of-darkness-s01e02-history-of-violence-720p-webrip-x264-caffeine-eztv/60%Monthly2019-02-17 16:07
http://eztv.show/115238/heart-of-darkness-s01e02-history-of-violence-webrip-x264-caffeine-eztv/60%Monthly2019-02-17 16:07
http://eztv.show/115237/smilf-s02e04-720p-web-h264-amcon-eztv/60%Monthly2019-02-17 16:07
http://eztv.show/115236/shameless-us-s09e11-720p-web-h264-amcon-eztv/60%Monthly2019-02-17 16:07
http://eztv.show/115235/heart-of-darkness-s01e02-history-of-violence-480p-x264-msd-eztv/60%Monthly2019-02-17 16:07
http://eztv.show/115234/the-kitchen-s20e02-weeknight-wins-720p-hdtv-x264-w4f-eztv/60%Monthly2019-02-17 16:07
http://eztv.show/115233/counterpart-s02e10-720p-web-h264-metcon-eztv/60%Monthly2019-02-17 16:07
http://eztv.show/115232/smilf-s02e04-480p-x264-msd-eztv/60%Monthly2019-02-17 16:07
http://eztv.show/115231/shameless-us-s09e11-480p-x264-msd-eztv/60%Monthly2019-02-17 16:07
http://eztv.show/115230/counterpart-s02e10-480p-x264-msd-eztv/60%Monthly2019-02-17 16:07
http://eztv.show/115229/shameless-us-s09e11-web-x264-phoenix-eztv/60%Monthly2019-02-17 16:07
http://eztv.show/115228/shameless-us-s09e11-the-hobo-games-720p-amzn-web-dl-ddp5-1-h-264-ntb-eztv/60%Monthly2019-02-17 16:07
http://eztv.show/115227/your-worst-nightmare-s05e07-firestarter-720p-webrip-x264-caffeine-eztv/60%Monthly2019-02-17 16:07
http://eztv.show/115226/counterpart-s02e10-web-x264-phoenix-eztv/60%Monthly2019-02-17 16:07
http://eztv.show/115225/your-worst-nightmare-s05e07-firestarter-webrip-x264-caffeine-eztv/60%Monthly2019-02-17 16:07
http://eztv.show/115224/smilf-s02e04-web-x264-phoenix-eztv/60%Monthly2019-02-17 16:07
http://eztv.show/115223/your-worst-nightmare-s05e07-firestarter-480p-x264-msd-eztv/60%Monthly2019-02-17 16:07
http://eztv.show/115222/the-kitchen-s20e02-weeknight-wins-hdtv-x264-w4f-eztv/60%Monthly2019-02-17 16:06
http://eztv.show/115221/shameless-us-s09e11-720p-web-x265-minx-eztv/60%Monthly2019-02-17 16:06
http://eztv.show/115220/wwe-main-event-2019-01-31-720p-web-h264-heel-eztv/60%Monthly2019-02-17 16:06
http://eztv.show/115219/man-like-mobeen-s02e02-hdtv-x264-plutonium-eztv/60%Monthly2019-02-17 16:06
http://eztv.show/115218/shameless-us-s09e11-web-h264-memento-eztv/60%Monthly2019-02-17 16:06
http://eztv.show/115217/smilf-s02e04-web-h264-memento-eztv/60%Monthly2019-02-17 16:06
http://eztv.show/115216/black-monday-s01e04-webrip-x264-tbs-eztv/60%Monthly2019-02-17 16:06
http://eztv.show/115215/genlock-s01e05-web-x264-phoenix-eztv/60%Monthly2019-02-17 16:06
http://eztv.show/115214/ransom-s03e01-web-x264-tbs-eztv/60%Monthly2019-02-17 16:06
http://eztv.show/115213/youve-been-framed-s30e17-pdtv-x264-plutonium-eztv/60%Monthly2019-02-17 16:06
http://eztv.show/115212/ransom-s03e01-720p-web-x264-tbs-eztv/60%Monthly2019-02-17 16:06
http://eztv.show/115211/counterpart-s02e10-720p-web-x265-minx-eztv/60%Monthly2019-02-17 16:06
http://eztv.show/115210/ransom-s03e01-720p-web-x265-minx-eztv/60%Monthly2019-02-17 16:06
http://eztv.show/115209/counterpart-s02e10-better-angels-720p-amzn-web-dl-ddp5-1-h-264-sigma-eztv/60%Monthly2019-02-17 16:06
http://eztv.show/115208/ransom-s03e01-justice-720p-amzn-web-dl-ddp5-1-h-264-ntb-eztv/60%Monthly2019-02-17 16:06
http://eztv.show/115207/ransom-s03e01-internal-480p-x264-msd-eztv/60%Monthly2019-02-17 16:06
http://eztv.show/115206/megalo-box-s01e08-deadline-of-the-dream-dubbed-480p-x264-msd-eztv/60%Monthly2019-02-17 16:06
http://eztv.show/115205/megalo-box-s01e08-deadline-of-the-dream-dubbed-hdtv-x264-crimson-eztv/60%Monthly2019-02-17 16:06
http://eztv.show/115204/megalo-box-s01e08-deadline-of-the-dream-dubbed-720p-hdtv-x264-crimson-eztv/60%Monthly2019-02-17 16:06
http://eztv.show/115203/ransom-s03e01-480p-x264-msd-eztv/60%Monthly2019-02-17 16:06
http://eztv.show/115202/star-wars-resistance-s01e16-720p-web-x264-tbs-eztv/60%Monthly2019-02-17 16:06
http://eztv.show/115201/star-wars-resistance-s01e16-web-x264-tbs-eztv/60%Monthly2019-02-17 16:06
http://eztv.show/115200/star-wars-resistance-s01e16-480p-x264-msd-eztv/60%Monthly2019-02-17 16:06
http://eztv.show/115199/star-wars-resistance-s01e16-720p-web-x265-minx-eztv/60%Monthly2019-02-17 16:06
http://eztv.show/115198/married-at-first-sight-au-s06e13-hdtv-x264-plutonium-eztv/60%Monthly2019-02-17 16:06
http://eztv.show/115197/my-kitchen-rules-s10e12-720p-hdtv-x264-orenji-eztv/60%Monthly2019-02-17 16:06
http://eztv.show/115196/my-kitchen-rules-s10e12-hdtv-x264-fqm-eztv/60%Monthly2019-02-17 16:06
http://eztv.show/115195/counterpart-s02e10-webrip-x264-ion10-eztv/60%Monthly2019-02-17 16:06
http://eztv.show/115194/my-kitchen-rules-s10e12-480p-x264-msd-eztv/60%Monthly2019-02-17 16:06
http://eztv.show/115193/through-the-keyhole-2013-s06e06-hdtv-x264-plutonium-eztv/60%Monthly2019-02-17 16:06
http://eztv.show/115192/through-the-keyhole-2013-s06e06-720p-hdtv-x264-plutonium-eztv/60%Monthly2019-02-17 16:06
http://eztv.show/115191/shameless-us-s09e11-webrip-x264-ion10-eztv/60%Monthly2019-02-17 16:06
http://eztv.show/115190/through-the-keyhole-2013-s06e06-480p-x264-msd-eztv/60%Monthly2019-02-17 16:06
http://eztv.show/115189/the-first-48-s18e06-buried-secrets-720p-hdtv-x264-crimson-eztv/60%Monthly2019-02-17 16:06
http://eztv.show/115188/bring-it-s05e18-a-boy-a-kiss-and-a-choreographer-hdtv-x264-crimson-eztv/60%Monthly2019-02-17 16:06
http://eztv.show/115187/bring-it-s05e18-a-boy-a-kiss-and-a-choreographer-720p-hdtv-x264-crimson-eztv/60%Monthly2019-02-17 16:06
http://eztv.show/115186/the-first-48-s18e06-buried-secrets-hdtv-x264-crimson-eztv/60%Monthly2019-02-17 16:06
http://eztv.show/115185/the-first-48-s18e06-buried-secrets-480p-x264-msd-eztv/60%Monthly2019-02-17 16:06
http://eztv.show/115184/saturday-night-live-s44e13-don-cheadle-web-x264-tbs-eztv/60%Monthly2019-02-17 16:06
http://eztv.show/115183/saturday-night-live-s44e13-don-cheadle-720p-web-x264-tbs-eztv/60%Monthly2019-02-17 16:06
http://eztv.show/115182/bring-it-s05e18-a-boy-a-kiss-and-a-choreographer-480p-x264-msd-eztv/60%Monthly2019-02-17 16:06
http://eztv.show/115181/saturday-night-live-s44e13-don-cheadle-480p-x264-msd-eztv/60%Monthly2019-02-17 16:06
http://eztv.show/115180/match-of-the-day-2019-02-16-hdtv-x264-verum-eztv/60%Monthly2019-02-17 16:06
http://eztv.show/115179/match-of-the-day-2019-02-16-720p-hdtv-x264-verum-eztv/60%Monthly2019-02-17 16:06
http://eztv.show/115178/match-of-the-day-2019-02-16-480p-x264-msd-eztv/60%Monthly2019-02-17 16:06
http://eztv.show/115177/married-at-first-sight-au-s06e13-720p-hdtv-x264-plutonium-eztv/60%Monthly2019-02-17 16:06
http://eztv.show/115176/married-at-first-sight-au-s06e13-480p-x264-msd-eztv/60%Monthly2019-02-17 16:06
http://eztv.show/115175/the-tom-and-jerry-show-s03e35-720p-hdtv-x264-plutonium-eztv/60%Monthly2019-02-17 16:06
http://eztv.show/115174/the-tom-and-jerry-show-s03e36-720p-hdtv-x264-plutonium-eztv/60%Monthly2019-02-17 16:06
http://eztv.show/115173/the-powerpuff-girls-2016-s02e18-hdtv-x264-plutonium-eztv/60%Monthly2019-02-17 16:06
http://eztv.show/115172/the-powerpuff-girls-2016-s02e18-720p-hdtv-x264-plutonium-eztv/60%Monthly2019-02-17 16:06
http://eztv.show/115171/space-probes-s01e02-720p-web-x264-tvillage-eztv/60%Monthly2019-02-17 16:06
http://eztv.show/115170/space-probes-s01e03-720p-web-x264-tvillage-eztv/60%Monthly2019-02-17 16:05
http://eztv.show/115169/space-probes-s01e04-720p-web-x264-tvillage-eztv/60%Monthly2019-02-17 16:05
http://eztv.show/115168/space-probes-s01e05-720p-web-x264-tvillage-eztv/60%Monthly2019-02-17 16:05
http://eztv.show/115167/space-probes-s01e06-720p-web-x264-tvillage-eztv/60%Monthly2019-02-17 16:05
http://eztv.show/115166/space-probes-s01e01-480p-x264-msd-eztv/60%Monthly2019-02-17 16:05
http://eztv.show/115165/space-probes-s01e03-480p-x264-msd-eztv/60%Monthly2019-02-17 16:05
http://eztv.show/115164/black-monday-s01e04-295-720p-amzn-web-dl-ddp5-1-h-264-monkee-eztv/60%Monthly2019-02-17 16:05
http://eztv.show/115163/space-probes-s01e02-480p-x264-msd-eztv/60%Monthly2019-02-17 16:05
http://eztv.show/115162/space-probes-s01e04-480p-x264-msd-eztv/60%Monthly2019-02-17 16:05
http://eztv.show/115161/space-probes-s01e05-480p-x264-msd-eztv/60%Monthly2019-02-17 16:05
http://eztv.show/115160/space-probes-s01e06-480p-x264-msd-eztv/60%Monthly2019-02-17 16:05
http://eztv.show/115159/live-pd-s03e46-720p-web-h264-tbs-eztv/60%Monthly2019-02-17 16:05
http://eztv.show/115158/live-pd-s03e46-web-h264-tbs-eztv/60%Monthly2019-02-17 16:05
http://eztv.show/115157/live-pd-s03e46-480p-x264-msd-eztv/60%Monthly2019-02-17 16:05
http://eztv.show/115156/killer-couples-s11e04-steven-and-sylvia-beersdorf-720p-web-x264-kompost-eztv/60%Monthly2019-02-17 16:05
http://eztv.show/115155/killer-couples-s11e04-steven-and-sylvia-beersdorf-web-x264-kompost-eztv/60%Monthly2019-02-17 16:05
http://eztv.show/115154/seduced-by-evil-s01e01-derek-alldred-720p-web-x264-kompost-eztv/60%Monthly2019-02-17 16:05
http://eztv.show/115153/seduced-by-evil-s01e01-derek-alldred-web-x264-kompost-eztv/60%Monthly2019-02-17 16:05
http://eztv.show/115152/dateline-nbc-2019-02-15-what-they-saw-web-x264-kompost-eztv/60%Monthly2019-02-17 16:05
http://eztv.show/115151/great-performances-s46e16-movies-for-grownups-awards-with-aarp-the-magazine-eztv/60%Monthly2019-02-17 16:05
http://eztv.show/115150/killer-couples-s11e04-steven-and-sylvia-beersdorf-480p-x264-msd-eztv/60%Monthly2019-02-17 16:05
http://eztv.show/115149/seduced-by-evil-s01e01-derek-alldred-480p-x264-msd-eztv/60%Monthly2019-02-17 16:05
http://eztv.show/115148/ace-attorney-s02e16-720p-web-x264-walmart-eztv/60%Monthly2019-02-17 16:05
http://eztv.show/115147/ace-attorney-s02e16-480p-x264-msd-eztv/60%Monthly2019-02-17 16:05
http://eztv.show/115146/ace-attorney-s02e16-web-x264-walmart-eztv/60%Monthly2019-02-17 16:05
http://eztv.show/115145/love-and-marriage-huntsville-s01e06-the-love-boat-hdtv-x264-crimson-eztv/60%Monthly2019-02-17 16:05
http://eztv.show/115144/love-and-marriage-huntsville-s01e06-the-love-boat-720p-hdtv-x264-crimson-eztv/60%Monthly2019-02-17 16:05
http://eztv.show/115143/love-and-marriage-huntsville-s01e06-the-love-boat-480p-x264-msd-eztv/60%Monthly2019-02-17 16:05
http://eztv.show/115142/star-wars-resistance-s01e16-the-core-problem-720p-dsny-webrip-aac2-0-x264-lazy-eztv/60%Monthly2019-02-17 16:05
http://eztv.show/115141/black-lightning-s02e12-the-book-of-secrets-chapter-two-just-and-unjust-720p-eztv/60%Monthly2019-02-17 16:05
http://eztv.show/115140/48-hours-s31e18-720p-web-x264-cookiemonster-eztv/60%Monthly2019-02-17 16:05
http://eztv.show/115139/48-hours-s31e18-web-x264-cookiemonster-eztv/60%Monthly2019-02-17 16:05
http://eztv.show/115138/48-hours-s31e18-480p-x264-msd-eztv/60%Monthly2019-02-17 16:05
http://eztv.show/115137/ransom-s03e01-720p-hdtv-x264-aaf-eztv/60%Monthly2019-02-17 16:05
http://eztv.show/115136/wwe-this-week-in-wwe-2019-02-15-720p-web-h264-honor-eztv/60%Monthly2019-02-17 16:05
http://eztv.show/115135/wwe-this-week-in-wwe-2019-02-15-480p-x264-msd-eztv/60%Monthly2019-02-17 16:05
http://eztv.show/115134/giada-entertains-s04e05-taste-of-capri-party-webrip-x264-caffeine-eztv/60%Monthly2019-02-17 16:05
http://eztv.show/115133/giada-entertains-s04e05-taste-of-capri-party-480p-x264-msd-eztv/60%Monthly2019-02-17 16:05
http://eztv.show/115132/strike-back-s07e04-720p-web-x265-minx-eztv/60%Monthly2019-02-16 16:08
http://eztv.show/115131/tmz-on-tv-2019-02-14-480p-x264-msd-eztv/60%Monthly2019-02-16 16:08
http://eztv.show/115130/fresh-off-the-boat-s05e14-internal-480p-x264-msd-eztv/60%Monthly2019-02-16 16:08
http://eztv.show/115129/speechless-s03e14-internal-480p-x264-msd-eztv/60%Monthly2019-02-16 16:08
http://eztv.show/115128/the-orville-s02e07-720p-amzn-web-dl-dd5-1-h-264-ntb-eztv/60%Monthly2019-02-16 16:08
http://eztv.show/115127/judge-judy-s23e141-dirty-politics-in-a-union-election-720p-hdtv-x264-w4f-eztv/60%Monthly2019-02-16 16:08
http://eztv.show/115126/diners-drive-ins-and-dives-s29e12-whole-lotta-comfort-hdtv-x264-w4f-eztv/60%Monthly2019-02-16 16:08
http://eztv.show/115125/diners-drive-ins-and-dives-s29e12-whole-lotta-comfort-720p-hdtv-x264-w4f-eztv/60%Monthly2019-02-16 16:08
http://eztv.show/115124/judge-judy-s23e141-dirty-politics-in-a-union-election-hdtv-x264-w4f-eztv/60%Monthly2019-02-16 16:08
http://eztv.show/115123/will-and-grace-s10e11-720p-amzn-web-dl-dd5-1-h-264-ntb-eztv/60%Monthly2019-02-16 16:08
http://eztv.show/115122/judge-judy-s23e141-dirty-politics-in-a-union-election-480p-x264-msd-eztv/60%Monthly2019-02-16 16:08
http://eztv.show/115121/big-city-greens-s01e27-720p-web-x264-tbs-eztv/60%Monthly2019-02-16 16:08
http://eztv.show/115120/big-city-greens-s01e27-web-x264-tbs-eztv/60%Monthly2019-02-16 16:08
http://eztv.show/115119/bizaardvark-s03e13-web-x264-tbs-eztv/60%Monthly2019-02-16 16:08
http://eztv.show/115118/coop-and-cami-ask-the-world-s01e13-web-x264-tbs-eztv/60%Monthly2019-02-16 16:08
http://eztv.show/115117/bizaardvark-s03e13-720p-web-x264-tbs-eztv/60%Monthly2019-02-16 16:08
http://eztv.show/115116/coop-and-cami-ask-the-world-s01e13-720p-web-x264-tbs-eztv/60%Monthly2019-02-16 16:08
http://eztv.show/115115/big-city-greens-s01e27-480p-x264-msd-eztv/60%Monthly2019-02-16 16:08
http://eztv.show/115114/stephen-colbert-2019-02-15-jeff-goldblum-web-x264-tbs-eztv/60%Monthly2019-02-16 16:08
http://eztv.show/115113/bizaardvark-s03e13-480p-x264-msd-eztv/60%Monthly2019-02-16 16:08
http://eztv.show/115111/coop-and-cami-ask-the-world-s01e13-480p-x264-msd-eztv/60%Monthly2019-02-16 16:08
http://eztv.show/115112/s-w-a-t-2017-s02e15-fallen-720p-amzn-web-dl-dd5-1-h-264-ajp69-eztv/60%Monthly2019-02-16 16:08
http://eztv.show/115110/the-blacklist-s06e07-general-shiro-720p-amzn-web-dl-ddp5-1-h-264-ntb-eztv/60%Monthly2019-02-16 16:08
http://eztv.show/115109/macgyver-2016-s03e15-k9-and-smugglers-and-new-recruit-720p-amzn-web-dl-ddp5-1-eztv/60%Monthly2019-02-16 16:08
http://eztv.show/115108/blue-bloods-s09e15-blues-720p-amzn-web-dl-ddp5-1-h-264-ntb-eztv/60%Monthly2019-02-16 16:08
http://eztv.show/115107/blindspot-s04e13-internal-720p-web-x264-bamboozle-eztv/60%Monthly2019-02-16 16:08
http://eztv.show/115106/blindspot-s04e13-internal-480p-x264-msd-eztv/60%Monthly2019-02-16 16:08
http://eztv.show/115105/blindspot-s04e13-though-this-be-madness-yet-there-is-method-int-720p-amzn-eztv/60%Monthly2019-02-16 16:08
http://eztv.show/115104/the-blacklist-s06e07-internal-480p-x264-msd-eztv/60%Monthly2019-02-16 16:08
http://eztv.show/115103/a-million-little-things-s01e15-the-rock-720p-amzn-web-dl-dd5-1-h-264-ajp69-eztv/60%Monthly2019-02-16 16:08
http://eztv.show/115102/proven-innocent-s01e02-the-burden-of-truth-720p-amzn-web-dl-ddp5-1-h-264-ntb-eztv/60%Monthly2019-02-16 16:08
http://eztv.show/115101/proven-innocent-s01e01-pilot-720p-amzn-web-dl-ddp5-1-h-264-ntb-eztv/60%Monthly2019-02-16 16:08
http://eztv.show/115100/jimmy-fallon-2019-02-15-robert-irwin-web-x264-tbs-eztv/60%Monthly2019-02-16 16:08
http://eztv.show/115099/monty-dons-japanese-gardens-s01e01-720p-ip-web-dl-aac2-0-h-264-rtn-eztv/60%Monthly2019-02-16 16:08
http://eztv.show/115098/real-time-with-bill-maher-2019-02-15-hdtv-x264-aaf-eztv/60%Monthly2019-02-16 16:08
http://eztv.show/115097/real-time-with-bill-maher-2019-02-15-720p-hdtv-x264-aaf-eztv/60%Monthly2019-02-16 16:08
http://eztv.show/115096/real-time-with-bill-maher-2019-02-15-480p-x264-msd-eztv/60%Monthly2019-02-16 16:08
http://eztv.show/115095/2-dope-queens-s02e01-hdtv-x264-aaf-eztv/60%Monthly2019-02-16 16:08
http://eztv.show/115093/2-dope-queens-s02e02-hdtv-x264-aaf-eztv/60%Monthly2019-02-16 16:08
http://eztv.show/115094/2-dope-queens-s02e01-720p-hdtv-x264-aaf-eztv/60%Monthly2019-02-16 16:08
http://eztv.show/115092/2-dope-queens-s02e02-480p-x264-msd-eztv/60%Monthly2019-02-16 16:08
http://eztv.show/115091/almost-never-s01e03-internal-720p-web-h264-webtube-eztv/60%Monthly2019-02-16 16:08
http://eztv.show/115090/almost-never-s01e02-internal-720p-web-h264-webtube-eztv/60%Monthly2019-02-16 16:08
http://eztv.show/115089/almost-never-s01e03-web-h264-webtube-eztv/60%Monthly2019-02-16 16:08
http://eztv.show/115088/almost-never-s01e01-internal-720p-web-h264-webtube-eztv/60%Monthly2019-02-16 16:08
http://eztv.show/115086/almost-never-s01e01-web-h264-webtube-eztv/60%Monthly2019-02-16 16:08
http://eztv.show/115087/almost-never-s01e02-web-h264-webtube-eztv/60%Monthly2019-02-16 16:08
http://eztv.show/115085/almost-never-s01e04-web-h264-webtube-eztv/60%Monthly2019-02-16 16:08
http://eztv.show/115084/almost-never-s01e05-web-h264-webtube-eztv/60%Monthly2019-02-16 16:08
http://eztv.show/115083/doctors-s20e064-web-h264-webtube-eztv/60%Monthly2019-02-16 16:08
http://eztv.show/115081/almost-never-s01e13-web-h264-webtube-eztv/60%Monthly2019-02-16 16:07
http://eztv.show/115082/nhl-blues-at-coyotes-02142019-fsmw-720p-mp4-eztv/60%Monthly2019-02-16 16:07
http://eztv.show/115080/doctors-s20e059-web-h264-webtube-eztv/60%Monthly2019-02-16 16:07
http://eztv.show/115079/doctors-s20e058-web-h264-webtube-eztv/60%Monthly2019-02-16 16:07
http://eztv.show/115078/doctors-s20e065-web-h264-webtube-eztv/60%Monthly2019-02-16 16:07
http://eztv.show/115077/doctors-s20e060-web-h264-webtube-eztv/60%Monthly2019-02-16 16:07
http://eztv.show/115076/the-dumping-ground-s07e08-web-h264-webtube-eztv/60%Monthly2019-02-16 16:07
http://eztv.show/115075/the-dumping-ground-s07e07-web-h264-webtube-eztv/60%Monthly2019-02-16 16:07
http://eztv.show/115074/almost-never-s01e02-internal-480p-x264-msd-eztv/60%Monthly2019-02-16 16:07
http://eztv.show/115073/almost-never-s01e03-internal-480p-x264-msd-eztv/60%Monthly2019-02-16 16:07
http://eztv.show/115072/doctors-s20e063-web-h264-webtube-eztv/60%Monthly2019-02-16 16:07
http://eztv.show/115071/eating-with-my-ex-s01e04-real-web-h264-webtube-eztv/60%Monthly2019-02-16 16:07
http://eztv.show/115069/question-time-2019-02-07-720p-web-h264-webtube-eztv/60%Monthly2019-02-16 16:07
http://eztv.show/115070/eating-with-my-ex-s01e03-real-web-h264-webtube-eztv/60%Monthly2019-02-16 16:07
http://eztv.show/115068/doctors-s20e065-internal-720p-web-h264-webtube-eztv/60%Monthly2019-02-16 16:07
http://eztv.show/115067/the-dumping-ground-s07e07-internal-720p-web-h264-webtube-eztv/60%Monthly2019-02-16 16:07
http://eztv.show/115066/hunting-isis-s01e05-720p-hdtv-x264-w4f-eztv/60%Monthly2019-02-16 16:07
http://eztv.show/115065/almost-never-s01e01-internal-480p-x264-msd-eztv/60%Monthly2019-02-16 16:07
http://eztv.show/115064/the-great-british-sewing-bee-s05e01-internal-720p-web-h264-webtube-eztv/60%Monthly2019-02-16 16:07
http://eztv.show/115063/hunting-isis-s01e04-hdtv-x264-w4f-eztv/60%Monthly2019-02-16 16:07
http://eztv.show/115062/hunting-isis-s01e05-hdtv-x264-w4f-eztv/60%Monthly2019-02-16 16:07
http://eztv.show/115061/the-dumping-ground-s07e08-internal-720p-web-h264-webtube-eztv/60%Monthly2019-02-16 16:07
http://eztv.show/115060/almost-never-s01e04-internal-720p-web-h264-webtube-eztv/60%Monthly2019-02-16 16:07
http://eztv.show/115059/the-greatest-dancer-s01e05-web-h264-webtube-eztv/60%Monthly2019-02-16 16:07
http://eztv.show/115058/almost-never-s01e06-internal-720p-web-h264-webtube-eztv/60%Monthly2019-02-16 16:07
http://eztv.show/115057/almost-never-s01e05-internal-720p-web-h264-webtube-eztv/60%Monthly2019-02-16 16:07
http://eztv.show/115056/question-time-2019-02-14-web-h264-webtube-eztv/60%Monthly2019-02-16 16:07
http://eztv.show/115055/almost-never-s01e07-internal-720p-web-h264-webtube-eztv/60%Monthly2019-02-16 16:07
http://eztv.show/115054/almost-never-s01e11-internal-720p-web-h264-webtube-eztv/60%Monthly2019-02-16 16:07
http://eztv.show/115053/almost-never-s01e10-internal-720p-web-h264-webtube-eztv/60%Monthly2019-02-16 16:07
http://eztv.show/115051/hunting-isis-s01e04-720p-hdtv-x264-w4f-eztv/60%Monthly2019-02-16 16:07
http://eztv.show/115052/almost-never-s01e09-internal-720p-web-h264-webtube-eztv/60%Monthly2019-02-16 16:07
http://eztv.show/115050/almost-never-s01e08-internal-720p-web-h264-webtube-eztv/60%Monthly2019-02-16 16:07
http://eztv.show/115049/almost-never-s01e13-internal-720p-web-h264-webtube-eztv/60%Monthly2019-02-16 16:07
http://eztv.show/115048/almost-never-s01e12-internal-720p-web-h264-webtube-eztv/60%Monthly2019-02-16 16:07
http://eztv.show/115047/back-in-time-for-school-s01e05-internal-720p-web-h264-webtube-eztv/60%Monthly2019-02-16 16:07
http://eztv.show/115046/the-greatest-dancer-s01e06-web-h264-webtube-eztv/60%Monthly2019-02-16 16:07
http://eztv.show/115045/lip-sync-battle-s05e04-hdtv-x264-w4f-eztv/60%Monthly2019-02-16 16:07
http://eztv.show/115044/full-frontal-with-samantha-bee-s04e02-hdtv-x264-w4f-eztv/60%Monthly2019-02-16 16:07
http://eztv.show/115043/almost-never-s01e12-web-h264-webtube-eztv/60%Monthly2019-02-16 16:07
http://eztv.show/115042/almost-never-s01e11-web-h264-webtube-eztv/60%Monthly2019-02-16 16:07
http://eztv.show/115041/corporate-s02e03-hdtv-x264-w4f-eztv/60%Monthly2019-02-16 16:07
http://eztv.show/115039/full-frontal-with-samantha-bee-s04e02-720p-hdtv-x264-w4f-eztv/60%Monthly2019-02-16 16:07
http://eztv.show/115040/corporate-s02e05-hdtv-x264-w4f-eztv/60%Monthly2019-02-16 16:07
http://eztv.show/115038/almost-never-s01e10-web-h264-webtube-eztv/60%Monthly2019-02-16 16:07
http://eztv.show/115037/almost-never-s01e09-web-h264-webtube-eztv/60%Monthly2019-02-16 16:07
http://eztv.show/115036/double-dare-2018-s01e20-hdtv-x264-w4f-eztv/60%Monthly2019-02-16 16:07
http://eztv.show/115035/lip-sync-battle-s05e05-hdtv-x264-w4f-eztv/60%Monthly2019-02-16 16:07
http://eztv.show/115034/doctors-s20e065-internal-480p-x264-msd-eztv/60%Monthly2019-02-16 16:07
http://eztv.show/115033/double-dare-2018-s01e00-double-dare-at-super-bowl-hdtv-x264-w4f-eztv/60%Monthly2019-02-16 16:07
http://eztv.show/115032/almost-never-s01e08-web-h264-webtube-eztv/60%Monthly2019-02-16 16:07
http://eztv.show/115031/almost-never-s01e07-web-h264-webtube-eztv/60%Monthly2019-02-16 16:07
http://eztv.show/115030/almost-never-s01e06-web-h264-webtube-eztv/60%Monthly2019-02-16 16:07
http://eztv.show/115029/doctors-s20e057-internal-720p-web-h264-webtube-eztv/60%Monthly2019-02-16 16:06
http://eztv.show/115028/doctors-s20e056-internal-720p-web-h264-webtube-eztv/60%Monthly2019-02-16 16:06
http://eztv.show/115027/back-in-time-for-school-s01e05-web-h264-webtube-eztv/60%Monthly2019-02-16 16:06
http://eztv.show/115026/who-wants-to-be-a-millionaire-2019-02-15-hdtv-x264-w4f-eztv/60%Monthly2019-02-16 16:06
http://eztv.show/115025/who-wants-to-be-a-millionaire-2019-02-14-hdtv-x264-w4f-eztv/60%Monthly2019-02-16 16:06
http://eztv.show/115024/doctors-s20e061-web-h264-webtube-eztv/60%Monthly2019-02-16 16:06
http://eztv.show/115023/doctors-s20e057-web-h264-webtube-eztv/60%Monthly2019-02-16 16:06
http://eztv.show/115022/doctors-s20e056-web-h264-webtube-eztv/60%Monthly2019-02-16 16:06
http://eztv.show/115021/ex-on-the-beach-s02e09-un-bear-able-720p-hdtv-x264-crimson-eztv/60%Monthly2019-02-16 16:06
http://eztv.show/115020/back-in-time-for-school-s01e06-web-h264-webtube-eztv/60%Monthly2019-02-16 16:06
http://eztv.show/115018/extreme-love-s01e08-a-rare-disorder-till-work-do-you-part-hdtv-x264-crimson-eztv/60%Monthly2019-02-16 16:06
http://eztv.show/115019/eating-with-my-ex-s01e01-real-web-h264-webtube-eztv/60%Monthly2019-02-16 16:06
http://eztv.show/115017/doctors-s20e062-web-h264-webtube-eztv/60%Monthly2019-02-16 16:06
http://eztv.show/115016/live-pd-s03e45-web-h264-tbs-eztv/60%Monthly2019-02-16 16:06
http://eztv.show/115015/doctors-s20e061-internal-720p-web-h264-webtube-eztv/60%Monthly2019-02-16 16:06
http://eztv.show/115014/gotham-s05e06-13-stitches-720p-nf-web-dl-ddp5-1-x264-eztv/60%Monthly2019-02-16 16:06
http://eztv.show/115013/doctors-s20e058-internal-720p-web-h264-webtube-eztv/60%Monthly2019-02-16 16:06
http://eztv.show/115012/doctors-s20e060-internal-720p-web-h264-webtube-eztv/60%Monthly2019-02-16 16:06
http://eztv.show/115011/doctors-s20e059-internal-720p-web-h264-webtube-eztv/60%Monthly2019-02-16 16:06
http://eztv.show/115010/back-in-time-for-school-s01e06-internal-720p-web-h264-webtube-eztv/60%Monthly2019-02-16 16:06
http://eztv.show/115009/doctors-s20e064-internal-720p-web-h264-webtube-eztv/60%Monthly2019-02-16 16:06
http://eztv.show/115008/doctors-s20e063-internal-720p-web-h264-webtube-eztv/60%Monthly2019-02-16 16:06
http://eztv.show/115007/doctors-s20e062-internal-720p-web-h264-webtube-eztv/60%Monthly2019-02-16 16:06
http://eztv.show/115006/eating-with-my-ex-s01e04-real-internal-720p-web-h264-webtube-eztv/60%Monthly2019-02-16 16:06
http://eztv.show/115005/eating-with-my-ex-s01e03-real-internal-720p-web-h264-webtube-eztv/60%Monthly2019-02-16 16:06
http://eztv.show/115004/eating-with-my-ex-s01e02-real-internal-720p-web-h264-webtube-eztv/60%Monthly2019-02-16 16:06
http://eztv.show/115003/eating-with-my-ex-s01e02-real-web-h264-webtube-eztv/60%Monthly2019-02-16 16:06
http://eztv.show/115002/question-time-2019-02-07-web-h264-webtube-eztv/60%Monthly2019-02-16 16:06
http://eztv.show/115001/eating-with-my-ex-s01e01-real-internal-720p-web-h264-webtube-eztv/60%Monthly2019-02-16 16:06
http://eztv.show/115000/the-fifteen-billion-pound-railway-s03e01-web-h264-webtube-eztv/60%Monthly2019-02-16 16:06
http://eztv.show/114999/extreme-love-s01e08-a-rare-disorder-till-work-do-you-part-720p-hdtv-x264-crimson-eztv/60%Monthly2019-02-16 16:06
http://eztv.show/114998/love-after-lockup-s02e11-she-has-to-go-hdtv-x264-crimson-eztv/60%Monthly2019-02-16 16:06
http://eztv.show/114997/love-after-lockup-s02e11-she-has-to-go-720p-hdtv-x264-crimson-eztv/60%Monthly2019-02-16 16:06
http://eztv.show/114996/the-great-british-sewing-bee-s05e01-internal-480p-x264-msd-eztv/60%Monthly2019-02-16 16:06
http://eztv.show/114995/lip-sync-battle-s05e04-720p-hdtv-x264-w4f-eztv/60%Monthly2019-02-16 16:06
http://eztv.show/114994/puppy-dog-pals-s02e11-hdtv-x264-w4f-eztv/60%Monthly2019-02-16 16:06
http://eztv.show/114993/muppet-babies-s01e19a-hdtv-x264-w4f-eztv/60%Monthly2019-02-16 16:06
http://eztv.show/114992/puppy-dog-pals-s02e11-720p-hdtv-x264-w4f-eztv/60%Monthly2019-02-16 16:06
http://eztv.show/114991/muppet-babies-s01e19a-720p-hdtv-x264-w4f-eztv/60%Monthly2019-02-16 16:06
http://eztv.show/114990/lip-sync-battle-s05e05-720p-hdtv-x264-w4f-eztv/60%Monthly2019-02-16 16:06
http://eztv.show/114989/corporate-s02e03-720p-hdtv-x264-w4f-eztv/60%Monthly2019-02-16 16:06
http://eztv.show/114988/puppy-dog-pals-s02e12-720p-hdtv-x264-w4f-eztv/60%Monthly2019-02-16 16:06
http://eztv.show/114986/laff-mobbs-laff-tracks-s01e21-hdtv-x264-w4f-eztv/60%Monthly2019-02-16 16:06
http://eztv.show/114987/puppy-dog-pals-s02e12-hdtv-x264-w4f-eztv/60%Monthly2019-02-16 16:06
http://eztv.show/114985/laff-mobbs-laff-tracks-s01e21-720p-hdtv-x264-w4f-eztv/60%Monthly2019-02-16 16:06
http://eztv.show/114984/nova-s44e28-day-the-dinosaurs-died-internal-hdtv-x264-w4f-eztv/60%Monthly2019-02-16 16:06
http://eztv.show/114983/the-dumping-ground-s07e07-internal-480p-x264-msd-eztv/60%Monthly2019-02-16 16:06
http://eztv.show/114982/teachers-2016-s03e15-720p-hdtv-x264-w4f-eztv/60%Monthly2019-02-16 16:06
http://eztv.show/114980/teachers-2016-s03e14-720p-hdtv-x264-w4f-eztv/60%Monthly2019-02-16 16:06
http://eztv.show/114981/teachers-2016-s03e14-hdtv-x264-w4f-eztv/60%Monthly2019-02-16 16:06
http://eztv.show/114979/deal-or-no-deal-us-s05e14-hdtv-x264-w4f-eztv/60%Monthly2019-02-16 16:05
http://eztv.show/114978/deal-or-no-deal-us-s05e14-720p-hdtv-x264-w4f-eztv/60%Monthly2019-02-16 16:05
http://eztv.show/114977/double-dare-2018-s01e00-double-dare-at-super-bowl-720p-hdtv-x264-w4f-eztv/60%Monthly2019-02-16 16:05
http://eztv.show/114976/corporate-s02e05-720p-hdtv-x264-w4f-eztv/60%Monthly2019-02-16 16:05
http://eztv.show/114975/double-dare-2018-s01e20-720p-hdtv-x264-w4f-eztv/60%Monthly2019-02-16 16:05
http://eztv.show/114974/teachers-2016-s03e15-hdtv-x264-w4f-eztv/60%Monthly2019-02-16 16:05
http://eztv.show/114973/almost-never-s01e04-internal-480p-x264-msd-eztv/60%Monthly2019-02-16 16:05
http://eztv.show/114972/almost-never-s01e07-internal-480p-x264-msd-eztv/60%Monthly2019-02-16 16:05
http://eztv.show/114971/the-dumping-ground-s07e08-internal-480p-x264-msd-eztv/60%Monthly2019-02-16 16:05
http://eztv.show/114970/lip-sync-battle-s05e04-480p-x264-msd-eztv/60%Monthly2019-02-16 16:05
http://eztv.show/114969/eating-with-my-ex-s01e04-real-internal-480p-x264-msd-eztv/60%Monthly2019-02-16 16:05
http://eztv.show/114968/live-pd-s03e45-720p-web-h264-tbs-eztv/60%Monthly2019-02-16 16:05
http://eztv.show/114967/love-after-lockup-s02e11-she-has-to-go-480p-x264-msd-eztv/60%Monthly2019-02-16 16:05
http://eztv.show/114966/eating-with-my-ex-s01e01-real-internal-480p-x264-msd-eztv/60%Monthly2019-02-16 16:05
http://eztv.show/114965/eating-with-my-ex-s01e03-real-internal-480p-x264-msd-eztv/60%Monthly2019-02-16 16:05
http://eztv.show/114964/eating-with-my-ex-s01e02-real-internal-480p-x264-msd-eztv/60%Monthly2019-02-16 16:05
http://eztv.show/114963/almost-never-s01e10-internal-480p-x264-msd-eztv/60%Monthly2019-02-16 16:05
http://eztv.show/114962/puppy-dog-pals-s02e11-480p-x264-msd-eztv/60%Monthly2019-02-16 16:05
http://eztv.show/114961/puppy-dog-pals-s02e12-480p-x264-msd-eztv/60%Monthly2019-02-16 16:05
http://eztv.show/114960/muppet-babies-s01e19a-480p-x264-msd-eztv/60%Monthly2019-02-16 16:05
http://eztv.show/114959/doctors-s20e063-internal-480p-x264-msd-eztv/60%Monthly2019-02-16 16:05
http://eztv.show/114958/almost-never-s01e13-internal-480p-x264-msd-eztv/60%Monthly2019-02-16 16:05
http://eztv.show/114957/ex-on-the-beach-s02e09-un-bear-able-480p-x264-msd-eztv/60%Monthly2019-02-16 16:05
http://eztv.show/114956/double-dare-2018-s01e20-480p-x264-msd-eztv/60%Monthly2019-02-16 16:05
http://eztv.show/114955/the-circus-s04e03-720p-web-h264-amrap-eztv/60%Monthly2019-02-16 16:05
http://eztv.show/114954/deal-or-no-deal-us-s05e14-480p-x264-msd-eztv/60%Monthly2019-02-16 16:05
http://eztv.show/114953/double-dare-2018-s01e00-double-dare-at-super-bowl-480p-x264-msd-eztv/60%Monthly2019-02-16 16:05
http://eztv.show/114952/almost-never-s01e09-internal-480p-x264-msd-eztv/60%Monthly2019-02-16 16:05
http://eztv.show/114951/extreme-love-s01e08-a-rare-disorder-till-work-do-you-part-480p-x264-msd-eztv/60%Monthly2019-02-16 16:05
http://eztv.show/114950/laff-mobbs-laff-tracks-s01e21-480p-x264-msd-eztv/60%Monthly2019-02-16 16:05
http://eztv.show/114949/live-pd-s03e45-480p-x264-msd-eztv/60%Monthly2019-02-16 16:05
http://eztv.show/114948/the-circus-s04e03-480p-x264-msd-eztv/60%Monthly2019-02-16 16:05
http://eztv.show/114947/the-kitchen-s20e02-weeknight-wins-720p-web-x264-caffeine-eztv/60%Monthly2019-02-16 16:05
http://eztv.show/114946/the-kitchen-s20e02-weeknight-wins-web-x264-caffeine-eztv/60%Monthly2019-02-16 16:05
http://eztv.show/114945/crazy-cakes-s02e04-realistic-animal-cakes-720p-web-x264-caffeine-eztv/60%Monthly2019-02-16 16:05
http://eztv.show/114944/the-kitchen-s20e02-weeknight-wins-480p-x264-msd-eztv/60%Monthly2019-02-16 16:05
http://eztv.show/114943/crazy-cakes-s02e04-realistic-animal-cakes-web-x264-caffeine-eztv/60%Monthly2019-02-16 16:05
http://eztv.show/114942/secrets-of-the-morgue-s01e12-the-beast-and-the-beauty-720p-webrip-x264-caffeine-eztv/60%Monthly2019-02-16 16:05
http://eztv.show/114941/gold-rush-s09e17-make-it-rain-real-hdtv-x264-w4f-eztv/60%Monthly2019-02-16 16:05
http://eztv.show/114940/secrets-of-the-morgue-s01e12-the-beast-and-the-beauty-webrip-x264-caffeine-eztv/60%Monthly2019-02-16 16:05
http://eztv.show/114939/gold-rush-s09e17-make-it-rain-real-480p-x264-msd-eztv/60%Monthly2019-02-16 16:05
http://eztv.show/114938/north-woods-law-s12e01-midsummer-mayhem-720p-web-x264-caffeine-eztv/60%Monthly2019-02-16 16:05
http://eztv.show/114937/north-woods-law-s12e01-midsummer-mayhem-web-x264-caffeine-eztv/60%Monthly2019-02-16 16:05
http://eztv.show/114936/live-pd-s03e45-hdtv-x264-crimson-eztv/60%Monthly2019-02-16 16:05
http://eztv.show/114935/pit-bulls-and-parolees-s13e05-a-box-of-puppies-web-x264-caffeine-eztv/60%Monthly2019-02-16 16:05
http://eztv.show/114934/pit-bulls-and-parolees-s13e05-a-box-of-puppies-480p-x264-msd-eztv/60%Monthly2019-02-16 16:05
http://eztv.show/114933/beat-bobby-flay-s19e06-choc-o-love-hdtv-x264-w4f-eztv/60%Monthly2019-02-15 16:05
http://eztv.show/114932/beat-bobby-flay-s19e06-choc-o-love-720p-hdtv-x264-w4f-eztv/60%Monthly2019-02-15 16:05
http://eztv.show/114931/beat-bobby-flay-s19e06-choc-o-love-480p-x264-msd-eztv/60%Monthly2019-02-15 16:05
http://eztv.show/114930/hospital-s04e06-720p-hdtv-x264-qpel-eztv/60%Monthly2019-02-15 16:05
http://eztv.show/114929/show-me-the-movie-s02e02-480p-x264-msd-eztv/60%Monthly2019-02-15 16:05
http://eztv.show/114928/great-british-railway-journeys-s10e10-720p-hdtv-x264-qpel-eztv/60%Monthly2019-02-15 16:05
http://eztv.show/114927/hospital-s04e06-480p-x264-msd-eztv/60%Monthly2019-02-15 16:05
http://eztv.show/114926/great-british-railway-journeys-s10e10-480p-x264-msd-eztv/60%Monthly2019-02-15 16:05
http://eztv.show/114925/diners-drive-ins-and-dives-s29e12-whole-lotta-comfort-720p-webrip-x264-caffeine-eztv/60%Monthly2019-02-15 16:05
http://eztv.show/114924/diners-drive-ins-and-dives-s29e12-whole-lotta-comfort-webrip-x264-caffeine-eztv/60%Monthly2019-02-15 16:05
http://eztv.show/114923/top-chef-s16e11-the-greatest-hdtv-x264-crimson-eztv/60%Monthly2019-02-15 16:05
http://eztv.show/114922/top-chef-s16e11-the-greatest-720p-hdtv-x264-crimson-eztv/60%Monthly2019-02-15 16:05
http://eztv.show/114921/guys-grocery-games-s20e03-ultimate-protein-battle-720p-webrip-x264-caffeine-eztv/60%Monthly2019-02-15 16:05
http://eztv.show/114920/guys-grocery-games-s20e03-ultimate-protein-battle-webrip-x264-caffeine-eztv/60%Monthly2019-02-15 16:05
http://eztv.show/114919/diners-drive-ins-and-dives-s29e12-whole-lotta-comfort-480p-x264-msd-eztv/60%Monthly2019-02-15 16:05
http://eztv.show/114918/the-pioneer-woman-s21e07-back-office-bash-720p-web-x264-caffeine-eztv/60%Monthly2019-02-15 16:05
http://eztv.show/114917/the-pioneer-woman-s21e07-back-office-bash-web-x264-caffeine-eztv/60%Monthly2019-02-15 16:05
http://eztv.show/114916/top-chef-s16e11-the-greatest-480p-x264-msd-eztv/60%Monthly2019-02-15 16:05
http://eztv.show/114915/brooklyn-nine-nine-s06e06-the-crime-scene-720p-amzn-web-dl-ddp5-1-h-264-ntb-eztv/60%Monthly2019-02-15 16:05
http://eztv.show/114914/the-pioneer-woman-s21e07-back-office-bash-480p-x264-msd-eztv/60%Monthly2019-02-15 16:05
http://eztv.show/114913/million-dollar-listing-los-angeles-s11e07-failure-to-launch-720p-hdtv-x264-w4f-eztv/60%Monthly2019-02-15 16:05
http://eztv.show/114912/million-dollar-listing-los-angeles-s11e07-failure-to-launch-hdtv-x264-w4f-eztv/60%Monthly2019-02-15 16:05
http://eztv.show/114911/million-dollar-listing-los-angeles-s11e07-failure-to-launch-480p-x264-msd-eztv/60%Monthly2019-02-15 16:05
http://eztv.show/114910/rachael-ray-2019-02-11-chef-curtis-stone-480p-x264-msd-eztv/60%Monthly2019-02-14 16:08
http://eztv.show/114909/judge-judy-s23e136-halfway-house-fail-son-paid-to-care-for-sick-mother-480p-eztv/60%Monthly2019-02-14 16:08
http://eztv.show/114908/botched-s05e11-magical-mystery-breasts-hdtv-x264-crimson-eztv/60%Monthly2019-02-14 16:08
http://eztv.show/114907/im-sorry-s02e06-uncensored-webrip-x264-tbs-eztv/60%Monthly2019-02-14 16:08
http://eztv.show/114906/judge-judy-s23e135-gender-reveal-party-pooper-judge-judys-joy-for-500-alex-eztv/60%Monthly2019-02-14 16:08
http://eztv.show/114905/im-sorry-s02e06-uncensored-720p-webrip-x264-tbs-eztv/60%Monthly2019-02-14 16:08
http://eztv.show/114904/homestead-rescue-s04e07-killzone-480p-x264-msd-eztv/60%Monthly2019-02-14 16:08
http://eztv.show/114903/in-pursuit-with-john-walsh-s01e05-deadly-reunion-480p-x264-msd-eztv/60%Monthly2019-02-14 16:08
http://eztv.show/114902/catalyst-s20e03-allergy-clinic-720p-hdtv-x264-cbfm-eztv/60%Monthly2019-02-14 16:08
http://eztv.show/114901/chicago-fire-s07e14-720p-hdtv-x265-minx-eztv/60%Monthly2019-02-14 16:08
http://eztv.show/114900/the-worlds-best-s01e03-480p-x264-msd-eztv/60%Monthly2019-02-14 16:08
http://eztv.show/114899/fake-or-fortune-s07e05-proper-720p-hdtv-x264-cbfm-eztv/60%Monthly2019-02-14 16:08
http://eztv.show/114898/botched-s05e11-magical-mystery-breasts-480p-x264-msd-eztv/60%Monthly2019-02-14 16:08
http://eztv.show/114897/im-sorry-s02e06-uncensored-480p-x264-msd-eztv/60%Monthly2019-02-14 16:08
http://eztv.show/114896/foreign-correspondent-s28e06-running-amok-720p-hdtv-x264-cbfm-eztv/60%Monthly2019-02-14 16:08
http://eztv.show/114895/ridiculousness-s12e42-hdtv-x264-yestv-eztv/60%Monthly2019-02-14 16:08
http://eztv.show/114894/foreign-correspondent-s28e06-running-amok-480p-x264-msd-eztv/60%Monthly2019-02-14 16:08
http://eztv.show/114893/ridiculousness-s12e43-hdtv-x264-yestv-eztv/60%Monthly2019-02-14 16:08
http://eztv.show/114892/chicago-med-s04e14-720p-hdtv-x265-minx-eztv/60%Monthly2019-02-14 16:08
http://eztv.show/114891/rosehaven-s03e04-720p-hdtv-x264-cbfm-eztv/60%Monthly2019-02-14 16:08
http://eztv.show/114890/jimmy-fallon-2019-02-13-steve-martin-720p-hdtv-x264-sorny-eztv/60%Monthly2019-02-14 16:08
http://eztv.show/114889/the-challenge-s33e02-hellraiser-hdtv-x264-crimson-eztv/60%Monthly2019-02-14 16:08
http://eztv.show/114888/family-by-the-ton-s02e07-the-andersons-the-honeymoons-over-web-x264-caffeine-eztv/60%Monthly2019-02-14 16:08
http://eztv.show/114887/judge-judy-s23e137-the-duped-duo-co-worker-hang-up-hdtv-x264-w4f-eztv/60%Monthly2019-02-14 16:08
http://eztv.show/114886/family-by-the-ton-s02e07-the-andersons-the-honeymoons-over-720p-web-eztv/60%Monthly2019-02-14 16:08
http://eztv.show/114885/stephen-colbert-2019-02-13-trevor-noah-720p-hdtv-x264-sorny-eztv/60%Monthly2019-02-14 16:08
http://eztv.show/114884/catalyst-s20e03-allergy-clinic-480p-x264-msd-eztv/60%Monthly2019-02-14 16:08
http://eztv.show/114883/judge-judy-s23e137-the-duped-duo-co-worker-hang-up-720p-hdtv-x264-w4f-eztv/60%Monthly2019-02-14 16:08
http://eztv.show/114882/house-hunters-s163e01-sticker-shock-in-atlanta-web-x264-caffeine-eztv/60%Monthly2019-02-14 16:08
http://eztv.show/114881/the-challenge-s33e02-hellraiser-720p-hdtv-x264-crimson-eztv/60%Monthly2019-02-14 16:08
http://eztv.show/114880/hard-quiz-s04e02-720p-hdtv-x264-cbfm-eztv/60%Monthly2019-02-14 16:08
http://eztv.show/114878/judge-judy-s23e137-the-duped-duo-co-worker-hang-up-480p-x264-msd-eztv/60%Monthly2019-02-14 16:08
http://eztv.show/114879/married-at-first-sight-au-s06e11-720p-hdtv-x264-cct-eztv/60%Monthly2019-02-14 16:08
http://eztv.show/114877/stalked-murder-in-slow-motion-s01e02-asher-maslin-repack-720p-hdtv-eztv/60%Monthly2019-02-14 16:08
http://eztv.show/114876/shipwrecked-s09e13-pdtv-x264-plutonium-eztv/60%Monthly2019-02-14 16:08
http://eztv.show/114875/jimmy-fallon-2019-02-13-steve-martin-480p-x264-msd-eztv/60%Monthly2019-02-14 16:08
http://eztv.show/114874/the-empty-housing-scandal-s01e01-repack-720p-hdtv-x264-plutonium-eztv/60%Monthly2019-02-14 16:08
http://eztv.show/114872/celebrity-big-brother-us-s02e13-720p-hdtv-x264-mindthegap-eztv/60%Monthly2019-02-14 16:08
http://eztv.show/114873/celebrity-big-brother-us-s02e13-hdtv-x264-mindthegap-eztv/60%Monthly2019-02-14 16:08
http://eztv.show/114871/ridiculousness-s12e43-480p-x264-msd-eztv/60%Monthly2019-02-14 16:08
http://eztv.show/114870/the-empty-housing-scandal-s01e02-repack-720p-hdtv-x264-plutonium-eztv/60%Monthly2019-02-14 16:08
http://eztv.show/114869/the-empty-housing-scandal-s01e03-repack-720p-hdtv-x264-plutonium-eztv/60%Monthly2019-02-14 16:08
http://eztv.show/114867/the-challenge-s33e02-hellraiser-480p-x264-msd-eztv/60%Monthly2019-02-14 16:08
http://eztv.show/114868/ridiculousness-s12e42-480p-x264-msd-eztv/60%Monthly2019-02-14 16:08
http://eztv.show/114866/my-600-lb-life-s07e07-webrip-x264-tbs-eztv/60%Monthly2019-02-14 16:08
http://eztv.show/114865/stephen-colbert-2019-02-13-trevor-noah-480p-x264-msd-eztv/60%Monthly2019-02-14 16:08
http://eztv.show/114864/tmz-on-tv-2019-02-12-web-x264-tbs-eztv/60%Monthly2019-02-14 16:08
http://eztv.show/114863/tmz-on-tv-2019-02-12-720p-web-x264-tbs-eztv/60%Monthly2019-02-14 16:08
http://eztv.show/114862/black-ink-crew-chicago-s05e07-potato-with-a-scarf-on-hdtv-x264-crimson-eztv/60%Monthly2019-02-14 16:08
http://eztv.show/114861/black-ink-crew-chicago-s05e07-potato-with-a-scarf-on-720p-hdtv-x264-crimson-eztv/60%Monthly2019-02-14 16:08
http://eztv.show/114860/my-600-lb-life-s07e07-720p-webrip-x264-tbs-eztv/60%Monthly2019-02-14 16:08
http://eztv.show/114859/married-at-first-sight-au-s06e11-480p-x264-msd-eztv/60%Monthly2019-02-14 16:08
http://eztv.show/114858/judge-judy-s23e138-dont-let-children-watch-this-internal-720p-hdtv-x264-w4f-eztv/60%Monthly2019-02-14 16:08
http://eztv.show/114857/judge-judy-s23e138-dont-let-children-watch-this-internal-hdtv-x264-w4f-eztv/60%Monthly2019-02-14 16:08
http://eztv.show/114856/life-below-zero-s11e21-no-one-fights-alone-hdtv-x264-w4f-eztv/60%Monthly2019-02-14 16:07
http://eztv.show/114855/life-below-zero-s11e21-no-one-fights-alone-720p-hdtv-x264-w4f-eztv/60%Monthly2019-02-14 16:07
http://eztv.show/114854/the-empty-housing-scandal-s01e01-repack-480p-x264-msd-eztv/60%Monthly2019-02-14 16:07
http://eztv.show/114853/the-price-is-right-s47e99-web-x264-w4f-eztv/60%Monthly2019-02-14 16:07
http://eztv.show/114852/the-price-is-right-s47e99-720p-web-x264-w4f-eztv/60%Monthly2019-02-14 16:07
http://eztv.show/114851/lets-make-a-deal-2009-s10e100-web-x264-w4f-eztv/60%Monthly2019-02-14 16:07
http://eztv.show/114850/the-bold-and-the-beautiful-s32e102-web-x264-w4f-eztv/60%Monthly2019-02-14 16:07
http://eztv.show/114849/days-of-our-lives-s54e100-720p-web-x264-w4f-eztv/60%Monthly2019-02-14 16:07
http://eztv.show/114848/the-bold-and-the-beautiful-s32e102-720p-web-x264-w4f-eztv/60%Monthly2019-02-14 16:07
http://eztv.show/114847/days-of-our-lives-s54e100-web-x264-w4f-eztv/60%Monthly2019-02-14 16:07
http://eztv.show/114846/lets-make-a-deal-2009-s10e100-720p-web-x264-w4f-eztv/60%Monthly2019-02-14 16:07
http://eztv.show/114845/busy-tonight-2019-02-13-adam-devine-web-x264-tbs-eztv/60%Monthly2019-02-14 16:07
http://eztv.show/114844/busy-tonight-2019-02-13-adam-devine-720p-web-x264-tbs-eztv/60%Monthly2019-02-14 16:07
http://eztv.show/114843/knight-fight-s01e04-720p-web-h264-tbs-eztv/60%Monthly2019-02-14 16:07
http://eztv.show/114842/knight-fight-s01e04-web-h264-tbs-eztv/60%Monthly2019-02-14 16:07
http://eztv.show/114841/killers-behind-the-myth-s01e02-kot-the-vampyre-of-cracow-repack-480p-x264-msd-eztv/60%Monthly2019-02-14 16:07
http://eztv.show/114839/the-empty-housing-scandal-s01e03-repack-480p-x264-msd-eztv/60%Monthly2019-02-14 16:07
http://eztv.show/114840/celebrity-big-brother-us-s02e13-480p-x264-msd-eztv/60%Monthly2019-02-14 16:07
http://eztv.show/114838/hard-quiz-s04e02-480p-x264-msd-eztv/60%Monthly2019-02-14 16:07
http://eztv.show/114837/rachael-ray-2019-02-13-valentines-day-is-tomorrow-hdtv-x264-w4f-eztv/60%Monthly2019-02-14 16:07
http://eztv.show/114836/rachael-ray-2019-02-13-valentines-day-is-tomorrow-720p-hdtv-x264-w4f-eztv/60%Monthly2019-02-14 16:07
http://eztv.show/114835/family-by-the-ton-s02e07-the-andersons-the-honeymoons-over-480p-x264-msd-eztv/60%Monthly2019-02-14 16:07
http://eztv.show/114834/tmz-on-tv-2019-02-12-480p-x264-msd-eztv/60%Monthly2019-02-14 16:07
http://eztv.show/114833/black-ink-crew-chicago-s05e07-potato-with-a-scarf-on-480p-x264-msd-eztv/60%Monthly2019-02-14 16:07
http://eztv.show/114832/instant-hotel-s02e01-720p-hdtv-x264-cbfm-eztv/60%Monthly2019-02-14 16:07
http://eztv.show/114831/the-empty-housing-scandal-s01e02-repack-480p-x264-msd-eztv/60%Monthly2019-02-14 16:07
http://eztv.show/114830/suits-s08e14-internal-720p-web-x264-amrap-eztv/60%Monthly2019-02-14 16:07
http://eztv.show/114829/single-parents-s01e15-internal-720p-web-h264-amrap-eztv/60%Monthly2019-02-14 16:07
http://eztv.show/114828/chicago-pd-s06e14-internal-720p-web-h264-amrap-eztv/60%Monthly2019-02-14 16:07
http://eztv.show/114827/chicago-fire-s07e14-internal-720p-web-h264-amrap-eztv/60%Monthly2019-02-14 16:07
http://eztv.show/114826/my-600-lb-life-s07e07-480p-x264-msd-eztv/60%Monthly2019-02-14 16:07
http://eztv.show/114825/days-of-our-lives-s54e100-480p-x264-msd-eztv/60%Monthly2019-02-14 16:07
http://eztv.show/114823/forged-in-fire-s06e02-web-h264-tbs-eztv/60%Monthly2019-02-14 16:07
http://eztv.show/114824/forged-in-fire-s06e02-720p-web-h264-tbs-eztv/60%Monthly2019-02-14 16:07
http://eztv.show/114822/the-magicians-2015-s04e04-marry-fuck-kill-720p-amzn-web-dl-ddp5-1-h-264-ntg-eztv/60%Monthly2019-02-14 16:07
http://eztv.show/114821/life-below-zero-s11e21-no-one-fights-alone-480p-x264-msd-eztv/60%Monthly2019-02-14 16:07
http://eztv.show/114820/busy-tonight-2019-02-13-adam-devine-480p-x264-msd-eztv/60%Monthly2019-02-14 16:07
http://eztv.show/114819/stalked-murder-in-slow-motion-s01e02-asher-maslin-repack-480p-x264-msd-eztv/60%Monthly2019-02-14 16:07
http://eztv.show/114818/knight-fight-s01e04-480p-x264-msd-eztv/60%Monthly2019-02-14 16:07
http://eztv.show/114817/dating-around-s01e02-720p-webrip-x264-amrap-eztv/60%Monthly2019-02-14 16:07
http://eztv.show/114816/dating-around-s01e03-720p-webrip-x264-amrap-eztv/60%Monthly2019-02-14 16:07
http://eztv.show/114815/the-price-is-right-s47e99-480p-x264-msd-eztv/60%Monthly2019-02-14 16:07
http://eztv.show/114814/dating-around-s01e04-720p-webrip-x264-amrap-eztv/60%Monthly2019-02-14 16:07
http://eztv.show/114813/the-bold-and-the-beautiful-s32e102-480p-x264-msd-eztv/60%Monthly2019-02-14 16:07
http://eztv.show/114812/dating-around-s01e05-720p-webrip-x264-amrap-eztv/60%Monthly2019-02-14 16:07
http://eztv.show/114811/lets-make-a-deal-2009-s10e100-480p-x264-msd-eztv/60%Monthly2019-02-14 16:07
http://eztv.show/114810/dating-around-s01e06-720p-webrip-x264-amrap-eztv/60%Monthly2019-02-14 16:07
http://eztv.show/114809/suits-s08e14-internal-480p-x264-msd-eztv/60%Monthly2019-02-14 16:07
http://eztv.show/114808/rachael-ray-2019-02-13-valentines-day-is-tomorrow-480p-x264-msd-eztv/60%Monthly2019-02-14 16:07
http://eztv.show/114807/chicago-pd-s06e14-internal-480p-x264-msd-eztv/60%Monthly2019-02-14 16:06
http://eztv.show/114806/single-parents-s01e15-internal-480p-x264-msd-eztv/60%Monthly2019-02-14 16:06
http://eztv.show/114805/chicago-fire-s07e14-internal-480p-x264-msd-eztv/60%Monthly2019-02-14 16:06
http://eztv.show/114804/murder-lies-and-alibis-s01e02-720p-hdtv-x264-cbfm-eztv/60%Monthly2019-02-14 16:06
http://eztv.show/114803/snoop-dogg-presents-the-jokers-wild-s02e13-720p-web-x264-tbs-eztv/60%Monthly2019-02-14 16:06
http://eztv.show/114802/snoop-dogg-presents-the-jokers-wild-s02e13-web-x264-tbs-eztv/60%Monthly2019-02-14 16:06
http://eztv.show/114801/stephen-colbert-2019-02-13-trevor-noah-web-x264-tbs-eztv/60%Monthly2019-02-14 16:06
http://eztv.show/114800/instant-hotel-s02e01-480p-x264-msd-eztv/60%Monthly2019-02-14 16:06
http://eztv.show/114799/forged-in-fire-s06e02-480p-x264-msd-eztv/60%Monthly2019-02-14 16:06
http://eztv.show/114798/dating-around-s01e01-480p-x264-msd-eztv/60%Monthly2019-02-14 16:06
http://eztv.show/114797/james-corden-2019-02-13-courteney-cox-web-x264-tbs-eztv/60%Monthly2019-02-14 16:06
http://eztv.show/114796/james-corden-2019-02-13-courteney-cox-720p-web-x264-tbs-eztv/60%Monthly2019-02-14 16:06
http://eztv.show/114795/snoop-dogg-presents-the-jokers-wild-s02e13-480p-x264-msd-eztv/60%Monthly2019-02-14 16:06
http://eztv.show/114794/match-game-2016-s04e05-web-h264-tbs-eztv/60%Monthly2019-02-14 16:06
http://eztv.show/114793/schooled-s01e05-internal-720p-web-h264-bamboozle-eztv/60%Monthly2019-02-14 16:06
http://eztv.show/114792/match-game-2016-s04e05-720p-web-h264-tbs-eztv/60%Monthly2019-02-14 16:06
http://eztv.show/114791/the-goldbergs-2013-s06e15-internal-720p-web-h264-bamboozle-eztv/60%Monthly2019-02-14 16:06
http://eztv.show/114790/hughesy-we-have-a-problem-s03e03-720p-hdtv-x264-cbfm-eztv/60%Monthly2019-02-14 16:06
http://eztv.show/114789/schooled-s01e05-internal-480p-x264-msd-eztv/60%Monthly2019-02-14 16:06
http://eztv.show/114788/the-great-british-sewing-bee-s05e01-web-x264-phoenix-eztv/60%Monthly2019-02-14 16:06
http://eztv.show/114787/james-corden-2019-02-13-courteney-cox-480p-x264-msd-eztv/60%Monthly2019-02-14 16:06
http://eztv.show/114786/match-game-2016-s04e05-480p-x264-msd-eztv/60%Monthly2019-02-14 16:06
http://eztv.show/114785/the-goldbergs-2013-s06e15-internal-480p-x264-msd-eztv/60%Monthly2019-02-14 16:06
http://eztv.show/114784/tails-of-valor-s01e06-from-swine-to-fine-web-x264-kompost-eztv/60%Monthly2019-02-14 16:06
http://eztv.show/114783/hope-in-the-wild-s01e13-fox-in-a-box-720p-web-x264-kompost-eztv/60%Monthly2019-02-14 16:06
http://eztv.show/114782/paris-hiltons-my-new-bff-dubai-s01e01-web-x264-gimini-eztv/60%Monthly2019-02-14 16:06
http://eztv.show/114781/paris-hiltons-my-new-bff-dubai-s01e02-web-x264-gimini-eztv/60%Monthly2019-02-14 16:06
http://eztv.show/114780/chicago-med-s04e14-internal-720p-web-x264-bamboozle-eztv/60%Monthly2019-02-14 16:06
http://eztv.show/114779/paris-hiltons-my-new-bff-dubai-s01e04-web-x264-gimini-eztv/60%Monthly2019-02-14 16:06
http://eztv.show/114778/paris-hiltons-my-new-bff-dubai-s01e05-web-x264-gimini-eztv/60%Monthly2019-02-14 16:06
http://eztv.show/114777/paris-hiltons-my-new-bff-dubai-s01e06-web-x264-gimini-eztv/60%Monthly2019-02-14 16:06
http://eztv.show/114776/murder-lies-and-alibis-s01e02-480p-x264-msd-eztv/60%Monthly2019-02-14 16:06
http://eztv.show/114775/tails-of-valor-s01e06-from-swine-to-fine-720p-web-x264-kompost-eztv/60%Monthly2019-02-14 16:06
http://eztv.show/114774/paris-hiltons-my-new-bff-dubai-s01e07-web-x264-gimini-eztv/60%Monthly2019-02-14 16:06
http://eztv.show/114773/hope-in-the-wild-s01e13-fox-in-a-box-web-x264-kompost-eztv/60%Monthly2019-02-14 16:06
http://eztv.show/114772/paris-hiltons-my-new-bff-dubai-s01e08-web-x264-gimini-eztv/60%Monthly2019-02-14 16:06
http://eztv.show/114771/paris-hiltons-my-new-bff-dubai-s01e09-web-x264-gimini-eztv/60%Monthly2019-02-14 16:06
http://eztv.show/114770/paris-hiltons-my-new-bff-dubai-s01e03-web-x264-gimini-eztv/60%Monthly2019-02-14 16:06
http://eztv.show/114769/chicago-med-s04e14-internal-480p-x264-msd-eztv/60%Monthly2019-02-14 16:06
http://eztv.show/114768/field-of-blood-s01e02-720p-web-x264-gimini-eztv/60%Monthly2019-02-14 16:06
http://eztv.show/114767/field-of-blood-s02e01-internal-720p-web-x264-gimini-eztv/60%Monthly2019-02-14 16:06
http://eztv.show/114766/field-of-blood-s02e02-internal-720p-web-x264-gimini-eztv/60%Monthly2019-02-14 16:06
http://eztv.show/114765/hughesy-we-have-a-problem-s03e03-480p-x264-msd-eztv/60%Monthly2019-02-14 16:06
http://eztv.show/114764/the-daily-show-2019-02-13-ramell-ross-extended-web-x264-tbs-eztv/60%Monthly2019-02-14 16:06
http://eztv.show/114763/the-daily-show-2019-02-13-ramell-ross-extended-repack-web-x264-tbs-eztv/60%Monthly2019-02-14 16:06
http://eztv.show/114762/the-masked-singer-s01e07-web-x264-tbs-eztv/60%Monthly2019-02-14 16:06
http://eztv.show/114761/the-masked-singer-s01e07-720p-web-x264-tbs-eztv/60%Monthly2019-02-14 16:06
http://eztv.show/114760/field-of-blood-s01e01-480p-x264-msd-eztv/60%Monthly2019-02-14 16:06
http://eztv.show/114759/field-of-blood-s02e02-internal-480p-x264-msd-eztv/60%Monthly2019-02-14 16:06
http://eztv.show/114758/the-empty-housing-scandal-s01e04-hdtv-x264-plutonium-eztv/60%Monthly2019-02-14 16:05
http://eztv.show/114757/the-empty-housing-scandal-s01e04-720p-hdtv-x264-plutonium-eztv/60%Monthly2019-02-14 16:05
http://eztv.show/114756/the-masked-singer-s01e07-480p-x264-msd-eztv/60%Monthly2019-02-14 16:05
http://eztv.show/114755/jimmy-kimmel-2019-02-13-jennifer-lopez-web-h264-tbs-eztv/60%Monthly2019-02-14 16:05
http://eztv.show/114754/jimmy-kimmel-2019-02-13-jennifer-lopez-720p-web-h264-tbs-eztv/60%Monthly2019-02-14 16:05
http://eztv.show/114753/the-empty-housing-scandal-s01e04-480p-x264-msd-eztv/60%Monthly2019-02-14 16:05
http://eztv.show/114752/jimmy-kimmel-2019-02-13-jennifer-lopez-480p-x264-msd-eztv/60%Monthly2019-02-14 16:05
http://eztv.show/114751/jimmy-fallon-2019-02-13-steve-martin-web-x264-tbs-eztv/60%Monthly2019-02-14 16:05
http://eztv.show/114749/seth-meyers-2019-02-13-will-forte-720p-web-x264-tbs-eztv/60%Monthly2019-02-14 16:05
http://eztv.show/114750/seth-meyers-2019-02-13-will-forte-web-x264-tbs-eztv/60%Monthly2019-02-14 16:05
http://eztv.show/114748/seth-meyers-2019-02-13-will-forte-480p-x264-msd-eztv/60%Monthly2019-02-14 16:05
http://eztv.show/114747/project-runway-all-stars-s07e07-web-h264-tbs-eztv/60%Monthly2019-02-14 16:05
http://eztv.show/114746/project-runway-all-stars-s07e07-720p-web-h264-tbs-eztv/60%Monthly2019-02-14 16:05
http://eztv.show/114745/project-runway-all-stars-s07e07-480p-x264-msd-eztv/60%Monthly2019-02-14 16:05
http://eztv.show/114744/american-beauty-star-s02e07-web-h264-tbs-eztv/60%Monthly2019-02-14 16:05
http://eztv.show/114743/american-beauty-star-s02e07-720p-web-h264-tbs-eztv/60%Monthly2019-02-14 16:05
http://eztv.show/114742/carson-daly-2019-02-13-matt-walsh-720p-web-x264-cookiemonster-eztv/60%Monthly2019-02-14 16:05
http://eztv.show/114741/carson-daly-2019-02-13-matt-walsh-web-x264-cookiemonster-eztv/60%Monthly2019-02-14 16:05
http://eztv.show/114739/nova-s46e05-rise-of-the-rockets-720p-hdtv-x264-dhd-eztv/60%Monthly2019-02-14 16:05
http://eztv.show/114740/aflw-2019-round-2-magpies-vs-demons-pdtv-x264-winning-eztv/60%Monthly2019-02-14 16:05
http://eztv.show/114738/nova-s46e05-rise-of-the-rockets-480p-x264-msd-eztv/60%Monthly2019-02-14 16:05
http://eztv.show/114737/the-dictators-playbook-s01e06-idi-amin-480p-x264-msd-eztv/60%Monthly2019-02-14 16:05
http://eztv.show/114736/cleaning-up-2019-s01e06-hdtv-x264-mtb-eztv/60%Monthly2019-02-14 16:05
http://eztv.show/114735/im-sorry-s02e06-the-small-of-my-back-720p-hdtv-x264-crimson-eztv/60%Monthly2019-02-14 16:05
http://eztv.show/114734/in-pursuit-with-john-walsh-s01e05-deadly-reunion-720p-hdtv-x264-crimson-eztv/60%Monthly2019-02-14 16:05
http://eztv.show/114733/im-sorry-s02e06-the-small-of-my-back-hdtv-x264-crimson-eztv/60%Monthly2019-02-14 16:05
http://eztv.show/114732/in-pursuit-with-john-walsh-s01e05-deadly-reunion-hdtv-x264-crimson-eztv/60%Monthly2019-02-14 16:05
http://eztv.show/114731/youre-the-worst-s05e06-this-brief-fermata-hdtv-x264-crimson-eztv/60%Monthly2019-02-14 16:05
http://eztv.show/114729/the-real-housewives-of-beverly-hills-s09e01-lucy-lucy-apple-juicy-720p-hdtv-eztv/60%Monthly2019-02-14 16:05
http://eztv.show/114730/the-real-housewives-of-beverly-hills-s09e01-lucy-lucy-apple-juicy-hdtv-eztv/60%Monthly2019-02-14 16:05
http://eztv.show/114728/youre-the-worst-s05e06-this-brief-fermata-720p-hdtv-x264-crimson-eztv/60%Monthly2019-02-14 16:05
http://eztv.show/114727/the-real-housewives-of-beverly-hills-s09e01-lucy-lucy-apple-juicy-480p-x264-msd-eztv/60%Monthly2019-02-14 16:05
http://eztv.show/114726/youre-the-worst-s05e06-this-brief-fermata-480p-x264-msd-eztv/60%Monthly2019-02-14 16:05
http://eztv.show/114725/im-sorry-s02e06-the-small-of-my-back-480p-x264-msd-eztv/60%Monthly2019-02-14 16:05
http://eztv.show/114724/great-british-railway-journeys-s10e09-720p-hdtv-x264-qpel-eztv/60%Monthly2019-02-14 16:05
http://eztv.show/114723/great-british-railway-journeys-s10e09-480p-x264-msd-eztv/60%Monthly2019-02-14 16:05
http://eztv.show/114722/gps-behind-closed-doors-s06e20-720p-hdtv-x264-plutonium-eztv/60%Monthly2019-02-14 16:05
http://eztv.show/114721/gps-behind-closed-doors-s06e20-hdtv-x264-plutonium-eztv/60%Monthly2019-02-14 16:05
http://eztv.show/114720/paranormal-caught-on-camera-s01e01-the-seedy-texas-motel-poltergeist-and-more-eztv/60%Monthly2019-02-14 16:05
http://eztv.show/114719/unikitty-s02e00-prank-war-720p-hdtv-x264-plutonium-eztv/60%Monthly2019-02-14 16:05
http://eztv.show/114718/unikitty-s02e00-prank-war-hdtv-x264-plutonium-eztv/60%Monthly2019-02-14 16:05
http://eztv.show/114717/tonight-s21e07-too-old-to-drive-720p-hdtv-x264-plutonium-eztv/60%Monthly2019-02-14 16:05
http://eztv.show/114716/tonight-s21e07-too-old-to-drive-hdtv-x264-plutonium-eztv/60%Monthly2019-02-14 16:05
http://eztv.show/114715/tonight-s21e07-too-old-to-drive-480p-x264-msd-eztv/60%Monthly2019-02-14 16:05
http://eztv.show/114714/the-shire-s01e02-720p-web-x264-gimini-eztv/60%Monthly2019-02-13 16:05
http://eztv.show/114713/the-shire-s01e09-720p-web-x264-gimini-eztv/60%Monthly2019-02-13 16:05
http://eztv.show/114712/the-shire-s01e01-480p-x264-msd-eztv/60%Monthly2019-02-13 16:05
http://eztv.show/114711/the-shire-s01e10-720p-web-x264-gimini-eztv/60%Monthly2019-02-13 16:05
http://eztv.show/114710/the-shire-s01e11-720p-web-x264-gimini-eztv/60%Monthly2019-02-13 16:05
http://eztv.show/114708/the-shire-s01e12-720p-web-x264-gimini-eztv/60%Monthly2019-02-13 16:05
http://eztv.show/114709/the-shire-s01e06-720p-web-x264-gimini-eztv/60%Monthly2019-02-13 16:05
http://eztv.show/114707/no-chiraq-s01e01-pilot-480p-x264-msd-eztv/60%Monthly2019-02-13 16:05
http://eztv.show/114706/the-shire-s01e08-720p-web-x264-gimini-eztv/60%Monthly2019-02-13 16:05
http://eztv.show/114705/the-shire-s01e03-480p-x264-msd-eztv/60%Monthly2019-02-13 16:05
http://eztv.show/114704/copycat-killers-s06e01-silence-of-the-lambs-hdtv-x264-esc-eztv/60%Monthly2019-02-11 16:05
http://eztv.show/114703/bad-girls-behind-bars-s01e04-480p-x264-msd-eztv/60%Monthly2019-02-08 16:09
http://eztv.show/114702/pen15-s01e01-web-h264-tbs-eztv/60%Monthly2019-02-08 16:09
http://eztv.show/114701/married-at-first-sight-au-s06e08-720p-hdtv-x264-cct-eztv/60%Monthly2019-02-08 16:09
http://eztv.show/114700/bring-it-s05e17-survival-of-the-fittest-720p-hdtv-x264-crimson-eztv/60%Monthly2019-02-08 16:09
http://eztv.show/114699/60-days-in-s05e06-smells-like-a-rat-hdtv-x264-crimson-eztv/60%Monthly2019-02-08 16:09
http://eztv.show/114698/swamp-people-s10e02-click-click-hdtv-x264-crimson-eztv/60%Monthly2019-02-08 16:09
http://eztv.show/114697/legacies-s01e10-internal-720p-web-h264-bamboozle-eztv/60%Monthly2019-02-08 16:09
http://eztv.show/114696/dr-pimple-popper-s02e06-popping-popeye-720p-web-x264-caffeine-eztv/60%Monthly2019-02-08 16:09
http://eztv.show/114695/dr-pimple-popper-s02e06-popping-popeye-web-x264-caffeine-eztv/60%Monthly2019-02-08 16:09
http://eztv.show/114694/supernatural-s14e13-internal-720p-web-h264-bamboozle-eztv/60%Monthly2019-02-08 16:09
http://eztv.show/114693/house-hunters-s158e10-from-the-islands-to-tampa-web-x264-caffeine-eztv/60%Monthly2019-02-08 16:09
http://eztv.show/114692/swamp-people-s10e02-click-click-720p-hdtv-x264-crimson-eztv/60%Monthly2019-02-08 16:09
http://eztv.show/114691/house-hunters-international-s137e04-a-couples-compromise-in-brisbane-webrip-eztv/60%Monthly2019-02-08 16:09
http://eztv.show/114690/dr-pimple-popper-s02e06-popping-popeye-480p-x264-msd-eztv/60%Monthly2019-02-08 16:09
http://eztv.show/114689/legacies-s01e10-internal-480p-x264-msd-eztv/60%Monthly2019-02-08 16:09
http://eztv.show/114688/supernatural-s14e13-internal-480p-x264-msd-eztv/60%Monthly2019-02-08 16:09
http://eztv.show/114687/the-rachel-maddow-show-2019-02-06-720p-mnbc-web-dl-aac2-0-x264-btw-eztv/60%Monthly2019-02-08 16:09
http://eztv.show/114686/bring-it-s05e17-survival-of-the-fittest-480p-x264-msd-eztv/60%Monthly2019-02-08 16:09
http://eztv.show/114685/swamp-people-s10e02-click-click-480p-x264-msd-eztv/60%Monthly2019-02-08 16:09
http://eztv.show/114684/60-days-in-s05e06-smells-like-a-rat-720p-hdtv-x264-crimson-eztv/60%Monthly2019-02-08 16:09
http://eztv.show/114683/busy-tonight-2019-02-07-michelle-williams-720p-web-x264-tbs-eztv/60%Monthly2019-02-08 16:08
http://eztv.show/114682/busy-tonight-2019-02-07-michelle-williams-web-x264-tbs-eztv/60%Monthly2019-02-08 16:08
http://eztv.show/114681/s-w-a-t-2017-s02e14-internal-720p-web-h264-amrap-eztv/60%Monthly2019-02-08 16:08
http://eztv.show/114680/married-at-first-sight-au-s06e08-480p-x264-msd-eztv/60%Monthly2019-02-08 16:08
http://eztv.show/114679/60-days-in-s05e06-smells-like-a-rat-480p-x264-msd-eztv/60%Monthly2019-02-08 16:08
http://eztv.show/114678/s-w-a-t-2017-s02e14-internal-480p-x264-msd-eztv/60%Monthly2019-02-08 16:08
http://eztv.show/114677/busy-tonight-2019-02-07-michelle-williams-480p-x264-msd-eztv/60%Monthly2019-02-08 16:08
http://eztv.show/114676/tmz-on-tv-2019-02-06-web-x264-tbs-eztv/60%Monthly2019-02-08 16:08
http://eztv.show/114675/tmz-on-tv-2019-02-06-720p-web-x264-tbs-eztv/60%Monthly2019-02-08 16:08
http://eztv.show/114674/one-day-at-a-time-2017-s03e05-720p-web-x264-amcon-eztv/60%Monthly2019-02-08 16:08
http://eztv.show/114673/tmz-on-tv-2019-02-06-480p-x264-msd-eztv/60%Monthly2019-02-08 16:08
http://eztv.show/114672/one-day-at-a-time-2017-s03e07-720p-web-x264-amcon-eztv/60%Monthly2019-02-08 16:08
http://eztv.show/114671/one-day-at-a-time-2017-s03e10-720p-web-x264-amcon-eztv/60%Monthly2019-02-08 16:08
http://eztv.show/114670/one-day-at-a-time-2017-s03e06-720p-web-x264-amcon-eztv/60%Monthly2019-02-08 16:08
http://eztv.show/114669/will-and-grace-s10e10-internal-720p-web-h264-amrap-eztv/60%Monthly2019-02-08 16:08
http://eztv.show/114668/one-day-at-a-time-2017-s03e09-720p-web-x264-amcon-eztv/60%Monthly2019-02-08 16:08
http://eztv.show/114667/one-day-at-a-time-2017-s03e08-720p-web-x264-amcon-eztv/60%Monthly2019-02-08 16:08
http://eztv.show/114666/one-day-at-a-time-2017-s03e11-720p-web-x264-amcon-eztv/60%Monthly2019-02-08 16:08
http://eztv.show/114665/one-day-at-a-time-2017-s03e12-720p-web-x264-amcon-eztv/60%Monthly2019-02-08 16:08
http://eztv.show/114664/one-day-at-a-time-2017-s03e13-720p-web-x264-amcon-eztv/60%Monthly2019-02-08 16:08
http://eztv.show/114663/one-day-at-a-time-2017-s03e02-720p-web-x264-amcon-eztv/60%Monthly2019-02-08 16:08
http://eztv.show/114662/one-day-at-a-time-2017-s03e01-720p-web-x264-amcon-eztv/60%Monthly2019-02-08 16:08
http://eztv.show/114661/one-day-at-a-time-2017-s03e03-720p-web-x264-amcon-eztv/60%Monthly2019-02-08 16:08
http://eztv.show/114660/one-day-at-a-time-2017-s03e04-720p-web-x264-amcon-eztv/60%Monthly2019-02-08 16:08
http://eztv.show/114659/one-day-at-a-time-2017-s03e11-480p-x264-msd-eztv/60%Monthly2019-02-08 16:08
http://eztv.show/114658/one-day-at-a-time-2017-s03e08-480p-x264-msd-eztv/60%Monthly2019-02-08 16:08
http://eztv.show/114657/one-day-at-a-time-2017-s03e12-480p-x264-msd-eztv/60%Monthly2019-02-08 16:08
http://eztv.show/114656/one-day-at-a-time-2017-s03e07-480p-x264-msd-eztv/60%Monthly2019-02-08 16:08
http://eztv.show/114655/one-day-at-a-time-2017-s03e10-480p-x264-msd-eztv/60%Monthly2019-02-08 16:08
http://eztv.show/114654/one-day-at-a-time-2017-s03e06-480p-x264-msd-eztv/60%Monthly2019-02-08 16:08
http://eztv.show/114653/one-day-at-a-time-2017-s03e09-480p-x264-msd-eztv/60%Monthly2019-02-08 16:08
http://eztv.show/114652/will-and-grace-s10e10-internal-480p-x264-msd-eztv/60%Monthly2019-02-08 16:08
http://eztv.show/114651/brooklyn-nine-nine-s06e05-internal-480p-x264-msd-eztv/60%Monthly2019-02-08 16:08
http://eztv.show/114650/remastered-s01e04-720p-web-x264-tvillage-eztv/60%Monthly2019-02-08 16:08
http://eztv.show/114649/the-rap-game-s05e06-web-h264-tbs-eztv/60%Monthly2019-02-08 16:08
http://eztv.show/114648/the-first-48-presents-homicide-squad-atlanta-s01e05-web-h264-tbs-eztv/60%Monthly2019-02-08 16:08
http://eztv.show/114647/remastered-s01e05-720p-web-x264-tvillage-eztv/60%Monthly2019-02-08 16:08
http://eztv.show/114646/one-day-at-a-time-2017-s03e04-480p-x264-msd-eztv/60%Monthly2019-02-08 16:08
http://eztv.show/114645/the-first-48-presents-homicide-squad-atlanta-s01e05-720p-web-h264-tbs-eztv/60%Monthly2019-02-08 16:08
http://eztv.show/114644/the-rap-game-s05e06-720p-web-h264-tbs-eztv/60%Monthly2019-02-08 16:08
http://eztv.show/114643/one-day-at-a-time-2017-s03e05-480p-x264-msd-eztv/60%Monthly2019-02-08 16:08
http://eztv.show/114642/one-day-at-a-time-2017-s03e03-480p-x264-msd-eztv/60%Monthly2019-02-08 16:08
http://eztv.show/114641/one-day-at-a-time-2017-s03e02-480p-x264-msd-eztv/60%Monthly2019-02-08 16:08
http://eztv.show/114640/one-day-at-a-time-2017-s03e01-480p-x264-msd-eztv/60%Monthly2019-02-08 16:08
http://eztv.show/114639/one-day-at-a-time-2017-s03e13-480p-x264-msd-eztv/60%Monthly2019-02-08 16:08
http://eztv.show/114638/floribama-shore-s02e21-not-nothing-physical-repack-480p-x264-msd-eztv/60%Monthly2019-02-08 16:08
http://eztv.show/114637/stephen-colbert-2019-02-07-chris-pratt-720p-web-x264-tbs-eztv/60%Monthly2019-02-08 16:08
http://eztv.show/114636/the-rap-game-s05e06-480p-x264-msd-eztv/60%Monthly2019-02-08 16:08
http://eztv.show/114635/conan-2019-02-07-nick-kroll-720p-web-x264-tbs-eztv/60%Monthly2019-02-08 16:08
http://eztv.show/114634/stephen-colbert-2019-02-07-chris-pratt-web-x264-tbs-eztv/60%Monthly2019-02-08 16:07
http://eztv.show/114633/conan-2019-02-07-nick-kroll-web-x264-tbs-eztv/60%Monthly2019-02-08 16:07
http://eztv.show/114632/sydney-to-the-max-s01e03-web-x264-tbs-eztv/60%Monthly2019-02-08 16:07
http://eztv.show/114631/the-first-48-presents-homicide-squad-atlanta-s01e05-480p-x264-msd-eztv/60%Monthly2019-02-08 16:07
http://eztv.show/114630/sydney-to-the-max-s01e03-720p-web-x264-tbs-eztv/60%Monthly2019-02-08 16:07
http://eztv.show/114629/andi-mack-s03e11-web-x264-tbs-eztv/60%Monthly2019-02-08 16:07
http://eztv.show/114628/the-other-two-s01e03-720p-web-x264-tbs-eztv/60%Monthly2019-02-08 16:07
http://eztv.show/114627/andi-mack-s03e11-720p-web-x264-tbs-eztv/60%Monthly2019-02-08 16:07
http://eztv.show/114626/the-other-two-s01e03-web-x264-tbs-eztv/60%Monthly2019-02-08 16:07
http://eztv.show/114625/remastered-s01e05-480p-x264-msd-eztv/60%Monthly2019-02-08 16:07
http://eztv.show/114624/the-carbonaro-effect-s04e16-real-720p-web-x264-tbs-eztv/60%Monthly2019-02-08 16:07
http://eztv.show/114623/the-carbonaro-effect-s04e16-real-web-x264-tbs-eztv/60%Monthly2019-02-08 16:07
http://eztv.show/114622/stephen-colbert-2019-02-07-chris-pratt-480p-x264-msd-eztv/60%Monthly2019-02-08 16:07
http://eztv.show/114621/conan-2019-02-07-nick-kroll-480p-x264-msd-eztv/60%Monthly2019-02-08 16:07
http://eztv.show/114620/james-corden-2019-02-07-matt-leblanc-720p-web-x264-tbs-eztv/60%Monthly2019-02-08 16:07
http://eztv.show/114619/james-corden-2019-02-07-matt-leblanc-web-x264-tbs-eztv/60%Monthly2019-02-08 16:07
http://eztv.show/114618/the-other-two-s01e03-480p-x264-msd-eztv/60%Monthly2019-02-08 16:07
http://eztv.show/114617/andi-mack-s03e11-480p-x264-msd-eztv/60%Monthly2019-02-08 16:07
http://eztv.show/114616/remastered-s01e04-480p-x264-msd-eztv/60%Monthly2019-02-08 16:07
http://eztv.show/114615/the-carbonaro-effect-s04e16-real-480p-x264-msd-eztv/60%Monthly2019-02-08 16:07
http://eztv.show/114614/sydney-to-the-max-s01e03-480p-x264-msd-eztv/60%Monthly2019-02-08 16:07
http://eztv.show/114612/confessions-of-a-serial-killer-with-piers-morgan-s01e01-bernard-giles-hdtv-eztv/60%Monthly2019-02-08 16:07
http://eztv.show/114613/james-corden-2019-02-07-matt-leblanc-480p-x264-msd-eztv/60%Monthly2019-02-08 16:07
http://eztv.show/114610/how-to-get-away-with-murder-s05e12-internal-720p-web-h264-amrap-eztv/60%Monthly2019-02-08 16:07
http://eztv.show/114611/confessions-of-a-serial-killer-with-piers-morgan-s01e01-bernard-giles-720p-eztv/60%Monthly2019-02-08 16:07
http://eztv.show/114609/the-titan-games-s01e06-720p-web-x264-tbs-eztv/60%Monthly2019-02-08 16:07
http://eztv.show/114608/greys-anatomy-s15e12-internal-720p-web-h264-amrap-eztv/60%Monthly2019-02-08 16:07
http://eztv.show/114607/a-million-little-things-s01e14-internal-720p-web-h264-amrap-eztv/60%Monthly2019-02-08 16:07
http://eztv.show/114606/the-epic-tales-of-captain-underpants-s02e01-720p-web-x264-edhd-eztv/60%Monthly2019-02-08 16:07
http://eztv.show/114605/the-titan-games-s01e06-web-x264-tbs-eztv/60%Monthly2019-02-08 16:07
http://eztv.show/114604/the-epic-tales-of-captain-underpants-s02e02-720p-web-x264-edhd-eztv/60%Monthly2019-02-08 16:07
http://eztv.show/114603/the-epic-tales-of-captain-underpants-s02e03-720p-web-x264-edhd-eztv/60%Monthly2019-02-08 16:07
http://eztv.show/114602/the-epic-tales-of-captain-underpants-s02e04-720p-web-x264-edhd-eztv/60%Monthly2019-02-08 16:07
http://eztv.show/114601/the-epic-tales-of-captain-underpants-s02e05-720p-web-x264-edhd-eztv/60%Monthly2019-02-08 16:07
http://eztv.show/114600/the-epic-tales-of-captain-underpants-s02e06-720p-web-x264-edhd-eztv/60%Monthly2019-02-08 16:07
http://eztv.show/114599/the-epic-tales-of-captain-underpants-s02e07-720p-web-x264-edhd-eztv/60%Monthly2019-02-08 16:07
http://eztv.show/114598/the-epic-tales-of-captain-underpants-s02e08-720p-web-x264-edhd-eztv/60%Monthly2019-02-08 16:07
http://eztv.show/114597/the-epic-tales-of-captain-underpants-s02e09-720p-web-x264-edhd-eztv/60%Monthly2019-02-08 16:07
http://eztv.show/114596/the-epic-tales-of-captain-underpants-s02e10-720p-web-x264-edhd-eztv/60%Monthly2019-02-08 16:07
http://eztv.show/114595/the-epic-tales-of-captain-underpants-s02e11-720p-web-x264-edhd-eztv/60%Monthly2019-02-08 16:07
http://eztv.show/114594/the-epic-tales-of-captain-underpants-s02e13-720p-web-x264-edhd-eztv/60%Monthly2019-02-08 16:07
http://eztv.show/114593/the-epic-tales-of-captain-underpants-s02e12-720p-web-x264-edhd-eztv/60%Monthly2019-02-08 16:07
http://eztv.show/114592/greys-anatomy-s15e12-internal-480p-x264-msd-eztv/60%Monthly2019-02-08 16:07
http://eztv.show/114591/the-titan-games-s01e06-480p-x264-msd-eztv/60%Monthly2019-02-08 16:07
http://eztv.show/114590/how-to-get-away-with-murder-s05e12-internal-480p-x264-msd-eztv/60%Monthly2019-02-08 16:07
http://eztv.show/114589/the-epic-tales-of-captain-underpants-s02e01-480p-x264-msd-eztv/60%Monthly2019-02-08 16:07
http://eztv.show/114588/show-me-the-movie-s02e01-hdtv-x264-cct-eztv/60%Monthly2019-02-08 16:07
http://eztv.show/114587/a-million-little-things-s01e14-internal-480p-x264-msd-eztv/60%Monthly2019-02-08 16:07
http://eztv.show/114586/confessions-of-a-serial-killer-with-piers-morgan-s01e01-bernard-giles-480p-eztv/60%Monthly2019-02-08 16:07
http://eztv.show/114585/the-epic-tales-of-captain-underpants-s02e02-480p-x264-msd-eztv/60%Monthly2019-02-08 16:07
http://eztv.show/114584/the-epic-tales-of-captain-underpants-s02e12-480p-x264-msd-eztv/60%Monthly2019-02-08 16:06
http://eztv.show/114583/the-epic-tales-of-captain-underpants-s02e11-480p-x264-msd-eztv/60%Monthly2019-02-08 16:06
http://eztv.show/114582/the-epic-tales-of-captain-underpants-s02e10-480p-x264-msd-eztv/60%Monthly2019-02-08 16:06
http://eztv.show/114581/floribama-shore-s02e26-720p-web-x264-tbs-eztv/60%Monthly2019-02-08 16:06
http://eztv.show/114580/the-epic-tales-of-captain-underpants-s02e09-480p-x264-msd-eztv/60%Monthly2019-02-08 16:06
http://eztv.show/114578/million-dollar-listing-los-angeles-s11e06-720p-web-x264-tbs-eztv/60%Monthly2019-02-08 16:06
http://eztv.show/114579/million-dollar-listing-los-angeles-s11e06-web-x264-tbs-eztv/60%Monthly2019-02-08 16:06
http://eztv.show/114577/the-epic-tales-of-captain-underpants-s02e03-480p-x264-msd-eztv/60%Monthly2019-02-08 16:06
http://eztv.show/114576/the-epic-tales-of-captain-underpants-s02e06-480p-x264-msd-eztv/60%Monthly2019-02-08 16:06
http://eztv.show/114575/the-epic-tales-of-captain-underpants-s02e07-480p-x264-msd-eztv/60%Monthly2019-02-08 16:06
http://eztv.show/114574/the-epic-tales-of-captain-underpants-s02e08-480p-x264-msd-eztv/60%Monthly2019-02-08 16:06
http://eztv.show/114573/floribama-shore-s02e26-480p-x264-msd-eztv/60%Monthly2019-02-08 16:06
http://eztv.show/114572/the-epic-tales-of-captain-underpants-s02e13-480p-x264-msd-eztv/60%Monthly2019-02-08 16:06
http://eztv.show/114571/jimmy-fallon-2019-02-07-kim-kardashian-web-x264-tbs-eztv/60%Monthly2019-02-08 16:06
http://eztv.show/114570/million-dollar-listing-los-angeles-s11e06-480p-x264-msd-eztv/60%Monthly2019-02-08 16:06
http://eztv.show/114569/jimmy-fallon-2019-02-07-kim-kardashian-720p-web-x264-tbs-eztv/60%Monthly2019-02-08 16:06
http://eztv.show/114568/watch-what-happens-live-2019-02-07-kyle-richards-and-lisa-rinna-web-x264-tbs-eztv/60%Monthly2019-02-08 16:06
http://eztv.show/114567/serial-killer-with-piers-morgan-s01e04-hdtv-x264-phoenix-eztv/60%Monthly2019-02-08 16:06
http://eztv.show/114566/backyard-envy-s01e04-720p-web-x264-tbs-eztv/60%Monthly2019-02-08 16:06
http://eztv.show/114565/jimmy-fallon-2019-02-07-kim-kardashian-480p-x264-msd-eztv/60%Monthly2019-02-08 16:06
http://eztv.show/114564/the-epic-tales-of-captain-underpants-s02e05-480p-x264-msd-eztv/60%Monthly2019-02-08 16:06
http://eztv.show/114563/backyard-envy-s01e04-480p-x264-msd-eztv/60%Monthly2019-02-08 16:06
http://eztv.show/114562/seth-meyers-2019-02-07-j-j-watt-web-x264-tbs-eztv/60%Monthly2019-02-08 16:06
http://eztv.show/114561/seth-meyers-2019-02-07-j-j-watt-720p-web-x264-tbs-eztv/60%Monthly2019-02-08 16:06
http://eztv.show/114560/cardinal-s03e03-720p-hdtv-x264-aaf-eztv/60%Monthly2019-02-08 16:06
http://eztv.show/114559/seth-meyers-2019-02-07-j-j-watt-480p-x264-msd-eztv/60%Monthly2019-02-08 16:06
http://eztv.show/114558/cardinal-s03e03-hdtv-x264-aaf-eztv/60%Monthly2019-02-08 16:06
http://eztv.show/114557/cardinal-s03e03-480p-x264-msd-eztv/60%Monthly2019-02-08 16:06
http://eztv.show/114556/house-of-anubis-s03e36-house-of-heartbreaks-hdtv-x264-plutonium-eztv/60%Monthly2019-02-08 16:06
http://eztv.show/114555/house-of-anubis-s03e36-house-of-heartbreaks-720p-hdtv-x264-plutonium-eztv/60%Monthly2019-02-08 16:06
http://eztv.show/114554/house-of-anubis-s03e36-house-of-heartbreaks-480p-x264-msd-eztv/60%Monthly2019-02-08 16:06
http://eztv.show/114553/truck-night-in-america-s02e02-720p-web-h264-tbs-eztv/60%Monthly2019-02-08 16:06
http://eztv.show/114552/truck-night-in-america-s02e02-web-h264-tbs-eztv/60%Monthly2019-02-08 16:06
http://eztv.show/114551/jimmy-kimmel-2019-02-07-jennifer-connelly-web-h264-tbs-eztv/60%Monthly2019-02-08 16:06
http://eztv.show/114550/jimmy-kimmel-2019-02-07-jennifer-connelly-720p-web-h264-tbs-eztv/60%Monthly2019-02-08 16:06
http://eztv.show/114549/truck-night-in-america-s02e02-480p-x264-msd-eztv/60%Monthly2019-02-08 16:06
http://eztv.show/114548/jimmy-kimmel-2019-02-07-jennifer-connelly-480p-x264-msd-eztv/60%Monthly2019-02-08 16:06
http://eztv.show/114547/broad-city-s05e03-web-x264-tbs-eztv/60%Monthly2019-02-08 16:06
http://eztv.show/114546/broad-city-s05e03-720p-web-x264-tbs-eztv/60%Monthly2019-02-08 16:06
http://eztv.show/114545/broad-city-s05e03-480p-x264-msd-eztv/60%Monthly2019-02-08 16:06
http://eztv.show/114544/the-epic-tales-of-captain-underpants-s02e04-480p-x264-msd-eztv/60%Monthly2019-02-08 16:06
http://eztv.show/114543/moving-on-s10e05-720p-hdtv-x264-mtb-eztv/60%Monthly2019-02-08 16:06
http://eztv.show/114542/moving-on-s10e05-hdtv-x264-mtb-eztv/60%Monthly2019-02-08 16:06
http://eztv.show/114541/the-first-48-presents-homicide-squad-atlanta-s01e05-hot-sun-cold-blood-720p-eztv/60%Monthly2019-02-08 16:06
http://eztv.show/114540/the-first-48-presents-homicide-squad-atlanta-s01e05-hot-sun-cold-blood-hdtv-eztv/60%Monthly2019-02-08 16:06
http://eztv.show/114539/tropical-cop-tales-s01e03-720p-web-h264-tbs-eztv/60%Monthly2019-02-08 16:06
http://eztv.show/114538/tropical-cop-tales-s01e03-web-h264-tbs-eztv/60%Monthly2019-02-08 16:05
http://eztv.show/114537/tropical-cop-tales-s01e04-web-h264-tbs-eztv/60%Monthly2019-02-08 16:05
http://eztv.show/114536/the-first-48-presents-homicide-squad-atlanta-s01e05-hot-sun-cold-blood-480p-eztv/60%Monthly2019-02-08 16:05
http://eztv.show/114535/tropical-cop-tales-s01e04-720p-web-h264-tbs-eztv/60%Monthly2019-02-08 16:05
http://eztv.show/114534/tropical-cop-tales-s01e03-480p-x264-msd-eztv/60%Monthly2019-02-08 16:05
http://eztv.show/114533/wwe-nxt-2019-02-07-hdtv-x264-star-eztv/60%Monthly2019-02-08 16:05
http://eztv.show/114532/moving-on-s10e05-480p-x264-msd-eztv/60%Monthly2019-02-08 16:05
http://eztv.show/114531/wwe-main-event-2019-02-08-hdtv-x264-star-eztv/60%Monthly2019-02-08 16:05
http://eztv.show/114530/wwe-nxt-2019-02-07-720p-hdtv-x264-star-eztv/60%Monthly2019-02-08 16:05
http://eztv.show/114529/wwe-main-event-2019-02-08-720p-hdtv-x264-star-eztv/60%Monthly2019-02-08 16:05
http://eztv.show/114528/backyard-envy-s01e04-web-x264-tbs-eztv/60%Monthly2019-02-08 16:05
http://eztv.show/114527/celebrity-big-brother-us-s02e10-web-x264-tbs-eztv/60%Monthly2019-02-08 16:05
http://eztv.show/114526/celebrity-big-brother-us-s02e10-720p-web-x264-tbs-eztv/60%Monthly2019-02-08 16:05
http://eztv.show/114525/celebrity-big-brother-us-s02e10-480p-x264-msd-eztv/60%Monthly2019-02-08 16:05
http://eztv.show/114524/show-me-the-movie-s02e01-720p-hdtv-x264-cct-eztv/60%Monthly2019-02-08 16:05
http://eztv.show/114523/americas-test-kitchen-s19e05-chinese-favorites-720p-hdtv-x264-w4f-eztv/60%Monthly2019-02-08 16:05
http://eztv.show/114522/americas-test-kitchen-s19e05-chinese-favorites-hdtv-x264-w4f-eztv/60%Monthly2019-02-08 16:05
http://eztv.show/114521/judge-judy-s23e127-dads-therapy-dog-scam-the-first-lady-of-hats-hdtv-x264-w4f-eztv/60%Monthly2019-02-08 16:05
http://eztv.show/114520/carson-daly-2019-02-07-flula-borg-720p-web-x264-cookiemonster-eztv/60%Monthly2019-02-08 16:05
http://eztv.show/114519/judge-judy-s23e127-dads-therapy-dog-scam-the-first-lady-of-hats-720p-hdtv-eztv/60%Monthly2019-02-08 16:05
http://eztv.show/114518/judge-judy-s23e128-fresh-start-or-fifth-dui-judy-quotes-pacino-720p-hdtv-eztv/60%Monthly2019-02-08 16:05
http://eztv.show/114517/judge-judy-s23e128-fresh-start-or-fifth-dui-judy-quotes-pacino-hdtv-x264-w4f-eztv/60%Monthly2019-02-08 16:05
http://eztv.show/114516/judge-judy-s23e130-advocate-against-horse-slaughter-720p-hdtv-x264-w4f-eztv/60%Monthly2019-02-08 16:05
http://eztv.show/114515/judge-judy-s23e130-advocate-against-horse-slaughter-hdtv-x264-w4f-eztv/60%Monthly2019-02-08 16:05
http://eztv.show/114514/americas-test-kitchen-s19e05-chinese-favorites-480p-x264-msd-eztv/60%Monthly2019-02-08 16:05
http://eztv.show/114513/judge-judy-s23e127-dads-therapy-dog-scam-the-first-lady-of-hats-480p-x264-msd-eztv/60%Monthly2019-02-08 16:05
http://eztv.show/114512/judge-judy-s23e128-fresh-start-or-fifth-dui-judy-quotes-pacino-480p-x264-msd-eztv/60%Monthly2019-02-08 16:05
http://eztv.show/114511/great-british-railway-journeys-s10e05-web-h264-kompost-eztv/60%Monthly2019-02-08 16:05
http://eztv.show/114510/the-daily-show-2019-02-05-state-of-the-unions-special-web-x264-cookiemonster-eztv/60%Monthly2019-02-08 16:05
http://eztv.show/114509/great-british-railway-journeys-s10e05-720p-webrip-x264-kompost-eztv/60%Monthly2019-02-08 16:05
http://eztv.show/114508/show-me-the-movie-s02e01-480p-x264-msd-eztv/60%Monthly2019-02-08 16:05
http://eztv.show/114507/judge-judy-s23e130-advocate-against-horse-slaughter-480p-x264-msd-eztv/60%Monthly2019-02-08 16:05
http://eztv.show/114506/carson-daly-2019-02-07-flula-borg-480p-x264-msd-eztv/60%Monthly2019-02-08 16:05
http://eztv.show/114505/the-daily-show-2019-02-04-colin-quinn-720p-web-x264-cookiemonster-eztv/60%Monthly2019-02-08 16:05
http://eztv.show/114504/the-daily-show-2019-01-29-sallie-krawcheck-extended-720p-web-x264-cookiemonster-eztv/60%Monthly2019-02-08 16:05
http://eztv.show/114503/homicide-hunter-s08e19-married-to-the-job-480p-x264-msd-eztv/60%Monthly2019-02-07 16:09
http://eztv.show/114502/the-bold-and-the-beautiful-s32e97-480p-x264-msd-eztv/60%Monthly2019-02-07 16:09
http://eztv.show/114501/mythbusters-jr-s01e10-breaking-bad-blow-up-720p-webrip-x264-caffeine-eztv/60%Monthly2019-02-07 16:09
http://eztv.show/114500/days-of-our-lives-s54e95-480p-x264-msd-eztv/60%Monthly2019-02-07 16:09
http://eztv.show/114499/my-600-lb-life-s07e06-webrip-x264-tbs-eztv/60%Monthly2019-02-07 16:09
http://eztv.show/114498/botched-s05e10-playing-with-fire-480p-x264-msd-eztv/60%Monthly2019-02-07 16:09
http://eztv.show/114497/in-pursuit-with-john-walsh-s01e04-crocodile-tears-720p-webrip-x264-caffeine-eztv/60%Monthly2019-02-07 16:09
http://eztv.show/114496/in-pursuit-with-john-walsh-s01e04-crocodile-tears-webrip-x264-caffeine-eztv/60%Monthly2019-02-07 16:09
http://eztv.show/114495/deal-or-no-deal-us-s05e11-480p-x264-msd-eztv/60%Monthly2019-02-07 16:09
http://eztv.show/114494/tmz-on-tv-2019-02-05-480p-x264-msd-eztv/60%Monthly2019-02-07 16:09
http://eztv.show/114492/who-wants-to-be-a-millionaire-2019-02-04-hdtv-x264-w4f-eztv/60%Monthly2019-02-07 16:09
http://eztv.show/114493/my-600-lb-life-s07e06-720p-webrip-x264-tbs-eztv/60%Monthly2019-02-07 16:09
http://eztv.show/114491/who-wants-to-be-a-millionaire-2019-02-06-hdtv-x264-w4f-eztv/60%Monthly2019-02-07 16:09
http://eztv.show/114490/deal-or-no-deal-us-s05e08-480p-x264-msd-eztv/60%Monthly2019-02-07 16:09
http://eztv.show/114489/guys-grocery-games-s20e01-ggg-iron-chef-challenge-webrip-x264-caffeine-eztv/60%Monthly2019-02-07 16:09
http://eztv.show/114488/house-hunters-s163e03-ready-for-a-family-in-rochester-web-x264-caffeine-eztv/60%Monthly2019-02-07 16:09
http://eztv.show/114487/mythbusters-jr-s01e09-deep-space-hollywood-480p-x264-msd-eztv/60%Monthly2019-02-07 16:09
http://eztv.show/114486/suits-s08e13-720p-hdtv-x265-minx-eztv/60%Monthly2019-02-07 16:09
http://eztv.show/114485/greys-anatomy-s15e12-720p-hdtv-x265-minx-eztv/60%Monthly2019-02-07 16:09
http://eztv.show/114484/the-magicians-us-s04e03-internal-720p-web-x264-bamboozle-eztv/60%Monthly2019-02-07 16:09
http://eztv.show/114483/house-hunters-international-s137e09-diving-into-utrecht-webrip-x264-caffeine-eztv/60%Monthly2019-02-07 16:09
http://eztv.show/114482/mythbusters-jr-s01e10-breaking-bad-blow-up-480p-x264-msd-eztv/60%Monthly2019-02-07 16:09
http://eztv.show/114481/the-worlds-best-s01e02-720p-web-x264-tbs-eztv/60%Monthly2019-02-07 16:09
http://eztv.show/114480/graveyard-carz-s10e08-the-a100-team-webrip-x264-caffeine-eztv/60%Monthly2019-02-07 16:09
http://eztv.show/114479/the-worlds-best-s01e02-web-x264-tbs-eztv/60%Monthly2019-02-07 16:09
http://eztv.show/114478/riverdale-us-s03e12-internal-720p-web-h264-bamboozle-eztv/60%Monthly2019-02-07 16:09
http://eztv.show/114477/burden-of-truth-s02e05-720p-web-x265-minx-eztv/60%Monthly2019-02-07 16:09
http://eztv.show/114476/my-600-lb-life-s07e06-480p-x264-msd-eztv/60%Monthly2019-02-07 16:09
http://eztv.show/114475/in-pursuit-with-john-walsh-s01e04-crocodile-tears-480p-x264-msd-eztv/60%Monthly2019-02-07 16:09
http://eztv.show/114474/copa-del-rey-2019-02-06-semi-final-fc-barcelona-vs-real-madrid-hdtv-x264-verum-eztv/60%Monthly2019-02-07 16:09
http://eztv.show/114473/copa-del-rey-2019-02-06-semi-final-fc-barcelona-vs-real-madrid-720p-hdtv-eztv/60%Monthly2019-02-07 16:09
http://eztv.show/114472/all-american-2018-s01e12-webrip-x264-tbs-eztv/60%Monthly2019-02-07 16:09
http://eztv.show/114471/guys-grocery-games-s20e01-ggg-iron-chef-challenge-480p-x264-msd-eztv/60%Monthly2019-02-07 16:09
http://eztv.show/114470/all-american-2018-s01e12-720p-webrip-x264-tbs-eztv/60%Monthly2019-02-07 16:09
http://eztv.show/114469/the-magicians-us-s04e03-internal-480p-x264-msd-eztv/60%Monthly2019-02-07 16:09
http://eztv.show/114467/married-at-first-sight-au-s06e08-hdtv-x264-cct-eztv/60%Monthly2019-02-07 16:09
http://eztv.show/114468/graveyard-carz-s10e08-the-a100-team-480p-x264-msd-eztv/60%Monthly2019-02-07 16:09
http://eztv.show/114466/chicago-pd-s06e13-720p-hdtv-x265-minx-eztv/60%Monthly2019-02-07 16:08
http://eztv.show/114465/the-worlds-best-s01e02-480p-x264-msd-eztv/60%Monthly2019-02-07 16:08
http://eztv.show/114464/riverdale-us-s03e12-internal-480p-x264-msd-eztv/60%Monthly2019-02-07 16:08
http://eztv.show/114463/deadly-class-s01e04-webrip-x264-tbs-eztv/60%Monthly2019-02-07 16:08
http://eztv.show/114462/deadly-class-s01e04-720p-webrip-x264-tbs-eztv/60%Monthly2019-02-07 16:08
http://eztv.show/114461/criminal-minds-s14e15-internal-720p-web-x264-bamboozle-eztv/60%Monthly2019-02-07 16:08
http://eztv.show/114460/criminal-minds-s14e15-internal-720p-web-h264-amrap-eztv/60%Monthly2019-02-07 16:08
http://eztv.show/114459/busy-tonight-2019-02-06-jemima-kirke-web-x264-tbs-eztv/60%Monthly2019-02-07 16:08
http://eztv.show/114458/busy-tonight-2019-02-06-jemima-kirke-720p-web-x264-tbs-eztv/60%Monthly2019-02-07 16:08
http://eztv.show/114457/project-runway-all-stars-s07e06-web-h264-tbs-eztv/60%Monthly2019-02-07 16:08
http://eztv.show/114456/american-beauty-star-s02e06-720p-web-h264-tbs-eztv/60%Monthly2019-02-07 16:08
http://eztv.show/114455/american-beauty-star-s02e06-web-h264-tbs-eztv/60%Monthly2019-02-07 16:08
http://eztv.show/114454/project-runway-all-stars-s07e06-720p-web-h264-tbs-eztv/60%Monthly2019-02-07 16:08
http://eztv.show/114453/dr-phil-2019-01-28-hdtv-x264-w4f-eztv/60%Monthly2019-02-07 16:08
http://eztv.show/114452/all-american-2018-s01e12-720p-webrip-x265-minx-eztv/60%Monthly2019-02-07 16:08
http://eztv.show/114451/the-loud-house-s03e10b-s03e11a-720p-hdtv-x264-w4f-eztv/60%Monthly2019-02-07 16:08
http://eztv.show/114450/big-city-greens-s01e23-hdtv-x264-w4f-eztv/60%Monthly2019-02-07 16:08
http://eztv.show/114449/big-city-greens-s01e23-720p-hdtv-x264-w4f-eztv/60%Monthly2019-02-07 16:08
http://eztv.show/114448/the-loud-house-s03e10b-s03e11a-hdtv-x264-w4f-eztv/60%Monthly2019-02-07 16:08
http://eztv.show/114447/copa-del-rey-2019-02-06-semi-final-fc-barcelona-vs-real-madrid-480p-x264-msd-eztv/60%Monthly2019-02-07 16:08
http://eztv.show/114446/the-loud-house-s03e22a-720p-hdtv-x264-w4f-eztv/60%Monthly2019-02-07 16:08
http://eztv.show/114445/teen-titans-go-s05e19-720p-hdtv-x264-w4f-eztv/60%Monthly2019-02-07 16:08
http://eztv.show/114444/craig-of-the-creek-s01e35-hdtv-x264-w4f-eztv/60%Monthly2019-02-07 16:08
http://eztv.show/114443/craig-of-the-creek-s01e35-720p-hdtv-x264-w4f-eztv/60%Monthly2019-02-07 16:08
http://eztv.show/114442/beyblade-burst-turbo-s01e12-dubbed-hdtv-x264-w4f-eztv/60%Monthly2019-02-07 16:08
http://eztv.show/114441/dr-phil-2019-02-06-hdtv-x264-w4f-eztv/60%Monthly2019-02-07 16:08
http://eztv.show/114440/beyblade-burst-turbo-s01e12-dubbed-720p-hdtv-x264-w4f-eztv/60%Monthly2019-02-07 16:08
http://eztv.show/114439/beyblade-burst-turbo-s01e11-dubbed-720p-hdtv-x264-w4f-eztv/60%Monthly2019-02-07 16:08
http://eztv.show/114438/teen-titans-go-s05e19-hdtv-x264-w4f-eztv/60%Monthly2019-02-07 16:08
http://eztv.show/114437/beyblade-burst-turbo-s01e11-dubbed-hdtv-x264-w4f-eztv/60%Monthly2019-02-07 16:08
http://eztv.show/114436/the-loud-house-s03e22a-hdtv-x264-w4f-eztv/60%Monthly2019-02-07 16:08
http://eztv.show/114435/all-american-2018-s01e12-480p-x264-msd-eztv/60%Monthly2019-02-07 16:08
http://eztv.show/114434/the-loud-house-s03e22b-720p-hdtv-x264-w4f-eztv/60%Monthly2019-02-07 16:08
http://eztv.show/114433/dr-phil-2019-02-05-hdtv-x264-w4f-eztv/60%Monthly2019-02-07 16:08
http://eztv.show/114432/the-loud-house-s03e22b-hdtv-x264-w4f-eztv/60%Monthly2019-02-07 16:08
http://eztv.show/114431/criminal-minds-s14e15-internal-480p-x264-msd-eztv/60%Monthly2019-02-07 16:08
http://eztv.show/114430/busy-tonight-2019-02-06-jemima-kirke-480p-x264-msd-eztv/60%Monthly2019-02-07 16:08
http://eztv.show/114429/deadly-class-s01e04-480p-x264-msd-eztv/60%Monthly2019-02-07 16:08
http://eztv.show/114428/american-beauty-star-s02e06-480p-x264-msd-eztv/60%Monthly2019-02-07 16:08
http://eztv.show/114427/teen-titans-go-s05e19-480p-x264-msd-eztv/60%Monthly2019-02-07 16:08
http://eztv.show/114426/dr-phil-2019-01-31-hdtv-x264-w4f-eztv/60%Monthly2019-02-07 16:08
http://eztv.show/114425/project-runway-all-stars-s07e06-480p-x264-msd-eztv/60%Monthly2019-02-07 16:08
http://eztv.show/114424/dr-phil-2019-02-04-hdtv-x264-w4f-eztv/60%Monthly2019-02-07 16:08
http://eztv.show/114423/the-loud-house-s03e22a-480p-x264-msd-eztv/60%Monthly2019-02-07 16:07
http://eztv.show/114422/stephen-colbert-2019-02-06-steve-buscemi-720p-hdtv-x264-sorny-eztv/60%Monthly2019-02-07 16:07
http://eztv.show/114421/the-loud-house-s03e22b-480p-x264-msd-eztv/60%Monthly2019-02-07 16:07
http://eztv.show/114420/beyond-the-pole-s01e06-web-h264-crimson-eztv/60%Monthly2019-02-07 16:07
http://eztv.show/114418/beyond-the-pole-s01e06-720p-web-h264-crimson-eztv/60%Monthly2019-02-07 16:07
http://eztv.show/114419/true-first-s01e02-shirley-chisolm-web-h264-crimson-eztv/60%Monthly2019-02-07 16:07
http://eztv.show/114417/big-city-greens-s01e23-480p-x264-msd-eztv/60%Monthly2019-02-07 16:07
http://eztv.show/114416/true-first-s01e02-shirley-chisolm-720p-web-h264-crimson-eztv/60%Monthly2019-02-07 16:07
http://eztv.show/114415/chicago-med-s04e13-internal-720p-web-h264-amrap-eztv/60%Monthly2019-02-07 16:07
http://eztv.show/114414/chicago-pd-s06e13-internal-720p-web-h264-amrap-eztv/60%Monthly2019-02-07 16:07
http://eztv.show/114413/chicago-fire-s07e13-internal-720p-web-h264-amrap-eztv/60%Monthly2019-02-07 16:07
http://eztv.show/114412/suits-s08e13-internal-720p-web-x264-amrap-eztv/60%Monthly2019-02-07 16:07
http://eztv.show/114411/jimmy-fallon-2019-02-06-liam-hemsworth-720p-hdtv-x264-sorny-eztv/60%Monthly2019-02-07 16:07
http://eztv.show/114410/knight-fight-s01e03-720p-web-h264-tbs-eztv/60%Monthly2019-02-07 16:07
http://eztv.show/114409/knight-fight-s01e03-web-h264-tbs-eztv/60%Monthly2019-02-07 16:07
http://eztv.show/114408/forged-in-fire-s06e01-web-h264-tbs-eztv/60%Monthly2019-02-07 16:07
http://eztv.show/114407/im-sorry-s02e05-uncensored-720p-webrip-x264-tbs-eztv/60%Monthly2019-02-07 16:07
http://eztv.show/114406/im-sorry-s02e05-uncensored-webrip-x264-tbs-eztv/60%Monthly2019-02-07 16:07
http://eztv.show/114405/forged-in-fire-s06e01-720p-web-h264-tbs-eztv/60%Monthly2019-02-07 16:07
http://eztv.show/114404/deadly-class-s01e04-720p-webrip-x265-minx-eztv/60%Monthly2019-02-07 16:07
http://eztv.show/114403/the-undateables-s10e05-720p-hdtv-x264-plutonium-eztv/60%Monthly2019-02-07 16:07
http://eztv.show/114402/the-undateables-s10e05-hdtv-x264-plutonium-eztv/60%Monthly2019-02-07 16:07
http://eztv.show/114401/shipwrecked-s09e08-pdtv-x264-plutonium-eztv/60%Monthly2019-02-07 16:07
http://eztv.show/114400/james-corden-2019-02-06-alicia-keys-720p-web-x264-tbs-eztv/60%Monthly2019-02-07 16:07
http://eztv.show/114399/james-corden-2019-02-06-alicia-keys-web-x264-tbs-eztv/60%Monthly2019-02-07 16:07
http://eztv.show/114398/stephen-colbert-2019-02-06-steve-buscemi-web-x264-tbs-eztv/60%Monthly2019-02-07 16:07
http://eztv.show/114397/conan-2019-02-06-tracy-morgan-web-x264-tbs-eztv/60%Monthly2019-02-07 16:07
http://eztv.show/114396/conan-2019-02-06-tracy-morgan-720p-web-x264-tbs-eztv/60%Monthly2019-02-07 16:07
http://eztv.show/114395/unikitty-s01e31-brawl-bot-hdtv-x264-plutonium-eztv/60%Monthly2019-02-07 16:07
http://eztv.show/114394/the-daily-show-2019-02-06-danai-gurira-extended-720p-web-x264-tbs-eztv/60%Monthly2019-02-07 16:07
http://eztv.show/114393/the-daily-show-2019-02-06-danai-gurira-extended-web-x264-tbs-eztv/60%Monthly2019-02-07 16:07
http://eztv.show/114392/unikitty-s01e32-beach-daze-720p-hdtv-x264-plutonium-eztv/60%Monthly2019-02-07 16:07
http://eztv.show/114390/stalked-murder-in-slow-motion-s01e01-molly-mclaren-hdtv-x264-plutonium-eztv/60%Monthly2019-02-07 16:07
http://eztv.show/114391/unikitty-s01e32-beach-daze-hdtv-x264-plutonium-eztv/60%Monthly2019-02-07 16:07
http://eztv.show/114389/jimmy-kimmel-2019-02-06-daniel-radcliffe-web-h264-tbs-eztv/60%Monthly2019-02-07 16:07
http://eztv.show/114388/jimmy-kimmel-2019-02-06-daniel-radcliffe-720p-web-h264-tbs-eztv/60%Monthly2019-02-07 16:07
http://eztv.show/114387/watch-what-happens-live-2019-02-06-dolores-catania-and-naya-rivera-720p-web-eztv/60%Monthly2019-02-07 16:07
http://eztv.show/114386/watch-what-happens-live-2019-02-06-dolores-catania-and-naya-rivera-web-x264-tbs-eztv/60%Monthly2019-02-07 16:07
http://eztv.show/114385/jimmy-fallon-2019-02-06-liam-hemsworth-web-x264-tbs-eztv/60%Monthly2019-02-07 16:07
http://eztv.show/114384/project-impossible-s01e07-internal-720p-hdtv-x264-turbo-eztv/60%Monthly2019-02-07 16:07
http://eztv.show/114382/carson-daly-2019-02-06-killer-mike-web-x264-tbs-eztv/60%Monthly2019-02-07 16:07
http://eztv.show/114383/the-real-housewives-of-new-jersey-s09e14-web-x264-tbs-eztv/60%Monthly2019-02-07 16:07
http://eztv.show/114381/carson-daly-2019-02-06-killer-mike-720p-web-x264-tbs-eztv/60%Monthly2019-02-07 16:07
http://eztv.show/114380/wwe-205-live-2019-02-05-720p-web-h264-deathmatch-eztv/60%Monthly2019-02-07 16:07
http://eztv.show/114379/wwe-205-live-2019-02-05-web-h264-deathmatch-eztv/60%Monthly2019-02-07 16:07
http://eztv.show/114378/seth-meyers-2019-02-06-ice-t-720p-web-x264-cookiemonster-eztv/60%Monthly2019-02-07 16:07
http://eztv.show/114377/seth-meyers-2019-02-06-ice-t-web-x264-cookiemonster-eztv/60%Monthly2019-02-07 16:06
http://eztv.show/114376/fraud-squad-nhs-s01e04-720p-hdtv-x264-plutonium-eztv/60%Monthly2019-02-07 16:06
http://eztv.show/114375/fraud-squad-nhs-s01e04-hdtv-x264-plutonium-eztv/60%Monthly2019-02-07 16:06
http://eztv.show/114374/moving-on-s10e04-720p-hdtv-x264-mtb-eztv/60%Monthly2019-02-07 16:06
http://eztv.show/114373/moving-on-s10e04-hdtv-x264-mtb-eztv/60%Monthly2019-02-07 16:06
http://eztv.show/114372/family-by-the-ton-s02e06-the-kings-the-moment-of-truth-720p-web-x264-caffeine-eztv/60%Monthly2019-02-07 16:06
http://eztv.show/114371/family-by-the-ton-s02e06-the-kings-the-moment-of-truth-web-x264-caffeine-eztv/60%Monthly2019-02-07 16:06
http://eztv.show/114370/im-sorry-s02e05-extra-boobs-720p-hdtv-x264-crimson-eztv/60%Monthly2019-02-07 16:06
http://eztv.show/114369/im-sorry-s02e05-extra-boobs-hdtv-x264-crimson-eztv/60%Monthly2019-02-07 16:06
http://eztv.show/114368/in-pursuit-with-john-walsh-s01e04-crocodile-tears-hdtv-x264-crimson-eztv/60%Monthly2019-02-07 16:06
http://eztv.show/114367/in-pursuit-with-john-walsh-s01e04-crocodile-tears-720p-hdtv-x264-crimson-eztv/60%Monthly2019-02-07 16:06
http://eztv.show/114366/love-after-lockup-s01e06-race-to-the-altar-hdtv-x264-crimson-eztv/60%Monthly2019-02-07 16:06
http://eztv.show/114365/love-after-lockup-s01e06-race-to-the-altar-720p-hdtv-x264-crimson-eztv/60%Monthly2019-02-07 16:06
http://eztv.show/114364/love-after-lockup-s01e07-prison-cell-to-wedding-bells-hdtv-x264-crimson-eztv/60%Monthly2019-02-07 16:06
http://eztv.show/114363/nova-s46e04-decoding-the-pyramids-480p-x264-msd-eztv/60%Monthly2019-02-07 16:06
http://eztv.show/114362/youre-the-worst-s05e05-a-very-good-boy-hdtv-x264-crimson-eztv/60%Monthly2019-02-07 16:06
http://eztv.show/114361/love-after-lockup-s01e07-prison-cell-to-wedding-bells-720p-hdtv-x264-crimson-eztv/60%Monthly2019-02-07 16:06
http://eztv.show/114360/love-after-lockup-s02e09-the-800k-hustle-720p-hdtv-x264-crimson-eztv/60%Monthly2019-02-07 16:06
http://eztv.show/114359/love-after-lockup-s02e09-the-800k-hustle-hdtv-x264-crimson-eztv/60%Monthly2019-02-07 16:06
http://eztv.show/114358/the-haves-and-the-have-nots-s05e38-power-struggle-720p-hdtv-x264-crimson-eztv/60%Monthly2019-02-07 16:06
http://eztv.show/114357/the-haves-and-the-have-nots-s05e38-power-struggle-hdtv-x264-crimson-eztv/60%Monthly2019-02-07 16:06
http://eztv.show/114356/youre-the-worst-s05e05-a-very-good-boy-720p-hdtv-x264-crimson-eztv/60%Monthly2019-02-07 16:06
http://eztv.show/114355/love-after-lockup-s02e09-the-800k-hustle-480p-x264-msd-eztv/60%Monthly2019-02-07 16:06
http://eztv.show/114354/the-dictators-playbook-s01e05-francisco-franco-480p-x264-msd-eztv/60%Monthly2019-02-07 16:06
http://eztv.show/114353/im-sorry-s02e05-extra-boobs-480p-x264-msd-eztv/60%Monthly2019-02-07 16:06
http://eztv.show/114352/youre-the-worst-s05e05-a-very-good-boy-480p-x264-msd-eztv/60%Monthly2019-02-07 16:06
http://eztv.show/114351/love-after-lockup-s01e06-race-to-the-altar-480p-x264-msd-eztv/60%Monthly2019-02-07 16:06
http://eztv.show/114350/love-after-lockup-s01e07-prison-cell-to-wedding-bells-480p-x264-msd-eztv/60%Monthly2019-02-07 16:06
http://eztv.show/114349/boarding-school-juliet-s01e10-romio-and-airu-web-h264-uranime-eztv/60%Monthly2019-02-07 16:06
http://eztv.show/114348/boarding-school-juliet-s01e11-romio-and-juliet-and-the-birthday-web-h264-uranime-eztv/60%Monthly2019-02-07 16:06
http://eztv.show/114347/boarding-school-juliet-s01e11-romio-and-juliet-and-the-birthday-720p-web-eztv/60%Monthly2019-02-07 16:06
http://eztv.show/114346/boarding-school-juliet-s01e12-romio-and-juliet-web-h264-uranime-eztv/60%Monthly2019-02-07 16:06
http://eztv.show/114345/bad-chad-customs-s01e05-dirty-hands-clean-money-hdtv-x264-crimson-eztv/60%Monthly2019-02-07 16:06
http://eztv.show/114344/bad-chad-customs-s01e05-dirty-hands-clean-money-720p-hdtv-x264-crimson-eztv/60%Monthly2019-02-07 16:06
http://eztv.show/114343/moonshiners-s08e06-breaking-the-laws-hdtv-x264-crimson-eztv/60%Monthly2019-02-07 16:06
http://eztv.show/114342/moonshiners-s08e06-breaking-the-laws-720p-hdtv-x264-crimson-eztv/60%Monthly2019-02-07 16:06
http://eztv.show/114341/boarding-school-juliet-s01e10-romio-and-airu-720p-web-h264-uranime-eztv/60%Monthly2019-02-07 16:06
http://eztv.show/114340/last-stop-garage-s02e01-how-to-build-a-labrador-rat-rod-webrip-x264-caffeine-eztv/60%Monthly2019-02-07 16:06
http://eztv.show/114339/moonshiners-s08e06-breaking-the-laws-480p-x264-msd-eztv/60%Monthly2019-02-07 16:06
http://eztv.show/114338/boarding-school-juliet-s01e10-romio-and-airu-480p-x264-msd-eztv/60%Monthly2019-02-07 16:06
http://eztv.show/114337/beat-bobby-flay-s19e05-getting-nutty-720p-webrip-x264-caffeine-eztv/60%Monthly2019-02-07 16:06
http://eztv.show/114336/last-stop-garage-s02e01-how-to-build-a-labrador-rat-rod-480p-x264-msd-eztv/60%Monthly2019-02-07 16:06
http://eztv.show/114335/beat-bobby-flay-s19e05-getting-nutty-webrip-x264-caffeine-eztv/60%Monthly2019-02-07 16:05
http://eztv.show/114334/flip-or-flop-nashville-s02e06-frankenhouse-720p-webrip-x264-caffeine-eztv/60%Monthly2019-02-07 16:05
http://eztv.show/114333/unspeakable-s01e05-720p-webrip-x265-minx-eztv/60%Monthly2019-02-07 16:05
http://eztv.show/114332/beat-bobby-flay-s19e05-getting-nutty-480p-x264-msd-eztv/60%Monthly2019-02-07 16:05
http://eztv.show/114331/flip-or-flop-nashville-s02e06-frankenhouse-webrip-x264-caffeine-eztv/60%Monthly2019-02-07 16:05
http://eztv.show/114330/flip-or-flop-nashville-s02e06-frankenhouse-480p-x264-msd-eztv/60%Monthly2019-02-07 16:05
http://eztv.show/114329/iroduku-the-world-in-colors-s01e10-monochromatic-crayon-web-x264-uranime-eztv/60%Monthly2019-02-07 16:05
http://eztv.show/114328/iroduku-the-world-in-colors-s01e10-monochromatic-crayon-720p-web-x264-uranime-eztv/60%Monthly2019-02-07 16:05
http://eztv.show/114327/iroduku-the-world-in-colors-s01e11-the-waning-moon-web-x264-uranime-eztv/60%Monthly2019-02-07 16:05
http://eztv.show/114326/iroduku-the-world-in-colors-s01e12-on-this-bright-shining-day-web-x264-uranime-eztv/60%Monthly2019-02-07 16:05
http://eztv.show/114325/iroduku-the-world-in-colors-s01e12-on-this-bright-shining-day-720p-web-eztv/60%Monthly2019-02-07 16:05
http://eztv.show/114324/iroduku-the-world-in-colors-s01e13-the-world-in-colors-web-x264-uranime-eztv/60%Monthly2019-02-07 16:05
http://eztv.show/114323/iroduku-the-world-in-colors-s01e13-the-world-in-colors-720p-web-x264-uranime-eztv/60%Monthly2019-02-07 16:05
http://eztv.show/114322/iroduku-the-world-in-colors-s01e10-monochromatic-crayon-480p-x264-msd-eztv/60%Monthly2019-02-07 16:05
http://eztv.show/114321/iroduku-the-world-in-colors-s01e11-the-waning-moon-720p-web-x264-uranime-eztv/60%Monthly2019-02-07 16:05
http://eztv.show/114320/iroduku-the-world-in-colors-s01e13-the-world-in-colors-480p-x264-msd-eztv/60%Monthly2019-02-07 16:05
http://eztv.show/114319/24-hours-in-a-and-e-s17e04-720p-hdtv-x264-qpel-eztv/60%Monthly2019-02-07 16:05
http://eztv.show/114318/24-hours-in-a-and-e-s17e05-720p-hdtv-x264-qpel-eztv/60%Monthly2019-02-07 16:05
http://eztv.show/114317/iroduku-the-world-in-colors-s01e12-on-this-bright-shining-day-480p-x264-msd-eztv/60%Monthly2019-02-07 16:05
http://eztv.show/114316/iroduku-the-world-in-colors-s01e11-the-waning-moon-480p-x264-msd-eztv/60%Monthly2019-02-07 16:05
http://eztv.show/114315/24-hours-in-a-and-e-s17e04-480p-x264-msd-eztv/60%Monthly2019-02-07 16:05
http://eztv.show/114314/unhhhh-s04e04-uncensored-720p-web-x264-secretos-eztv/60%Monthly2019-02-07 16:05
http://eztv.show/114313/unhhhh-s04e04-uncensored-web-x264-secretos-eztv/60%Monthly2019-02-07 16:05
http://eztv.show/114312/24-hours-in-a-and-e-s17e05-480p-x264-msd-eztv/60%Monthly2019-02-07 16:05
http://eztv.show/114311/unikitty-s01e33-big-pup-little-problem-720p-hdtv-x264-plutonium-eztv/60%Monthly2019-02-07 16:05
http://eztv.show/114310/unikitty-s01e33-big-pup-little-problem-hdtv-x264-plutonium-eztv/60%Monthly2019-02-07 16:05
http://eztv.show/114309/unikitty-s01e37-float-on-720p-hdtv-x264-plutonium-eztv/60%Monthly2019-02-07 16:05
http://eztv.show/114307/unikitty-s01e37-float-on-hdtv-x264-plutonium-eztv/60%Monthly2019-02-07 16:05
http://eztv.show/114308/unhhhh-s04e04-uncensored-480p-x264-msd-eztv/60%Monthly2019-02-07 16:05
http://eztv.show/114306/unikitty-s01e33-big-pup-little-problem-480p-x264-msd-eztv/60%Monthly2019-02-07 16:05
http://eztv.show/114305/unikitty-s01e37-float-on-480p-x264-msd-eztv/60%Monthly2019-02-07 16:05
http://eztv.show/114304/below-deck-s06e17-reunion-480p-x264-msd-eztv/60%Monthly2019-02-06 16:09
http://eztv.show/114303/house-hunters-s162e10-finding-feng-shui-in-newport-news-web-x264-caffeine-eztv/60%Monthly2019-02-06 16:09
http://eztv.show/114302/american-nightmare-s01e05-no-good-deed-480p-x264-msd-eztv/60%Monthly2019-02-06 16:09
http://eztv.show/114301/house-hunters-international-s135e04-a-taste-of-a-new-life-in-prague-webrip-eztv/60%Monthly2019-02-06 16:09
http://eztv.show/114300/i-am-jazz-s05e06-480p-x264-msd-eztv/60%Monthly2019-02-06 16:09
http://eztv.show/114299/jeopardy-2019-02-06-720p-hdtv-x264-eztv/60%Monthly2019-02-06 16:09
http://eztv.show/114298/american-soul-s01e01-720p-hdtv-x264-lucidtv-eztv/60%Monthly2019-02-06 16:08
http://eztv.show/114297/port-protection-s04e05-the-city-girl-480p-x264-msd-eztv/60%Monthly2019-02-06 16:08
http://eztv.show/114296/stephen-colbert-2019-02-05-live-broadcast-following-the-state-of-the-union-eztv/60%Monthly2019-02-06 16:08
http://eztv.show/114295/the-flash-2014-s05e13-internal-720p-web-h264-bamboozle-eztv/60%Monthly2019-02-06 16:08
http://eztv.show/114294/american-soul-s01e01-480p-x264-msd-eztv/60%Monthly2019-02-06 16:08
http://eztv.show/114293/roswell-new-mexico-s01e04-internal-720p-web-h264-bamboozle-eztv/60%Monthly2019-02-06 16:08
http://eztv.show/114292/jimmy-fallon-2019-02-05-priyanka-chopra-720p-hdtv-x264-sorny-eztv/60%Monthly2019-02-06 16:08
http://eztv.show/114291/the-flash-2014-s05e13-internal-480p-x264-msd-eztv/60%Monthly2019-02-06 16:08
http://eztv.show/114290/roswell-new-mexico-s01e04-internal-480p-x264-msd-eztv/60%Monthly2019-02-06 16:08
http://eztv.show/114289/leah-remini-scientology-and-the-aftermath-s03e11-church-and-state-hdtv-eztv/60%Monthly2019-02-06 16:08
http://eztv.show/114288/jimmy-fallon-2019-02-05-priyanka-chopra-480p-x264-msd-eztv/60%Monthly2019-02-06 16:08
http://eztv.show/114287/7-days-nz-s11e01-480p-x264-msd-eztv/60%Monthly2019-02-06 16:08
http://eztv.show/114286/busy-tonight-2019-02-05-ron-funches-720p-web-x264-tbs-eztv/60%Monthly2019-02-06 16:08
http://eztv.show/114285/busy-tonight-2019-02-05-ron-funches-web-x264-tbs-eztv/60%Monthly2019-02-06 16:08
http://eztv.show/114284/silent-witness-s22e10-betrayal-part-two-720p-ip-web-dl-aac2-0-x264-eztv/60%Monthly2019-02-06 16:08
http://eztv.show/114283/fake-or-fortune-s07e04-proper-720p-hdtv-x264-cbfm-eztv/60%Monthly2019-02-06 16:08
http://eztv.show/114282/teachers-2016-s03e14-720p-web-x264-tbs-eztv/60%Monthly2019-02-06 16:08
http://eztv.show/114281/teachers-2016-s03e14-web-x264-tbs-eztv/60%Monthly2019-02-06 16:08
http://eztv.show/114280/foreign-correspondent-s28e05-the-promised-land-720p-hdtv-x264-cbfm-eztv/60%Monthly2019-02-06 16:08
http://eztv.show/114279/busy-tonight-2019-02-05-ron-funches-480p-x264-msd-eztv/60%Monthly2019-02-06 16:08
http://eztv.show/114278/wwe-205-live-2019-02-05-720p-web-h264-wd-eztv/60%Monthly2019-02-06 16:08
http://eztv.show/114277/married-at-first-sight-s08e06-web-h264-tbs-eztv/60%Monthly2019-02-06 16:08
http://eztv.show/114276/married-at-first-sight-s08e06-720p-web-h264-tbs-eztv/60%Monthly2019-02-06 16:08
http://eztv.show/114275/teachers-2016-s03e14-480p-x264-msd-eztv/60%Monthly2019-02-06 16:08
http://eztv.show/114274/austin-city-limits-s44e13-buddy-guy-august-greene-720p-hdtv-x264-w4f-eztv/60%Monthly2019-02-06 16:08
http://eztv.show/114273/teachers-2016-s03e14-720p-web-x265-minx-eztv/60%Monthly2019-02-06 16:08
http://eztv.show/114272/austin-city-limits-s44e13-buddy-guy-august-greene-hdtv-x264-w4f-eztv/60%Monthly2019-02-06 16:08
http://eztv.show/114271/life-below-zero-s11e19-back-in-the-saddle-720p-hdtv-x264-w4f-eztv/60%Monthly2019-02-06 16:08
http://eztv.show/114269/lucky-dog-s06e12-a-higher-purpose-720p-hdtv-x264-w4f-eztv/60%Monthly2019-02-06 16:08
http://eztv.show/114270/life-below-zero-s11e19-back-in-the-saddle-hdtv-x264-w4f-eztv/60%Monthly2019-02-06 16:08
http://eztv.show/114268/lucky-dog-s06e12-a-higher-purpose-hdtv-x264-w4f-eztv/60%Monthly2019-02-06 16:08
http://eztv.show/114267/married-at-first-sight-s08e06-480p-x264-msd-eztv/60%Monthly2019-02-06 16:08
http://eztv.show/114266/married-at-first-sight-au-s06e07-hdtv-x264-cct-eztv/60%Monthly2019-02-06 16:08
http://eztv.show/114265/rock-n-roll-inventions-s01e01-this-damn-music-web-h264-caffeine-eztv/60%Monthly2019-02-06 16:08
http://eztv.show/114264/life-below-zero-s11e19-back-in-the-saddle-480p-x264-msd-eztv/60%Monthly2019-02-06 16:08
http://eztv.show/114263/lone-star-law-s04e10-red-flag-hdtv-x264-crimson-eztv/60%Monthly2019-02-06 16:08
http://eztv.show/114262/lone-star-law-s04e10-red-flag-720p-hdtv-x264-crimson-eztv/60%Monthly2019-02-06 16:08
http://eztv.show/114261/rock-n-roll-inventions-s01e02-going-electric-720p-web-h264-caffeine-eztv/60%Monthly2019-02-06 16:08
http://eztv.show/114260/siesta-key-s02e04-dont-come-to-my-trip-hdtv-x264-crimson-eztv/60%Monthly2019-02-06 16:08
http://eztv.show/114259/project-blue-book-s01e05-internal-720p-web-h264-bamboozle-eztv/60%Monthly2019-02-06 16:08
http://eztv.show/114258/rock-n-roll-inventions-s01e02-going-electric-web-h264-caffeine-eztv/60%Monthly2019-02-06 16:08
http://eztv.show/114257/rock-n-roll-inventions-s01e03-sultans-of-sound-720p-web-h264-caffeine-eztv/60%Monthly2019-02-06 16:08
http://eztv.show/114256/siesta-key-s02e04-dont-come-to-my-trip-720p-hdtv-x264-crimson-eztv/60%Monthly2019-02-06 16:08
http://eztv.show/114255/rock-n-roll-inventions-s01e03-sultans-of-sound-web-h264-caffeine-eztv/60%Monthly2019-02-06 16:08
http://eztv.show/114254/austin-city-limits-s44e13-buddy-guy-august-greene-480p-x264-msd-eztv/60%Monthly2019-02-06 16:08
http://eztv.show/114253/rock-n-roll-inventions-s01e04-rise-of-keyboards-720p-web-h264-caffeine-eztv/60%Monthly2019-02-06 16:08
http://eztv.show/114252/rock-n-roll-inventions-s01e04-rise-of-keyboards-web-h264-caffeine-eztv/60%Monthly2019-02-06 16:08
http://eztv.show/114251/leah-remini-scientology-and-the-aftermath-s03e11-church-and-state-720p-hdtv-eztv/60%Monthly2019-02-06 16:08
http://eztv.show/114250/foreign-correspondent-s28e05-the-promised-land-480p-x264-msd-eztv/60%Monthly2019-02-06 16:08
http://eztv.show/114249/rock-n-roll-inventions-s01e05-special-efx-720p-web-h264-caffeine-eztv/60%Monthly2019-02-06 16:08
http://eztv.show/114248/drunk-history-s06e04-web-x264-tbs-eztv/60%Monthly2019-02-06 16:08
http://eztv.show/114247/rock-n-roll-inventions-s01e05-special-efx-web-h264-caffeine-eztv/60%Monthly2019-02-06 16:08
http://eztv.show/114246/corporate-s02e04-web-x264-tbs-eztv/60%Monthly2019-02-06 16:08
http://eztv.show/114245/project-blue-book-s01e05-internal-480p-x264-msd-eztv/60%Monthly2019-02-06 16:08
http://eztv.show/114244/drunk-history-s06e04-720p-web-x264-tbs-eztv/60%Monthly2019-02-06 16:08
http://eztv.show/114243/rock-n-roll-inventions-s01e06-stage-to-spectacle-720p-web-h264-caffeine-eztv/60%Monthly2019-02-06 16:07
http://eztv.show/114242/corporate-s02e04-720p-web-x264-tbs-eztv/60%Monthly2019-02-06 16:07
http://eztv.show/114241/rock-n-roll-inventions-s01e06-stage-to-spectacle-web-h264-caffeine-eztv/60%Monthly2019-02-06 16:07
http://eztv.show/114239/project-blue-book-s01e05-foo-fighters-720p-amzn-web-dl-ddp2-0-h-264-ntg-eztv/60%Monthly2019-02-06 16:07
http://eztv.show/114240/siesta-key-s02e04-dont-come-to-my-trip-480p-x264-msd-eztv/60%Monthly2019-02-06 16:07
http://eztv.show/114238/married-at-first-sight-au-s06e07-720p-hdtv-x264-cct-eztv/60%Monthly2019-02-06 16:07
http://eztv.show/114237/fake-or-fortune-s07e04-proper-480p-x264-msd-eztv/60%Monthly2019-02-06 16:07
http://eztv.show/114236/leah-remini-scientology-and-the-aftermath-s03e11-church-and-state-480p-x264-msd-eztv/60%Monthly2019-02-06 16:07
http://eztv.show/114235/corporate-s02e04-480p-x264-msd-eztv/60%Monthly2019-02-06 16:07
http://eztv.show/114234/leah-remini-scientology-and-the-aftermath-s03e11-web-h264-tbs-eztv/60%Monthly2019-02-06 16:07
http://eztv.show/114233/leah-remini-scientology-and-the-aftermath-s03e11-720p-web-h264-tbs-eztv/60%Monthly2019-02-06 16:07
http://eztv.show/114231/many-sides-of-jane-s01e03-720p-web-h264-tbs-eztv/60%Monthly2019-02-06 16:07
http://eztv.show/114232/many-sides-of-jane-s01e03-web-h264-tbs-eztv/60%Monthly2019-02-06 16:07
http://eztv.show/114230/drunk-history-s06e04-480p-x264-msd-eztv/60%Monthly2019-02-06 16:07
http://eztv.show/114229/rock-n-roll-inventions-s01e01-this-damn-music-480p-x264-msd-eztv/60%Monthly2019-02-06 16:07
http://eztv.show/114228/married-at-first-sight-au-s06e07-480p-x264-msd-eztv/60%Monthly2019-02-06 16:07
http://eztv.show/114227/stephen-colbert-2019-02-05-norah-odonnell-web-x264-tbs-eztv/60%Monthly2019-02-06 16:07
http://eztv.show/114226/leah-remini-scientology-and-the-aftermath-s03e11-480p-x264-msd-eztv/60%Monthly2019-02-06 16:07
http://eztv.show/114225/rock-n-roll-inventions-s01e04-rise-of-keyboards-480p-x264-msd-eztv/60%Monthly2019-02-06 16:07
http://eztv.show/114224/rock-n-roll-inventions-s01e06-stage-to-spectacle-480p-x264-msd-eztv/60%Monthly2019-02-06 16:07
http://eztv.show/114223/many-sides-of-jane-s01e03-480p-x264-msd-eztv/60%Monthly2019-02-06 16:07
http://eztv.show/114222/james-corden-2019-02-05-billy-crystal-web-x264-tbs-eztv/60%Monthly2019-02-06 16:07
http://eztv.show/114221/james-corden-2019-02-05-billy-crystal-720p-web-x264-tbs-eztv/60%Monthly2019-02-06 16:07
http://eztv.show/114219/rock-n-roll-inventions-s01e02-going-electric-480p-x264-msd-eztv/60%Monthly2019-02-06 16:07
http://eztv.show/114220/hard-quiz-s04e01-web-x264-flx-eztv/60%Monthly2019-02-06 16:07
http://eztv.show/114218/american-housewife-s03e11-internal-720p-web-h264-bamboozle-eztv/60%Monthly2019-02-06 16:07
http://eztv.show/114217/ellens-game-of-games-s02e07-720p-web-x264-tbs-eztv/60%Monthly2019-02-06 16:07
http://eztv.show/114216/the-kids-are-alright-s01e12-internal-720p-web-h264-bamboozle-eztv/60%Monthly2019-02-06 16:07
http://eztv.show/114215/ellens-game-of-games-s02e07-web-x264-tbs-eztv/60%Monthly2019-02-06 16:07
http://eztv.show/114214/jimmy-kimmel-2019-02-05-will-arnett-720p-web-h264-tbs-eztv/60%Monthly2019-02-06 16:07
http://eztv.show/114213/american-housewife-s03e11-internal-480p-x264-msd-eztv/60%Monthly2019-02-06 16:07
http://eztv.show/114212/ellens-game-of-games-s02e07-480p-x264-msd-eztv/60%Monthly2019-02-06 16:07
http://eztv.show/114211/rock-n-roll-inventions-s01e03-sultans-of-sound-480p-x264-msd-eztv/60%Monthly2019-02-06 16:07
http://eztv.show/114210/james-corden-2019-02-05-billy-crystal-480p-x264-msd-eztv/60%Monthly2019-02-06 16:07
http://eztv.show/114209/my-kitchen-rules-s10e07-hdtv-x264-fqm-eztv/60%Monthly2019-02-06 16:07
http://eztv.show/114208/my-kitchen-rules-s10e07-720p-hdtv-x264-orenji-eztv/60%Monthly2019-02-06 16:07
http://eztv.show/114207/jimmy-kimmel-2019-02-05-will-arnett-480p-x264-msd-eztv/60%Monthly2019-02-06 16:07
http://eztv.show/114206/the-kids-are-alright-s01e12-internal-480p-x264-msd-eztv/60%Monthly2019-02-06 16:07
http://eztv.show/114205/rosehaven-s03e03-web-x264-flx-eztv/60%Monthly2019-02-06 16:07
http://eztv.show/114204/my-kitchen-rules-s10e07-480p-x264-msd-eztv/60%Monthly2019-02-06 16:07
http://eztv.show/114203/get-krackn-s02e01-web-x264-flx-eztv/60%Monthly2019-02-06 16:07
http://eztv.show/114201/rosehaven-s03e03-720p-hdtv-x264-w4f-eztv/60%Monthly2019-02-06 16:07
http://eztv.show/114202/rosehaven-s03e03-hdtv-x264-w4f-eztv/60%Monthly2019-02-06 16:07
http://eztv.show/114200/conan-2019-02-05-jean-claude-van-damme-720p-web-x264-tbs-eztv/60%Monthly2019-02-06 16:07
http://eztv.show/114199/conan-2019-02-05-jean-claude-van-damme-web-x264-tbs-eztv/60%Monthly2019-02-06 16:07
http://eztv.show/114198/wwe-205-live-2019-02-05-720p-web-h264-heel-eztv/60%Monthly2019-02-06 16:07
http://eztv.show/114197/conan-2019-02-05-jean-claude-van-damme-480p-x264-msd-eztv/60%Monthly2019-02-06 16:07
http://eztv.show/114196/get-krackn-s02e01-hdtv-x264-fqm-eztv/60%Monthly2019-02-06 16:07
http://eztv.show/114194/jimmy-fallon-2019-02-05-priyanka-chopra-web-x264-tbs-eztv/60%Monthly2019-02-06 16:07
http://eztv.show/114195/get-krackn-s02e01-720p-hdtv-x264-orenji-eztv/60%Monthly2019-02-06 16:07
http://eztv.show/114193/get-krackn-s02e01-480p-x264-msd-eztv/60%Monthly2019-02-06 16:07
http://eztv.show/114192/wwe-smackdown-live-2019-02-05-720p-hdtv-x264-kyr-eztv/60%Monthly2019-02-06 16:07
http://eztv.show/114191/watch-what-happens-live-2019-02-05-below-deck-reunion-show-web-x264-tbs-eztv/60%Monthly2019-02-06 16:07
http://eztv.show/114190/fraud-squad-nhs-s01e03-hdtv-x264-plutonium-eztv/60%Monthly2019-02-06 16:06
http://eztv.show/114189/fraud-squad-nhs-s01e03-720p-hdtv-x264-plutonium-eztv/60%Monthly2019-02-06 16:06
http://eztv.show/114188/seth-meyers-2019-02-05-taylor-schilling-web-x264-tbs-eztv/60%Monthly2019-02-06 16:06
http://eztv.show/114187/seth-meyers-2019-02-05-taylor-schilling-720p-web-x264-tbs-eztv/60%Monthly2019-02-06 16:06
http://eztv.show/114186/american-soul-s01e02-continuous-revolution-in-progress-hdtv-x264-crimson-eztv/60%Monthly2019-02-06 16:06
http://eztv.show/114185/fraud-squad-nhs-s01e03-480p-x264-msd-eztv/60%Monthly2019-02-06 16:06
http://eztv.show/114183/american-soul-s01e01-man-is-first-destiny-480p-x264-msd-eztv/60%Monthly2019-02-06 16:06
http://eztv.show/114184/murdoch-mysteries-s12e05-the-spy-who-loved-murdoch-720p-amzn-web-dl-ddp2-0-h-eztv/60%Monthly2019-02-06 16:06
http://eztv.show/114182/seth-meyers-2019-02-05-taylor-schilling-480p-x264-msd-eztv/60%Monthly2019-02-06 16:06
http://eztv.show/114181/good-trouble-s01e05-parental-guidance-suggested-720p-amzn-web-dl-ddp5-1-h-eztv/60%Monthly2019-02-06 16:06
http://eztv.show/114180/carson-daly-2019-02-05-benedict-wong-720p-web-x264-tbs-eztv/60%Monthly2019-02-06 16:06
http://eztv.show/114179/carson-daly-2019-02-05-benedict-wong-web-x264-tbs-eztv/60%Monthly2019-02-06 16:06
http://eztv.show/114178/heavy-rescue-401-s03e05-hdtv-x264-aaf-eztv/60%Monthly2019-02-06 16:06
http://eztv.show/114177/heavy-rescue-401-s03e05-720p-hdtv-x264-aaf-eztv/60%Monthly2019-02-06 16:06
http://eztv.show/114175/murdoch-mysteries-s12e07-brothers-keeper-720p-amzn-web-dl-ddp2-0-h-264-ntb-eztv/60%Monthly2019-02-06 16:06
http://eztv.show/114176/murdoch-mysteries-s12e06-sir-sir-sir-720p-amzn-web-dl-ddp2-0-h-264-ntb-eztv/60%Monthly2019-02-06 16:06
http://eztv.show/114174/heavy-rescue-401-s03e05-480p-x264-msd-eztv/60%Monthly2019-02-06 16:06
http://eztv.show/114173/carson-daly-2019-02-05-benedict-wong-480p-x264-msd-eztv/60%Monthly2019-02-06 16:06
http://eztv.show/114172/ed-stafford-first-man-out-s01e01-720p-web-x264-edhd-eztv/60%Monthly2019-02-06 16:06
http://eztv.show/114171/ed-stafford-first-man-out-s01e02-720p-web-x264-edhd-eztv/60%Monthly2019-02-06 16:06
http://eztv.show/114170/ed-stafford-first-man-out-s01e03-720p-web-x264-edhd-eztv/60%Monthly2019-02-06 16:06
http://eztv.show/114169/ed-stafford-first-man-out-s01e04-720p-web-x264-edhd-eztv/60%Monthly2019-02-06 16:06
http://eztv.show/114168/american-soul-s01e02-continuous-revolution-in-progress-720p-hdtv-x264-crimson-eztv/60%Monthly2019-02-06 16:06
http://eztv.show/114167/murdoch-mysteries-s12e08-drowning-in-money-720p-amzn-web-dl-ddp2-0-h-264-ntb-eztv/60%Monthly2019-02-06 16:06
http://eztv.show/114166/moving-on-s10e03-720p-hdtv-x264-mtb-eztv/60%Monthly2019-02-06 16:06
http://eztv.show/114165/ed-stafford-first-man-out-s01e03-480p-x264-msd-eztv/60%Monthly2019-02-06 16:06
http://eztv.show/114164/corporate-s02e04-thanks-720p-amzn-web-dl-dd2-0-h-264-ctrlhd-eztv/60%Monthly2019-02-06 16:06
http://eztv.show/114163/ed-stafford-first-man-out-s01e04-480p-x264-msd-eztv/60%Monthly2019-02-06 16:06
http://eztv.show/114161/ed-stafford-first-man-out-s01e02-480p-x264-msd-eztv/60%Monthly2019-02-06 16:06
http://eztv.show/114162/ed-stafford-first-man-out-s01e01-480p-x264-msd-eztv/60%Monthly2019-02-06 16:06
http://eztv.show/114160/american-soul-s01e02-continuous-revolution-in-progress-480p-x264-msd-eztv/60%Monthly2019-02-06 16:06
http://eztv.show/114159/aerial-cities-s01e02-chicago-24-web-h264-kompost-eztv/60%Monthly2019-02-06 16:06
http://eztv.show/114158/aerial-cities-s01e03-seattle-24-720p-web-h264-kompost-eztv/60%Monthly2019-02-06 16:06
http://eztv.show/114157/aerial-cities-s01e03-seattle-24-web-h264-kompost-eztv/60%Monthly2019-02-06 16:06
http://eztv.show/114155/aerial-cities-s01e04-miami-24-web-h264-kompost-eztv/60%Monthly2019-02-06 16:06
http://eztv.show/114156/aerial-cities-s01e04-miami-24-720p-web-h264-kompost-eztv/60%Monthly2019-02-06 16:06
http://eztv.show/114154/aerial-cities-s01e05-san-francisco-24-720p-web-h264-kompost-eztv/60%Monthly2019-02-06 16:06
http://eztv.show/114153/aerial-cities-s01e02-chicago-24-480p-x264-msd-eztv/60%Monthly2019-02-06 16:06
http://eztv.show/114152/aerial-cities-s01e05-san-francisco-24-web-h264-kompost-eztv/60%Monthly2019-02-06 16:06
http://eztv.show/114151/cousins-for-life-s01e05-this-little-piggy-went-to-market-720p-hdtv-x264-crimson-eztv/60%Monthly2019-02-06 16:06
http://eztv.show/114150/cousins-for-life-s01e05-this-little-piggy-went-to-market-hdtv-x264-crimson-eztv/60%Monthly2019-02-06 16:06
http://eztv.show/114149/aerial-cities-s01e03-seattle-24-480p-x264-msd-eztv/60%Monthly2019-02-06 16:06
http://eztv.show/114148/aerial-cities-s01e06-los-angeles-24-web-h264-kompost-eztv/60%Monthly2019-02-06 16:06
http://eztv.show/114147/aerial-cities-s01e04-miami-24-480p-x264-msd-eztv/60%Monthly2019-02-06 16:06
http://eztv.show/114146/finding-your-roots-s05e05-freedom-tales-webrip-x264-kompost-eztv/60%Monthly2019-02-06 16:06
http://eztv.show/114145/the-stats-of-life-s02e03-pets-720p-webrip-x264-kompost-eztv/60%Monthly2019-02-06 16:06
http://eztv.show/114144/the-stats-of-life-s02e03-pets-webrip-x264-kompost-eztv/60%Monthly2019-02-06 16:06
http://eztv.show/114143/aerial-cities-s01e05-san-francisco-24-480p-x264-msd-eztv/60%Monthly2019-02-06 16:05
http://eztv.show/114142/moving-on-s10e03-hdtv-x264-mtb-eztv/60%Monthly2019-02-06 16:05
http://eztv.show/114141/finding-your-roots-s05e05-freedom-tales-720p-webrip-x264-kompost-eztv/60%Monthly2019-02-06 16:05
http://eztv.show/114140/cousins-for-life-s01e05-this-little-piggy-went-to-market-480p-x264-msd-eztv/60%Monthly2019-02-06 16:05
http://eztv.show/114139/aerial-cities-s01e06-los-angeles-24-720p-web-h264-kompost-eztv/60%Monthly2019-02-06 16:05
http://eztv.show/114138/great-british-railway-journeys-s10e02-web-h264-kompost-eztv/60%Monthly2019-02-06 16:05
http://eztv.show/114137/great-british-railway-journeys-s10e02-720p-webrip-x264-kompost-eztv/60%Monthly2019-02-06 16:05
http://eztv.show/114135/the-stats-of-life-s02e03-pets-480p-x264-msd-eztv/60%Monthly2019-02-06 16:05
http://eztv.show/114136/finding-your-roots-s05e05-freedom-tales-480p-x264-msd-eztv/60%Monthly2019-02-06 16:05
http://eztv.show/114134/aerial-cities-s01e06-los-angeles-24-480p-x264-msd-eztv/60%Monthly2019-02-06 16:05
http://eztv.show/114133/great-british-railway-journeys-s10e02-480p-x264-msd-eztv/60%Monthly2019-02-06 16:05
http://eztv.show/114132/moving-on-s10e03-repack-480p-x264-msd-eztv/60%Monthly2019-02-06 16:05
http://eztv.show/114131/shipwrecked-s09e07-pdtv-x264-plutonium-eztv/60%Monthly2019-02-06 16:05
http://eztv.show/114130/my-great-big-live-wedding-with-david-tutera-s01e01-web-h264-tbs-eztv/60%Monthly2019-02-06 16:05
http://eztv.show/114129/my-great-big-live-wedding-with-david-tutera-s01e01-720p-web-h264-tbs-eztv/60%Monthly2019-02-06 16:05
http://eztv.show/114128/how-the-other-kids-live-s01e01-hdtv-x264-plutonium-eztv/60%Monthly2019-02-06 16:05
http://eztv.show/114127/million-dollar-listing-los-angeles-s11e05-send-it-to-viral-hdtv-x264-w4f-eztv/60%Monthly2019-02-06 16:05
http://eztv.show/114126/million-dollar-listing-los-angeles-s11e05-send-it-to-viral-720p-hdtv-x264-w4f-eztv/60%Monthly2019-02-06 16:05
http://eztv.show/114125/million-dollar-listing-los-angeles-s11e05-send-it-to-viral-480p-x264-msd-eztv/60%Monthly2019-02-06 16:05
http://eztv.show/114124/bargain-mansions-s02e12-bumming-about-the-plumbing-720p-webrip-x264-caffeine-eztv/60%Monthly2019-02-06 16:05
http://eztv.show/114123/bargain-mansions-s02e12-bumming-about-the-plumbing-webrip-x264-caffeine-eztv/60%Monthly2019-02-06 16:05
http://eztv.show/114122/great-british-railway-journeys-s10e03-web-h264-kompost-eztv/60%Monthly2019-02-06 16:05
http://eztv.show/114121/great-british-railway-journeys-s10e03-720p-webrip-x264-kompost-eztv/60%Monthly2019-02-06 16:05
http://eztv.show/114120/bargain-mansions-s02e12-bumming-about-the-plumbing-480p-x264-msd-eztv/60%Monthly2019-02-06 16:05
http://eztv.show/114119/great-british-railway-journeys-s10e03-480p-x264-msd-eztv/60%Monthly2019-02-06 16:05
http://eztv.show/114118/norsemen-s01e01-internal-webrip-x264-multiply-eztv/60%Monthly2019-02-06 16:05
http://eztv.show/114117/norsemen-s01e02-internal-webrip-x264-multiply-eztv/60%Monthly2019-02-06 16:05
http://eztv.show/114116/norsemen-s01e03-internal-webrip-x264-multiply-eztv/60%Monthly2019-02-06 16:05
http://eztv.show/114115/norsemen-s01e04-internal-webrip-x264-multiply-eztv/60%Monthly2019-02-06 16:05
http://eztv.show/114114/norsemen-s01e05-internal-webrip-x264-multiply-eztv/60%Monthly2019-02-06 16:05
http://eztv.show/114113/norsemen-s01e06-internal-webrip-x264-multiply-eztv/60%Monthly2019-02-06 16:05
http://eztv.show/114112/norsemen-s02e01-internal-webrip-x264-multiply-eztv/60%Monthly2019-02-06 16:05
http://eztv.show/114111/norsemen-s02e02-internal-webrip-x264-multiply-eztv/60%Monthly2019-02-06 16:05
http://eztv.show/114110/norsemen-s02e04-internal-webrip-x264-multiply-eztv/60%Monthly2019-02-06 16:05
http://eztv.show/114109/norsemen-s02e03-internal-webrip-x264-multiply-eztv/60%Monthly2019-02-06 16:05
http://eztv.show/114108/norsemen-s02e05-internal-webrip-x264-multiply-eztv/60%Monthly2019-02-06 16:05
http://eztv.show/114107/norsemen-s02e06-internal-webrip-x264-multiply-eztv/60%Monthly2019-02-06 16:05
http://eztv.show/114106/barefoot-contessa-s12e09-the-big-chill-480p-x264-msd-eztv/60%Monthly2019-02-05 16:08
http://eztv.show/114105/arrow-s07e12-internal-720p-web-h264-bamboozle-eztv/60%Monthly2019-02-05 16:08
http://eztv.show/114104/celebrity-big-brother-us-s02e09-480p-x264-msd-eztv/60%Monthly2019-02-05 16:08
http://eztv.show/114103/barefoot-contessa-s12e12-the-flame-game-480p-x264-msd-eztv/60%Monthly2019-02-05 16:08
http://eztv.show/114102/manifest-s01e14-repack-hdtv-x264-batv-eztv/60%Monthly2019-02-05 16:08
http://eztv.show/114100/black-lightning-s02e12-internal-720p-web-h264-bamboozle-eztv/60%Monthly2019-02-05 16:08
http://eztv.show/114101/manifest-s01e14-repack-720p-hdtv-x264-batv-eztv/60%Monthly2019-02-05 16:08
http://eztv.show/114099/i-am-the-night-s01e02-phenomenon-of-interference-hdtv-x264-crimson-eztv/60%Monthly2019-02-05 16:08
http://eztv.show/114098/cartel-crew-s01e05-who-is-giselle-rosario-hdtv-x264-crimson-eztv/60%Monthly2019-02-05 16:08
http://eztv.show/114097/cartel-crew-s01e05-who-is-giselle-rosario-720p-hdtv-x264-crimson-eztv/60%Monthly2019-02-05 16:08
http://eztv.show/114095/arrow-s07e12-internal-480p-x264-msd-eztv/60%Monthly2019-02-05 16:08
http://eztv.show/114096/jimmy-fallon-2019-02-04-christoph-waltz-720p-hdtv-x264-sorny-eztv/60%Monthly2019-02-05 16:08
http://eztv.show/114094/manifest-s01e14-repack-480p-x264-msd-eztv/60%Monthly2019-02-05 16:08
http://eztv.show/114093/black-lightning-s02e12-internal-480p-x264-msd-eztv/60%Monthly2019-02-05 16:08
http://eztv.show/114092/jimmy-fallon-2019-02-04-christoph-waltz-480p-x264-msd-eztv/60%Monthly2019-02-05 16:08
http://eztv.show/114091/bull-2016-s03e13-internal-720p-web-h264-amrap-eztv/60%Monthly2019-02-05 16:08
http://eztv.show/114090/cartel-crew-s01e05-who-is-giselle-rosario-480p-x264-msd-eztv/60%Monthly2019-02-05 16:08
http://eztv.show/114089/bull-2016-s03e13-internal-480p-x264-msd-eztv/60%Monthly2019-02-05 16:08
http://eztv.show/114088/american-pickers-s20e03-web-h264-tbs-eztv/60%Monthly2019-02-05 16:08
http://eztv.show/114087/american-pickers-s20e03-720p-web-h264-tbs-eztv/60%Monthly2019-02-05 16:08
http://eztv.show/114086/conan-2019-02-04-jeff-goldblum-720p-web-x264-tbs-eztv/60%Monthly2019-02-05 16:08
http://eztv.show/114084/american-pickers-s20e03-480p-x264-msd-eztv/60%Monthly2019-02-05 16:08
http://eztv.show/114085/conan-2019-02-04-jeff-goldblum-web-x264-tbs-eztv/60%Monthly2019-02-05 16:08
http://eztv.show/114083/conan-2019-02-04-jeff-goldblum-480p-x264-msd-eztv/60%Monthly2019-02-05 16:08
http://eztv.show/114082/the-good-doctor-s02e14-internal-720p-web-h264-amrap-eztv/60%Monthly2019-02-05 16:08
http://eztv.show/114081/the-walking-dead-s09e09-720p-web-dl-x264-sauron-eztv/60%Monthly2019-02-05 16:08
http://eztv.show/114080/the-good-doctor-s02e14-internal-480p-x264-msd-eztv/60%Monthly2019-02-05 16:08
http://eztv.show/114079/pawn-stars-s16e03-web-h264-tbs-eztv/60%Monthly2019-02-05 16:08
http://eztv.show/114078/pawn-stars-s16e03-720p-web-h264-tbs-eztv/60%Monthly2019-02-05 16:08
http://eztv.show/114077/elvis-goes-there-s01e01-web-h264-tbs-eztv/60%Monthly2019-02-05 16:08
http://eztv.show/114076/pawn-stars-s16e03-480p-x264-msd-eztv/60%Monthly2019-02-05 16:08
http://eztv.show/114075/i-am-the-night-s01e02-phenomenon-of-interference-720p-hdtv-x264-crimson-eztv/60%Monthly2019-02-05 16:08
http://eztv.show/114074/love-and-hip-hop-miami-s02e06-family-treason-hdtv-x264-crimson-eztv/60%Monthly2019-02-05 16:08
http://eztv.show/114072/murder-lies-alibis-s01e01-720p-hdtv-x264-cct-eztv/60%Monthly2019-02-05 16:08
http://eztv.show/114073/murder-lies-alibis-s01e01-hdtv-x264-cct-eztv/60%Monthly2019-02-05 16:08
http://eztv.show/114071/murder-lies-alibis-s01e01-480p-x264-msd-eztv/60%Monthly2019-02-05 16:08
http://eztv.show/114070/i-am-the-night-s01e02-phenomenon-of-interference-480p-x264-msd-eztv/60%Monthly2019-02-05 16:08
http://eztv.show/114069/married-at-first-sight-au-s06e06-hdtv-x264-cct-eztv/60%Monthly2019-02-05 16:08
http://eztv.show/114068/married-at-first-sight-au-s06e06-720p-hdtv-x264-cct-eztv/60%Monthly2019-02-05 16:08
http://eztv.show/114067/wwe-monday-night-raw-2019-02-04-480p-x264-msd-eztv/60%Monthly2019-02-05 16:08
http://eztv.show/114066/married-at-first-sight-au-s06e06-480p-x264-msd-eztv/60%Monthly2019-02-05 16:08
http://eztv.show/114065/killing-time-s01e02-720p-web-x264-gimini-eztv/60%Monthly2019-02-05 16:08
http://eztv.show/114064/killing-time-s01e03-720p-web-x264-gimini-eztv/60%Monthly2019-02-05 16:08
http://eztv.show/114063/killing-time-s01e04-720p-web-x264-gimini-eztv/60%Monthly2019-02-05 16:08
http://eztv.show/114062/killing-time-s01e06-720p-web-x264-gimini-eztv/60%Monthly2019-02-05 16:08
http://eztv.show/114061/killing-time-s01e08-720p-web-x264-gimini-eztv/60%Monthly2019-02-05 16:08
http://eztv.show/114060/killing-time-s01e07-720p-web-x264-gimini-eztv/60%Monthly2019-02-05 16:08
http://eztv.show/114059/killing-time-s01e10-720p-web-x264-gimini-eztv/60%Monthly2019-02-05 16:08
http://eztv.show/114058/killing-time-s01e05-720p-web-x264-gimini-eztv/60%Monthly2019-02-05 16:08
http://eztv.show/114057/killing-time-s01e03-480p-x264-msd-eztv/60%Monthly2019-02-05 16:08
http://eztv.show/114056/killing-time-s01e09-720p-web-x264-gimini-eztv/60%Monthly2019-02-05 16:08
http://eztv.show/114054/killing-time-s01e01-480p-x264-msd-eztv/60%Monthly2019-02-05 16:08
http://eztv.show/114055/wos-wrestling-s01e02-720p-hdtv-x264-plutonium-eztv/60%Monthly2019-02-05 16:08
http://eztv.show/114053/the-bachelor-s23e05-web-h264-tbs-eztv/60%Monthly2019-02-05 16:07
http://eztv.show/114051/killing-time-s01e08-480p-x264-msd-eztv/60%Monthly2019-02-05 16:07
http://eztv.show/114052/wos-wrestling-s01e02-hdtv-x264-plutonium-eztv/60%Monthly2019-02-05 16:07
http://eztv.show/114050/lindsay-lohans-beach-club-s01e05-lindsays-choice-720p-hdtv-x264-crimson-eztv/60%Monthly2019-02-05 16:07
http://eztv.show/114049/manifest-s01e14-internal-720p-web-x264-bamboozle-eztv/60%Monthly2019-02-05 16:07
http://eztv.show/114048/americas-got-talent-s13e29-web-x264-tbs-eztv/60%Monthly2019-02-05 16:07
http://eztv.show/114047/killing-time-s01e02-480p-x264-msd-eztv/60%Monthly2019-02-05 16:07
http://eztv.show/114046/the-bachelor-s23e05-720p-web-h264-tbs-eztv/60%Monthly2019-02-05 16:07
http://eztv.show/114044/lindsay-lohans-beach-club-s01e05-lindsays-choice-hdtv-x264-crimson-eztv/60%Monthly2019-02-05 16:07
http://eztv.show/114045/busy-tonight-2019-02-04-nina-dobrev-web-x264-tbs-eztv/60%Monthly2019-02-05 16:07
http://eztv.show/114043/killing-time-s01e10-480p-x264-msd-eztv/60%Monthly2019-02-05 16:07
http://eztv.show/114042/james-corden-2019-02-04-laura-dern-web-x264-tbs-eztv/60%Monthly2019-02-05 16:07
http://eztv.show/114041/james-corden-2019-02-04-laura-dern-720p-web-x264-tbs-eztv/60%Monthly2019-02-05 16:07
http://eztv.show/114039/americas-got-talent-s13e29-720p-web-x264-tbs-eztv/60%Monthly2019-02-05 16:07
http://eztv.show/114040/busy-tonight-2019-02-04-nina-dobrev-720p-web-x264-tbs-eztv/60%Monthly2019-02-05 16:07
http://eztv.show/114038/manifest-s01e14-internal-480p-x264-msd-eztv/60%Monthly2019-02-05 16:07
http://eztv.show/114037/vanderpump-rules-s07e09-tom-and-tommer-hdtv-x264-crimson-eztv/60%Monthly2019-02-05 16:07
http://eztv.show/114036/vanderpump-rules-s07e09-tom-and-tommer-720p-hdtv-x264-crimson-eztv/60%Monthly2019-02-05 16:07
http://eztv.show/114035/lindsay-lohans-beach-club-s01e05-lindsays-choice-480p-x264-msd-eztv/60%Monthly2019-02-05 16:07
http://eztv.show/114034/killing-time-s01e06-480p-x264-msd-eztv/60%Monthly2019-02-05 16:07
http://eztv.show/114033/love-and-hip-hop-s09e10-crease-the-timbs-hdtv-x264-crimson-eztv/60%Monthly2019-02-05 16:07
http://eztv.show/114032/love-and-hip-hop-s09e10-crease-the-timbs-720p-hdtv-x264-crimson-eztv/60%Monthly2019-02-05 16:07
http://eztv.show/114031/killing-time-s01e07-480p-x264-msd-eztv/60%Monthly2019-02-05 16:07
http://eztv.show/114030/love-and-hip-hop-miami-s02e06-family-treason-720p-hdtv-x264-crimson-eztv/60%Monthly2019-02-05 16:07
http://eztv.show/114029/the-bachelor-s23e05-480p-x264-msd-eztv/60%Monthly2019-02-05 16:07
http://eztv.show/114028/killing-time-s01e04-480p-x264-msd-eztv/60%Monthly2019-02-05 16:07
http://eztv.show/114027/james-corden-2019-02-04-laura-dern-480p-x264-msd-eztv/60%Monthly2019-02-05 16:07
http://eztv.show/114026/vanderpump-rules-s07e09-tom-and-tommer-480p-x264-msd-eztv/60%Monthly2019-02-05 16:07
http://eztv.show/114025/fraud-squad-nhs-s01e02-hdtv-x264-plutonium-eztv/60%Monthly2019-02-05 16:07
http://eztv.show/114024/americas-got-talent-s13e29-480p-x264-msd-eztv/60%Monthly2019-02-05 16:07
http://eztv.show/114023/fraud-squad-nhs-s01e02-720p-hdtv-x264-plutonium-eztv/60%Monthly2019-02-05 16:07
http://eztv.show/114022/love-and-hip-hop-miami-s02e06-family-treason-480p-x264-msd-eztv/60%Monthly2019-02-05 16:07
http://eztv.show/114021/bull-2016-s03e13-prior-bad-acts-720p-amzn-web-dl-ddp5-1-h-264-ntb-eztv/60%Monthly2019-02-05 16:07
http://eztv.show/114020/busy-tonight-2019-02-04-nina-dobrev-480p-x264-msd-eztv/60%Monthly2019-02-05 16:07
http://eztv.show/114019/watch-what-happens-live-2019-02-04-james-kennedy-and-raquel-leviss-web-x264-tbs-eztv/60%Monthly2019-02-05 16:07
http://eztv.show/114018/love-and-hip-hop-s09e10-crease-the-timbs-480p-x264-msd-eztv/60%Monthly2019-02-05 16:07
http://eztv.show/114017/four-corners-s59e01-escape-from-saudi-720p-hdtv-x264-cbfm-eztv/60%Monthly2019-02-05 16:07
http://eztv.show/114016/watch-what-happens-live-2019-02-04-james-kennedy-and-raquel-leviss-720p-web-eztv/60%Monthly2019-02-05 16:07
http://eztv.show/114015/media-watch-2019-02-04-720p-hdtv-x264-cbfm-eztv/60%Monthly2019-02-05 16:07
http://eztv.show/114013/my-kitchen-rules-s10e06-hdtv-x264-fqm-eztv/60%Monthly2019-02-05 16:07
http://eztv.show/114014/my-kitchen-rules-s10e06-720p-hdtv-x264-orenji-eztv/60%Monthly2019-02-05 16:07
http://eztv.show/114012/back-roads-s04e15-720p-hdtv-x264-cbfm-eztv/60%Monthly2019-02-05 16:07
http://eztv.show/114011/fraud-squad-nhs-s01e02-480p-x264-msd-eztv/60%Monthly2019-02-05 16:07
http://eztv.show/114010/jimmy-fallon-2019-02-04-christoph-waltz-web-x264-tbs-eztv/60%Monthly2019-02-05 16:07
http://eztv.show/114009/my-kitchen-rules-s10e06-480p-x264-msd-eztv/60%Monthly2019-02-05 16:07
http://eztv.show/114008/four-corners-s59e01-escape-from-saudi-480p-x264-msd-eztv/60%Monthly2019-02-05 16:07
http://eztv.show/114007/the-passage-s01e04-720p-hdtv-x264-cravers-eztv/60%Monthly2019-02-05 16:07
http://eztv.show/114006/the-passage-s01e04-hdtv-x264-cravers-eztv/60%Monthly2019-02-05 16:07
http://eztv.show/114005/seth-meyers-2019-02-04-jake-tapper-web-x264-tbs-eztv/60%Monthly2019-02-05 16:07
http://eztv.show/114004/seth-meyers-2019-02-04-jake-tapper-720p-web-x264-tbs-eztv/60%Monthly2019-02-05 16:07
http://eztv.show/114003/seth-meyers-2019-02-04-jake-tapper-480p-x264-msd-eztv/60%Monthly2019-02-05 16:07
http://eztv.show/114002/carson-daly-2019-02-04-alex-mendez-web-x264-tbs-eztv/60%Monthly2019-02-05 16:07
http://eztv.show/114001/silent-witness-s22e09-betrayal-part-1-720p-amzn-web-dl-ddp5-1-h-264-ntb-eztv/60%Monthly2019-02-05 16:07
http://eztv.show/114000/carson-daly-2019-02-04-alex-mendez-720p-web-x264-tbs-eztv/60%Monthly2019-02-05 16:07
http://eztv.show/113999/wos-wrestling-s01e03-720p-hdtv-x264-plutonium-eztv/60%Monthly2019-02-05 16:07
http://eztv.show/113998/wos-wrestling-s01e03-hdtv-x264-plutonium-eztv/60%Monthly2019-02-05 16:07
http://eztv.show/113997/travel-guides-au-s03e01-hdtv-x264-cct-eztv/60%Monthly2019-02-05 16:06
http://eztv.show/113996/wos-wrestling-s01e03-480p-x264-msd-eztv/60%Monthly2019-02-05 16:06
http://eztv.show/113995/travel-guides-au-s03e01-480p-x264-msd-eztv/60%Monthly2019-02-05 16:06
http://eztv.show/113994/jimmy-kimmel-2019-02-04-david-spade-web-x264-cookiemonster-eztv/60%Monthly2019-02-05 16:06
http://eztv.show/113993/jimmy-kimmel-2019-02-04-david-spade-720p-web-x264-cookiemonster-eztv/60%Monthly2019-02-05 16:06
http://eztv.show/113992/the-resident-s02e13-virtually-impossible-720p-amzn-web-dl-ddp5-1-h-264-kings-eztv/60%Monthly2019-02-05 16:06
http://eztv.show/113991/jimmy-kimmel-2019-02-04-david-spade-480p-x264-msd-eztv/60%Monthly2019-02-05 16:06
http://eztv.show/113990/cops-s31e15-720p-web-x264-cookiemonster-eztv/60%Monthly2019-02-05 16:06
http://eztv.show/113989/manifest-s01e14-upgrade-720p-amzn-web-dl-dd5-1-h-264-ajp69-eztv/60%Monthly2019-02-05 16:06
http://eztv.show/113988/cops-s31e15-web-x264-cookiemonster-eztv/60%Monthly2019-02-05 16:06
http://eztv.show/113987/cops-s31e15-480p-x264-msd-eztv/60%Monthly2019-02-05 16:06
http://eztv.show/113986/moving-on-s10e02-720p-hdtv-x264-mtb-eztv/60%Monthly2019-02-05 16:06
http://eztv.show/113985/moving-on-s10e02-hdtv-x264-mtb-eztv/60%Monthly2019-02-05 16:06
http://eztv.show/113984/this-is-not-happening-2015-s04e11-web-x264-cookiemonster-eztv/60%Monthly2019-02-05 16:06
http://eztv.show/113983/dororo-s01e05-the-story-of-the-moriko-song-part-one-720p-web-h264-uranime-eztv/60%Monthly2019-02-05 16:06
http://eztv.show/113982/dororo-s01e05-the-story-of-the-moriko-song-part-one-web-h264-uranime-eztv/60%Monthly2019-02-05 16:06
http://eztv.show/113981/dororo-s01e05-the-story-of-the-moriko-song-part-one-480p-x264-msd-eztv/60%Monthly2019-02-05 16:06
http://eztv.show/113980/the-best-thing-i-ever-ate-s09e05-trigger-foods-webrip-x264-kompost-eztv/60%Monthly2019-02-05 16:06
http://eztv.show/113979/the-best-thing-i-ever-ate-s09e05-trigger-foods-720p-webrip-x264-kompost-eztv/60%Monthly2019-02-05 16:06
http://eztv.show/113978/the-best-thing-i-ever-ate-s09e07-on-a-date-webrip-x264-kompost-eztv/60%Monthly2019-02-05 16:06
http://eztv.show/113977/the-best-thing-i-ever-ate-s09e07-on-a-date-720p-webrip-x264-kompost-eztv/60%Monthly2019-02-05 16:06
http://eztv.show/113976/the-best-thing-i-ever-ate-s09e05-trigger-foods-480p-x264-msd-eztv/60%Monthly2019-02-05 16:06
http://eztv.show/113975/the-best-thing-i-ever-ate-s09e07-on-a-date-480p-x264-msd-eztv/60%Monthly2019-02-05 16:06
http://eztv.show/113974/barefoot-contessa-s14e06-international-pasta-720p-hdtv-x264-w4f-eztv/60%Monthly2019-02-05 16:06
http://eztv.show/113973/barefoot-contessa-s14e06-international-pasta-hdtv-x264-w4f-eztv/60%Monthly2019-02-05 16:06
http://eztv.show/113972/barefoot-contessa-s22e05-potluck-party-hdtv-x264-w4f-eztv/60%Monthly2019-02-05 16:06
http://eztv.show/113971/beat-bobby-flay-s19e03-game-on-720p-hdtv-x264-w4f-eztv/60%Monthly2019-02-05 16:06
http://eztv.show/113970/beat-bobby-flay-s19e03-game-on-hdtv-x264-w4f-eztv/60%Monthly2019-02-05 16:06
http://eztv.show/113969/beat-bobby-flay-s19e04-old-friends-720p-hdtv-x264-w4f-eztv/60%Monthly2019-02-05 16:06
http://eztv.show/113968/beat-bobby-flay-s19e04-old-friends-hdtv-x264-w4f-eztv/60%Monthly2019-02-05 16:06
http://eztv.show/113967/tigtone-s01e07-hdtv-x264-mindthegap-eztv/60%Monthly2019-02-05 16:06
http://eztv.show/113966/tigtone-s01e08-720p-hdtv-x264-mindthegap-eztv/60%Monthly2019-02-05 16:06
http://eztv.show/113965/barefoot-contessa-s14e06-international-pasta-480p-x264-msd-eztv/60%Monthly2019-02-05 16:06
http://eztv.show/113964/grave-mysteries-s02e02-mother-gone-missing-720p-webrip-x264-caffeine-eztv/60%Monthly2019-02-05 16:06
http://eztv.show/113963/grave-mysteries-s02e02-mother-gone-missing-webrip-x264-caffeine-eztv/60%Monthly2019-02-05 16:06
http://eztv.show/113962/cops-s31e18-hdtv-x264-w4f-eztv/60%Monthly2019-02-05 16:06
http://eztv.show/113961/cops-s31e18-720p-hdtv-x264-w4f-eztv/60%Monthly2019-02-05 16:06
http://eztv.show/113960/cops-s31e18-480p-x264-msd-eztv/60%Monthly2019-02-05 16:06
http://eztv.show/113959/back-roads-s04e15-480p-x264-msd-eztv/60%Monthly2019-02-05 16:06
http://eztv.show/113958/building-off-the-grid-s06e05-rocky-mountain-homestead-720p-web-x264-caffeine-eztv/60%Monthly2019-02-05 16:06
http://eztv.show/113956/grave-mysteries-s02e02-mother-gone-missing-480p-x264-msd-eztv/60%Monthly2019-02-05 16:06
http://eztv.show/113957/building-off-the-grid-s06e05-rocky-mountain-homestead-web-x264-caffeine-eztv/60%Monthly2019-02-05 16:06
http://eztv.show/113955/violet-evergarden-s01e14-oav-special-web-x264-tvslices-eztv/60%Monthly2019-02-05 16:06
http://eztv.show/113954/violet-evergarden-s01e14-oav-special-720p-web-x264-tvslices-eztv/60%Monthly2019-02-05 16:06
http://eztv.show/113953/building-off-the-grid-s06e05-rocky-mountain-homestead-480p-x264-msd-eztv/60%Monthly2019-02-05 16:06
http://eztv.show/113952/ryan-hansen-solves-crimes-on-television-s01e01-web-h264-oldseasons-eztv/60%Monthly2019-02-05 16:06
http://eztv.show/113951/ryan-hansen-solves-crimes-on-television-s01e01-720p-web-h264-oldseasons-eztv/60%Monthly2019-02-05 16:06
http://eztv.show/113950/ryan-hansen-solves-crimes-on-television-s01e02-web-h264-oldseasons-eztv/60%Monthly2019-02-05 16:06
http://eztv.show/113949/ryan-hansen-solves-crimes-on-television-s01e02-720p-web-h264-oldseasons-eztv/60%Monthly2019-02-05 16:06
http://eztv.show/113948/ryan-hansen-solves-crimes-on-television-s01e03-web-h264-oldseasons-eztv/60%Monthly2019-02-05 16:06
http://eztv.show/113947/ryan-hansen-solves-crimes-on-television-s01e04-web-h264-oldseasons-eztv/60%Monthly2019-02-05 16:06
http://eztv.show/113946/ryan-hansen-solves-crimes-on-television-s01e05-web-h264-oldseasons-eztv/60%Monthly2019-02-05 16:06
http://eztv.show/113945/christopher-kimballs-milk-street-television-s02e14-the-japanese-quick-cook-eztv/60%Monthly2019-02-05 16:06
http://eztv.show/113944/ryan-hansen-solves-crimes-on-television-s01e04-720p-web-h264-oldseasons-eztv/60%Monthly2019-02-05 16:05
http://eztv.show/113943/ryan-hansen-solves-crimes-on-television-s01e05-720p-web-h264-oldseasons-eztv/60%Monthly2019-02-05 16:05
http://eztv.show/113942/ryan-hansen-solves-crimes-on-television-s01e08-web-h264-oldseasons-eztv/60%Monthly2019-02-05 16:05
http://eztv.show/113941/ryan-hansen-solves-crimes-on-television-s01e06-720p-web-h264-oldseasons-eztv/60%Monthly2019-02-05 16:05
http://eztv.show/113940/ryan-hansen-solves-crimes-on-television-s01e07-web-h264-oldseasons-eztv/60%Monthly2019-02-05 16:05
http://eztv.show/113939/ryan-hansen-solves-crimes-on-television-s01e06-web-h264-oldseasons-eztv/60%Monthly2019-02-05 16:05
http://eztv.show/113938/ryan-hansen-solves-crimes-on-television-s01e03-720p-web-h264-oldseasons-eztv/60%Monthly2019-02-05 16:05
http://eztv.show/113937/ryan-hansen-solves-crimes-on-television-s01e07-720p-web-h264-oldseasons-eztv/60%Monthly2019-02-05 16:05
http://eztv.show/113936/ryan-hansen-solves-crimes-on-television-s01e08-720p-web-h264-oldseasons-eztv/60%Monthly2019-02-05 16:05
http://eztv.show/113935/violet-evergarden-s01e14-oav-special-480p-x264-msd-eztv/60%Monthly2019-02-05 16:05
http://eztv.show/113934/windy-city-rehab-s01e07-historical-headache-web-x264-caffeine-eztv/60%Monthly2019-02-05 16:05
http://eztv.show/113933/windy-city-rehab-s01e07-historical-headache-720p-web-x264-caffeine-eztv/60%Monthly2019-02-05 16:05
http://eztv.show/113932/squemish-s01e02-web-x264-multiply-eztv/60%Monthly2019-02-05 16:05
http://eztv.show/113931/squemish-s01e03-web-x264-multiply-eztv/60%Monthly2019-02-05 16:05
http://eztv.show/113930/squemish-s01e05-web-x264-multiply-eztv/60%Monthly2019-02-05 16:05
http://eztv.show/113929/squemish-s01e06-web-x264-multiply-eztv/60%Monthly2019-02-05 16:05
http://eztv.show/113928/ryan-hansen-solves-crimes-on-television-s01e07-480p-x264-msd-eztv/60%Monthly2019-02-05 16:05
http://eztv.show/113927/squemish-s01e07-web-x264-multiply-eztv/60%Monthly2019-02-05 16:05
http://eztv.show/113926/squemish-s01e08-web-x264-multiply-eztv/60%Monthly2019-02-05 16:05
http://eztv.show/113925/squemish-s01e09-web-x264-multiply-eztv/60%Monthly2019-02-05 16:05
http://eztv.show/113924/squemish-s01e10-web-x264-multiply-eztv/60%Monthly2019-02-05 16:05
http://eztv.show/113923/chopped-s40e13-three-cheers-for-chocolate-720p-webrip-x264-caffeine-eztv/60%Monthly2019-02-05 16:05
http://eztv.show/113922/ryan-hansen-solves-crimes-on-television-s01e01-480p-x264-msd-eztv/60%Monthly2019-02-05 16:05
http://eztv.show/113921/chopped-s40e13-three-cheers-for-chocolate-webrip-x264-caffeine-eztv/60%Monthly2019-02-05 16:05
http://eztv.show/113920/call-the-cleaners-s02e01-720p-hdtv-x264-creed-eztv/60%Monthly2019-02-05 16:05
http://eztv.show/113919/squemish-s01e11-web-x264-multiply-eztv/60%Monthly2019-02-05 16:05
http://eztv.show/113918/squemish-s01e12-web-x264-multiply-eztv/60%Monthly2019-02-05 16:05
http://eztv.show/113917/ryan-hansen-solves-crimes-on-television-s01e08-480p-x264-msd-eztv/60%Monthly2019-02-05 16:05
http://eztv.show/113916/windy-city-rehab-s01e07-historical-headache-480p-x264-msd-eztv/60%Monthly2019-02-05 16:05
http://eztv.show/113915/holby-city-s21e06-force-majeure-720p-hdtv-x264-organic-eztv/60%Monthly2019-02-05 16:05
http://eztv.show/113914/holby-city-s21e06-720p-hdtv-x264-angelic-eztv/60%Monthly2019-02-05 16:05